<?xml version="1.0" encoding="UTF-8"?>
<gpx version="1.1" creator="https://www.youtrack.es" xsi:schemaLocation="http://www.topografix.com/GPX/1/1 http://www.topografix.com/GPX/1/1/gpx.xsd http://www.garmin.com/xmlschemas/GpxExtensions/v3 http://www.garmin.com/xmlschemas/GpxExtensionsv3.xsd http://www.garmin.com/xmlschemas/TrackPointExtension/v1 http://www.garmin.com/xmlschemas/TrackPointExtensionv1.xsd" xmlns:gpxtpx="http://www.garmin.com/xmlschemas/TrackPointExtension/v1" xmlns:gpxx="http://www.garmin.com/xmlschemas/GpxExtensions/v3" xmlns:xsi="http://www.w3.org/2001/XMLSchema-instance">
  <metadata>
    <link href="https://www.youtrack.es">
      <text>YouTrack.es</text>
    </link>
    <time>2026-05-09T01:30:40Z</time>
  </metadata>
  <trk>
    <src>https://www.youtrack.es</src>
    <link href="https://www.youtrack.es/ruta/35905-gr-228-anilloverdebilbao">
      <text>YouTrack.es</text>
    </link>
    <trkseg>
      <trkpt lat="43.267821" lon="-2.949437">
        <ele>4.0</ele>
        <time>2019-06-27T07:30:31Z</time>
      </trkpt>
      <trkpt lat="43.267891" lon="-2.949342">
        <ele>4.0</ele>
        <time>2019-06-27T07:30:31Z</time>
      </trkpt>
      <trkpt lat="43.267942" lon="-2.949241">
        <ele>4.0</ele>
        <time>2019-06-27T07:30:31Z</time>
      </trkpt>
      <trkpt lat="43.267947" lon="-2.949103">
        <ele>4.0</ele>
        <time>2019-06-27T07:30:31Z</time>
      </trkpt>
      <trkpt lat="43.268020" lon="-2.949101">
        <ele>4.0</ele>
        <time>2019-06-27T07:30:31Z</time>
      </trkpt>
      <trkpt lat="43.268092" lon="-2.949108">
        <ele>4.0</ele>
        <time>2019-06-27T07:30:31Z</time>
      </trkpt>
      <trkpt lat="43.268165" lon="-2.949115">
        <ele>4.0</ele>
        <time>2019-06-27T07:30:31Z</time>
      </trkpt>
      <trkpt lat="43.268198" lon="-2.949187">
        <ele>4.0</ele>
        <time>2019-06-27T07:30:31Z</time>
      </trkpt>
      <trkpt lat="43.268179" lon="-2.949282">
        <ele>4.0</ele>
        <time>2019-06-27T07:30:31Z</time>
      </trkpt>
      <trkpt lat="43.268154" lon="-2.949373">
        <ele>4.0</ele>
        <time>2019-06-27T07:30:31Z</time>
      </trkpt>
      <trkpt lat="43.268150" lon="-2.949500">
        <ele>4.0</ele>
        <time>2019-06-27T07:30:31Z</time>
      </trkpt>
      <trkpt lat="43.268145" lon="-2.949630">
        <ele>4.0</ele>
        <time>2019-06-27T07:30:31Z</time>
      </trkpt>
      <trkpt lat="43.268141" lon="-2.949761">
        <ele>4.0</ele>
        <time>2019-06-27T07:30:31Z</time>
      </trkpt>
      <trkpt lat="43.268137" lon="-2.949892">
        <ele>4.0</ele>
        <time>2019-06-27T07:30:31Z</time>
      </trkpt>
      <trkpt lat="43.268133" lon="-2.950026">
        <ele>3.9</ele>
        <time>2019-06-27T07:30:31Z</time>
      </trkpt>
      <trkpt lat="43.268129" lon="-2.950159">
        <ele>3.9</ele>
        <time>2019-06-27T07:30:31Z</time>
      </trkpt>
      <trkpt lat="43.268125" lon="-2.950293">
        <ele>3.8</ele>
        <time>2019-06-27T07:30:31Z</time>
      </trkpt>
      <trkpt lat="43.268123" lon="-2.950428">
        <ele>3.7</ele>
        <time>2019-06-27T07:30:31Z</time>
      </trkpt>
      <trkpt lat="43.268127" lon="-2.950567">
        <ele>3.8</ele>
        <time>2019-06-27T07:30:31Z</time>
      </trkpt>
      <trkpt lat="43.268129" lon="-2.950702">
        <ele>3.9</ele>
        <time>2019-06-27T07:30:31Z</time>
      </trkpt>
      <trkpt lat="43.268132" lon="-2.950838">
        <ele>3.9</ele>
        <time>2019-06-27T07:30:31Z</time>
      </trkpt>
      <trkpt lat="43.268136" lon="-2.950973">
        <ele>4.0</ele>
        <time>2019-06-27T07:30:31Z</time>
      </trkpt>
      <trkpt lat="43.268139" lon="-2.951108">
        <ele>4.0</ele>
        <time>2019-06-27T07:30:31Z</time>
      </trkpt>
      <trkpt lat="43.268143" lon="-2.951243">
        <ele>4.0</ele>
        <time>2019-06-27T07:30:31Z</time>
      </trkpt>
      <trkpt lat="43.268185" lon="-2.951324">
        <ele>3.1</ele>
        <time>2019-06-27T07:30:31Z</time>
      </trkpt>
      <trkpt lat="43.268202" lon="-2.951433">
        <ele>3.0</ele>
        <time>2019-06-27T07:30:31Z</time>
      </trkpt>
      <trkpt lat="43.268176" lon="-2.951516">
        <ele>3.0</ele>
        <time>2019-06-27T07:30:31Z</time>
      </trkpt>
      <trkpt lat="43.268155" lon="-2.951598">
        <ele>3.0</ele>
        <time>2019-06-27T07:30:31Z</time>
      </trkpt>
      <trkpt lat="43.268171" lon="-2.951749">
        <ele>3.0</ele>
        <time>2019-06-27T07:30:31Z</time>
      </trkpt>
      <trkpt lat="43.268187" lon="-2.951900">
        <ele>3.0</ele>
        <time>2019-06-27T07:30:31Z</time>
      </trkpt>
      <trkpt lat="43.268203" lon="-2.952051">
        <ele>3.0</ele>
        <time>2019-06-27T07:30:31Z</time>
      </trkpt>
      <trkpt lat="43.268221" lon="-2.952211">
        <ele>3.0</ele>
        <time>2019-06-27T07:30:31Z</time>
      </trkpt>
      <trkpt lat="43.268238" lon="-2.952373">
        <ele>3.0</ele>
        <time>2019-06-27T07:30:31Z</time>
      </trkpt>
      <trkpt lat="43.268261" lon="-2.952534">
        <ele>3.0</ele>
        <time>2019-06-27T07:30:31Z</time>
      </trkpt>
      <trkpt lat="43.268283" lon="-2.952695">
        <ele>3.0</ele>
        <time>2019-06-27T07:30:31Z</time>
      </trkpt>
      <trkpt lat="43.268306" lon="-2.952856">
        <ele>3.0</ele>
        <time>2019-06-27T07:30:31Z</time>
      </trkpt>
      <trkpt lat="43.268328" lon="-2.953018">
        <ele>3.0</ele>
        <time>2019-06-27T07:30:31Z</time>
      </trkpt>
      <trkpt lat="43.268360" lon="-2.953174">
        <ele>3.0</ele>
        <time>2019-06-27T07:30:31Z</time>
      </trkpt>
      <trkpt lat="43.268391" lon="-2.953331">
        <ele>3.0</ele>
        <time>2019-06-27T07:30:31Z</time>
      </trkpt>
      <trkpt lat="43.268422" lon="-2.953488">
        <ele>3.0</ele>
        <time>2019-06-27T07:30:31Z</time>
      </trkpt>
      <trkpt lat="43.268453" lon="-2.953645">
        <ele>3.0</ele>
        <time>2019-06-27T07:30:31Z</time>
      </trkpt>
      <trkpt lat="43.268488" lon="-2.953777">
        <ele>3.1</ele>
        <time>2019-06-27T07:30:31Z</time>
      </trkpt>
      <trkpt lat="43.268539" lon="-2.953808">
        <ele>3.9</ele>
        <time>2019-06-27T07:30:31Z</time>
      </trkpt>
      <trkpt lat="43.268565" lon="-2.953933">
        <ele>3.5</ele>
        <time>2019-06-27T07:30:31Z</time>
      </trkpt>
      <trkpt lat="43.268541" lon="-2.954023">
        <ele>3.0</ele>
        <time>2019-06-27T07:30:31Z</time>
      </trkpt>
      <trkpt lat="43.268564" lon="-2.954136">
        <ele>3.5</ele>
        <time>2019-06-27T07:30:31Z</time>
      </trkpt>
      <trkpt lat="43.268593" lon="-2.954255">
        <ele>4.0</ele>
        <time>2019-06-27T07:30:31Z</time>
      </trkpt>
      <trkpt lat="43.268629" lon="-2.954374">
        <ele>4.0</ele>
        <time>2019-06-27T07:30:31Z</time>
      </trkpt>
      <trkpt lat="43.268665" lon="-2.954503">
        <ele>4.0</ele>
        <time>2019-06-27T07:30:31Z</time>
      </trkpt>
      <trkpt lat="43.268702" lon="-2.954632">
        <ele>4.0</ele>
        <time>2019-06-27T07:30:31Z</time>
      </trkpt>
      <trkpt lat="43.268738" lon="-2.954762">
        <ele>4.0</ele>
        <time>2019-06-27T07:30:31Z</time>
      </trkpt>
      <trkpt lat="43.268797" lon="-2.954865">
        <ele>4.0</ele>
        <time>2019-06-27T07:30:31Z</time>
      </trkpt>
      <trkpt lat="43.268834" lon="-2.954988">
        <ele>4.0</ele>
        <time>2019-06-27T07:30:31Z</time>
      </trkpt>
      <trkpt lat="43.268876" lon="-2.955112">
        <ele>4.0</ele>
        <time>2019-06-27T07:30:31Z</time>
      </trkpt>
      <trkpt lat="43.268919" lon="-2.955235">
        <ele>4.0</ele>
        <time>2019-06-27T07:30:31Z</time>
      </trkpt>
      <trkpt lat="43.268961" lon="-2.955363">
        <ele>4.0</ele>
        <time>2019-06-27T07:30:31Z</time>
      </trkpt>
      <trkpt lat="43.269002" lon="-2.955493">
        <ele>4.0</ele>
        <time>2019-06-27T07:30:31Z</time>
      </trkpt>
      <trkpt lat="43.269044" lon="-2.955626">
        <ele>4.0</ele>
        <time>2019-06-27T07:30:31Z</time>
      </trkpt>
      <trkpt lat="43.269101" lon="-2.955727">
        <ele>4.0</ele>
        <time>2019-06-27T07:30:31Z</time>
      </trkpt>
      <trkpt lat="43.269169" lon="-2.955788">
        <ele>4.0</ele>
        <time>2019-06-27T07:30:31Z</time>
      </trkpt>
      <trkpt lat="43.269245" lon="-2.955837">
        <ele>4.0</ele>
        <time>2019-06-27T07:30:31Z</time>
      </trkpt>
      <trkpt lat="43.269338" lon="-2.955869">
        <ele>4.0</ele>
        <time>2019-06-27T07:30:31Z</time>
      </trkpt>
      <trkpt lat="43.269431" lon="-2.955900">
        <ele>4.0</ele>
        <time>2019-06-27T07:30:31Z</time>
      </trkpt>
      <trkpt lat="43.269524" lon="-2.955932">
        <ele>4.1</ele>
        <time>2019-06-27T07:30:31Z</time>
      </trkpt>
      <trkpt lat="43.269624" lon="-2.955933">
        <ele>7.8</ele>
        <time>2019-06-27T07:30:31Z</time>
      </trkpt>
      <trkpt lat="43.269724" lon="-2.955934">
        <ele>8.8</ele>
        <time>2019-06-27T07:30:31Z</time>
      </trkpt>
      <trkpt lat="43.269825" lon="-2.955936">
        <ele>9.0</ele>
        <time>2019-06-27T07:30:31Z</time>
      </trkpt>
      <trkpt lat="43.269927" lon="-2.955941">
        <ele>9.8</ele>
        <time>2019-06-27T07:30:31Z</time>
      </trkpt>
      <trkpt lat="43.270030" lon="-2.955947">
        <ele>10.1</ele>
        <time>2019-06-27T07:30:31Z</time>
      </trkpt>
      <trkpt lat="43.270132" lon="-2.955952">
        <ele>11.0</ele>
        <time>2019-06-27T07:30:31Z</time>
      </trkpt>
      <trkpt lat="43.270234" lon="-2.955958">
        <ele>11.7</ele>
        <time>2019-06-27T07:30:31Z</time>
      </trkpt>
      <trkpt lat="43.270337" lon="-2.955963">
        <ele>12.8</ele>
        <time>2019-06-27T07:30:31Z</time>
      </trkpt>
      <trkpt lat="43.270439" lon="-2.955969">
        <ele>13.5</ele>
        <time>2019-06-27T07:30:31Z</time>
      </trkpt>
      <trkpt lat="43.270542" lon="-2.955974">
        <ele>14.2</ele>
        <time>2019-06-27T07:30:31Z</time>
      </trkpt>
      <trkpt lat="43.270644" lon="-2.955980">
        <ele>15.0</ele>
        <time>2019-06-27T07:30:31Z</time>
      </trkpt>
      <trkpt lat="43.270668" lon="-2.956092">
        <ele>15.0</ele>
        <time>2019-06-27T07:30:31Z</time>
      </trkpt>
      <trkpt lat="43.270668" lon="-2.956233">
        <ele>15.0</ele>
        <time>2019-06-27T07:30:31Z</time>
      </trkpt>
      <trkpt lat="43.270691" lon="-2.956292">
        <ele>15.0</ele>
        <time>2019-06-27T07:30:31Z</time>
      </trkpt>
      <trkpt lat="43.270798" lon="-2.956299">
        <ele>15.0</ele>
        <time>2019-06-27T07:30:31Z</time>
      </trkpt>
      <trkpt lat="43.270808" lon="-2.956191">
        <ele>15.3</ele>
        <time>2019-06-27T07:30:31Z</time>
      </trkpt>
      <trkpt lat="43.270818" lon="-2.956083">
        <ele>15.5</ele>
        <time>2019-06-27T07:30:31Z</time>
      </trkpt>
      <trkpt lat="43.270821" lon="-2.955962">
        <ele>15.6</ele>
        <time>2019-06-27T07:30:31Z</time>
      </trkpt>
      <trkpt lat="43.270824" lon="-2.955841">
        <ele>15.3</ele>
        <time>2019-06-27T07:30:31Z</time>
      </trkpt>
      <trkpt lat="43.270828" lon="-2.955720">
        <ele>15.0</ele>
        <time>2019-06-27T07:30:31Z</time>
      </trkpt>
      <trkpt lat="43.270831" lon="-2.955599">
        <ele>15.0</ele>
        <time>2019-06-27T07:30:31Z</time>
      </trkpt>
      <trkpt lat="43.270881" lon="-2.955538">
        <ele>15.0</ele>
        <time>2019-06-27T07:30:31Z</time>
      </trkpt>
      <trkpt lat="43.270969" lon="-2.955545">
        <ele>15.5</ele>
        <time>2019-06-27T07:30:31Z</time>
      </trkpt>
      <trkpt lat="43.271056" lon="-2.955552">
        <ele>15.7</ele>
        <time>2019-06-27T07:30:31Z</time>
      </trkpt>
      <trkpt lat="43.271144" lon="-2.955559">
        <ele>18.1</ele>
        <time>2019-06-27T07:30:31Z</time>
      </trkpt>
      <trkpt lat="43.271231" lon="-2.955566">
        <ele>19.9</ele>
        <time>2019-06-27T07:30:31Z</time>
      </trkpt>
      <trkpt lat="43.271319" lon="-2.955573">
        <ele>20.8</ele>
        <time>2019-06-27T07:30:31Z</time>
      </trkpt>
      <trkpt lat="43.271406" lon="-2.955580">
        <ele>20.8</ele>
        <time>2019-06-27T07:30:31Z</time>
      </trkpt>
      <trkpt lat="43.271504" lon="-2.955587">
        <ele>21.6</ele>
        <time>2019-06-27T07:30:31Z</time>
      </trkpt>
      <trkpt lat="43.271601" lon="-2.955595">
        <ele>22.0</ele>
        <time>2019-06-27T07:30:31Z</time>
      </trkpt>
      <trkpt lat="43.271706" lon="-2.955603">
        <ele>22.8</ele>
        <time>2019-06-27T07:30:31Z</time>
      </trkpt>
      <trkpt lat="43.271812" lon="-2.955612">
        <ele>23.9</ele>
        <time>2019-06-27T07:30:31Z</time>
      </trkpt>
      <trkpt lat="43.271923" lon="-2.955616">
        <ele>26.9</ele>
        <time>2019-06-27T07:30:31Z</time>
      </trkpt>
      <trkpt lat="43.272033" lon="-2.955620">
        <ele>30.4</ele>
        <time>2019-06-27T07:30:31Z</time>
      </trkpt>
      <trkpt lat="43.272144" lon="-2.955624">
        <ele>32.9</ele>
        <time>2019-06-27T07:30:31Z</time>
      </trkpt>
      <trkpt lat="43.272255" lon="-2.955628">
        <ele>34.4</ele>
        <time>2019-06-27T07:30:31Z</time>
      </trkpt>
      <trkpt lat="43.272334" lon="-2.955660">
        <ele>35.0</ele>
        <time>2019-06-27T07:30:31Z</time>
      </trkpt>
      <trkpt lat="43.272428" lon="-2.955726">
        <ele>35.0</ele>
        <time>2019-06-27T07:30:31Z</time>
      </trkpt>
      <trkpt lat="43.272522" lon="-2.955793">
        <ele>35.0</ele>
        <time>2019-06-27T07:30:31Z</time>
      </trkpt>
      <trkpt lat="43.272616" lon="-2.955859">
        <ele>34.9</ele>
        <time>2019-06-27T07:30:31Z</time>
      </trkpt>
      <trkpt lat="43.272702" lon="-2.955911">
        <ele>34.2</ele>
        <time>2019-06-27T07:30:31Z</time>
      </trkpt>
      <trkpt lat="43.272726" lon="-2.955870">
        <ele>32.9</ele>
        <time>2019-06-27T07:30:31Z</time>
      </trkpt>
      <trkpt lat="43.272693" lon="-2.955800">
        <ele>32.4</ele>
        <time>2019-06-27T07:30:31Z</time>
      </trkpt>
      <trkpt lat="43.272665" lon="-2.955705">
        <ele>31.3</ele>
        <time>2019-06-27T07:30:31Z</time>
      </trkpt>
      <trkpt lat="43.272685" lon="-2.955621">
        <ele>30.0</ele>
        <time>2019-06-27T07:30:31Z</time>
      </trkpt>
      <trkpt lat="43.272677" lon="-2.955504">
        <ele>30.2</ele>
        <time>2019-06-27T07:30:31Z</time>
      </trkpt>
      <trkpt lat="43.272680" lon="-2.955367">
        <ele>30.1</ele>
        <time>2019-06-27T07:30:31Z</time>
      </trkpt>
      <trkpt lat="43.272711" lon="-2.955214">
        <ele>30.3</ele>
        <time>2019-06-27T07:30:31Z</time>
      </trkpt>
      <trkpt lat="43.272723" lon="-2.955058">
        <ele>29.2</ele>
        <time>2019-06-27T07:30:31Z</time>
      </trkpt>
      <trkpt lat="43.272705" lon="-2.954921">
        <ele>29.3</ele>
        <time>2019-06-27T07:30:31Z</time>
      </trkpt>
      <trkpt lat="43.272768" lon="-2.954874">
        <ele>28.8</ele>
        <time>2019-06-27T07:30:31Z</time>
      </trkpt>
      <trkpt lat="43.272838" lon="-2.954822">
        <ele>28.0</ele>
        <time>2019-06-27T07:30:31Z</time>
      </trkpt>
      <trkpt lat="43.272913" lon="-2.954771">
        <ele>29.0</ele>
        <time>2019-06-27T07:30:31Z</time>
      </trkpt>
      <trkpt lat="43.272957" lon="-2.954858">
        <ele>29.0</ele>
        <time>2019-06-27T07:30:31Z</time>
      </trkpt>
      <trkpt lat="43.273018" lon="-2.954936">
        <ele>29.9</ele>
        <time>2019-06-27T07:30:31Z</time>
      </trkpt>
      <trkpt lat="43.273102" lon="-2.954988">
        <ele>30.3</ele>
        <time>2019-06-27T07:30:31Z</time>
      </trkpt>
      <trkpt lat="43.273194" lon="-2.954985">
        <ele>31.0</ele>
        <time>2019-06-27T07:30:31Z</time>
      </trkpt>
      <trkpt lat="43.273281" lon="-2.954944">
        <ele>32.0</ele>
        <time>2019-06-27T07:30:31Z</time>
      </trkpt>
      <trkpt lat="43.273365" lon="-2.954899">
        <ele>32.1</ele>
        <time>2019-06-27T07:30:31Z</time>
      </trkpt>
      <trkpt lat="43.273448" lon="-2.954847">
        <ele>33.0</ele>
        <time>2019-06-27T07:30:31Z</time>
      </trkpt>
      <trkpt lat="43.273531" lon="-2.954796">
        <ele>34.0</ele>
        <time>2019-06-27T07:30:31Z</time>
      </trkpt>
      <trkpt lat="43.273612" lon="-2.954739">
        <ele>34.8</ele>
        <time>2019-06-27T07:30:31Z</time>
      </trkpt>
      <trkpt lat="43.273693" lon="-2.954682">
        <ele>35.0</ele>
        <time>2019-06-27T07:30:31Z</time>
      </trkpt>
      <trkpt lat="43.273674" lon="-2.954570">
        <ele>35.0</ele>
        <time>2019-06-27T07:30:31Z</time>
      </trkpt>
      <trkpt lat="43.273635" lon="-2.954466">
        <ele>35.0</ele>
        <time>2019-06-27T07:30:31Z</time>
      </trkpt>
      <trkpt lat="43.273592" lon="-2.954361">
        <ele>35.0</ele>
        <time>2019-06-27T07:30:31Z</time>
      </trkpt>
      <trkpt lat="43.273560" lon="-2.954231">
        <ele>35.0</ele>
        <time>2019-06-27T07:30:31Z</time>
      </trkpt>
      <trkpt lat="43.273517" lon="-2.954122">
        <ele>35.0</ele>
        <time>2019-06-27T07:30:31Z</time>
      </trkpt>
      <trkpt lat="43.273473" lon="-2.954013">
        <ele>35.0</ele>
        <time>2019-06-27T07:30:31Z</time>
      </trkpt>
      <trkpt lat="43.273426" lon="-2.953878">
        <ele>35.0</ele>
        <time>2019-06-27T07:30:31Z</time>
      </trkpt>
      <trkpt lat="43.273378" lon="-2.953744">
        <ele>35.0</ele>
        <time>2019-06-27T07:30:31Z</time>
      </trkpt>
      <trkpt lat="43.273333" lon="-2.953607">
        <ele>35.0</ele>
        <time>2019-06-27T07:30:31Z</time>
      </trkpt>
      <trkpt lat="43.273287" lon="-2.953470">
        <ele>35.4</ele>
        <time>2019-06-27T07:30:31Z</time>
      </trkpt>
      <trkpt lat="43.273241" lon="-2.953333">
        <ele>35.5</ele>
        <time>2019-06-27T07:30:31Z</time>
      </trkpt>
      <trkpt lat="43.273198" lon="-2.953220">
        <ele>35.5</ele>
        <time>2019-06-27T07:30:31Z</time>
      </trkpt>
      <trkpt lat="43.273253" lon="-2.953151">
        <ele>36.0</ele>
        <time>2019-06-27T07:30:31Z</time>
      </trkpt>
      <trkpt lat="43.273336" lon="-2.953118">
        <ele>36.0</ele>
        <time>2019-06-27T07:30:31Z</time>
      </trkpt>
      <trkpt lat="43.273388" lon="-2.953223">
        <ele>36.0</ele>
        <time>2019-06-27T07:30:31Z</time>
      </trkpt>
      <trkpt lat="43.273430" lon="-2.953355">
        <ele>35.4</ele>
        <time>2019-06-27T07:30:31Z</time>
      </trkpt>
      <trkpt lat="43.273472" lon="-2.953487">
        <ele>35.0</ele>
        <time>2019-06-27T07:30:31Z</time>
      </trkpt>
      <trkpt lat="43.273524" lon="-2.953611">
        <ele>35.0</ele>
        <time>2019-06-27T07:30:31Z</time>
      </trkpt>
      <trkpt lat="43.273575" lon="-2.953701">
        <ele>35.0</ele>
        <time>2019-06-27T07:30:31Z</time>
      </trkpt>
      <trkpt lat="43.273641" lon="-2.953737">
        <ele>35.0</ele>
        <time>2019-06-27T07:30:31Z</time>
      </trkpt>
      <trkpt lat="43.273740" lon="-2.953720">
        <ele>35.0</ele>
        <time>2019-06-27T07:30:31Z</time>
      </trkpt>
      <trkpt lat="43.273830" lon="-2.953628">
        <ele>33.1</ele>
        <time>2019-06-27T07:30:31Z</time>
      </trkpt>
      <trkpt lat="43.273910" lon="-2.953498">
        <ele>29.3</ele>
        <time>2019-06-27T07:30:31Z</time>
      </trkpt>
      <trkpt lat="43.273990" lon="-2.953368">
        <ele>29.0</ele>
        <time>2019-06-27T07:30:31Z</time>
      </trkpt>
      <trkpt lat="43.274092" lon="-2.953282">
        <ele>29.0</ele>
        <time>2019-06-27T07:30:31Z</time>
      </trkpt>
      <trkpt lat="43.274206" lon="-2.953229">
        <ele>29.7</ele>
        <time>2019-06-27T07:30:31Z</time>
      </trkpt>
      <trkpt lat="43.274323" lon="-2.953225">
        <ele>34.8</ele>
        <time>2019-06-27T07:30:31Z</time>
      </trkpt>
      <trkpt lat="43.274438" lon="-2.953252">
        <ele>38.1</ele>
        <time>2019-06-27T07:30:31Z</time>
      </trkpt>
      <trkpt lat="43.274544" lon="-2.953288">
        <ele>39.2</ele>
        <time>2019-06-27T07:30:31Z</time>
      </trkpt>
      <trkpt lat="43.274639" lon="-2.953330">
        <ele>39.4</ele>
        <time>2019-06-27T07:30:31Z</time>
      </trkpt>
      <trkpt lat="43.274734" lon="-2.953372">
        <ele>40.0</ele>
        <time>2019-06-27T07:30:31Z</time>
      </trkpt>
      <trkpt lat="43.274837" lon="-2.953410">
        <ele>40.8</ele>
        <time>2019-06-27T07:30:31Z</time>
      </trkpt>
      <trkpt lat="43.274939" lon="-2.953447">
        <ele>41.2</ele>
        <time>2019-06-27T07:30:31Z</time>
      </trkpt>
      <trkpt lat="43.275042" lon="-2.953485">
        <ele>42.1</ele>
        <time>2019-06-27T07:30:31Z</time>
      </trkpt>
      <trkpt lat="43.275144" lon="-2.953522">
        <ele>42.8</ele>
        <time>2019-06-27T07:30:31Z</time>
      </trkpt>
      <trkpt lat="43.275246" lon="-2.953560">
        <ele>44.0</ele>
        <time>2019-06-27T07:30:31Z</time>
      </trkpt>
      <trkpt lat="43.275349" lon="-2.953597">
        <ele>45.2</ele>
        <time>2019-06-27T07:30:31Z</time>
      </trkpt>
      <trkpt lat="43.275449" lon="-2.953649">
        <ele>46.4</ele>
        <time>2019-06-27T07:30:31Z</time>
      </trkpt>
      <trkpt lat="43.275549" lon="-2.953702">
        <ele>47.0</ele>
        <time>2019-06-27T07:30:31Z</time>
      </trkpt>
      <trkpt lat="43.275657" lon="-2.953746">
        <ele>48.5</ele>
        <time>2019-06-27T07:30:31Z</time>
      </trkpt>
      <trkpt lat="43.275765" lon="-2.953791">
        <ele>50.2</ele>
        <time>2019-06-27T07:30:31Z</time>
      </trkpt>
      <trkpt lat="43.275872" lon="-2.953836">
        <ele>51.9</ele>
        <time>2019-06-27T07:30:31Z</time>
      </trkpt>
      <trkpt lat="43.275980" lon="-2.953881">
        <ele>53.1</ele>
        <time>2019-06-27T07:30:31Z</time>
      </trkpt>
      <trkpt lat="43.276092" lon="-2.953917">
        <ele>53.9</ele>
        <time>2019-06-27T07:30:31Z</time>
      </trkpt>
      <trkpt lat="43.276184" lon="-2.953890">
        <ele>55.2</ele>
        <time>2019-06-27T07:30:31Z</time>
      </trkpt>
      <trkpt lat="43.276239" lon="-2.953798">
        <ele>56.7</ele>
        <time>2019-06-27T07:30:31Z</time>
      </trkpt>
      <trkpt lat="43.276230" lon="-2.953683">
        <ele>57.6</ele>
        <time>2019-06-27T07:30:31Z</time>
      </trkpt>
      <trkpt lat="43.276154" lon="-2.953560">
        <ele>59.9</ele>
        <time>2019-06-27T07:30:31Z</time>
      </trkpt>
      <trkpt lat="43.276072" lon="-2.953448">
        <ele>60.8</ele>
        <time>2019-06-27T07:30:31Z</time>
      </trkpt>
      <trkpt lat="43.275999" lon="-2.953362">
        <ele>62.0</ele>
        <time>2019-06-27T07:30:31Z</time>
      </trkpt>
      <trkpt lat="43.275938" lon="-2.953251">
        <ele>62.9</ele>
        <time>2019-06-27T07:30:31Z</time>
      </trkpt>
      <trkpt lat="43.275878" lon="-2.953140">
        <ele>64.0</ele>
        <time>2019-06-27T07:30:31Z</time>
      </trkpt>
      <trkpt lat="43.275814" lon="-2.953036">
        <ele>65.0</ele>
        <time>2019-06-27T07:30:31Z</time>
      </trkpt>
      <trkpt lat="43.275742" lon="-2.952933">
        <ele>65.1</ele>
        <time>2019-06-27T07:30:31Z</time>
      </trkpt>
      <trkpt lat="43.275668" lon="-2.952824">
        <ele>66.0</ele>
        <time>2019-06-27T07:30:31Z</time>
      </trkpt>
      <trkpt lat="43.275593" lon="-2.952715">
        <ele>64.9</ele>
        <time>2019-06-27T07:30:31Z</time>
      </trkpt>
      <trkpt lat="43.275530" lon="-2.952600">
        <ele>64.3</ele>
        <time>2019-06-27T07:30:31Z</time>
      </trkpt>
      <trkpt lat="43.275603" lon="-2.952506">
        <ele>66.8</ele>
        <time>2019-06-27T07:30:31Z</time>
      </trkpt>
      <trkpt lat="43.275540" lon="-2.952387">
        <ele>66.3</ele>
        <time>2019-06-27T07:30:31Z</time>
      </trkpt>
      <trkpt lat="43.275471" lon="-2.952267">
        <ele>67.5</ele>
        <time>2019-06-27T07:30:31Z</time>
      </trkpt>
      <trkpt lat="43.275412" lon="-2.952153">
        <ele>68.2</ele>
        <time>2019-06-27T07:30:31Z</time>
      </trkpt>
      <trkpt lat="43.275358" lon="-2.952060">
        <ele>68.9</ele>
        <time>2019-06-27T07:30:31Z</time>
      </trkpt>
      <trkpt lat="43.275415" lon="-2.951988">
        <ele>69.1</ele>
        <time>2019-06-27T07:30:31Z</time>
      </trkpt>
      <trkpt lat="43.275478" lon="-2.951944">
        <ele>69.0</ele>
        <time>2019-06-27T07:30:31Z</time>
      </trkpt>
      <trkpt lat="43.275544" lon="-2.951929">
        <ele>69.0</ele>
        <time>2019-06-27T07:30:31Z</time>
      </trkpt>
      <trkpt lat="43.275599" lon="-2.951971">
        <ele>69.2</ele>
        <time>2019-06-27T07:30:31Z</time>
      </trkpt>
      <trkpt lat="43.275638" lon="-2.952026">
        <ele>69.6</ele>
        <time>2019-06-27T07:30:31Z</time>
      </trkpt>
      <trkpt lat="43.275679" lon="-2.951976">
        <ele>70.8</ele>
        <time>2019-06-27T07:30:31Z</time>
      </trkpt>
      <trkpt lat="43.275672" lon="-2.951896">
        <ele>71.6</ele>
        <time>2019-06-27T07:30:31Z</time>
      </trkpt>
      <trkpt lat="43.275613" lon="-2.951849">
        <ele>71.3</ele>
        <time>2019-06-27T07:30:31Z</time>
      </trkpt>
      <trkpt lat="43.275552" lon="-2.951791">
        <ele>72.5</ele>
        <time>2019-06-27T07:30:31Z</time>
      </trkpt>
      <trkpt lat="43.275491" lon="-2.951733">
        <ele>74.4</ele>
        <time>2019-06-27T07:30:31Z</time>
      </trkpt>
      <trkpt lat="43.275493" lon="-2.951676">
        <ele>76.2</ele>
        <time>2019-06-27T07:30:31Z</time>
      </trkpt>
      <trkpt lat="43.275566" lon="-2.951657">
        <ele>76.8</ele>
        <time>2019-06-27T07:30:31Z</time>
      </trkpt>
      <trkpt lat="43.275645" lon="-2.951645">
        <ele>77.5</ele>
        <time>2019-06-27T07:30:31Z</time>
      </trkpt>
      <trkpt lat="43.275731" lon="-2.951633">
        <ele>77.9</ele>
        <time>2019-06-27T07:30:31Z</time>
      </trkpt>
      <trkpt lat="43.275824" lon="-2.951621">
        <ele>78.8</ele>
        <time>2019-06-27T07:30:31Z</time>
      </trkpt>
      <trkpt lat="43.275909" lon="-2.951601">
        <ele>80.3</ele>
        <time>2019-06-27T07:30:31Z</time>
      </trkpt>
      <trkpt lat="43.275958" lon="-2.951545">
        <ele>81.5</ele>
        <time>2019-06-27T07:30:31Z</time>
      </trkpt>
      <trkpt lat="43.275948" lon="-2.951452">
        <ele>82.3</ele>
        <time>2019-06-27T07:30:31Z</time>
      </trkpt>
      <trkpt lat="43.275936" lon="-2.951359">
        <ele>83.5</ele>
        <time>2019-06-27T07:30:31Z</time>
      </trkpt>
      <trkpt lat="43.275979" lon="-2.951341">
        <ele>84.7</ele>
        <time>2019-06-27T07:30:31Z</time>
      </trkpt>
      <trkpt lat="43.276042" lon="-2.951370">
        <ele>85.7</ele>
        <time>2019-06-27T07:30:31Z</time>
      </trkpt>
      <trkpt lat="43.276085" lon="-2.951361">
        <ele>87.2</ele>
        <time>2019-06-27T07:30:31Z</time>
      </trkpt>
      <trkpt lat="43.276068" lon="-2.951297">
        <ele>87.4</ele>
        <time>2019-06-27T07:30:31Z</time>
      </trkpt>
      <trkpt lat="43.276023" lon="-2.951196">
        <ele>88.8</ele>
        <time>2019-06-27T07:30:31Z</time>
      </trkpt>
      <trkpt lat="43.275968" lon="-2.951090">
        <ele>89.6</ele>
        <time>2019-06-27T07:30:31Z</time>
      </trkpt>
      <trkpt lat="43.275913" lon="-2.950987">
        <ele>91.5</ele>
        <time>2019-06-27T07:30:31Z</time>
      </trkpt>
      <trkpt lat="43.275902" lon="-2.950915">
        <ele>93.2</ele>
        <time>2019-06-27T07:30:31Z</time>
      </trkpt>
      <trkpt lat="43.275954" lon="-2.950855">
        <ele>95.2</ele>
        <time>2019-06-27T07:30:31Z</time>
      </trkpt>
      <trkpt lat="43.276011" lon="-2.950804">
        <ele>97.2</ele>
        <time>2019-06-27T07:30:31Z</time>
      </trkpt>
      <trkpt lat="43.275972" lon="-2.950716">
        <ele>98.7</ele>
        <time>2019-06-27T07:30:31Z</time>
      </trkpt>
      <trkpt lat="43.275933" lon="-2.950629">
        <ele>100.0</ele>
        <time>2019-06-27T07:30:31Z</time>
      </trkpt>
      <trkpt lat="43.275888" lon="-2.950542">
        <ele>100.0</ele>
        <time>2019-06-27T07:30:31Z</time>
      </trkpt>
      <trkpt lat="43.275839" lon="-2.950454">
        <ele>101.0</ele>
        <time>2019-06-27T07:30:31Z</time>
      </trkpt>
      <trkpt lat="43.275793" lon="-2.950367">
        <ele>101.0</ele>
        <time>2019-06-27T07:30:31Z</time>
      </trkpt>
      <trkpt lat="43.275755" lon="-2.950260">
        <ele>101.0</ele>
        <time>2019-06-27T07:30:31Z</time>
      </trkpt>
      <trkpt lat="43.275818" lon="-2.950205">
        <ele>101.6</ele>
        <time>2019-06-27T07:30:31Z</time>
      </trkpt>
      <trkpt lat="43.275819" lon="-2.950102">
        <ele>101.9</ele>
        <time>2019-06-27T07:30:31Z</time>
      </trkpt>
      <trkpt lat="43.275838" lon="-2.949964">
        <ele>102.1</ele>
        <time>2019-06-27T07:30:31Z</time>
      </trkpt>
      <trkpt lat="43.275870" lon="-2.949912">
        <ele>102.8</ele>
        <time>2019-06-27T07:30:31Z</time>
      </trkpt>
      <trkpt lat="43.275918" lon="-2.949929">
        <ele>103.0</ele>
        <time>2019-06-27T07:30:31Z</time>
      </trkpt>
      <trkpt lat="43.275965" lon="-2.949926">
        <ele>103.9</ele>
        <time>2019-06-27T07:30:31Z</time>
      </trkpt>
      <trkpt lat="43.275967" lon="-2.949830">
        <ele>103.9</ele>
        <time>2019-06-27T07:30:31Z</time>
      </trkpt>
      <trkpt lat="43.275969" lon="-2.949731">
        <ele>103.3</ele>
        <time>2019-06-27T07:30:31Z</time>
      </trkpt>
      <trkpt lat="43.276015" lon="-2.949674">
        <ele>103.4</ele>
        <time>2019-06-27T07:30:31Z</time>
      </trkpt>
      <trkpt lat="43.275997" lon="-2.949588">
        <ele>102.6</ele>
        <time>2019-06-27T07:30:31Z</time>
      </trkpt>
      <trkpt lat="43.276056" lon="-2.949534">
        <ele>102.9</ele>
        <time>2019-06-27T07:30:31Z</time>
      </trkpt>
      <trkpt lat="43.276118" lon="-2.949481">
        <ele>104.3</ele>
        <time>2019-06-27T07:30:31Z</time>
      </trkpt>
      <trkpt lat="43.276180" lon="-2.949429">
        <ele>105.3</ele>
        <time>2019-06-27T07:30:31Z</time>
      </trkpt>
      <trkpt lat="43.276254" lon="-2.949378">
        <ele>106.3</ele>
        <time>2019-06-27T07:30:31Z</time>
      </trkpt>
      <trkpt lat="43.276327" lon="-2.949326">
        <ele>107.7</ele>
        <time>2019-06-27T07:30:31Z</time>
      </trkpt>
      <trkpt lat="43.276400" lon="-2.949275">
        <ele>108.6</ele>
        <time>2019-06-27T07:30:31Z</time>
      </trkpt>
      <trkpt lat="43.276442" lon="-2.949334">
        <ele>109.5</ele>
        <time>2019-06-27T07:30:31Z</time>
      </trkpt>
      <trkpt lat="43.276500" lon="-2.949296">
        <ele>111.0</ele>
        <time>2019-06-27T07:30:31Z</time>
      </trkpt>
      <trkpt lat="43.276522" lon="-2.949206">
        <ele>110.3</ele>
        <time>2019-06-27T07:30:31Z</time>
      </trkpt>
      <trkpt lat="43.276511" lon="-2.949086">
        <ele>111.0</ele>
        <time>2019-06-27T07:30:31Z</time>
      </trkpt>
      <trkpt lat="43.276496" lon="-2.948960">
        <ele>112.2</ele>
        <time>2019-06-27T07:30:31Z</time>
      </trkpt>
      <trkpt lat="43.276486" lon="-2.948854">
        <ele>114.3</ele>
        <time>2019-06-27T07:30:31Z</time>
      </trkpt>
      <trkpt lat="43.276466" lon="-2.948740">
        <ele>115.8</ele>
        <time>2019-06-27T07:30:31Z</time>
      </trkpt>
      <trkpt lat="43.276448" lon="-2.948605">
        <ele>117.2</ele>
        <time>2019-06-27T07:30:31Z</time>
      </trkpt>
      <trkpt lat="43.276436" lon="-2.948461">
        <ele>118.0</ele>
        <time>2019-06-27T07:30:31Z</time>
      </trkpt>
      <trkpt lat="43.276432" lon="-2.948325">
        <ele>120.1</ele>
        <time>2019-06-27T07:30:31Z</time>
      </trkpt>
      <trkpt lat="43.276434" lon="-2.948183">
        <ele>121.5</ele>
        <time>2019-06-27T07:30:31Z</time>
      </trkpt>
      <trkpt lat="43.276438" lon="-2.948039">
        <ele>123.0</ele>
        <time>2019-06-27T07:30:31Z</time>
      </trkpt>
      <trkpt lat="43.276440" lon="-2.947920">
        <ele>125.0</ele>
        <time>2019-06-27T07:30:31Z</time>
      </trkpt>
      <trkpt lat="43.276476" lon="-2.947785">
        <ele>127.6</ele>
        <time>2019-06-27T07:30:31Z</time>
      </trkpt>
      <trkpt lat="43.276517" lon="-2.947655">
        <ele>130.4</ele>
        <time>2019-06-27T07:30:31Z</time>
      </trkpt>
      <trkpt lat="43.276569" lon="-2.947538">
        <ele>132.7</ele>
        <time>2019-06-27T07:30:31Z</time>
      </trkpt>
      <trkpt lat="43.276621" lon="-2.947422">
        <ele>134.5</ele>
        <time>2019-06-27T07:30:31Z</time>
      </trkpt>
      <trkpt lat="43.276679" lon="-2.947335">
        <ele>136.1</ele>
        <time>2019-06-27T07:30:31Z</time>
      </trkpt>
      <trkpt lat="43.276739" lon="-2.947338">
        <ele>138.7</ele>
        <time>2019-06-27T07:30:31Z</time>
      </trkpt>
      <trkpt lat="43.276766" lon="-2.947455">
        <ele>140.4</ele>
        <time>2019-06-27T07:30:31Z</time>
      </trkpt>
      <trkpt lat="43.276787" lon="-2.947584">
        <ele>142.4</ele>
        <time>2019-06-27T07:30:31Z</time>
      </trkpt>
      <trkpt lat="43.276817" lon="-2.947698">
        <ele>143.7</ele>
        <time>2019-06-27T07:30:31Z</time>
      </trkpt>
      <trkpt lat="43.276879" lon="-2.947716">
        <ele>146.4</ele>
        <time>2019-06-27T07:30:31Z</time>
      </trkpt>
      <trkpt lat="43.276929" lon="-2.947621">
        <ele>148.7</ele>
        <time>2019-06-27T07:30:31Z</time>
      </trkpt>
      <trkpt lat="43.276977" lon="-2.947521">
        <ele>150.0</ele>
        <time>2019-06-27T07:30:31Z</time>
      </trkpt>
      <trkpt lat="43.277017" lon="-2.947418">
        <ele>151.4</ele>
        <time>2019-06-27T07:30:31Z</time>
      </trkpt>
      <trkpt lat="43.277076" lon="-2.947308">
        <ele>153.2</ele>
        <time>2019-06-27T07:30:31Z</time>
      </trkpt>
      <trkpt lat="43.277147" lon="-2.947201">
        <ele>153.9</ele>
        <time>2019-06-27T07:30:31Z</time>
      </trkpt>
      <trkpt lat="43.277237" lon="-2.947116">
        <ele>156.0</ele>
        <time>2019-06-27T07:30:31Z</time>
      </trkpt>
      <trkpt lat="43.277327" lon="-2.947093">
        <ele>158.3</ele>
        <time>2019-06-27T07:30:31Z</time>
      </trkpt>
      <trkpt lat="43.277367" lon="-2.947151">
        <ele>160.6</ele>
        <time>2019-06-27T07:30:31Z</time>
      </trkpt>
      <trkpt lat="43.277346" lon="-2.947233">
        <ele>162.2</ele>
        <time>2019-06-27T07:30:31Z</time>
      </trkpt>
      <trkpt lat="43.277324" lon="-2.947295">
        <ele>162.9</ele>
        <time>2019-06-27T07:30:31Z</time>
      </trkpt>
      <trkpt lat="43.277375" lon="-2.947322">
        <ele>164.7</ele>
        <time>2019-06-27T07:30:31Z</time>
      </trkpt>
      <trkpt lat="43.277453" lon="-2.947285">
        <ele>165.6</ele>
        <time>2019-06-27T07:30:31Z</time>
      </trkpt>
      <trkpt lat="43.277558" lon="-2.947258">
        <ele>167.5</ele>
        <time>2019-06-27T07:30:31Z</time>
      </trkpt>
      <trkpt lat="43.277652" lon="-2.947251">
        <ele>169.5</ele>
        <time>2019-06-27T07:30:31Z</time>
      </trkpt>
      <trkpt lat="43.277751" lon="-2.947241">
        <ele>171.5</ele>
        <time>2019-06-27T07:30:31Z</time>
      </trkpt>
      <trkpt lat="43.277842" lon="-2.947215">
        <ele>172.7</ele>
        <time>2019-06-27T07:30:31Z</time>
      </trkpt>
      <trkpt lat="43.277926" lon="-2.947177">
        <ele>173.4</ele>
        <time>2019-06-27T07:30:31Z</time>
      </trkpt>
      <trkpt lat="43.278002" lon="-2.947107">
        <ele>173.9</ele>
        <time>2019-06-27T07:30:31Z</time>
      </trkpt>
      <trkpt lat="43.278075" lon="-2.947020">
        <ele>175.0</ele>
        <time>2019-06-27T07:30:31Z</time>
      </trkpt>
      <trkpt lat="43.278147" lon="-2.946933">
        <ele>175.3</ele>
        <time>2019-06-27T07:30:31Z</time>
      </trkpt>
      <trkpt lat="43.278234" lon="-2.946892">
        <ele>176.6</ele>
        <time>2019-06-27T07:30:31Z</time>
      </trkpt>
      <trkpt lat="43.278322" lon="-2.946851">
        <ele>176.9</ele>
        <time>2019-06-27T07:30:31Z</time>
      </trkpt>
      <trkpt lat="43.278417" lon="-2.946841">
        <ele>178.5</ele>
        <time>2019-06-27T07:30:31Z</time>
      </trkpt>
      <trkpt lat="43.278515" lon="-2.946819">
        <ele>179.1</ele>
        <time>2019-06-27T07:30:31Z</time>
      </trkpt>
      <trkpt lat="43.278611" lon="-2.946783">
        <ele>179.5</ele>
        <time>2019-06-27T07:30:31Z</time>
      </trkpt>
      <trkpt lat="43.278685" lon="-2.946723">
        <ele>179.2</ele>
        <time>2019-06-27T07:30:31Z</time>
      </trkpt>
      <trkpt lat="43.278734" lon="-2.946634">
        <ele>179.0</ele>
        <time>2019-06-27T07:30:31Z</time>
      </trkpt>
      <trkpt lat="43.278791" lon="-2.946560">
        <ele>179.0</ele>
        <time>2019-06-27T07:30:31Z</time>
      </trkpt>
      <trkpt lat="43.278841" lon="-2.946466">
        <ele>179.0</ele>
        <time>2019-06-27T07:30:31Z</time>
      </trkpt>
      <trkpt lat="43.278907" lon="-2.946375">
        <ele>179.3</ele>
        <time>2019-06-27T07:30:31Z</time>
      </trkpt>
      <trkpt lat="43.278974" lon="-2.946284">
        <ele>180.3</ele>
        <time>2019-06-27T07:30:31Z</time>
      </trkpt>
      <trkpt lat="43.279047" lon="-2.946216">
        <ele>181.0</ele>
        <time>2019-06-27T07:30:31Z</time>
      </trkpt>
      <trkpt lat="43.279120" lon="-2.946133">
        <ele>182.0</ele>
        <time>2019-06-27T07:30:31Z</time>
      </trkpt>
      <trkpt lat="43.279093" lon="-2.946019">
        <ele>181.9</ele>
        <time>2019-06-27T07:30:31Z</time>
      </trkpt>
      <trkpt lat="43.279035" lon="-2.945924">
        <ele>181.0</ele>
        <time>2019-06-27T07:30:31Z</time>
      </trkpt>
      <trkpt lat="43.278975" lon="-2.945834">
        <ele>180.8</ele>
        <time>2019-06-27T07:30:31Z</time>
      </trkpt>
      <trkpt lat="43.278928" lon="-2.945730">
        <ele>180.0</ele>
        <time>2019-06-27T07:30:31Z</time>
      </trkpt>
      <trkpt lat="43.278867" lon="-2.945654">
        <ele>179.4</ele>
        <time>2019-06-27T07:30:31Z</time>
      </trkpt>
      <trkpt lat="43.278789" lon="-2.945593">
        <ele>178.7</ele>
        <time>2019-06-27T07:30:31Z</time>
      </trkpt>
      <trkpt lat="43.278694" lon="-2.945559">
        <ele>177.8</ele>
        <time>2019-06-27T07:30:31Z</time>
      </trkpt>
      <trkpt lat="43.278602" lon="-2.945529">
        <ele>176.6</ele>
        <time>2019-06-27T07:30:31Z</time>
      </trkpt>
      <trkpt lat="43.278528" lon="-2.945466">
        <ele>175.9</ele>
        <time>2019-06-27T07:30:31Z</time>
      </trkpt>
      <trkpt lat="43.278454" lon="-2.945404">
        <ele>175.0</ele>
        <time>2019-06-27T07:30:31Z</time>
      </trkpt>
      <trkpt lat="43.278381" lon="-2.945341">
        <ele>173.7</ele>
        <time>2019-06-27T07:30:31Z</time>
      </trkpt>
      <trkpt lat="43.278307" lon="-2.945279">
        <ele>173.0</ele>
        <time>2019-06-27T07:30:31Z</time>
      </trkpt>
      <trkpt lat="43.278233" lon="-2.945223">
        <ele>171.3</ele>
        <time>2019-06-27T07:30:31Z</time>
      </trkpt>
      <trkpt lat="43.278158" lon="-2.945162">
        <ele>170.7</ele>
        <time>2019-06-27T07:30:31Z</time>
      </trkpt>
      <trkpt lat="43.278092" lon="-2.945097">
        <ele>170.0</ele>
        <time>2019-06-27T07:30:31Z</time>
      </trkpt>
      <trkpt lat="43.278043" lon="-2.945029">
        <ele>169.1</ele>
        <time>2019-06-27T07:30:31Z</time>
      </trkpt>
      <trkpt lat="43.277991" lon="-2.944960">
        <ele>167.9</ele>
        <time>2019-06-27T07:30:31Z</time>
      </trkpt>
      <trkpt lat="43.277920" lon="-2.944920">
        <ele>166.5</ele>
        <time>2019-06-27T07:30:31Z</time>
      </trkpt>
      <trkpt lat="43.277835" lon="-2.944856">
        <ele>165.2</ele>
        <time>2019-06-27T07:30:31Z</time>
      </trkpt>
      <trkpt lat="43.277751" lon="-2.944776">
        <ele>164.0</ele>
        <time>2019-06-27T07:30:31Z</time>
      </trkpt>
      <trkpt lat="43.277662" lon="-2.944682">
        <ele>162.8</ele>
        <time>2019-06-27T07:30:31Z</time>
      </trkpt>
      <trkpt lat="43.277559" lon="-2.944625">
        <ele>161.5</ele>
        <time>2019-06-27T07:30:31Z</time>
      </trkpt>
      <trkpt lat="43.277474" lon="-2.944536">
        <ele>160.0</ele>
        <time>2019-06-27T07:30:31Z</time>
      </trkpt>
      <trkpt lat="43.277399" lon="-2.944416">
        <ele>159.0</ele>
        <time>2019-06-27T07:30:31Z</time>
      </trkpt>
      <trkpt lat="43.277312" lon="-2.944341">
        <ele>156.9</ele>
        <time>2019-06-27T07:30:31Z</time>
      </trkpt>
      <trkpt lat="43.277221" lon="-2.944285">
        <ele>156.0</ele>
        <time>2019-06-27T07:30:31Z</time>
      </trkpt>
      <trkpt lat="43.277119" lon="-2.944241">
        <ele>155.2</ele>
        <time>2019-06-27T07:30:31Z</time>
      </trkpt>
      <trkpt lat="43.277016" lon="-2.944196">
        <ele>154.5</ele>
        <time>2019-06-27T07:30:31Z</time>
      </trkpt>
      <trkpt lat="43.276907" lon="-2.944157">
        <ele>154.9</ele>
        <time>2019-06-27T07:30:31Z</time>
      </trkpt>
      <trkpt lat="43.276804" lon="-2.944133">
        <ele>154.8</ele>
        <time>2019-06-27T07:30:31Z</time>
      </trkpt>
      <trkpt lat="43.276723" lon="-2.944048">
        <ele>154.0</ele>
        <time>2019-06-27T07:30:31Z</time>
      </trkpt>
      <trkpt lat="43.276636" lon="-2.943954">
        <ele>152.5</ele>
        <time>2019-06-27T07:30:31Z</time>
      </trkpt>
      <trkpt lat="43.276540" lon="-2.943866">
        <ele>150.8</ele>
        <time>2019-06-27T07:30:31Z</time>
      </trkpt>
      <trkpt lat="43.276455" lon="-2.943774">
        <ele>149.6</ele>
        <time>2019-06-27T07:30:31Z</time>
      </trkpt>
      <trkpt lat="43.276394" lon="-2.943645">
        <ele>147.8</ele>
        <time>2019-06-27T07:30:31Z</time>
      </trkpt>
      <trkpt lat="43.276356" lon="-2.943504">
        <ele>146.7</ele>
        <time>2019-06-27T07:30:31Z</time>
      </trkpt>
      <trkpt lat="43.276306" lon="-2.943396">
        <ele>145.8</ele>
        <time>2019-06-27T07:30:31Z</time>
      </trkpt>
      <trkpt lat="43.276226" lon="-2.943301">
        <ele>144.0</ele>
        <time>2019-06-27T07:30:31Z</time>
      </trkpt>
      <trkpt lat="43.276134" lon="-2.943217">
        <ele>142.3</ele>
        <time>2019-06-27T07:30:31Z</time>
      </trkpt>
      <trkpt lat="43.276064" lon="-2.943134">
        <ele>140.2</ele>
        <time>2019-06-27T07:30:31Z</time>
      </trkpt>
      <trkpt lat="43.276095" lon="-2.943005">
        <ele>139.9</ele>
        <time>2019-06-27T07:30:31Z</time>
      </trkpt>
      <trkpt lat="43.276178" lon="-2.942907">
        <ele>139.6</ele>
        <time>2019-06-27T07:30:31Z</time>
      </trkpt>
      <trkpt lat="43.276294" lon="-2.942882">
        <ele>138.4</ele>
        <time>2019-06-27T07:30:31Z</time>
      </trkpt>
      <trkpt lat="43.276413" lon="-2.942879">
        <ele>137.3</ele>
        <time>2019-06-27T07:30:31Z</time>
      </trkpt>
      <trkpt lat="43.276534" lon="-2.942892">
        <ele>134.2</ele>
        <time>2019-06-27T07:30:31Z</time>
      </trkpt>
      <trkpt lat="43.276652" lon="-2.942920">
        <ele>132.2</ele>
        <time>2019-06-27T07:30:31Z</time>
      </trkpt>
      <trkpt lat="43.276770" lon="-2.942948">
        <ele>128.8</ele>
        <time>2019-06-27T07:30:31Z</time>
      </trkpt>
      <trkpt lat="43.276874" lon="-2.943004">
        <ele>125.0</ele>
        <time>2019-06-27T07:30:31Z</time>
      </trkpt>
      <trkpt lat="43.276978" lon="-2.943061">
        <ele>122.7</ele>
        <time>2019-06-27T07:30:31Z</time>
      </trkpt>
      <trkpt lat="43.277036" lon="-2.943020">
        <ele>120.7</ele>
        <time>2019-06-27T07:30:31Z</time>
      </trkpt>
      <trkpt lat="43.276972" lon="-2.942934">
        <ele>120.7</ele>
        <time>2019-06-27T07:30:31Z</time>
      </trkpt>
      <trkpt lat="43.276900" lon="-2.942795">
        <ele>119.8</ele>
        <time>2019-06-27T07:30:31Z</time>
      </trkpt>
      <trkpt lat="43.276828" lon="-2.942639">
        <ele>116.2</ele>
        <time>2019-06-27T07:30:31Z</time>
      </trkpt>
      <trkpt lat="43.276756" lon="-2.942483">
        <ele>110.3</ele>
        <time>2019-06-27T07:30:31Z</time>
      </trkpt>
      <trkpt lat="43.276711" lon="-2.942345">
        <ele>103.4</ele>
        <time>2019-06-27T07:30:31Z</time>
      </trkpt>
      <trkpt lat="43.276668" lon="-2.942206">
        <ele>97.1</ele>
        <time>2019-06-27T07:30:31Z</time>
      </trkpt>
      <trkpt lat="43.276617" lon="-2.942068">
        <ele>90.5</ele>
        <time>2019-06-27T07:30:31Z</time>
      </trkpt>
      <trkpt lat="43.276556" lon="-2.941934">
        <ele>85.3</ele>
        <time>2019-06-27T07:30:31Z</time>
      </trkpt>
      <trkpt lat="43.276493" lon="-2.941802">
        <ele>79.7</ele>
        <time>2019-06-27T07:30:31Z</time>
      </trkpt>
      <trkpt lat="43.276481" lon="-2.941740">
        <ele>76.7</ele>
        <time>2019-06-27T07:30:31Z</time>
      </trkpt>
      <trkpt lat="43.276569" lon="-2.941759">
        <ele>76.5</ele>
        <time>2019-06-27T07:30:31Z</time>
      </trkpt>
      <trkpt lat="43.276656" lon="-2.941777">
        <ele>76.4</ele>
        <time>2019-06-27T07:30:31Z</time>
      </trkpt>
      <trkpt lat="43.276699" lon="-2.941754">
        <ele>75.9</ele>
        <time>2019-06-27T07:30:31Z</time>
      </trkpt>
      <trkpt lat="43.276656" lon="-2.941624">
        <ele>73.3</ele>
        <time>2019-06-27T07:30:31Z</time>
      </trkpt>
      <trkpt lat="43.276635" lon="-2.941503">
        <ele>74.1</ele>
        <time>2019-06-27T07:30:31Z</time>
      </trkpt>
      <trkpt lat="43.276610" lon="-2.941385">
        <ele>75.8</ele>
        <time>2019-06-27T07:30:31Z</time>
      </trkpt>
      <trkpt lat="43.276587" lon="-2.941262">
        <ele>78.7</ele>
        <time>2019-06-27T07:30:31Z</time>
      </trkpt>
      <trkpt lat="43.276567" lon="-2.941137">
        <ele>79.9</ele>
        <time>2019-06-27T07:30:31Z</time>
      </trkpt>
      <trkpt lat="43.276550" lon="-2.941015">
        <ele>82.2</ele>
        <time>2019-06-27T07:30:31Z</time>
      </trkpt>
      <trkpt lat="43.276494" lon="-2.940887">
        <ele>84.9</ele>
        <time>2019-06-27T07:30:31Z</time>
      </trkpt>
      <trkpt lat="43.276437" lon="-2.940737">
        <ele>88.0</ele>
        <time>2019-06-27T07:30:31Z</time>
      </trkpt>
      <trkpt lat="43.276376" lon="-2.940581">
        <ele>91.6</ele>
        <time>2019-06-27T07:30:31Z</time>
      </trkpt>
      <trkpt lat="43.276332" lon="-2.940423">
        <ele>94.7</ele>
        <time>2019-06-27T07:30:31Z</time>
      </trkpt>
      <trkpt lat="43.276279" lon="-2.940265">
        <ele>97.2</ele>
        <time>2019-06-27T07:30:31Z</time>
      </trkpt>
      <trkpt lat="43.276227" lon="-2.940108">
        <ele>98.6</ele>
        <time>2019-06-27T07:30:31Z</time>
      </trkpt>
      <trkpt lat="43.276175" lon="-2.939951">
        <ele>101.1</ele>
        <time>2019-06-27T07:30:31Z</time>
      </trkpt>
      <trkpt lat="43.276125" lon="-2.939795">
        <ele>102.5</ele>
        <time>2019-06-27T07:30:31Z</time>
      </trkpt>
      <trkpt lat="43.276094" lon="-2.939642">
        <ele>104.6</ele>
        <time>2019-06-27T07:30:31Z</time>
      </trkpt>
      <trkpt lat="43.276069" lon="-2.939497">
        <ele>107.1</ele>
        <time>2019-06-27T07:30:31Z</time>
      </trkpt>
      <trkpt lat="43.276080" lon="-2.939368">
        <ele>108.6</ele>
        <time>2019-06-27T07:30:31Z</time>
      </trkpt>
      <trkpt lat="43.276112" lon="-2.939230">
        <ele>110.3</ele>
        <time>2019-06-27T07:30:31Z</time>
      </trkpt>
      <trkpt lat="43.276143" lon="-2.939076">
        <ele>110.0</ele>
        <time>2019-06-27T07:30:31Z</time>
      </trkpt>
      <trkpt lat="43.276168" lon="-2.938918">
        <ele>110.1</ele>
        <time>2019-06-27T07:30:31Z</time>
      </trkpt>
      <trkpt lat="43.276159" lon="-2.938744">
        <ele>110.6</ele>
        <time>2019-06-27T07:30:31Z</time>
      </trkpt>
      <trkpt lat="43.276119" lon="-2.938571">
        <ele>112.7</ele>
        <time>2019-06-27T07:30:31Z</time>
      </trkpt>
      <trkpt lat="43.276079" lon="-2.938401">
        <ele>112.9</ele>
        <time>2019-06-27T07:30:31Z</time>
      </trkpt>
      <trkpt lat="43.276024" lon="-2.938249">
        <ele>113.3</ele>
        <time>2019-06-27T07:30:31Z</time>
      </trkpt>
      <trkpt lat="43.275965" lon="-2.938104">
        <ele>115.4</ele>
        <time>2019-06-27T07:30:31Z</time>
      </trkpt>
      <trkpt lat="43.275902" lon="-2.937957">
        <ele>116.0</ele>
        <time>2019-06-27T07:30:31Z</time>
      </trkpt>
      <trkpt lat="43.275867" lon="-2.937780">
        <ele>117.3</ele>
        <time>2019-06-27T07:30:31Z</time>
      </trkpt>
      <trkpt lat="43.275860" lon="-2.937604">
        <ele>117.4</ele>
        <time>2019-06-27T07:30:31Z</time>
      </trkpt>
      <trkpt lat="43.275848" lon="-2.937431">
        <ele>115.8</ele>
        <time>2019-06-27T07:30:31Z</time>
      </trkpt>
      <trkpt lat="43.275749" lon="-2.937318">
        <ele>115.5</ele>
        <time>2019-06-27T07:30:31Z</time>
      </trkpt>
      <trkpt lat="43.275652" lon="-2.937215">
        <ele>117.7</ele>
        <time>2019-06-27T07:30:31Z</time>
      </trkpt>
      <trkpt lat="43.275572" lon="-2.937112">
        <ele>117.3</ele>
        <time>2019-06-27T07:30:31Z</time>
      </trkpt>
      <trkpt lat="43.275500" lon="-2.936995">
        <ele>116.1</ele>
        <time>2019-06-27T07:30:31Z</time>
      </trkpt>
      <trkpt lat="43.275449" lon="-2.936890">
        <ele>115.7</ele>
        <time>2019-06-27T07:30:31Z</time>
      </trkpt>
      <trkpt lat="43.275473" lon="-2.936765">
        <ele>118.0</ele>
        <time>2019-06-27T07:30:31Z</time>
      </trkpt>
      <trkpt lat="43.275487" lon="-2.936614">
        <ele>120.0</ele>
        <time>2019-06-27T07:30:31Z</time>
      </trkpt>
      <trkpt lat="43.275467" lon="-2.936439">
        <ele>121.4</ele>
        <time>2019-06-27T07:30:31Z</time>
      </trkpt>
      <trkpt lat="43.275446" lon="-2.936264">
        <ele>124.5</ele>
        <time>2019-06-27T07:30:31Z</time>
      </trkpt>
      <trkpt lat="43.275466" lon="-2.936093">
        <ele>129.0</ele>
        <time>2019-06-27T07:30:31Z</time>
      </trkpt>
      <trkpt lat="43.275536" lon="-2.935999">
        <ele>132.1</ele>
        <time>2019-06-27T07:30:31Z</time>
      </trkpt>
      <trkpt lat="43.275645" lon="-2.935977">
        <ele>133.8</ele>
        <time>2019-06-27T07:30:31Z</time>
      </trkpt>
      <trkpt lat="43.275775" lon="-2.935966">
        <ele>136.9</ele>
        <time>2019-06-27T07:30:31Z</time>
      </trkpt>
      <trkpt lat="43.275915" lon="-2.935944">
        <ele>139.4</ele>
        <time>2019-06-27T07:30:31Z</time>
      </trkpt>
      <trkpt lat="43.276055" lon="-2.935922">
        <ele>142.8</ele>
        <time>2019-06-27T07:30:31Z</time>
      </trkpt>
      <trkpt lat="43.276197" lon="-2.935916">
        <ele>146.3</ele>
        <time>2019-06-27T07:30:31Z</time>
      </trkpt>
      <trkpt lat="43.276329" lon="-2.935906">
        <ele>150.2</ele>
        <time>2019-06-27T07:30:31Z</time>
      </trkpt>
      <trkpt lat="43.276459" lon="-2.935891">
        <ele>153.3</ele>
        <time>2019-06-27T07:30:31Z</time>
      </trkpt>
      <trkpt lat="43.276590" lon="-2.935878">
        <ele>156.4</ele>
        <time>2019-06-27T07:30:31Z</time>
      </trkpt>
      <trkpt lat="43.276720" lon="-2.935866">
        <ele>159.5</ele>
        <time>2019-06-27T07:30:31Z</time>
      </trkpt>
      <trkpt lat="43.276847" lon="-2.935836">
        <ele>162.3</ele>
        <time>2019-06-27T07:30:31Z</time>
      </trkpt>
      <trkpt lat="43.276924" lon="-2.935834">
        <ele>163.7</ele>
        <time>2019-06-27T07:30:31Z</time>
      </trkpt>
      <trkpt lat="43.276997" lon="-2.935838">
        <ele>165.2</ele>
        <time>2019-06-27T07:30:31Z</time>
      </trkpt>
      <trkpt lat="43.277019" lon="-2.935740">
        <ele>169.3</ele>
        <time>2019-06-27T07:30:31Z</time>
      </trkpt>
      <trkpt lat="43.277005" lon="-2.935597">
        <ele>173.2</ele>
        <time>2019-06-27T07:30:31Z</time>
      </trkpt>
      <trkpt lat="43.276998" lon="-2.935473">
        <ele>176.1</ele>
        <time>2019-06-27T07:30:31Z</time>
      </trkpt>
      <trkpt lat="43.277041" lon="-2.935399">
        <ele>179.2</ele>
        <time>2019-06-27T07:30:31Z</time>
      </trkpt>
      <trkpt lat="43.277149" lon="-2.935361">
        <ele>183.5</ele>
        <time>2019-06-27T07:30:31Z</time>
      </trkpt>
      <trkpt lat="43.277247" lon="-2.935309">
        <ele>188.1</ele>
        <time>2019-06-27T07:30:31Z</time>
      </trkpt>
      <trkpt lat="43.277345" lon="-2.935257">
        <ele>193.5</ele>
        <time>2019-06-27T07:30:31Z</time>
      </trkpt>
      <trkpt lat="43.277442" lon="-2.935203">
        <ele>197.8</ele>
        <time>2019-06-27T07:30:31Z</time>
      </trkpt>
      <trkpt lat="43.277540" lon="-2.935149">
        <ele>201.3</ele>
        <time>2019-06-27T07:30:31Z</time>
      </trkpt>
      <trkpt lat="43.277647" lon="-2.935116">
        <ele>204.3</ele>
        <time>2019-06-27T07:30:31Z</time>
      </trkpt>
      <trkpt lat="43.277749" lon="-2.935099">
        <ele>206.0</ele>
        <time>2019-06-27T07:30:31Z</time>
      </trkpt>
      <trkpt lat="43.277830" lon="-2.935088">
        <ele>206.0</ele>
        <time>2019-06-27T07:30:31Z</time>
      </trkpt>
      <trkpt lat="43.277918" lon="-2.935027">
        <ele>206.3</ele>
        <time>2019-06-27T07:30:31Z</time>
      </trkpt>
      <trkpt lat="43.278021" lon="-2.934969">
        <ele>207.2</ele>
        <time>2019-06-27T07:30:31Z</time>
      </trkpt>
      <trkpt lat="43.278124" lon="-2.934912">
        <ele>207.0</ele>
        <time>2019-06-27T07:30:31Z</time>
      </trkpt>
      <trkpt lat="43.278221" lon="-2.934851">
        <ele>207.0</ele>
        <time>2019-06-27T07:30:31Z</time>
      </trkpt>
      <trkpt lat="43.278278" lon="-2.934824">
        <ele>207.0</ele>
        <time>2019-06-27T07:30:31Z</time>
      </trkpt>
      <trkpt lat="43.278348" lon="-2.934746">
        <ele>207.0</ele>
        <time>2019-06-27T07:30:31Z</time>
      </trkpt>
      <trkpt lat="43.278425" lon="-2.934663">
        <ele>207.0</ele>
        <time>2019-06-27T07:30:31Z</time>
      </trkpt>
      <trkpt lat="43.278501" lon="-2.934580">
        <ele>206.8</ele>
        <time>2019-06-27T07:30:31Z</time>
      </trkpt>
      <trkpt lat="43.278574" lon="-2.934492">
        <ele>206.9</ele>
        <time>2019-06-27T07:30:31Z</time>
      </trkpt>
      <trkpt lat="43.278644" lon="-2.934408">
        <ele>207.0</ele>
        <time>2019-06-27T07:30:31Z</time>
      </trkpt>
      <trkpt lat="43.278714" lon="-2.934324">
        <ele>207.0</ele>
        <time>2019-06-27T07:30:31Z</time>
      </trkpt>
      <trkpt lat="43.278784" lon="-2.934240">
        <ele>207.0</ele>
        <time>2019-06-27T07:30:31Z</time>
      </trkpt>
      <trkpt lat="43.278854" lon="-2.934156">
        <ele>207.0</ele>
        <time>2019-06-27T07:30:31Z</time>
      </trkpt>
      <trkpt lat="43.278924" lon="-2.934072">
        <ele>207.1</ele>
        <time>2019-06-27T07:30:31Z</time>
      </trkpt>
      <trkpt lat="43.278994" lon="-2.933988">
        <ele>208.0</ele>
        <time>2019-06-27T07:30:31Z</time>
      </trkpt>
      <trkpt lat="43.279053" lon="-2.933903">
        <ele>208.0</ele>
        <time>2019-06-27T07:30:31Z</time>
      </trkpt>
      <trkpt lat="43.279095" lon="-2.933791">
        <ele>208.0</ele>
        <time>2019-06-27T07:30:31Z</time>
      </trkpt>
      <trkpt lat="43.279124" lon="-2.933674">
        <ele>208.0</ele>
        <time>2019-06-27T07:30:31Z</time>
      </trkpt>
      <trkpt lat="43.279140" lon="-2.933542">
        <ele>208.7</ele>
        <time>2019-06-27T07:30:31Z</time>
      </trkpt>
      <trkpt lat="43.279140" lon="-2.933405">
        <ele>209.0</ele>
        <time>2019-06-27T07:30:31Z</time>
      </trkpt>
      <trkpt lat="43.279134" lon="-2.933269">
        <ele>209.0</ele>
        <time>2019-06-27T07:30:31Z</time>
      </trkpt>
      <trkpt lat="43.279101" lon="-2.933152">
        <ele>209.8</ele>
        <time>2019-06-27T07:30:31Z</time>
      </trkpt>
      <trkpt lat="43.279074" lon="-2.933035">
        <ele>210.0</ele>
        <time>2019-06-27T07:30:31Z</time>
      </trkpt>
      <trkpt lat="43.279047" lon="-2.932918">
        <ele>210.5</ele>
        <time>2019-06-27T07:30:31Z</time>
      </trkpt>
      <trkpt lat="43.279020" lon="-2.932801">
        <ele>210.1</ele>
        <time>2019-06-27T07:30:31Z</time>
      </trkpt>
      <trkpt lat="43.278992" lon="-2.932685">
        <ele>210.7</ele>
        <time>2019-06-27T07:30:31Z</time>
      </trkpt>
      <trkpt lat="43.278956" lon="-2.932556">
        <ele>211.0</ele>
        <time>2019-06-27T07:30:31Z</time>
      </trkpt>
      <trkpt lat="43.278921" lon="-2.932418">
        <ele>211.2</ele>
        <time>2019-06-27T07:30:31Z</time>
      </trkpt>
      <trkpt lat="43.278885" lon="-2.932279">
        <ele>211.2</ele>
        <time>2019-06-27T07:30:31Z</time>
      </trkpt>
      <trkpt lat="43.278849" lon="-2.932141">
        <ele>211.9</ele>
        <time>2019-06-27T07:30:31Z</time>
      </trkpt>
      <trkpt lat="43.278813" lon="-2.932003">
        <ele>212.0</ele>
        <time>2019-06-27T07:30:31Z</time>
      </trkpt>
      <trkpt lat="43.278778" lon="-2.931864">
        <ele>212.0</ele>
        <time>2019-06-27T07:30:31Z</time>
      </trkpt>
      <trkpt lat="43.278746" lon="-2.931742">
        <ele>212.6</ele>
        <time>2019-06-27T07:30:31Z</time>
      </trkpt>
      <trkpt lat="43.278711" lon="-2.931620">
        <ele>213.0</ele>
        <time>2019-06-27T07:30:31Z</time>
      </trkpt>
      <trkpt lat="43.278676" lon="-2.931483">
        <ele>213.0</ele>
        <time>2019-06-27T07:30:31Z</time>
      </trkpt>
      <trkpt lat="43.278642" lon="-2.931340">
        <ele>213.5</ele>
        <time>2019-06-27T07:30:31Z</time>
      </trkpt>
      <trkpt lat="43.278614" lon="-2.931177">
        <ele>214.0</ele>
        <time>2019-06-27T07:30:31Z</time>
      </trkpt>
      <trkpt lat="43.278596" lon="-2.931032">
        <ele>214.4</ele>
        <time>2019-06-27T07:30:31Z</time>
      </trkpt>
      <trkpt lat="43.278587" lon="-2.930889">
        <ele>214.6</ele>
        <time>2019-06-27T07:30:31Z</time>
      </trkpt>
      <trkpt lat="43.278598" lon="-2.930741">
        <ele>215.0</ele>
        <time>2019-06-27T07:30:31Z</time>
      </trkpt>
      <trkpt lat="43.278626" lon="-2.930594">
        <ele>215.1</ele>
        <time>2019-06-27T07:30:31Z</time>
      </trkpt>
      <trkpt lat="43.278653" lon="-2.930442">
        <ele>215.7</ele>
        <time>2019-06-27T07:30:31Z</time>
      </trkpt>
      <trkpt lat="43.278671" lon="-2.930288">
        <ele>216.1</ele>
        <time>2019-06-27T07:30:31Z</time>
      </trkpt>
      <trkpt lat="43.278666" lon="-2.930135">
        <ele>216.3</ele>
        <time>2019-06-27T07:30:31Z</time>
      </trkpt>
      <trkpt lat="43.278637" lon="-2.929982">
        <ele>216.5</ele>
        <time>2019-06-27T07:30:31Z</time>
      </trkpt>
      <trkpt lat="43.278588" lon="-2.929829">
        <ele>217.2</ele>
        <time>2019-06-27T07:30:31Z</time>
      </trkpt>
      <trkpt lat="43.278513" lon="-2.929700">
        <ele>217.6</ele>
        <time>2019-06-27T07:30:31Z</time>
      </trkpt>
      <trkpt lat="43.278437" lon="-2.929571">
        <ele>218.0</ele>
        <time>2019-06-27T07:30:31Z</time>
      </trkpt>
      <trkpt lat="43.278361" lon="-2.929442">
        <ele>218.1</ele>
        <time>2019-06-27T07:30:31Z</time>
      </trkpt>
      <trkpt lat="43.278285" lon="-2.929341">
        <ele>218.2</ele>
        <time>2019-06-27T07:30:31Z</time>
      </trkpt>
      <trkpt lat="43.278210" lon="-2.929234">
        <ele>218.0</ele>
        <time>2019-06-27T07:30:31Z</time>
      </trkpt>
      <trkpt lat="43.278138" lon="-2.929117">
        <ele>218.6</ele>
        <time>2019-06-27T07:30:31Z</time>
      </trkpt>
      <trkpt lat="43.278068" lon="-2.928992">
        <ele>219.1</ele>
        <time>2019-06-27T07:30:31Z</time>
      </trkpt>
      <trkpt lat="43.277988" lon="-2.928868">
        <ele>219.0</ele>
        <time>2019-06-27T07:30:31Z</time>
      </trkpt>
      <trkpt lat="43.277906" lon="-2.928747">
        <ele>219.6</ele>
        <time>2019-06-27T07:30:31Z</time>
      </trkpt>
      <trkpt lat="43.277825" lon="-2.928626">
        <ele>219.5</ele>
        <time>2019-06-27T07:30:31Z</time>
      </trkpt>
      <trkpt lat="43.277744" lon="-2.928505">
        <ele>219.9</ele>
        <time>2019-06-27T07:30:31Z</time>
      </trkpt>
      <trkpt lat="43.277676" lon="-2.928439">
        <ele>219.8</ele>
        <time>2019-06-27T07:30:31Z</time>
      </trkpt>
      <trkpt lat="43.277606" lon="-2.928507">
        <ele>221.0</ele>
        <time>2019-06-27T07:30:31Z</time>
      </trkpt>
      <trkpt lat="43.277562" lon="-2.928599">
        <ele>221.4</ele>
        <time>2019-06-27T07:30:31Z</time>
      </trkpt>
      <trkpt lat="43.277575" lon="-2.928718">
        <ele>222.0</ele>
        <time>2019-06-27T07:30:31Z</time>
      </trkpt>
      <trkpt lat="43.277571" lon="-2.928848">
        <ele>222.5</ele>
        <time>2019-06-27T07:30:31Z</time>
      </trkpt>
      <trkpt lat="43.277549" lon="-2.928975">
        <ele>223.5</ele>
        <time>2019-06-27T07:30:31Z</time>
      </trkpt>
      <trkpt lat="43.277509" lon="-2.929105">
        <ele>224.6</ele>
        <time>2019-06-27T07:30:31Z</time>
      </trkpt>
      <trkpt lat="43.277448" lon="-2.929249">
        <ele>227.0</ele>
        <time>2019-06-27T07:30:31Z</time>
      </trkpt>
      <trkpt lat="43.277380" lon="-2.929391">
        <ele>228.3</ele>
        <time>2019-06-27T07:30:31Z</time>
      </trkpt>
      <trkpt lat="43.277313" lon="-2.929532">
        <ele>228.1</ele>
        <time>2019-06-27T07:30:31Z</time>
      </trkpt>
      <trkpt lat="43.277257" lon="-2.929693">
        <ele>227.7</ele>
        <time>2019-06-27T07:30:31Z</time>
      </trkpt>
      <trkpt lat="43.277193" lon="-2.929845">
        <ele>225.0</ele>
        <time>2019-06-27T07:30:31Z</time>
      </trkpt>
      <trkpt lat="43.277128" lon="-2.929966">
        <ele>221.9</ele>
        <time>2019-06-27T07:30:31Z</time>
      </trkpt>
      <trkpt lat="43.277050" lon="-2.930035">
        <ele>219.2</ele>
        <time>2019-06-27T07:30:31Z</time>
      </trkpt>
      <trkpt lat="43.276954" lon="-2.930074">
        <ele>216.2</ele>
        <time>2019-06-27T07:30:31Z</time>
      </trkpt>
      <trkpt lat="43.276860" lon="-2.930068">
        <ele>214.0</ele>
        <time>2019-06-27T07:30:31Z</time>
      </trkpt>
      <trkpt lat="43.276784" lon="-2.930008">
        <ele>212.3</ele>
        <time>2019-06-27T07:30:31Z</time>
      </trkpt>
      <trkpt lat="43.276732" lon="-2.929892">
        <ele>211.2</ele>
        <time>2019-06-27T07:30:31Z</time>
      </trkpt>
      <trkpt lat="43.276721" lon="-2.929734">
        <ele>209.7</ele>
        <time>2019-06-27T07:30:31Z</time>
      </trkpt>
      <trkpt lat="43.276752" lon="-2.929572">
        <ele>208.8</ele>
        <time>2019-06-27T07:30:31Z</time>
      </trkpt>
      <trkpt lat="43.276799" lon="-2.929406">
        <ele>206.7</ele>
        <time>2019-06-27T07:30:31Z</time>
      </trkpt>
      <trkpt lat="43.276846" lon="-2.929240">
        <ele>204.1</ele>
        <time>2019-06-27T07:30:31Z</time>
      </trkpt>
      <trkpt lat="43.276884" lon="-2.929079">
        <ele>201.4</ele>
        <time>2019-06-27T07:30:31Z</time>
      </trkpt>
      <trkpt lat="43.276906" lon="-2.928913">
        <ele>198.5</ele>
        <time>2019-06-27T07:30:31Z</time>
      </trkpt>
      <trkpt lat="43.276878" lon="-2.928839">
        <ele>196.7</ele>
        <time>2019-06-27T07:30:31Z</time>
      </trkpt>
      <trkpt lat="43.276806" lon="-2.928850">
        <ele>194.1</ele>
        <time>2019-06-27T07:30:31Z</time>
      </trkpt>
      <trkpt lat="43.276734" lon="-2.928954">
        <ele>193.4</ele>
        <time>2019-06-27T07:30:31Z</time>
      </trkpt>
      <trkpt lat="43.276621" lon="-2.928936">
        <ele>189.6</ele>
        <time>2019-06-27T07:30:31Z</time>
      </trkpt>
      <trkpt lat="43.276508" lon="-2.928917">
        <ele>187.6</ele>
        <time>2019-06-27T07:30:31Z</time>
      </trkpt>
      <trkpt lat="43.276388" lon="-2.928889">
        <ele>183.6</ele>
        <time>2019-06-27T07:30:31Z</time>
      </trkpt>
      <trkpt lat="43.276267" lon="-2.928861">
        <ele>179.7</ele>
        <time>2019-06-27T07:30:31Z</time>
      </trkpt>
      <trkpt lat="43.276145" lon="-2.928833">
        <ele>176.1</ele>
        <time>2019-06-27T07:30:31Z</time>
      </trkpt>
      <trkpt lat="43.276023" lon="-2.928805">
        <ele>173.7</ele>
        <time>2019-06-27T07:30:31Z</time>
      </trkpt>
      <trkpt lat="43.275910" lon="-2.928766">
        <ele>171.7</ele>
        <time>2019-06-27T07:30:31Z</time>
      </trkpt>
      <trkpt lat="43.275822" lon="-2.928754">
        <ele>170.2</ele>
        <time>2019-06-27T07:30:31Z</time>
      </trkpt>
      <trkpt lat="43.275750" lon="-2.928686">
        <ele>170.6</ele>
        <time>2019-06-27T07:30:31Z</time>
      </trkpt>
      <trkpt lat="43.275677" lon="-2.928619">
        <ele>170.0</ele>
        <time>2019-06-27T07:30:31Z</time>
      </trkpt>
      <trkpt lat="43.275586" lon="-2.928585">
        <ele>168.6</ele>
        <time>2019-06-27T07:30:31Z</time>
      </trkpt>
      <trkpt lat="43.275490" lon="-2.928557">
        <ele>167.2</ele>
        <time>2019-06-27T07:30:31Z</time>
      </trkpt>
      <trkpt lat="43.275392" lon="-2.928476">
        <ele>167.0</ele>
        <time>2019-06-27T07:30:31Z</time>
      </trkpt>
      <trkpt lat="43.275294" lon="-2.928395">
        <ele>165.4</ele>
        <time>2019-06-27T07:30:31Z</time>
      </trkpt>
      <trkpt lat="43.275197" lon="-2.928314">
        <ele>164.4</ele>
        <time>2019-06-27T07:30:31Z</time>
      </trkpt>
      <trkpt lat="43.275099" lon="-2.928245">
        <ele>162.3</ele>
        <time>2019-06-27T07:30:31Z</time>
      </trkpt>
      <trkpt lat="43.275007" lon="-2.928227">
        <ele>160.7</ele>
        <time>2019-06-27T07:30:31Z</time>
      </trkpt>
      <trkpt lat="43.274937" lon="-2.928271">
        <ele>160.0</ele>
        <time>2019-06-27T07:30:31Z</time>
      </trkpt>
      <trkpt lat="43.274847" lon="-2.928277">
        <ele>160.1</ele>
        <time>2019-06-27T07:30:31Z</time>
      </trkpt>
      <trkpt lat="43.274760" lon="-2.928302">
        <ele>158.8</ele>
        <time>2019-06-27T07:30:31Z</time>
      </trkpt>
      <trkpt lat="43.274667" lon="-2.928326">
        <ele>155.4</ele>
        <time>2019-06-27T07:30:31Z</time>
      </trkpt>
      <trkpt lat="43.274577" lon="-2.928379">
        <ele>152.5</ele>
        <time>2019-06-27T07:30:31Z</time>
      </trkpt>
      <trkpt lat="43.274489" lon="-2.928440">
        <ele>150.4</ele>
        <time>2019-06-27T07:30:31Z</time>
      </trkpt>
      <trkpt lat="43.274402" lon="-2.928501">
        <ele>148.1</ele>
        <time>2019-06-27T07:30:31Z</time>
      </trkpt>
      <trkpt lat="43.274314" lon="-2.928562">
        <ele>146.5</ele>
        <time>2019-06-27T07:30:31Z</time>
      </trkpt>
      <trkpt lat="43.274223" lon="-2.928616">
        <ele>144.5</ele>
        <time>2019-06-27T07:30:31Z</time>
      </trkpt>
      <trkpt lat="43.274130" lon="-2.928670">
        <ele>142.4</ele>
        <time>2019-06-27T07:30:31Z</time>
      </trkpt>
      <trkpt lat="43.274061" lon="-2.928722">
        <ele>140.9</ele>
        <time>2019-06-27T07:30:31Z</time>
      </trkpt>
      <trkpt lat="43.274019" lon="-2.928624">
        <ele>140.0</ele>
        <time>2019-06-27T07:30:31Z</time>
      </trkpt>
      <trkpt lat="43.273985" lon="-2.928513">
        <ele>139.2</ele>
        <time>2019-06-27T07:30:31Z</time>
      </trkpt>
      <trkpt lat="43.273951" lon="-2.928402">
        <ele>139.0</ele>
        <time>2019-06-27T07:30:31Z</time>
      </trkpt>
      <trkpt lat="43.273892" lon="-2.928326">
        <ele>138.1</ele>
        <time>2019-06-27T07:30:31Z</time>
      </trkpt>
      <trkpt lat="43.273833" lon="-2.928250">
        <ele>137.1</ele>
        <time>2019-06-27T07:30:31Z</time>
      </trkpt>
      <trkpt lat="43.273764" lon="-2.928182">
        <ele>136.7</ele>
        <time>2019-06-27T07:30:31Z</time>
      </trkpt>
      <trkpt lat="43.273698" lon="-2.928115">
        <ele>136.3</ele>
        <time>2019-06-27T07:30:31Z</time>
      </trkpt>
      <trkpt lat="43.273646" lon="-2.928028">
        <ele>136.2</ele>
        <time>2019-06-27T07:30:31Z</time>
      </trkpt>
      <trkpt lat="43.273600" lon="-2.927944">
        <ele>135.8</ele>
        <time>2019-06-27T07:30:31Z</time>
      </trkpt>
      <trkpt lat="43.273569" lon="-2.927827">
        <ele>135.9</ele>
        <time>2019-06-27T07:30:31Z</time>
      </trkpt>
      <trkpt lat="43.273576" lon="-2.927714">
        <ele>136.2</ele>
        <time>2019-06-27T07:30:31Z</time>
      </trkpt>
      <trkpt lat="43.273600" lon="-2.927605">
        <ele>136.3</ele>
        <time>2019-06-27T07:30:31Z</time>
      </trkpt>
      <trkpt lat="43.273647" lon="-2.927498">
        <ele>135.5</ele>
        <time>2019-06-27T07:30:31Z</time>
      </trkpt>
      <trkpt lat="43.273708" lon="-2.927393">
        <ele>134.6</ele>
        <time>2019-06-27T07:30:31Z</time>
      </trkpt>
      <trkpt lat="43.273768" lon="-2.927288">
        <ele>133.5</ele>
        <time>2019-06-27T07:30:31Z</time>
      </trkpt>
      <trkpt lat="43.273786" lon="-2.927176">
        <ele>132.0</ele>
        <time>2019-06-27T07:30:31Z</time>
      </trkpt>
      <trkpt lat="43.273796" lon="-2.927066">
        <ele>132.0</ele>
        <time>2019-06-27T07:30:31Z</time>
      </trkpt>
      <trkpt lat="43.273806" lon="-2.926956">
        <ele>132.0</ele>
        <time>2019-06-27T07:30:31Z</time>
      </trkpt>
      <trkpt lat="43.273815" lon="-2.926846">
        <ele>132.0</ele>
        <time>2019-06-27T07:30:31Z</time>
      </trkpt>
      <trkpt lat="43.273818" lon="-2.926722">
        <ele>133.0</ele>
        <time>2019-06-27T07:30:31Z</time>
      </trkpt>
      <trkpt lat="43.273792" lon="-2.926647">
        <ele>133.4</ele>
        <time>2019-06-27T07:30:31Z</time>
      </trkpt>
      <trkpt lat="43.273722" lon="-2.926627">
        <ele>134.4</ele>
        <time>2019-06-27T07:30:31Z</time>
      </trkpt>
      <trkpt lat="43.273651" lon="-2.926607">
        <ele>135.0</ele>
        <time>2019-06-27T07:30:31Z</time>
      </trkpt>
      <trkpt lat="43.273580" lon="-2.926595">
        <ele>135.2</ele>
        <time>2019-06-27T07:30:31Z</time>
      </trkpt>
      <trkpt lat="43.273508" lon="-2.926578">
        <ele>135.4</ele>
        <time>2019-06-27T07:30:31Z</time>
      </trkpt>
      <trkpt lat="43.273440" lon="-2.926548">
        <ele>136.8</ele>
        <time>2019-06-27T07:30:31Z</time>
      </trkpt>
      <trkpt lat="43.273365" lon="-2.926518">
        <ele>137.0</ele>
        <time>2019-06-27T07:30:31Z</time>
      </trkpt>
      <trkpt lat="43.273274" lon="-2.926490">
        <ele>136.8</ele>
        <time>2019-06-27T07:30:31Z</time>
      </trkpt>
      <trkpt lat="43.273182" lon="-2.926452">
        <ele>136.2</ele>
        <time>2019-06-27T07:30:31Z</time>
      </trkpt>
      <trkpt lat="43.273097" lon="-2.926406">
        <ele>135.7</ele>
        <time>2019-06-27T07:30:31Z</time>
      </trkpt>
      <trkpt lat="43.273017" lon="-2.926356">
        <ele>135.7</ele>
        <time>2019-06-27T07:30:31Z</time>
      </trkpt>
      <trkpt lat="43.272945" lon="-2.926299">
        <ele>136.0</ele>
        <time>2019-06-27T07:30:31Z</time>
      </trkpt>
      <trkpt lat="43.272873" lon="-2.926240">
        <ele>136.0</ele>
        <time>2019-06-27T07:30:31Z</time>
      </trkpt>
      <trkpt lat="43.272803" lon="-2.926174">
        <ele>136.0</ele>
        <time>2019-06-27T07:30:31Z</time>
      </trkpt>
      <trkpt lat="43.272813" lon="-2.926052">
        <ele>136.2</ele>
        <time>2019-06-27T07:30:31Z</time>
      </trkpt>
      <trkpt lat="43.272823" lon="-2.925930">
        <ele>138.0</ele>
        <time>2019-06-27T07:30:31Z</time>
      </trkpt>
      <trkpt lat="43.272822" lon="-2.925800">
        <ele>140.8</ele>
        <time>2019-06-27T07:30:31Z</time>
      </trkpt>
      <trkpt lat="43.272867" lon="-2.925706">
        <ele>143.2</ele>
        <time>2019-06-27T07:30:31Z</time>
      </trkpt>
      <trkpt lat="43.272916" lon="-2.925616">
        <ele>145.1</ele>
        <time>2019-06-27T07:30:31Z</time>
      </trkpt>
      <trkpt lat="43.272966" lon="-2.925516">
        <ele>146.5</ele>
        <time>2019-06-27T07:30:31Z</time>
      </trkpt>
      <trkpt lat="43.273027" lon="-2.925411">
        <ele>148.4</ele>
        <time>2019-06-27T07:30:31Z</time>
      </trkpt>
      <trkpt lat="43.273093" lon="-2.925305">
        <ele>149.8</ele>
        <time>2019-06-27T07:30:31Z</time>
      </trkpt>
      <trkpt lat="43.273161" lon="-2.925197">
        <ele>151.8</ele>
        <time>2019-06-27T07:30:31Z</time>
      </trkpt>
      <trkpt lat="43.273239" lon="-2.925112">
        <ele>153.5</ele>
        <time>2019-06-27T07:30:31Z</time>
      </trkpt>
      <trkpt lat="43.273314" lon="-2.925019">
        <ele>155.8</ele>
        <time>2019-06-27T07:30:31Z</time>
      </trkpt>
      <trkpt lat="43.273389" lon="-2.924925">
        <ele>158.6</ele>
        <time>2019-06-27T07:30:31Z</time>
      </trkpt>
      <trkpt lat="43.273463" lon="-2.924832">
        <ele>161.3</ele>
        <time>2019-06-27T07:30:31Z</time>
      </trkpt>
      <trkpt lat="43.273520" lon="-2.924726">
        <ele>164.0</ele>
        <time>2019-06-27T07:30:31Z</time>
      </trkpt>
      <trkpt lat="43.273541" lon="-2.924604">
        <ele>166.5</ele>
        <time>2019-06-27T07:30:31Z</time>
      </trkpt>
      <trkpt lat="43.273495" lon="-2.924515">
        <ele>167.9</ele>
        <time>2019-06-27T07:30:31Z</time>
      </trkpt>
      <trkpt lat="43.273442" lon="-2.924428">
        <ele>169.4</ele>
        <time>2019-06-27T07:30:31Z</time>
      </trkpt>
      <trkpt lat="43.273393" lon="-2.924301">
        <ele>171.9</ele>
        <time>2019-06-27T07:30:31Z</time>
      </trkpt>
      <trkpt lat="43.273324" lon="-2.924157">
        <ele>173.7</ele>
        <time>2019-06-27T07:30:31Z</time>
      </trkpt>
      <trkpt lat="43.273268" lon="-2.924015">
        <ele>175.4</ele>
        <time>2019-06-27T07:30:31Z</time>
      </trkpt>
      <trkpt lat="43.273238" lon="-2.923878">
        <ele>177.1</ele>
        <time>2019-06-27T07:30:31Z</time>
      </trkpt>
      <trkpt lat="43.273195" lon="-2.923741">
        <ele>179.2</ele>
        <time>2019-06-27T07:30:31Z</time>
      </trkpt>
      <trkpt lat="43.273152" lon="-2.923636">
        <ele>180.0</ele>
        <time>2019-06-27T07:30:31Z</time>
      </trkpt>
      <trkpt lat="43.273131" lon="-2.923489">
        <ele>182.9</ele>
        <time>2019-06-27T07:30:31Z</time>
      </trkpt>
      <trkpt lat="43.273038" lon="-2.923521">
        <ele>181.3</ele>
        <time>2019-06-27T07:30:31Z</time>
      </trkpt>
      <trkpt lat="43.272944" lon="-2.923552">
        <ele>178.3</ele>
        <time>2019-06-27T07:30:31Z</time>
      </trkpt>
      <trkpt lat="43.272846" lon="-2.923576">
        <ele>175.1</ele>
        <time>2019-06-27T07:30:31Z</time>
      </trkpt>
      <trkpt lat="43.272739" lon="-2.923576">
        <ele>171.5</ele>
        <time>2019-06-27T07:30:31Z</time>
      </trkpt>
      <trkpt lat="43.272633" lon="-2.923576">
        <ele>168.0</ele>
        <time>2019-06-27T07:30:31Z</time>
      </trkpt>
      <trkpt lat="43.272535" lon="-2.923542">
        <ele>165.6</ele>
        <time>2019-06-27T07:30:31Z</time>
      </trkpt>
      <trkpt lat="43.272445" lon="-2.923499">
        <ele>164.0</ele>
        <time>2019-06-27T07:30:31Z</time>
      </trkpt>
      <trkpt lat="43.272340" lon="-2.923458">
        <ele>160.5</ele>
        <time>2019-06-27T07:30:31Z</time>
      </trkpt>
      <trkpt lat="43.272246" lon="-2.923394">
        <ele>157.4</ele>
        <time>2019-06-27T07:30:31Z</time>
      </trkpt>
      <trkpt lat="43.272146" lon="-2.923302">
        <ele>154.0</ele>
        <time>2019-06-27T07:30:31Z</time>
      </trkpt>
      <trkpt lat="43.272084" lon="-2.923197">
        <ele>151.7</ele>
        <time>2019-06-27T07:30:31Z</time>
      </trkpt>
      <trkpt lat="43.272051" lon="-2.923081">
        <ele>149.1</ele>
        <time>2019-06-27T07:30:31Z</time>
      </trkpt>
      <trkpt lat="43.272104" lon="-2.922963">
        <ele>147.3</ele>
        <time>2019-06-27T07:30:31Z</time>
      </trkpt>
      <trkpt lat="43.272156" lon="-2.922844">
        <ele>146.0</ele>
        <time>2019-06-27T07:30:31Z</time>
      </trkpt>
      <trkpt lat="43.272199" lon="-2.922699">
        <ele>145.2</ele>
        <time>2019-06-27T07:30:31Z</time>
      </trkpt>
      <trkpt lat="43.272251" lon="-2.922563">
        <ele>145.9</ele>
        <time>2019-06-27T07:30:31Z</time>
      </trkpt>
      <trkpt lat="43.272323" lon="-2.922429">
        <ele>146.9</ele>
        <time>2019-06-27T07:30:31Z</time>
      </trkpt>
      <trkpt lat="43.272396" lon="-2.922296">
        <ele>147.0</ele>
        <time>2019-06-27T07:30:31Z</time>
      </trkpt>
      <trkpt lat="43.272452" lon="-2.922151">
        <ele>147.4</ele>
        <time>2019-06-27T07:30:31Z</time>
      </trkpt>
      <trkpt lat="43.272484" lon="-2.921963">
        <ele>150.2</ele>
        <time>2019-06-27T07:30:31Z</time>
      </trkpt>
      <trkpt lat="43.272530" lon="-2.921766">
        <ele>152.9</ele>
        <time>2019-06-27T07:30:31Z</time>
      </trkpt>
      <trkpt lat="43.272579" lon="-2.921703">
        <ele>153.9</ele>
        <time>2019-06-27T07:30:31Z</time>
      </trkpt>
      <trkpt lat="43.272626" lon="-2.921593">
        <ele>152.7</ele>
        <time>2019-06-27T07:30:31Z</time>
      </trkpt>
      <trkpt lat="43.272627" lon="-2.921454">
        <ele>151.2</ele>
        <time>2019-06-27T07:30:31Z</time>
      </trkpt>
      <trkpt lat="43.272593" lon="-2.921350">
        <ele>149.5</ele>
        <time>2019-06-27T07:30:31Z</time>
      </trkpt>
      <trkpt lat="43.272599" lon="-2.921254">
        <ele>148.6</ele>
        <time>2019-06-27T07:30:31Z</time>
      </trkpt>
      <trkpt lat="43.272621" lon="-2.921132">
        <ele>150.0</ele>
        <time>2019-06-27T07:30:31Z</time>
      </trkpt>
      <trkpt lat="43.272635" lon="-2.920971">
        <ele>151.1</ele>
        <time>2019-06-27T07:30:31Z</time>
      </trkpt>
      <trkpt lat="43.272610" lon="-2.920867">
        <ele>150.0</ele>
        <time>2019-06-27T07:30:31Z</time>
      </trkpt>
      <trkpt lat="43.272540" lon="-2.920794">
        <ele>151.2</ele>
        <time>2019-06-27T07:30:31Z</time>
      </trkpt>
      <trkpt lat="43.272475" lon="-2.920701">
        <ele>155.4</ele>
        <time>2019-06-27T07:30:31Z</time>
      </trkpt>
      <trkpt lat="43.272408" lon="-2.920587">
        <ele>159.6</ele>
        <time>2019-06-27T07:30:31Z</time>
      </trkpt>
      <trkpt lat="43.272353" lon="-2.920447">
        <ele>161.1</ele>
        <time>2019-06-27T07:30:31Z</time>
      </trkpt>
      <trkpt lat="43.272294" lon="-2.920282">
        <ele>162.1</ele>
        <time>2019-06-27T07:30:31Z</time>
      </trkpt>
      <trkpt lat="43.272255" lon="-2.920126">
        <ele>165.1</ele>
        <time>2019-06-27T07:30:31Z</time>
      </trkpt>
      <trkpt lat="43.272182" lon="-2.919999">
        <ele>167.0</ele>
        <time>2019-06-27T07:30:31Z</time>
      </trkpt>
      <trkpt lat="43.272101" lon="-2.919850">
        <ele>171.8</ele>
        <time>2019-06-27T07:30:31Z</time>
      </trkpt>
      <trkpt lat="43.272020" lon="-2.919701">
        <ele>176.1</ele>
        <time>2019-06-27T07:30:31Z</time>
      </trkpt>
      <trkpt lat="43.271955" lon="-2.919557">
        <ele>178.4</ele>
        <time>2019-06-27T07:30:31Z</time>
      </trkpt>
      <trkpt lat="43.271904" lon="-2.919409">
        <ele>181.8</ele>
        <time>2019-06-27T07:30:31Z</time>
      </trkpt>
      <trkpt lat="43.271887" lon="-2.919261">
        <ele>184.9</ele>
        <time>2019-06-27T07:30:31Z</time>
      </trkpt>
      <trkpt lat="43.271906" lon="-2.919134">
        <ele>187.4</ele>
        <time>2019-06-27T07:30:31Z</time>
      </trkpt>
      <trkpt lat="43.271959" lon="-2.919009">
        <ele>188.5</ele>
        <time>2019-06-27T07:30:31Z</time>
      </trkpt>
      <trkpt lat="43.272031" lon="-2.918891">
        <ele>190.0</ele>
        <time>2019-06-27T07:30:31Z</time>
      </trkpt>
      <trkpt lat="43.272081" lon="-2.918743">
        <ele>191.0</ele>
        <time>2019-06-27T07:30:31Z</time>
      </trkpt>
      <trkpt lat="43.272074" lon="-2.918587">
        <ele>191.1</ele>
        <time>2019-06-27T07:30:31Z</time>
      </trkpt>
      <trkpt lat="43.272017" lon="-2.918434">
        <ele>192.1</ele>
        <time>2019-06-27T07:30:31Z</time>
      </trkpt>
      <trkpt lat="43.271952" lon="-2.918290">
        <ele>192.8</ele>
        <time>2019-06-27T07:30:31Z</time>
      </trkpt>
      <trkpt lat="43.271894" lon="-2.918148">
        <ele>194.1</ele>
        <time>2019-06-27T07:30:31Z</time>
      </trkpt>
      <trkpt lat="43.271836" lon="-2.918005">
        <ele>195.4</ele>
        <time>2019-06-27T07:30:31Z</time>
      </trkpt>
      <trkpt lat="43.271795" lon="-2.917853">
        <ele>196.0</ele>
        <time>2019-06-27T07:30:31Z</time>
      </trkpt>
      <trkpt lat="43.271755" lon="-2.917689">
        <ele>195.9</ele>
        <time>2019-06-27T07:30:31Z</time>
      </trkpt>
      <trkpt lat="43.271743" lon="-2.917531">
        <ele>195.5</ele>
        <time>2019-06-27T07:30:31Z</time>
      </trkpt>
      <trkpt lat="43.271720" lon="-2.917369">
        <ele>196.0</ele>
        <time>2019-06-27T07:30:31Z</time>
      </trkpt>
      <trkpt lat="43.271694" lon="-2.917205">
        <ele>197.1</ele>
        <time>2019-06-27T07:30:31Z</time>
      </trkpt>
      <trkpt lat="43.271668" lon="-2.917041">
        <ele>198.2</ele>
        <time>2019-06-27T07:30:31Z</time>
      </trkpt>
      <trkpt lat="43.271694" lon="-2.916897">
        <ele>201.7</ele>
        <time>2019-06-27T07:30:31Z</time>
      </trkpt>
      <trkpt lat="43.271737" lon="-2.916761">
        <ele>203.0</ele>
        <time>2019-06-27T07:30:31Z</time>
      </trkpt>
      <trkpt lat="43.271765" lon="-2.916616">
        <ele>204.1</ele>
        <time>2019-06-27T07:30:31Z</time>
      </trkpt>
      <trkpt lat="43.271745" lon="-2.916435">
        <ele>204.3</ele>
        <time>2019-06-27T07:30:31Z</time>
      </trkpt>
      <trkpt lat="43.271707" lon="-2.916260">
        <ele>203.8</ele>
        <time>2019-06-27T07:30:31Z</time>
      </trkpt>
      <trkpt lat="43.271670" lon="-2.916122">
        <ele>203.1</ele>
        <time>2019-06-27T07:30:31Z</time>
      </trkpt>
      <trkpt lat="43.271595" lon="-2.916027">
        <ele>202.8</ele>
        <time>2019-06-27T07:30:31Z</time>
      </trkpt>
      <trkpt lat="43.271517" lon="-2.915943">
        <ele>202.8</ele>
        <time>2019-06-27T07:30:31Z</time>
      </trkpt>
      <trkpt lat="43.271445" lon="-2.915860">
        <ele>202.8</ele>
        <time>2019-06-27T07:30:31Z</time>
      </trkpt>
      <trkpt lat="43.271396" lon="-2.915728">
        <ele>203.3</ele>
        <time>2019-06-27T07:30:31Z</time>
      </trkpt>
      <trkpt lat="43.271322" lon="-2.915609">
        <ele>203.3</ele>
        <time>2019-06-27T07:30:31Z</time>
      </trkpt>
      <trkpt lat="43.271235" lon="-2.915541">
        <ele>203.6</ele>
        <time>2019-06-27T07:30:31Z</time>
      </trkpt>
      <trkpt lat="43.271129" lon="-2.915461">
        <ele>203.9</ele>
        <time>2019-06-27T07:30:31Z</time>
      </trkpt>
      <trkpt lat="43.271022" lon="-2.915381">
        <ele>205.0</ele>
        <time>2019-06-27T07:30:31Z</time>
      </trkpt>
      <trkpt lat="43.270926" lon="-2.915273">
        <ele>207.4</ele>
        <time>2019-06-27T07:30:31Z</time>
      </trkpt>
      <trkpt lat="43.270834" lon="-2.915160">
        <ele>209.2</ele>
        <time>2019-06-27T07:30:31Z</time>
      </trkpt>
      <trkpt lat="43.270764" lon="-2.915040">
        <ele>210.6</ele>
        <time>2019-06-27T07:30:31Z</time>
      </trkpt>
      <trkpt lat="43.270706" lon="-2.914909">
        <ele>209.6</ele>
        <time>2019-06-27T07:30:31Z</time>
      </trkpt>
      <trkpt lat="43.270677" lon="-2.914788">
        <ele>209.7</ele>
        <time>2019-06-27T07:30:31Z</time>
      </trkpt>
      <trkpt lat="43.270622" lon="-2.914681">
        <ele>208.6</ele>
        <time>2019-06-27T07:30:31Z</time>
      </trkpt>
      <trkpt lat="43.270551" lon="-2.914559">
        <ele>206.8</ele>
        <time>2019-06-27T07:30:31Z</time>
      </trkpt>
      <trkpt lat="43.270480" lon="-2.914437">
        <ele>205.7</ele>
        <time>2019-06-27T07:30:31Z</time>
      </trkpt>
      <trkpt lat="43.270408" lon="-2.914322">
        <ele>204.3</ele>
        <time>2019-06-27T07:30:31Z</time>
      </trkpt>
      <trkpt lat="43.270336" lon="-2.914206">
        <ele>202.6</ele>
        <time>2019-06-27T07:30:31Z</time>
      </trkpt>
      <trkpt lat="43.270286" lon="-2.914088">
        <ele>201.5</ele>
        <time>2019-06-27T07:30:31Z</time>
      </trkpt>
      <trkpt lat="43.270236" lon="-2.913970">
        <ele>200.3</ele>
        <time>2019-06-27T07:30:31Z</time>
      </trkpt>
      <trkpt lat="43.270177" lon="-2.913870">
        <ele>198.8</ele>
        <time>2019-06-27T07:30:31Z</time>
      </trkpt>
      <trkpt lat="43.270105" lon="-2.913779">
        <ele>198.0</ele>
        <time>2019-06-27T07:30:31Z</time>
      </trkpt>
      <trkpt lat="43.270012" lon="-2.913702">
        <ele>197.2</ele>
        <time>2019-06-27T07:30:31Z</time>
      </trkpt>
      <trkpt lat="43.269925" lon="-2.913652">
        <ele>195.9</ele>
        <time>2019-06-27T07:30:31Z</time>
      </trkpt>
      <trkpt lat="43.269838" lon="-2.913633">
        <ele>194.3</ele>
        <time>2019-06-27T07:30:31Z</time>
      </trkpt>
      <trkpt lat="43.269750" lon="-2.913621">
        <ele>192.9</ele>
        <time>2019-06-27T07:30:31Z</time>
      </trkpt>
      <trkpt lat="43.269668" lon="-2.913620">
        <ele>191.4</ele>
        <time>2019-06-27T07:30:31Z</time>
      </trkpt>
      <trkpt lat="43.269588" lon="-2.913612">
        <ele>189.7</ele>
        <time>2019-06-27T07:30:31Z</time>
      </trkpt>
      <trkpt lat="43.269505" lon="-2.913597">
        <ele>188.1</ele>
        <time>2019-06-27T07:30:31Z</time>
      </trkpt>
      <trkpt lat="43.269405" lon="-2.913539">
        <ele>185.8</ele>
        <time>2019-06-27T07:30:31Z</time>
      </trkpt>
      <trkpt lat="43.269334" lon="-2.913441">
        <ele>184.2</ele>
        <time>2019-06-27T07:30:31Z</time>
      </trkpt>
      <trkpt lat="43.269319" lon="-2.913333">
        <ele>182.2</ele>
        <time>2019-06-27T07:30:31Z</time>
      </trkpt>
      <trkpt lat="43.269337" lon="-2.913198">
        <ele>180.5</ele>
        <time>2019-06-27T07:30:31Z</time>
      </trkpt>
      <trkpt lat="43.269368" lon="-2.913073">
        <ele>179.1</ele>
        <time>2019-06-27T07:30:31Z</time>
      </trkpt>
      <trkpt lat="43.269384" lon="-2.912943">
        <ele>179.4</ele>
        <time>2019-06-27T07:30:31Z</time>
      </trkpt>
      <trkpt lat="43.269389" lon="-2.912813">
        <ele>178.7</ele>
        <time>2019-06-27T07:30:31Z</time>
      </trkpt>
      <trkpt lat="43.269361" lon="-2.912698">
        <ele>177.7</ele>
        <time>2019-06-27T07:30:31Z</time>
      </trkpt>
      <trkpt lat="43.269338" lon="-2.912583">
        <ele>177.2</ele>
        <time>2019-06-27T07:30:31Z</time>
      </trkpt>
      <trkpt lat="43.269315" lon="-2.912460">
        <ele>176.6</ele>
        <time>2019-06-27T07:30:31Z</time>
      </trkpt>
      <trkpt lat="43.269253" lon="-2.912335">
        <ele>176.3</ele>
        <time>2019-06-27T07:30:31Z</time>
      </trkpt>
      <trkpt lat="43.269186" lon="-2.912233">
        <ele>176.1</ele>
        <time>2019-06-27T07:30:31Z</time>
      </trkpt>
      <trkpt lat="43.269096" lon="-2.912168">
        <ele>175.7</ele>
        <time>2019-06-27T07:30:31Z</time>
      </trkpt>
      <trkpt lat="43.269007" lon="-2.912082">
        <ele>177.6</ele>
        <time>2019-06-27T07:30:31Z</time>
      </trkpt>
      <trkpt lat="43.268918" lon="-2.911996">
        <ele>179.1</ele>
        <time>2019-06-27T07:30:31Z</time>
      </trkpt>
      <trkpt lat="43.268884" lon="-2.911888">
        <ele>180.2</ele>
        <time>2019-06-27T07:30:31Z</time>
      </trkpt>
      <trkpt lat="43.268864" lon="-2.911766">
        <ele>182.3</ele>
        <time>2019-06-27T07:30:31Z</time>
      </trkpt>
      <trkpt lat="43.268822" lon="-2.911634">
        <ele>183.1</ele>
        <time>2019-06-27T07:30:31Z</time>
      </trkpt>
      <trkpt lat="43.268762" lon="-2.911497">
        <ele>185.3</ele>
        <time>2019-06-27T07:30:31Z</time>
      </trkpt>
      <trkpt lat="43.268683" lon="-2.911407">
        <ele>187.6</ele>
        <time>2019-06-27T07:30:31Z</time>
      </trkpt>
      <trkpt lat="43.268587" lon="-2.911327">
        <ele>189.3</ele>
        <time>2019-06-27T07:30:31Z</time>
      </trkpt>
      <trkpt lat="43.268479" lon="-2.911287">
        <ele>191.2</ele>
        <time>2019-06-27T07:30:31Z</time>
      </trkpt>
      <trkpt lat="43.268359" lon="-2.911275">
        <ele>193.3</ele>
        <time>2019-06-27T07:30:31Z</time>
      </trkpt>
      <trkpt lat="43.268240" lon="-2.911281">
        <ele>196.7</ele>
        <time>2019-06-27T07:30:31Z</time>
      </trkpt>
      <trkpt lat="43.268122" lon="-2.911288">
        <ele>199.2</ele>
        <time>2019-06-27T07:30:31Z</time>
      </trkpt>
      <trkpt lat="43.268031" lon="-2.911232">
        <ele>202.6</ele>
        <time>2019-06-27T07:30:31Z</time>
      </trkpt>
      <trkpt lat="43.267982" lon="-2.911116">
        <ele>204.5</ele>
        <time>2019-06-27T07:30:31Z</time>
      </trkpt>
      <trkpt lat="43.267964" lon="-2.910983">
        <ele>205.5</ele>
        <time>2019-06-27T07:30:31Z</time>
      </trkpt>
      <trkpt lat="43.267961" lon="-2.910821">
        <ele>206.7</ele>
        <time>2019-06-27T07:30:31Z</time>
      </trkpt>
      <trkpt lat="43.267975" lon="-2.910636">
        <ele>207.0</ele>
        <time>2019-06-27T07:30:31Z</time>
      </trkpt>
      <trkpt lat="43.267982" lon="-2.910446">
        <ele>204.9</ele>
        <time>2019-06-27T07:30:31Z</time>
      </trkpt>
      <trkpt lat="43.268007" lon="-2.910261">
        <ele>202.8</ele>
        <time>2019-06-27T07:30:31Z</time>
      </trkpt>
      <trkpt lat="43.268043" lon="-2.910089">
        <ele>202.3</ele>
        <time>2019-06-27T07:30:31Z</time>
      </trkpt>
      <trkpt lat="43.268086" lon="-2.909939">
        <ele>202.4</ele>
        <time>2019-06-27T07:30:31Z</time>
      </trkpt>
      <trkpt lat="43.268129" lon="-2.909790">
        <ele>202.8</ele>
        <time>2019-06-27T07:30:31Z</time>
      </trkpt>
      <trkpt lat="43.268193" lon="-2.909665">
        <ele>203.7</ele>
        <time>2019-06-27T07:30:31Z</time>
      </trkpt>
      <trkpt lat="43.268244" lon="-2.909555">
        <ele>206.1</ele>
        <time>2019-06-27T07:30:31Z</time>
      </trkpt>
      <trkpt lat="43.268271" lon="-2.909390">
        <ele>208.1</ele>
        <time>2019-06-27T07:30:31Z</time>
      </trkpt>
      <trkpt lat="43.268265" lon="-2.909246">
        <ele>206.5</ele>
        <time>2019-06-27T07:30:31Z</time>
      </trkpt>
      <trkpt lat="43.268233" lon="-2.909098">
        <ele>207.5</ele>
        <time>2019-06-27T07:30:31Z</time>
      </trkpt>
      <trkpt lat="43.268196" lon="-2.908932">
        <ele>206.8</ele>
        <time>2019-06-27T07:30:31Z</time>
      </trkpt>
      <trkpt lat="43.268166" lon="-2.908755">
        <ele>203.8</ele>
        <time>2019-06-27T07:30:31Z</time>
      </trkpt>
      <trkpt lat="43.268135" lon="-2.908578">
        <ele>201.8</ele>
        <time>2019-06-27T07:30:31Z</time>
      </trkpt>
      <trkpt lat="43.268083" lon="-2.908487">
        <ele>198.9</ele>
        <time>2019-06-27T07:30:31Z</time>
      </trkpt>
      <trkpt lat="43.268013" lon="-2.908430">
        <ele>197.0</ele>
        <time>2019-06-27T07:30:31Z</time>
      </trkpt>
      <trkpt lat="43.267907" lon="-2.908402">
        <ele>195.4</ele>
        <time>2019-06-27T07:30:31Z</time>
      </trkpt>
      <trkpt lat="43.267775" lon="-2.908418">
        <ele>193.3</ele>
        <time>2019-06-27T07:30:31Z</time>
      </trkpt>
      <trkpt lat="43.267644" lon="-2.908461">
        <ele>191.9</ele>
        <time>2019-06-27T07:30:31Z</time>
      </trkpt>
      <trkpt lat="43.267514" lon="-2.908513">
        <ele>190.4</ele>
        <time>2019-06-27T07:30:31Z</time>
      </trkpt>
      <trkpt lat="43.267389" lon="-2.908580">
        <ele>189.4</ele>
        <time>2019-06-27T07:30:31Z</time>
      </trkpt>
      <trkpt lat="43.267267" lon="-2.908658">
        <ele>189.6</ele>
        <time>2019-06-27T07:30:31Z</time>
      </trkpt>
      <trkpt lat="43.267146" lon="-2.908741">
        <ele>188.2</ele>
        <time>2019-06-27T07:30:31Z</time>
      </trkpt>
      <trkpt lat="43.267025" lon="-2.908825">
        <ele>185.5</ele>
        <time>2019-06-27T07:30:31Z</time>
      </trkpt>
      <trkpt lat="43.266902" lon="-2.908859">
        <ele>183.5</ele>
        <time>2019-06-27T07:30:31Z</time>
      </trkpt>
      <trkpt lat="43.266790" lon="-2.908832">
        <ele>181.2</ele>
        <time>2019-06-27T07:30:31Z</time>
      </trkpt>
      <trkpt lat="43.266686" lon="-2.908758">
        <ele>178.6</ele>
        <time>2019-06-27T07:30:31Z</time>
      </trkpt>
      <trkpt lat="43.266600" lon="-2.908647">
        <ele>177.9</ele>
        <time>2019-06-27T07:30:31Z</time>
      </trkpt>
      <trkpt lat="43.266508" lon="-2.908541">
        <ele>177.4</ele>
        <time>2019-06-27T07:30:31Z</time>
      </trkpt>
      <trkpt lat="43.266443" lon="-2.908472">
        <ele>176.9</ele>
        <time>2019-06-27T07:30:31Z</time>
      </trkpt>
      <trkpt lat="43.266353" lon="-2.908481">
        <ele>176.7</ele>
        <time>2019-06-27T07:30:31Z</time>
      </trkpt>
      <trkpt lat="43.266267" lon="-2.908530">
        <ele>178.5</ele>
        <time>2019-06-27T07:30:31Z</time>
      </trkpt>
      <trkpt lat="43.266182" lon="-2.908648">
        <ele>177.9</ele>
        <time>2019-06-27T07:30:31Z</time>
      </trkpt>
      <trkpt lat="43.266097" lon="-2.908766">
        <ele>178.8</ele>
        <time>2019-06-27T07:30:31Z</time>
      </trkpt>
      <trkpt lat="43.266004" lon="-2.908864">
        <ele>179.6</ele>
        <time>2019-06-27T07:30:31Z</time>
      </trkpt>
      <trkpt lat="43.265920" lon="-2.908941">
        <ele>181.0</ele>
        <time>2019-06-27T07:30:31Z</time>
      </trkpt>
      <trkpt lat="43.265823" lon="-2.908996">
        <ele>183.6</ele>
        <time>2019-06-27T07:30:31Z</time>
      </trkpt>
      <trkpt lat="43.265725" lon="-2.909052">
        <ele>185.1</ele>
        <time>2019-06-27T07:30:31Z</time>
      </trkpt>
      <trkpt lat="43.265623" lon="-2.909069">
        <ele>186.8</ele>
        <time>2019-06-27T07:30:31Z</time>
      </trkpt>
      <trkpt lat="43.265525" lon="-2.909070">
        <ele>187.4</ele>
        <time>2019-06-27T07:30:31Z</time>
      </trkpt>
      <trkpt lat="43.265434" lon="-2.909046">
        <ele>187.5</ele>
        <time>2019-06-27T07:30:31Z</time>
      </trkpt>
      <trkpt lat="43.265334" lon="-2.908994">
        <ele>187.4</ele>
        <time>2019-06-27T07:30:31Z</time>
      </trkpt>
      <trkpt lat="43.265232" lon="-2.908934">
        <ele>188.1</ele>
        <time>2019-06-27T07:30:31Z</time>
      </trkpt>
      <trkpt lat="43.265129" lon="-2.908873">
        <ele>187.8</ele>
        <time>2019-06-27T07:30:31Z</time>
      </trkpt>
      <trkpt lat="43.265026" lon="-2.908812">
        <ele>187.5</ele>
        <time>2019-06-27T07:30:31Z</time>
      </trkpt>
      <trkpt lat="43.264933" lon="-2.908799">
        <ele>186.9</ele>
        <time>2019-06-27T07:30:31Z</time>
      </trkpt>
      <trkpt lat="43.264837" lon="-2.908793">
        <ele>185.9</ele>
        <time>2019-06-27T07:30:31Z</time>
      </trkpt>
      <trkpt lat="43.264740" lon="-2.908792">
        <ele>185.6</ele>
        <time>2019-06-27T07:30:31Z</time>
      </trkpt>
      <trkpt lat="43.264640" lon="-2.908804">
        <ele>185.3</ele>
        <time>2019-06-27T07:30:31Z</time>
      </trkpt>
      <trkpt lat="43.264541" lon="-2.908815">
        <ele>184.9</ele>
        <time>2019-06-27T07:30:31Z</time>
      </trkpt>
      <trkpt lat="43.264441" lon="-2.908827">
        <ele>184.6</ele>
        <time>2019-06-27T07:30:31Z</time>
      </trkpt>
      <trkpt lat="43.264341" lon="-2.908838">
        <ele>183.6</ele>
        <time>2019-06-27T07:30:31Z</time>
      </trkpt>
      <trkpt lat="43.264241" lon="-2.908850">
        <ele>183.4</ele>
        <time>2019-06-27T07:30:31Z</time>
      </trkpt>
      <trkpt lat="43.264165" lon="-2.908855">
        <ele>182.6</ele>
        <time>2019-06-27T07:30:31Z</time>
      </trkpt>
      <trkpt lat="43.264205" lon="-2.908738">
        <ele>184.5</ele>
        <time>2019-06-27T07:30:31Z</time>
      </trkpt>
      <trkpt lat="43.264237" lon="-2.908614">
        <ele>186.2</ele>
        <time>2019-06-27T07:30:31Z</time>
      </trkpt>
      <trkpt lat="43.264308" lon="-2.908544">
        <ele>188.4</ele>
        <time>2019-06-27T07:30:31Z</time>
      </trkpt>
      <trkpt lat="43.264386" lon="-2.908429">
        <ele>191.2</ele>
        <time>2019-06-27T07:30:31Z</time>
      </trkpt>
      <trkpt lat="43.264472" lon="-2.908322">
        <ele>194.2</ele>
        <time>2019-06-27T07:30:31Z</time>
      </trkpt>
      <trkpt lat="43.264540" lon="-2.908250">
        <ele>196.2</ele>
        <time>2019-06-27T07:30:31Z</time>
      </trkpt>
      <trkpt lat="43.264605" lon="-2.908164">
        <ele>199.2</ele>
        <time>2019-06-27T07:30:31Z</time>
      </trkpt>
      <trkpt lat="43.264639" lon="-2.908057">
        <ele>200.2</ele>
        <time>2019-06-27T07:30:31Z</time>
      </trkpt>
      <trkpt lat="43.264701" lon="-2.907985">
        <ele>201.4</ele>
        <time>2019-06-27T07:30:31Z</time>
      </trkpt>
      <trkpt lat="43.264762" lon="-2.907955">
        <ele>203.5</ele>
        <time>2019-06-27T07:30:31Z</time>
      </trkpt>
      <trkpt lat="43.264735" lon="-2.907880">
        <ele>204.2</ele>
        <time>2019-06-27T07:30:31Z</time>
      </trkpt>
      <trkpt lat="43.264667" lon="-2.907891">
        <ele>202.5</ele>
        <time>2019-06-27T07:30:31Z</time>
      </trkpt>
      <trkpt lat="43.264588" lon="-2.907852">
        <ele>202.0</ele>
        <time>2019-06-27T07:30:31Z</time>
      </trkpt>
      <trkpt lat="43.264521" lon="-2.907784">
        <ele>202.0</ele>
        <time>2019-06-27T07:30:31Z</time>
      </trkpt>
      <trkpt lat="43.264486" lon="-2.907671">
        <ele>202.1</ele>
        <time>2019-06-27T07:30:31Z</time>
      </trkpt>
      <trkpt lat="43.264490" lon="-2.907550">
        <ele>202.3</ele>
        <time>2019-06-27T07:30:31Z</time>
      </trkpt>
      <trkpt lat="43.264539" lon="-2.907440">
        <ele>202.5</ele>
        <time>2019-06-27T07:30:31Z</time>
      </trkpt>
      <trkpt lat="43.264619" lon="-2.907385">
        <ele>202.8</ele>
        <time>2019-06-27T07:30:31Z</time>
      </trkpt>
      <trkpt lat="43.264707" lon="-2.907346">
        <ele>201.6</ele>
        <time>2019-06-27T07:30:31Z</time>
      </trkpt>
      <trkpt lat="43.264807" lon="-2.907326">
        <ele>201.7</ele>
        <time>2019-06-27T07:30:31Z</time>
      </trkpt>
      <trkpt lat="43.264907" lon="-2.907307">
        <ele>208.5</ele>
        <time>2019-06-27T07:30:31Z</time>
      </trkpt>
      <trkpt lat="43.265006" lon="-2.907306">
        <ele>214.1</ele>
        <time>2019-06-27T07:30:31Z</time>
      </trkpt>
      <trkpt lat="43.265096" lon="-2.907342">
        <ele>215.2</ele>
        <time>2019-06-27T07:30:31Z</time>
      </trkpt>
      <trkpt lat="43.265167" lon="-2.907405">
        <ele>216.5</ele>
        <time>2019-06-27T07:30:31Z</time>
      </trkpt>
      <trkpt lat="43.265233" lon="-2.907454">
        <ele>218.2</ele>
        <time>2019-06-27T07:30:31Z</time>
      </trkpt>
      <trkpt lat="43.265299" lon="-2.907519">
        <ele>219.2</ele>
        <time>2019-06-27T07:30:31Z</time>
      </trkpt>
      <trkpt lat="43.265366" lon="-2.907585">
        <ele>220.0</ele>
        <time>2019-06-27T07:30:31Z</time>
      </trkpt>
      <trkpt lat="43.265441" lon="-2.907627">
        <ele>221.0</ele>
        <time>2019-06-27T07:30:31Z</time>
      </trkpt>
      <trkpt lat="43.265518" lon="-2.907633">
        <ele>221.6</ele>
        <time>2019-06-27T07:30:31Z</time>
      </trkpt>
      <trkpt lat="43.265596" lon="-2.907632">
        <ele>223.0</ele>
        <time>2019-06-27T07:30:31Z</time>
      </trkpt>
      <trkpt lat="43.265684" lon="-2.907591">
        <ele>224.1</ele>
        <time>2019-06-27T07:30:31Z</time>
      </trkpt>
      <trkpt lat="43.265777" lon="-2.907549">
        <ele>226.0</ele>
        <time>2019-06-27T07:30:31Z</time>
      </trkpt>
      <trkpt lat="43.265870" lon="-2.907478">
        <ele>227.2</ele>
        <time>2019-06-27T07:30:31Z</time>
      </trkpt>
      <trkpt lat="43.265964" lon="-2.907387">
        <ele>228.4</ele>
        <time>2019-06-27T07:30:31Z</time>
      </trkpt>
      <trkpt lat="43.266043" lon="-2.907287">
        <ele>229.7</ele>
        <time>2019-06-27T07:30:31Z</time>
      </trkpt>
      <trkpt lat="43.266091" lon="-2.907185">
        <ele>231.2</ele>
        <time>2019-06-27T07:30:31Z</time>
      </trkpt>
      <trkpt lat="43.266128" lon="-2.907077">
        <ele>233.0</ele>
        <time>2019-06-27T07:30:31Z</time>
      </trkpt>
      <trkpt lat="43.266174" lon="-2.906961">
        <ele>235.0</ele>
        <time>2019-06-27T07:30:31Z</time>
      </trkpt>
      <trkpt lat="43.266228" lon="-2.906844">
        <ele>237.1</ele>
        <time>2019-06-27T07:30:31Z</time>
      </trkpt>
      <trkpt lat="43.266282" lon="-2.906727">
        <ele>238.8</ele>
        <time>2019-06-27T07:30:31Z</time>
      </trkpt>
      <trkpt lat="43.266315" lon="-2.906602">
        <ele>240.3</ele>
        <time>2019-06-27T07:30:31Z</time>
      </trkpt>
      <trkpt lat="43.266336" lon="-2.906489">
        <ele>242.3</ele>
        <time>2019-06-27T07:30:31Z</time>
      </trkpt>
      <trkpt lat="43.266370" lon="-2.906393">
        <ele>244.4</ele>
        <time>2019-06-27T07:30:31Z</time>
      </trkpt>
      <trkpt lat="43.266432" lon="-2.906326">
        <ele>245.8</ele>
        <time>2019-06-27T07:30:31Z</time>
      </trkpt>
      <trkpt lat="43.266493" lon="-2.906260">
        <ele>247.5</ele>
        <time>2019-06-27T07:30:31Z</time>
      </trkpt>
      <trkpt lat="43.266562" lon="-2.906204">
        <ele>249.0</ele>
        <time>2019-06-27T07:30:31Z</time>
      </trkpt>
      <trkpt lat="43.266630" lon="-2.906148">
        <ele>250.2</ele>
        <time>2019-06-27T07:30:31Z</time>
      </trkpt>
      <trkpt lat="43.266700" lon="-2.906088">
        <ele>251.7</ele>
        <time>2019-06-27T07:30:31Z</time>
      </trkpt>
      <trkpt lat="43.266770" lon="-2.906028">
        <ele>253.3</ele>
        <time>2019-06-27T07:30:31Z</time>
      </trkpt>
      <trkpt lat="43.266841" lon="-2.905967">
        <ele>254.9</ele>
        <time>2019-06-27T07:30:31Z</time>
      </trkpt>
      <trkpt lat="43.266918" lon="-2.905909">
        <ele>256.0</ele>
        <time>2019-06-27T07:30:31Z</time>
      </trkpt>
      <trkpt lat="43.266995" lon="-2.905836">
        <ele>257.7</ele>
        <time>2019-06-27T07:30:31Z</time>
      </trkpt>
      <trkpt lat="43.267071" lon="-2.905741">
        <ele>259.2</ele>
        <time>2019-06-27T07:30:31Z</time>
      </trkpt>
      <trkpt lat="43.267126" lon="-2.905610">
        <ele>261.1</ele>
        <time>2019-06-27T07:30:31Z</time>
      </trkpt>
      <trkpt lat="43.267181" lon="-2.905485">
        <ele>262.8</ele>
        <time>2019-06-27T07:30:31Z</time>
      </trkpt>
      <trkpt lat="43.267229" lon="-2.905361">
        <ele>263.5</ele>
        <time>2019-06-27T07:30:31Z</time>
      </trkpt>
      <trkpt lat="43.267261" lon="-2.905243">
        <ele>265.1</ele>
        <time>2019-06-27T07:30:31Z</time>
      </trkpt>
      <trkpt lat="43.267293" lon="-2.905125">
        <ele>266.0</ele>
        <time>2019-06-27T07:30:31Z</time>
      </trkpt>
      <trkpt lat="43.267324" lon="-2.905007">
        <ele>267.6</ele>
        <time>2019-06-27T07:30:31Z</time>
      </trkpt>
      <trkpt lat="43.267355" lon="-2.904889">
        <ele>267.7</ele>
        <time>2019-06-27T07:30:31Z</time>
      </trkpt>
      <trkpt lat="43.267376" lon="-2.904766">
        <ele>268.8</ele>
        <time>2019-06-27T07:30:31Z</time>
      </trkpt>
      <trkpt lat="43.267380" lon="-2.904645">
        <ele>268.9</ele>
        <time>2019-06-27T07:30:31Z</time>
      </trkpt>
      <trkpt lat="43.267383" lon="-2.904525">
        <ele>268.9</ele>
        <time>2019-06-27T07:30:31Z</time>
      </trkpt>
      <trkpt lat="43.267386" lon="-2.904404">
        <ele>269.0</ele>
        <time>2019-06-27T07:30:31Z</time>
      </trkpt>
      <trkpt lat="43.267395" lon="-2.904284">
        <ele>269.2</ele>
        <time>2019-06-27T07:30:31Z</time>
      </trkpt>
      <trkpt lat="43.267386" lon="-2.904173">
        <ele>269.2</ele>
        <time>2019-06-27T07:30:31Z</time>
      </trkpt>
      <trkpt lat="43.267345" lon="-2.904076">
        <ele>269.9</ele>
        <time>2019-06-27T07:30:31Z</time>
      </trkpt>
      <trkpt lat="43.267300" lon="-2.903939">
        <ele>271.1</ele>
        <time>2019-06-27T07:30:31Z</time>
      </trkpt>
      <trkpt lat="43.267275" lon="-2.903796">
        <ele>271.9</ele>
        <time>2019-06-27T07:30:31Z</time>
      </trkpt>
      <trkpt lat="43.267262" lon="-2.903634">
        <ele>273.2</ele>
        <time>2019-06-27T07:30:31Z</time>
      </trkpt>
      <trkpt lat="43.267254" lon="-2.903472">
        <ele>275.1</ele>
        <time>2019-06-27T07:30:31Z</time>
      </trkpt>
      <trkpt lat="43.267260" lon="-2.903317">
        <ele>276.3</ele>
        <time>2019-06-27T07:30:31Z</time>
      </trkpt>
      <trkpt lat="43.267284" lon="-2.903159">
        <ele>277.8</ele>
        <time>2019-06-27T07:30:31Z</time>
      </trkpt>
      <trkpt lat="43.267317" lon="-2.902994">
        <ele>279.5</ele>
        <time>2019-06-27T07:30:31Z</time>
      </trkpt>
      <trkpt lat="43.267350" lon="-2.902830">
        <ele>281.2</ele>
        <time>2019-06-27T07:30:31Z</time>
      </trkpt>
      <trkpt lat="43.267384" lon="-2.902665">
        <ele>282.0</ele>
        <time>2019-06-27T07:30:31Z</time>
      </trkpt>
      <trkpt lat="43.267424" lon="-2.902493">
        <ele>282.9</ele>
        <time>2019-06-27T07:30:31Z</time>
      </trkpt>
      <trkpt lat="43.267482" lon="-2.902323">
        <ele>283.2</ele>
        <time>2019-06-27T07:30:31Z</time>
      </trkpt>
      <trkpt lat="43.267535" lon="-2.902165">
        <ele>283.1</ele>
        <time>2019-06-27T07:30:31Z</time>
      </trkpt>
      <trkpt lat="43.267584" lon="-2.902007">
        <ele>282.8</ele>
        <time>2019-06-27T07:30:31Z</time>
      </trkpt>
      <trkpt lat="43.267645" lon="-2.901857">
        <ele>282.0</ele>
        <time>2019-06-27T07:30:31Z</time>
      </trkpt>
      <trkpt lat="43.267706" lon="-2.901709">
        <ele>281.8</ele>
        <time>2019-06-27T07:30:31Z</time>
      </trkpt>
      <trkpt lat="43.267754" lon="-2.901556">
        <ele>281.2</ele>
        <time>2019-06-27T07:30:31Z</time>
      </trkpt>
      <trkpt lat="43.267802" lon="-2.901404">
        <ele>281.3</ele>
        <time>2019-06-27T07:30:31Z</time>
      </trkpt>
      <trkpt lat="43.267840" lon="-2.901240">
        <ele>282.3</ele>
        <time>2019-06-27T07:30:31Z</time>
      </trkpt>
      <trkpt lat="43.267878" lon="-2.901075">
        <ele>283.5</ele>
        <time>2019-06-27T07:30:31Z</time>
      </trkpt>
      <trkpt lat="43.267916" lon="-2.900910">
        <ele>284.7</ele>
        <time>2019-06-27T07:30:31Z</time>
      </trkpt>
      <trkpt lat="43.267949" lon="-2.900737">
        <ele>285.1</ele>
        <time>2019-06-27T07:30:31Z</time>
      </trkpt>
      <trkpt lat="43.267982" lon="-2.900563">
        <ele>285.6</ele>
        <time>2019-06-27T07:30:31Z</time>
      </trkpt>
      <trkpt lat="43.268025" lon="-2.900387">
        <ele>285.8</ele>
        <time>2019-06-27T07:30:31Z</time>
      </trkpt>
      <trkpt lat="43.268076" lon="-2.900212">
        <ele>285.2</ele>
        <time>2019-06-27T07:30:31Z</time>
      </trkpt>
      <trkpt lat="43.268137" lon="-2.900062">
        <ele>284.8</ele>
        <time>2019-06-27T07:30:31Z</time>
      </trkpt>
      <trkpt lat="43.268197" lon="-2.899911">
        <ele>284.0</ele>
        <time>2019-06-27T07:30:31Z</time>
      </trkpt>
      <trkpt lat="43.268263" lon="-2.899779">
        <ele>283.5</ele>
        <time>2019-06-27T07:30:31Z</time>
      </trkpt>
      <trkpt lat="43.268323" lon="-2.899653">
        <ele>283.0</ele>
        <time>2019-06-27T07:30:31Z</time>
      </trkpt>
      <trkpt lat="43.268384" lon="-2.899527">
        <ele>283.3</ele>
        <time>2019-06-27T07:30:31Z</time>
      </trkpt>
      <trkpt lat="43.268445" lon="-2.899401">
        <ele>283.6</ele>
        <time>2019-06-27T07:30:31Z</time>
      </trkpt>
      <trkpt lat="43.268483" lon="-2.899343">
        <ele>284.0</ele>
        <time>2019-06-27T07:30:31Z</time>
      </trkpt>
      <trkpt lat="43.268540" lon="-2.899265">
        <ele>284.0</ele>
        <time>2019-06-27T07:30:31Z</time>
      </trkpt>
      <trkpt lat="43.268596" lon="-2.899187">
        <ele>285.0</ele>
        <time>2019-06-27T07:30:31Z</time>
      </trkpt>
      <trkpt lat="43.268659" lon="-2.899145">
        <ele>285.0</ele>
        <time>2019-06-27T07:30:31Z</time>
      </trkpt>
      <trkpt lat="43.268721" lon="-2.899103">
        <ele>285.9</ele>
        <time>2019-06-27T07:30:31Z</time>
      </trkpt>
      <trkpt lat="43.268744" lon="-2.899045">
        <ele>286.1</ele>
        <time>2019-06-27T07:30:31Z</time>
      </trkpt>
      <trkpt lat="43.268712" lon="-2.898954">
        <ele>286.5</ele>
        <time>2019-06-27T07:30:31Z</time>
      </trkpt>
      <trkpt lat="43.268680" lon="-2.898864">
        <ele>286.9</ele>
        <time>2019-06-27T07:30:31Z</time>
      </trkpt>
      <trkpt lat="43.268663" lon="-2.898781">
        <ele>287.7</ele>
        <time>2019-06-27T07:30:31Z</time>
      </trkpt>
      <trkpt lat="43.268665" lon="-2.898672">
        <ele>288.0</ele>
        <time>2019-06-27T07:30:31Z</time>
      </trkpt>
      <trkpt lat="43.268662" lon="-2.898552">
        <ele>288.4</ele>
        <time>2019-06-27T07:30:31Z</time>
      </trkpt>
      <trkpt lat="43.268658" lon="-2.898432">
        <ele>289.0</ele>
        <time>2019-06-27T07:30:31Z</time>
      </trkpt>
      <trkpt lat="43.268655" lon="-2.898312">
        <ele>289.3</ele>
        <time>2019-06-27T07:30:31Z</time>
      </trkpt>
      <trkpt lat="43.268651" lon="-2.898192">
        <ele>290.1</ele>
        <time>2019-06-27T07:30:31Z</time>
      </trkpt>
      <trkpt lat="43.268640" lon="-2.898069">
        <ele>291.0</ele>
        <time>2019-06-27T07:30:31Z</time>
      </trkpt>
      <trkpt lat="43.268629" lon="-2.897945">
        <ele>291.2</ele>
        <time>2019-06-27T07:30:31Z</time>
      </trkpt>
      <trkpt lat="43.268618" lon="-2.897821">
        <ele>291.6</ele>
        <time>2019-06-27T07:30:31Z</time>
      </trkpt>
      <trkpt lat="43.268593" lon="-2.897693">
        <ele>292.0</ele>
        <time>2019-06-27T07:30:31Z</time>
      </trkpt>
      <trkpt lat="43.268591" lon="-2.897548">
        <ele>293.0</ele>
        <time>2019-06-27T07:30:31Z</time>
      </trkpt>
      <trkpt lat="43.268603" lon="-2.897408">
        <ele>294.2</ele>
        <time>2019-06-27T07:30:31Z</time>
      </trkpt>
      <trkpt lat="43.268659" lon="-2.897292">
        <ele>295.4</ele>
        <time>2019-06-27T07:30:31Z</time>
      </trkpt>
      <trkpt lat="43.268715" lon="-2.897175">
        <ele>297.7</ele>
        <time>2019-06-27T07:30:31Z</time>
      </trkpt>
      <trkpt lat="43.268771" lon="-2.897059">
        <ele>299.6</ele>
        <time>2019-06-27T07:30:31Z</time>
      </trkpt>
      <trkpt lat="43.268839" lon="-2.896975">
        <ele>301.4</ele>
        <time>2019-06-27T07:30:31Z</time>
      </trkpt>
      <trkpt lat="43.268907" lon="-2.896890">
        <ele>303.3</ele>
        <time>2019-06-27T07:30:31Z</time>
      </trkpt>
      <trkpt lat="43.268967" lon="-2.896779">
        <ele>305.4</ele>
        <time>2019-06-27T07:30:31Z</time>
      </trkpt>
      <trkpt lat="43.269008" lon="-2.896670">
        <ele>307.0</ele>
        <time>2019-06-27T07:30:31Z</time>
      </trkpt>
      <trkpt lat="43.269031" lon="-2.896561">
        <ele>307.9</ele>
        <time>2019-06-27T07:30:31Z</time>
      </trkpt>
      <trkpt lat="43.269035" lon="-2.896428">
        <ele>309.9</ele>
        <time>2019-06-27T07:30:31Z</time>
      </trkpt>
      <trkpt lat="43.269013" lon="-2.896291">
        <ele>311.4</ele>
        <time>2019-06-27T07:30:31Z</time>
      </trkpt>
      <trkpt lat="43.268983" lon="-2.896146">
        <ele>313.5</ele>
        <time>2019-06-27T07:30:31Z</time>
      </trkpt>
      <trkpt lat="43.268946" lon="-2.896008">
        <ele>315.7</ele>
        <time>2019-06-27T07:30:31Z</time>
      </trkpt>
      <trkpt lat="43.268924" lon="-2.895869">
        <ele>318.3</ele>
        <time>2019-06-27T07:30:31Z</time>
      </trkpt>
      <trkpt lat="43.268902" lon="-2.895730">
        <ele>320.4</ele>
        <time>2019-06-27T07:30:31Z</time>
      </trkpt>
      <trkpt lat="43.268874" lon="-2.895591">
        <ele>322.7</ele>
        <time>2019-06-27T07:30:31Z</time>
      </trkpt>
      <trkpt lat="43.268845" lon="-2.895452">
        <ele>325.2</ele>
        <time>2019-06-27T07:30:31Z</time>
      </trkpt>
      <trkpt lat="43.268812" lon="-2.895313">
        <ele>327.0</ele>
        <time>2019-06-27T07:30:31Z</time>
      </trkpt>
      <trkpt lat="43.268768" lon="-2.895171">
        <ele>330.3</ele>
        <time>2019-06-27T07:30:31Z</time>
      </trkpt>
      <trkpt lat="43.268711" lon="-2.895046">
        <ele>332.3</ele>
        <time>2019-06-27T07:30:31Z</time>
      </trkpt>
      <trkpt lat="43.268665" lon="-2.894935">
        <ele>334.2</ele>
        <time>2019-06-27T07:30:31Z</time>
      </trkpt>
      <trkpt lat="43.268604" lon="-2.894836">
        <ele>336.5</ele>
        <time>2019-06-27T07:30:31Z</time>
      </trkpt>
      <trkpt lat="43.268540" lon="-2.894738">
        <ele>338.3</ele>
        <time>2019-06-27T07:30:31Z</time>
      </trkpt>
      <trkpt lat="43.268476" lon="-2.894630">
        <ele>340.1</ele>
        <time>2019-06-27T07:30:31Z</time>
      </trkpt>
      <trkpt lat="43.268418" lon="-2.894518">
        <ele>341.9</ele>
        <time>2019-06-27T07:30:31Z</time>
      </trkpt>
      <trkpt lat="43.268389" lon="-2.894376">
        <ele>343.1</ele>
        <time>2019-06-27T07:30:31Z</time>
      </trkpt>
      <trkpt lat="43.268393" lon="-2.894222">
        <ele>345.3</ele>
        <time>2019-06-27T07:30:31Z</time>
      </trkpt>
      <trkpt lat="43.268406" lon="-2.894056">
        <ele>347.2</ele>
        <time>2019-06-27T07:30:31Z</time>
      </trkpt>
      <trkpt lat="43.268432" lon="-2.893894">
        <ele>349.5</ele>
        <time>2019-06-27T07:30:31Z</time>
      </trkpt>
      <trkpt lat="43.268487" lon="-2.893720">
        <ele>352.3</ele>
        <time>2019-06-27T07:30:31Z</time>
      </trkpt>
      <trkpt lat="43.268541" lon="-2.893541">
        <ele>353.7</ele>
        <time>2019-06-27T07:30:31Z</time>
      </trkpt>
      <trkpt lat="43.268569" lon="-2.893355">
        <ele>355.0</ele>
        <time>2019-06-27T07:30:31Z</time>
      </trkpt>
      <trkpt lat="43.268586" lon="-2.893159">
        <ele>356.7</ele>
        <time>2019-06-27T07:30:31Z</time>
      </trkpt>
      <trkpt lat="43.268594" lon="-2.892942">
        <ele>356.6</ele>
        <time>2019-06-27T07:30:31Z</time>
      </trkpt>
      <trkpt lat="43.268610" lon="-2.892747">
        <ele>357.8</ele>
        <time>2019-06-27T07:30:31Z</time>
      </trkpt>
      <trkpt lat="43.268626" lon="-2.892552">
        <ele>357.8</ele>
        <time>2019-06-27T07:30:31Z</time>
      </trkpt>
      <trkpt lat="43.268635" lon="-2.892357">
        <ele>356.0</ele>
        <time>2019-06-27T07:30:31Z</time>
      </trkpt>
      <trkpt lat="43.268645" lon="-2.892161">
        <ele>354.9</ele>
        <time>2019-06-27T07:30:31Z</time>
      </trkpt>
      <trkpt lat="43.268660" lon="-2.891957">
        <ele>354.5</ele>
        <time>2019-06-27T07:30:31Z</time>
      </trkpt>
      <trkpt lat="43.268674" lon="-2.891753">
        <ele>354.7</ele>
        <time>2019-06-27T07:30:31Z</time>
      </trkpt>
      <trkpt lat="43.268703" lon="-2.891562">
        <ele>354.5</ele>
        <time>2019-06-27T07:30:31Z</time>
      </trkpt>
      <trkpt lat="43.268738" lon="-2.891376">
        <ele>355.3</ele>
        <time>2019-06-27T07:30:31Z</time>
      </trkpt>
      <trkpt lat="43.268788" lon="-2.891201">
        <ele>355.8</ele>
        <time>2019-06-27T07:30:31Z</time>
      </trkpt>
      <trkpt lat="43.268825" lon="-2.891025">
        <ele>356.4</ele>
        <time>2019-06-27T07:30:31Z</time>
      </trkpt>
      <trkpt lat="43.268830" lon="-2.890905">
        <ele>356.3</ele>
        <time>2019-06-27T07:30:31Z</time>
      </trkpt>
      <trkpt lat="43.268811" lon="-2.890805">
        <ele>356.0</ele>
        <time>2019-06-27T07:30:31Z</time>
      </trkpt>
      <trkpt lat="43.268746" lon="-2.890729">
        <ele>356.7</ele>
        <time>2019-06-27T07:30:31Z</time>
      </trkpt>
      <trkpt lat="43.268679" lon="-2.890650">
        <ele>358.0</ele>
        <time>2019-06-27T07:30:31Z</time>
      </trkpt>
      <trkpt lat="43.268600" lon="-2.890555">
        <ele>359.8</ele>
        <time>2019-06-27T07:30:31Z</time>
      </trkpt>
      <trkpt lat="43.268511" lon="-2.890466">
        <ele>361.9</ele>
        <time>2019-06-27T07:30:31Z</time>
      </trkpt>
      <trkpt lat="43.268420" lon="-2.890382">
        <ele>364.8</ele>
        <time>2019-06-27T07:30:31Z</time>
      </trkpt>
      <trkpt lat="43.268341" lon="-2.890308">
        <ele>366.8</ele>
        <time>2019-06-27T07:30:31Z</time>
      </trkpt>
      <trkpt lat="43.268282" lon="-2.890234">
        <ele>368.4</ele>
        <time>2019-06-27T07:30:31Z</time>
      </trkpt>
      <trkpt lat="43.268234" lon="-2.890133">
        <ele>370.9</ele>
        <time>2019-06-27T07:30:31Z</time>
      </trkpt>
      <trkpt lat="43.268205" lon="-2.890014">
        <ele>371.5</ele>
        <time>2019-06-27T07:30:31Z</time>
      </trkpt>
      <trkpt lat="43.268175" lon="-2.889888">
        <ele>373.0</ele>
        <time>2019-06-27T07:30:31Z</time>
      </trkpt>
      <trkpt lat="43.268145" lon="-2.889754">
        <ele>374.2</ele>
        <time>2019-06-27T07:30:31Z</time>
      </trkpt>
      <trkpt lat="43.268129" lon="-2.889601">
        <ele>375.9</ele>
        <time>2019-06-27T07:30:31Z</time>
      </trkpt>
      <trkpt lat="43.268112" lon="-2.889448">
        <ele>377.0</ele>
        <time>2019-06-27T07:30:31Z</time>
      </trkpt>
      <trkpt lat="43.268072" lon="-2.889291">
        <ele>376.5</ele>
        <time>2019-06-27T07:30:31Z</time>
      </trkpt>
      <trkpt lat="43.268032" lon="-2.889134">
        <ele>376.0</ele>
        <time>2019-06-27T07:30:31Z</time>
      </trkpt>
      <trkpt lat="43.267994" lon="-2.888971">
        <ele>377.0</ele>
        <time>2019-06-27T07:30:31Z</time>
      </trkpt>
      <trkpt lat="43.267987" lon="-2.888796">
        <ele>377.3</ele>
        <time>2019-06-27T07:30:31Z</time>
      </trkpt>
      <trkpt lat="43.267967" lon="-2.888608">
        <ele>376.9</ele>
        <time>2019-06-27T07:30:31Z</time>
      </trkpt>
      <trkpt lat="43.267943" lon="-2.888420">
        <ele>376.0</ele>
        <time>2019-06-27T07:30:31Z</time>
      </trkpt>
      <trkpt lat="43.267906" lon="-2.888276">
        <ele>375.9</ele>
        <time>2019-06-27T07:30:31Z</time>
      </trkpt>
      <trkpt lat="43.267869" lon="-2.888132">
        <ele>375.0</ele>
        <time>2019-06-27T07:30:31Z</time>
      </trkpt>
      <trkpt lat="43.267817" lon="-2.888002">
        <ele>375.6</ele>
        <time>2019-06-27T07:30:31Z</time>
      </trkpt>
      <trkpt lat="43.267757" lon="-2.887873">
        <ele>375.9</ele>
        <time>2019-06-27T07:30:31Z</time>
      </trkpt>
      <trkpt lat="43.267704" lon="-2.887737">
        <ele>376.4</ele>
        <time>2019-06-27T07:30:31Z</time>
      </trkpt>
      <trkpt lat="43.267642" lon="-2.887619">
        <ele>376.9</ele>
        <time>2019-06-27T07:30:31Z</time>
      </trkpt>
      <trkpt lat="43.267574" lon="-2.887521">
        <ele>376.8</ele>
        <time>2019-06-27T07:30:31Z</time>
      </trkpt>
      <trkpt lat="43.267485" lon="-2.887469">
        <ele>376.7</ele>
        <time>2019-06-27T07:30:31Z</time>
      </trkpt>
      <trkpt lat="43.267394" lon="-2.887437">
        <ele>376.9</ele>
        <time>2019-06-27T07:30:31Z</time>
      </trkpt>
      <trkpt lat="43.267296" lon="-2.887388">
        <ele>377.0</ele>
        <time>2019-06-27T07:30:31Z</time>
      </trkpt>
      <trkpt lat="43.267212" lon="-2.887328">
        <ele>377.3</ele>
        <time>2019-06-27T07:30:31Z</time>
      </trkpt>
      <trkpt lat="43.267151" lon="-2.887217">
        <ele>378.4</ele>
        <time>2019-06-27T07:30:31Z</time>
      </trkpt>
      <trkpt lat="43.267103" lon="-2.887085">
        <ele>379.6</ele>
        <time>2019-06-27T07:30:31Z</time>
      </trkpt>
      <trkpt lat="43.267058" lon="-2.886923">
        <ele>381.0</ele>
        <time>2019-06-27T07:30:31Z</time>
      </trkpt>
      <trkpt lat="43.266993" lon="-2.886765">
        <ele>381.9</ele>
        <time>2019-06-27T07:30:31Z</time>
      </trkpt>
      <trkpt lat="43.266926" lon="-2.886651">
        <ele>382.0</ele>
        <time>2019-06-27T07:30:31Z</time>
      </trkpt>
      <trkpt lat="43.266862" lon="-2.886556">
        <ele>381.8</ele>
        <time>2019-06-27T07:30:31Z</time>
      </trkpt>
      <trkpt lat="43.266799" lon="-2.886475">
        <ele>381.2</ele>
        <time>2019-06-27T07:30:31Z</time>
      </trkpt>
      <trkpt lat="43.266739" lon="-2.886395">
        <ele>381.0</ele>
        <time>2019-06-27T07:30:31Z</time>
      </trkpt>
      <trkpt lat="43.266709" lon="-2.886312">
        <ele>381.0</ele>
        <time>2019-06-27T07:30:31Z</time>
      </trkpt>
      <trkpt lat="43.266695" lon="-2.886191">
        <ele>380.0</ele>
        <time>2019-06-27T07:30:31Z</time>
      </trkpt>
      <trkpt lat="43.266671" lon="-2.886047">
        <ele>379.3</ele>
        <time>2019-06-27T07:30:31Z</time>
      </trkpt>
      <trkpt lat="43.266637" lon="-2.885908">
        <ele>378.5</ele>
        <time>2019-06-27T07:30:31Z</time>
      </trkpt>
      <trkpt lat="43.266604" lon="-2.885769">
        <ele>377.0</ele>
        <time>2019-06-27T07:30:31Z</time>
      </trkpt>
      <trkpt lat="43.266561" lon="-2.885660">
        <ele>377.0</ele>
        <time>2019-06-27T07:30:31Z</time>
      </trkpt>
      <trkpt lat="43.266506" lon="-2.885539">
        <ele>376.0</ele>
        <time>2019-06-27T07:30:31Z</time>
      </trkpt>
      <trkpt lat="43.266447" lon="-2.885408">
        <ele>375.1</ele>
        <time>2019-06-27T07:30:31Z</time>
      </trkpt>
      <trkpt lat="43.266389" lon="-2.885262">
        <ele>373.8</ele>
        <time>2019-06-27T07:30:31Z</time>
      </trkpt>
      <trkpt lat="43.266332" lon="-2.885117">
        <ele>372.4</ele>
        <time>2019-06-27T07:30:31Z</time>
      </trkpt>
      <trkpt lat="43.266270" lon="-2.884977">
        <ele>371.2</ele>
        <time>2019-06-27T07:30:31Z</time>
      </trkpt>
      <trkpt lat="43.266205" lon="-2.884839">
        <ele>370.8</ele>
        <time>2019-06-27T07:30:31Z</time>
      </trkpt>
      <trkpt lat="43.266145" lon="-2.884702">
        <ele>370.1</ele>
        <time>2019-06-27T07:30:31Z</time>
      </trkpt>
      <trkpt lat="43.266084" lon="-2.884561">
        <ele>370.0</ele>
        <time>2019-06-27T07:30:31Z</time>
      </trkpt>
      <trkpt lat="43.266044" lon="-2.884433">
        <ele>370.4</ele>
        <time>2019-06-27T07:30:31Z</time>
      </trkpt>
      <trkpt lat="43.266002" lon="-2.884283">
        <ele>371.0</ele>
        <time>2019-06-27T07:30:31Z</time>
      </trkpt>
      <trkpt lat="43.265960" lon="-2.884133">
        <ele>371.0</ele>
        <time>2019-06-27T07:30:31Z</time>
      </trkpt>
      <trkpt lat="43.265898" lon="-2.883987">
        <ele>370.4</ele>
        <time>2019-06-27T07:30:31Z</time>
      </trkpt>
      <trkpt lat="43.265836" lon="-2.883840">
        <ele>370.0</ele>
        <time>2019-06-27T07:30:31Z</time>
      </trkpt>
      <trkpt lat="43.265769" lon="-2.883727">
        <ele>368.9</ele>
        <time>2019-06-27T07:30:31Z</time>
      </trkpt>
      <trkpt lat="43.265714" lon="-2.883604">
        <ele>368.3</ele>
        <time>2019-06-27T07:30:31Z</time>
      </trkpt>
      <trkpt lat="43.265675" lon="-2.883478">
        <ele>367.4</ele>
        <time>2019-06-27T07:30:31Z</time>
      </trkpt>
      <trkpt lat="43.265657" lon="-2.883329">
        <ele>367.0</ele>
        <time>2019-06-27T07:30:31Z</time>
      </trkpt>
      <trkpt lat="43.265649" lon="-2.883174">
        <ele>366.9</ele>
        <time>2019-06-27T07:30:31Z</time>
      </trkpt>
      <trkpt lat="43.265638" lon="-2.882983">
        <ele>366.0</ele>
        <time>2019-06-27T07:30:31Z</time>
      </trkpt>
      <trkpt lat="43.265610" lon="-2.882789">
        <ele>365.6</ele>
        <time>2019-06-27T07:30:31Z</time>
      </trkpt>
      <trkpt lat="43.265576" lon="-2.882596">
        <ele>364.3</ele>
        <time>2019-06-27T07:30:31Z</time>
      </trkpt>
      <trkpt lat="43.265542" lon="-2.882402">
        <ele>362.7</ele>
        <time>2019-06-27T07:30:31Z</time>
      </trkpt>
      <trkpt lat="43.265507" lon="-2.882208">
        <ele>361.1</ele>
        <time>2019-06-27T07:30:31Z</time>
      </trkpt>
      <trkpt lat="43.265468" lon="-2.882022">
        <ele>359.3</ele>
        <time>2019-06-27T07:30:31Z</time>
      </trkpt>
      <trkpt lat="43.265434" lon="-2.881869">
        <ele>357.7</ele>
        <time>2019-06-27T07:30:31Z</time>
      </trkpt>
      <trkpt lat="43.265403" lon="-2.881716">
        <ele>356.2</ele>
        <time>2019-06-27T07:30:31Z</time>
      </trkpt>
      <trkpt lat="43.265368" lon="-2.881582">
        <ele>355.0</ele>
        <time>2019-06-27T07:30:31Z</time>
      </trkpt>
      <trkpt lat="43.265318" lon="-2.881476">
        <ele>354.1</ele>
        <time>2019-06-27T07:30:31Z</time>
      </trkpt>
      <trkpt lat="43.265257" lon="-2.881399">
        <ele>353.8</ele>
        <time>2019-06-27T07:30:31Z</time>
      </trkpt>
      <trkpt lat="43.265202" lon="-2.881307">
        <ele>353.5</ele>
        <time>2019-06-27T07:30:31Z</time>
      </trkpt>
      <trkpt lat="43.265176" lon="-2.881184">
        <ele>352.6</ele>
        <time>2019-06-27T07:30:31Z</time>
      </trkpt>
      <trkpt lat="43.265159" lon="-2.881032">
        <ele>352.0</ele>
        <time>2019-06-27T07:30:31Z</time>
      </trkpt>
      <trkpt lat="43.265137" lon="-2.880881">
        <ele>351.0</ele>
        <time>2019-06-27T07:30:31Z</time>
      </trkpt>
      <trkpt lat="43.265127" lon="-2.880730">
        <ele>350.7</ele>
        <time>2019-06-27T07:30:31Z</time>
      </trkpt>
      <trkpt lat="43.265068" lon="-2.880655">
        <ele>350.0</ele>
        <time>2019-06-27T07:30:31Z</time>
      </trkpt>
      <trkpt lat="43.264995" lon="-2.880594">
        <ele>350.0</ele>
        <time>2019-06-27T07:30:31Z</time>
      </trkpt>
      <trkpt lat="43.264910" lon="-2.880600">
        <ele>350.0</ele>
        <time>2019-06-27T07:30:31Z</time>
      </trkpt>
      <trkpt lat="43.264840" lon="-2.880671">
        <ele>348.7</ele>
        <time>2019-06-27T07:30:31Z</time>
      </trkpt>
      <trkpt lat="43.264805" lon="-2.880802">
        <ele>345.4</ele>
        <time>2019-06-27T07:30:31Z</time>
      </trkpt>
      <trkpt lat="43.264769" lon="-2.880936">
        <ele>341.5</ele>
        <time>2019-06-27T07:30:31Z</time>
      </trkpt>
      <trkpt lat="43.264736" lon="-2.881077">
        <ele>338.4</ele>
        <time>2019-06-27T07:30:31Z</time>
      </trkpt>
      <trkpt lat="43.264704" lon="-2.881218">
        <ele>334.9</ele>
        <time>2019-06-27T07:30:31Z</time>
      </trkpt>
      <trkpt lat="43.264672" lon="-2.881359">
        <ele>333.4</ele>
        <time>2019-06-27T07:30:31Z</time>
      </trkpt>
      <trkpt lat="43.264640" lon="-2.881500">
        <ele>332.0</ele>
        <time>2019-06-27T07:30:31Z</time>
      </trkpt>
      <trkpt lat="43.264608" lon="-2.881641">
        <ele>330.5</ele>
        <time>2019-06-27T07:30:31Z</time>
      </trkpt>
      <trkpt lat="43.264576" lon="-2.881783">
        <ele>329.1</ele>
        <time>2019-06-27T07:30:31Z</time>
      </trkpt>
      <trkpt lat="43.264543" lon="-2.881924">
        <ele>327.6</ele>
        <time>2019-06-27T07:30:31Z</time>
      </trkpt>
      <trkpt lat="43.264511" lon="-2.882065">
        <ele>326.2</ele>
        <time>2019-06-27T07:30:31Z</time>
      </trkpt>
      <trkpt lat="43.264479" lon="-2.882206">
        <ele>324.9</ele>
        <time>2019-06-27T07:30:31Z</time>
      </trkpt>
      <trkpt lat="43.264447" lon="-2.882347">
        <ele>324.4</ele>
        <time>2019-06-27T07:30:31Z</time>
      </trkpt>
      <trkpt lat="43.264414" lon="-2.882491">
        <ele>323.3</ele>
        <time>2019-06-27T07:30:31Z</time>
      </trkpt>
      <trkpt lat="43.264381" lon="-2.882635">
        <ele>322.1</ele>
        <time>2019-06-27T07:30:31Z</time>
      </trkpt>
      <trkpt lat="43.264348" lon="-2.882778">
        <ele>320.9</ele>
        <time>2019-06-27T07:30:31Z</time>
      </trkpt>
      <trkpt lat="43.264317" lon="-2.882923">
        <ele>319.8</ele>
        <time>2019-06-27T07:30:31Z</time>
      </trkpt>
      <trkpt lat="43.264285" lon="-2.883068">
        <ele>319.1</ele>
        <time>2019-06-27T07:30:31Z</time>
      </trkpt>
      <trkpt lat="43.264266" lon="-2.883201">
        <ele>318.0</ele>
        <time>2019-06-27T07:30:31Z</time>
      </trkpt>
      <trkpt lat="43.264250" lon="-2.883334">
        <ele>317.6</ele>
        <time>2019-06-27T07:30:31Z</time>
      </trkpt>
      <trkpt lat="43.264233" lon="-2.883467">
        <ele>316.8</ele>
        <time>2019-06-27T07:30:31Z</time>
      </trkpt>
      <trkpt lat="43.264211" lon="-2.883617">
        <ele>316.9</ele>
        <time>2019-06-27T07:30:31Z</time>
      </trkpt>
      <trkpt lat="43.264181" lon="-2.883779">
        <ele>316.5</ele>
        <time>2019-06-27T07:30:31Z</time>
      </trkpt>
      <trkpt lat="43.264210" lon="-2.883892">
        <ele>316.9</ele>
        <time>2019-06-27T07:30:31Z</time>
      </trkpt>
      <trkpt lat="43.264243" lon="-2.883990">
        <ele>317.5</ele>
        <time>2019-06-27T07:30:31Z</time>
      </trkpt>
      <trkpt lat="43.264307" lon="-2.884086">
        <ele>318.4</ele>
        <time>2019-06-27T07:30:31Z</time>
      </trkpt>
      <trkpt lat="43.264338" lon="-2.884239">
        <ele>317.3</ele>
        <time>2019-06-27T07:30:31Z</time>
      </trkpt>
      <trkpt lat="43.264370" lon="-2.884391">
        <ele>316.8</ele>
        <time>2019-06-27T07:30:31Z</time>
      </trkpt>
      <trkpt lat="43.264401" lon="-2.884544">
        <ele>316.0</ele>
        <time>2019-06-27T07:30:31Z</time>
      </trkpt>
      <trkpt lat="43.264435" lon="-2.884692">
        <ele>313.3</ele>
        <time>2019-06-27T07:30:31Z</time>
      </trkpt>
      <trkpt lat="43.264478" lon="-2.884836">
        <ele>311.8</ele>
        <time>2019-06-27T07:30:31Z</time>
      </trkpt>
      <trkpt lat="43.264533" lon="-2.884973">
        <ele>311.0</ele>
        <time>2019-06-27T07:30:31Z</time>
      </trkpt>
      <trkpt lat="43.264598" lon="-2.885092">
        <ele>309.0</ele>
        <time>2019-06-27T07:30:31Z</time>
      </trkpt>
      <trkpt lat="43.264662" lon="-2.885212">
        <ele>308.8</ele>
        <time>2019-06-27T07:30:31Z</time>
      </trkpt>
      <trkpt lat="43.264707" lon="-2.885352">
        <ele>309.8</ele>
        <time>2019-06-27T07:30:31Z</time>
      </trkpt>
      <trkpt lat="43.264699" lon="-2.885522">
        <ele>308.7</ele>
        <time>2019-06-27T07:30:31Z</time>
      </trkpt>
      <trkpt lat="43.264692" lon="-2.885698">
        <ele>309.4</ele>
        <time>2019-06-27T07:30:31Z</time>
      </trkpt>
      <trkpt lat="43.264665" lon="-2.885878">
        <ele>311.6</ele>
        <time>2019-06-27T07:30:31Z</time>
      </trkpt>
      <trkpt lat="43.264644" lon="-2.886069">
        <ele>312.3</ele>
        <time>2019-06-27T07:30:31Z</time>
      </trkpt>
      <trkpt lat="43.264627" lon="-2.886242">
        <ele>314.7</ele>
        <time>2019-06-27T07:30:31Z</time>
      </trkpt>
      <trkpt lat="43.264619" lon="-2.886409">
        <ele>316.6</ele>
        <time>2019-06-27T07:30:31Z</time>
      </trkpt>
      <trkpt lat="43.264622" lon="-2.886579">
        <ele>319.1</ele>
        <time>2019-06-27T07:30:31Z</time>
      </trkpt>
      <trkpt lat="43.264611" lon="-2.886751">
        <ele>321.1</ele>
        <time>2019-06-27T07:30:31Z</time>
      </trkpt>
      <trkpt lat="43.264559" lon="-2.886900">
        <ele>320.8</ele>
        <time>2019-06-27T07:30:31Z</time>
      </trkpt>
      <trkpt lat="43.264505" lon="-2.887045">
        <ele>322.2</ele>
        <time>2019-06-27T07:30:31Z</time>
      </trkpt>
      <trkpt lat="43.264433" lon="-2.887182">
        <ele>320.8</ele>
        <time>2019-06-27T07:30:31Z</time>
      </trkpt>
      <trkpt lat="43.264369" lon="-2.887299">
        <ele>318.8</ele>
        <time>2019-06-27T07:30:31Z</time>
      </trkpt>
      <trkpt lat="43.264292" lon="-2.887383">
        <ele>316.6</ele>
        <time>2019-06-27T07:30:31Z</time>
      </trkpt>
      <trkpt lat="43.264216" lon="-2.887467">
        <ele>314.9</ele>
        <time>2019-06-27T07:30:31Z</time>
      </trkpt>
      <trkpt lat="43.264138" lon="-2.887554">
        <ele>313.2</ele>
        <time>2019-06-27T07:30:31Z</time>
      </trkpt>
      <trkpt lat="43.264069" lon="-2.887648">
        <ele>311.5</ele>
        <time>2019-06-27T07:30:31Z</time>
      </trkpt>
      <trkpt lat="43.264019" lon="-2.887742">
        <ele>310.0</ele>
        <time>2019-06-27T07:30:31Z</time>
      </trkpt>
      <trkpt lat="43.263993" lon="-2.887853">
        <ele>308.2</ele>
        <time>2019-06-27T07:30:31Z</time>
      </trkpt>
      <trkpt lat="43.263962" lon="-2.887969">
        <ele>305.3</ele>
        <time>2019-06-27T07:30:31Z</time>
      </trkpt>
      <trkpt lat="43.263969" lon="-2.888117">
        <ele>301.9</ele>
        <time>2019-06-27T07:30:31Z</time>
      </trkpt>
      <trkpt lat="43.263979" lon="-2.888265">
        <ele>298.7</ele>
        <time>2019-06-27T07:30:31Z</time>
      </trkpt>
      <trkpt lat="43.263993" lon="-2.888382">
        <ele>295.7</ele>
        <time>2019-06-27T07:30:31Z</time>
      </trkpt>
      <trkpt lat="43.264040" lon="-2.888475">
        <ele>294.1</ele>
        <time>2019-06-27T07:30:31Z</time>
      </trkpt>
      <trkpt lat="43.264074" lon="-2.888545">
        <ele>293.0</ele>
        <time>2019-06-27T07:30:31Z</time>
      </trkpt>
      <trkpt lat="43.263987" lon="-2.888547">
        <ele>292.9</ele>
        <time>2019-06-27T07:30:31Z</time>
      </trkpt>
      <trkpt lat="43.263891" lon="-2.888556">
        <ele>291.8</ele>
        <time>2019-06-27T07:30:31Z</time>
      </trkpt>
      <trkpt lat="43.263794" lon="-2.888565">
        <ele>289.9</ele>
        <time>2019-06-27T07:30:31Z</time>
      </trkpt>
      <trkpt lat="43.263695" lon="-2.888522">
        <ele>289.1</ele>
        <time>2019-06-27T07:30:31Z</time>
      </trkpt>
      <trkpt lat="43.263594" lon="-2.888477">
        <ele>289.2</ele>
        <time>2019-06-27T07:30:31Z</time>
      </trkpt>
      <trkpt lat="43.263491" lon="-2.888406">
        <ele>288.3</ele>
        <time>2019-06-27T07:30:31Z</time>
      </trkpt>
      <trkpt lat="43.263380" lon="-2.888311">
        <ele>288.7</ele>
        <time>2019-06-27T07:30:31Z</time>
      </trkpt>
      <trkpt lat="43.263254" lon="-2.888263">
        <ele>287.4</ele>
        <time>2019-06-27T07:30:31Z</time>
      </trkpt>
      <trkpt lat="43.263156" lon="-2.888214">
        <ele>286.8</ele>
        <time>2019-06-27T07:30:31Z</time>
      </trkpt>
      <trkpt lat="43.263030" lon="-2.888115">
        <ele>286.6</ele>
        <time>2019-06-27T07:30:31Z</time>
      </trkpt>
      <trkpt lat="43.262903" lon="-2.888016">
        <ele>285.4</ele>
        <time>2019-06-27T07:30:31Z</time>
      </trkpt>
      <trkpt lat="43.262794" lon="-2.887933">
        <ele>283.3</ele>
        <time>2019-06-27T07:30:31Z</time>
      </trkpt>
      <trkpt lat="43.262679" lon="-2.887828">
        <ele>282.3</ele>
        <time>2019-06-27T07:30:31Z</time>
      </trkpt>
      <trkpt lat="43.262584" lon="-2.887738">
        <ele>280.7</ele>
        <time>2019-06-27T07:30:31Z</time>
      </trkpt>
      <trkpt lat="43.262504" lon="-2.887647">
        <ele>278.9</ele>
        <time>2019-06-27T07:30:31Z</time>
      </trkpt>
      <trkpt lat="43.262418" lon="-2.887567">
        <ele>277.0</ele>
        <time>2019-06-27T07:30:31Z</time>
      </trkpt>
      <trkpt lat="43.262346" lon="-2.887490">
        <ele>275.4</ele>
        <time>2019-06-27T07:30:31Z</time>
      </trkpt>
      <trkpt lat="43.262288" lon="-2.887399">
        <ele>273.8</ele>
        <time>2019-06-27T07:30:31Z</time>
      </trkpt>
      <trkpt lat="43.262266" lon="-2.887488">
        <ele>273.0</ele>
        <time>2019-06-27T07:30:31Z</time>
      </trkpt>
      <trkpt lat="43.262241" lon="-2.887608">
        <ele>272.1</ele>
        <time>2019-06-27T07:30:31Z</time>
      </trkpt>
      <trkpt lat="43.262284" lon="-2.887731">
        <ele>271.3</ele>
        <time>2019-06-27T07:30:31Z</time>
      </trkpt>
      <trkpt lat="43.262327" lon="-2.887855">
        <ele>271.2</ele>
        <time>2019-06-27T07:30:31Z</time>
      </trkpt>
      <trkpt lat="43.262366" lon="-2.887978">
        <ele>270.1</ele>
        <time>2019-06-27T07:30:31Z</time>
      </trkpt>
      <trkpt lat="43.262385" lon="-2.888060">
        <ele>269.3</ele>
        <time>2019-06-27T07:30:31Z</time>
      </trkpt>
      <trkpt lat="43.262316" lon="-2.888089">
        <ele>268.8</ele>
        <time>2019-06-27T07:30:31Z</time>
      </trkpt>
      <trkpt lat="43.262234" lon="-2.887986">
        <ele>268.9</ele>
        <time>2019-06-27T07:30:31Z</time>
      </trkpt>
      <trkpt lat="43.262149" lon="-2.887862">
        <ele>268.0</ele>
        <time>2019-06-27T07:30:31Z</time>
      </trkpt>
      <trkpt lat="43.262086" lon="-2.887736">
        <ele>267.6</ele>
        <time>2019-06-27T07:30:31Z</time>
      </trkpt>
      <trkpt lat="43.262060" lon="-2.887628">
        <ele>267.0</ele>
        <time>2019-06-27T07:30:31Z</time>
      </trkpt>
      <trkpt lat="43.262042" lon="-2.887483">
        <ele>266.9</ele>
        <time>2019-06-27T07:30:31Z</time>
      </trkpt>
      <trkpt lat="43.262046" lon="-2.887352">
        <ele>266.9</ele>
        <time>2019-06-27T07:30:31Z</time>
      </trkpt>
      <trkpt lat="43.262073" lon="-2.887212">
        <ele>266.3</ele>
        <time>2019-06-27T07:30:31Z</time>
      </trkpt>
      <trkpt lat="43.262112" lon="-2.887095">
        <ele>266.1</ele>
        <time>2019-06-27T07:30:31Z</time>
      </trkpt>
      <trkpt lat="43.262125" lon="-2.887018">
        <ele>265.6</ele>
        <time>2019-06-27T07:30:31Z</time>
      </trkpt>
      <trkpt lat="43.262034" lon="-2.887039">
        <ele>264.7</ele>
        <time>2019-06-27T07:30:31Z</time>
      </trkpt>
      <trkpt lat="43.261940" lon="-2.887061">
        <ele>262.7</ele>
        <time>2019-06-27T07:30:31Z</time>
      </trkpt>
      <trkpt lat="43.261843" lon="-2.887086">
        <ele>259.7</ele>
        <time>2019-06-27T07:30:31Z</time>
      </trkpt>
      <trkpt lat="43.261745" lon="-2.887111">
        <ele>257.7</ele>
        <time>2019-06-27T07:30:31Z</time>
      </trkpt>
      <trkpt lat="43.261647" lon="-2.887139">
        <ele>255.9</ele>
        <time>2019-06-27T07:30:31Z</time>
      </trkpt>
      <trkpt lat="43.261549" lon="-2.887168">
        <ele>253.3</ele>
        <time>2019-06-27T07:30:31Z</time>
      </trkpt>
      <trkpt lat="43.261451" lon="-2.887207">
        <ele>251.7</ele>
        <time>2019-06-27T07:30:31Z</time>
      </trkpt>
      <trkpt lat="43.261343" lon="-2.887256">
        <ele>250.1</ele>
        <time>2019-06-27T07:30:31Z</time>
      </trkpt>
      <trkpt lat="43.261235" lon="-2.887304">
        <ele>248.9</ele>
        <time>2019-06-27T07:30:31Z</time>
      </trkpt>
      <trkpt lat="43.261127" lon="-2.887352">
        <ele>247.3</ele>
        <time>2019-06-27T07:30:31Z</time>
      </trkpt>
      <trkpt lat="43.261018" lon="-2.887400">
        <ele>244.9</ele>
        <time>2019-06-27T07:30:31Z</time>
      </trkpt>
      <trkpt lat="43.260910" lon="-2.887448">
        <ele>243.5</ele>
        <time>2019-06-27T07:30:31Z</time>
      </trkpt>
      <trkpt lat="43.260792" lon="-2.887492">
        <ele>242.0</ele>
        <time>2019-06-27T07:30:31Z</time>
      </trkpt>
      <trkpt lat="43.260674" lon="-2.887562">
        <ele>240.3</ele>
        <time>2019-06-27T07:30:31Z</time>
      </trkpt>
      <trkpt lat="43.260564" lon="-2.887675">
        <ele>236.7</ele>
        <time>2019-06-27T07:30:31Z</time>
      </trkpt>
      <trkpt lat="43.260490" lon="-2.887803">
        <ele>233.4</ele>
        <time>2019-06-27T07:30:31Z</time>
      </trkpt>
      <trkpt lat="43.260410" lon="-2.887942">
        <ele>230.4</ele>
        <time>2019-06-27T07:30:31Z</time>
      </trkpt>
      <trkpt lat="43.260329" lon="-2.888082">
        <ele>227.6</ele>
        <time>2019-06-27T07:30:31Z</time>
      </trkpt>
      <trkpt lat="43.260240" lon="-2.888219">
        <ele>224.4</ele>
        <time>2019-06-27T07:30:31Z</time>
      </trkpt>
      <trkpt lat="43.260140" lon="-2.888303">
        <ele>221.4</ele>
        <time>2019-06-27T07:30:31Z</time>
      </trkpt>
      <trkpt lat="43.260040" lon="-2.888372">
        <ele>219.1</ele>
        <time>2019-06-27T07:30:31Z</time>
      </trkpt>
      <trkpt lat="43.259915" lon="-2.888401">
        <ele>215.8</ele>
        <time>2019-06-27T07:30:31Z</time>
      </trkpt>
      <trkpt lat="43.259785" lon="-2.888421">
        <ele>212.5</ele>
        <time>2019-06-27T07:30:31Z</time>
      </trkpt>
      <trkpt lat="43.259662" lon="-2.888460">
        <ele>210.3</ele>
        <time>2019-06-27T07:30:31Z</time>
      </trkpt>
      <trkpt lat="43.259539" lon="-2.888500">
        <ele>207.0</ele>
        <time>2019-06-27T07:30:31Z</time>
      </trkpt>
      <trkpt lat="43.259416" lon="-2.888552">
        <ele>204.3</ele>
        <time>2019-06-27T07:30:31Z</time>
      </trkpt>
      <trkpt lat="43.259302" lon="-2.888549">
        <ele>201.8</ele>
        <time>2019-06-27T07:30:31Z</time>
      </trkpt>
      <trkpt lat="43.259210" lon="-2.888491">
        <ele>200.5</ele>
        <time>2019-06-27T07:30:31Z</time>
      </trkpt>
      <trkpt lat="43.259130" lon="-2.888417">
        <ele>198.1</ele>
        <time>2019-06-27T07:30:31Z</time>
      </trkpt>
      <trkpt lat="43.259051" lon="-2.888344">
        <ele>196.3</ele>
        <time>2019-06-27T07:30:31Z</time>
      </trkpt>
      <trkpt lat="43.258954" lon="-2.888283">
        <ele>194.4</ele>
        <time>2019-06-27T07:30:31Z</time>
      </trkpt>
      <trkpt lat="43.258942" lon="-2.888422">
        <ele>192.9</ele>
        <time>2019-06-27T07:30:31Z</time>
      </trkpt>
      <trkpt lat="43.258941" lon="-2.888613">
        <ele>190.5</ele>
        <time>2019-06-27T07:30:31Z</time>
      </trkpt>
      <trkpt lat="43.258939" lon="-2.888806">
        <ele>186.7</ele>
        <time>2019-06-27T07:30:31Z</time>
      </trkpt>
      <trkpt lat="43.258930" lon="-2.889003">
        <ele>184.2</ele>
        <time>2019-06-27T07:30:31Z</time>
      </trkpt>
      <trkpt lat="43.258904" lon="-2.889191">
        <ele>181.3</ele>
        <time>2019-06-27T07:30:31Z</time>
      </trkpt>
      <trkpt lat="43.258872" lon="-2.889367">
        <ele>181.2</ele>
        <time>2019-06-27T07:30:31Z</time>
      </trkpt>
      <trkpt lat="43.258810" lon="-2.889483">
        <ele>179.7</ele>
        <time>2019-06-27T07:30:31Z</time>
      </trkpt>
      <trkpt lat="43.258732" lon="-2.889591">
        <ele>177.9</ele>
        <time>2019-06-27T07:30:31Z</time>
      </trkpt>
      <trkpt lat="43.258642" lon="-2.889695">
        <ele>176.1</ele>
        <time>2019-06-27T07:30:31Z</time>
      </trkpt>
      <trkpt lat="43.258536" lon="-2.889775">
        <ele>175.0</ele>
        <time>2019-06-27T07:30:31Z</time>
      </trkpt>
      <trkpt lat="43.258433" lon="-2.889837">
        <ele>174.4</ele>
        <time>2019-06-27T07:30:31Z</time>
      </trkpt>
      <trkpt lat="43.258323" lon="-2.889915">
        <ele>174.0</ele>
        <time>2019-06-27T07:30:31Z</time>
      </trkpt>
      <trkpt lat="43.258232" lon="-2.890027">
        <ele>173.0</ele>
        <time>2019-06-27T07:30:31Z</time>
      </trkpt>
      <trkpt lat="43.258143" lon="-2.890145">
        <ele>173.0</ele>
        <time>2019-06-27T07:30:31Z</time>
      </trkpt>
      <trkpt lat="43.258055" lon="-2.890264">
        <ele>173.0</ele>
        <time>2019-06-27T07:30:31Z</time>
      </trkpt>
      <trkpt lat="43.257966" lon="-2.890383">
        <ele>173.0</ele>
        <time>2019-06-27T07:30:31Z</time>
      </trkpt>
      <trkpt lat="43.257872" lon="-2.890455">
        <ele>172.0</ele>
        <time>2019-06-27T07:30:31Z</time>
      </trkpt>
      <trkpt lat="43.257769" lon="-2.890520">
        <ele>172.0</ele>
        <time>2019-06-27T07:30:31Z</time>
      </trkpt>
      <trkpt lat="43.257666" lon="-2.890578">
        <ele>172.0</ele>
        <time>2019-06-27T07:30:31Z</time>
      </trkpt>
      <trkpt lat="43.257551" lon="-2.890617">
        <ele>171.8</ele>
        <time>2019-06-27T07:30:31Z</time>
      </trkpt>
      <trkpt lat="43.257431" lon="-2.890668">
        <ele>171.0</ele>
        <time>2019-06-27T07:30:31Z</time>
      </trkpt>
      <trkpt lat="43.257334" lon="-2.890754">
        <ele>170.0</ele>
        <time>2019-06-27T07:30:31Z</time>
      </trkpt>
      <trkpt lat="43.257253" lon="-2.890852">
        <ele>169.0</ele>
        <time>2019-06-27T07:30:31Z</time>
      </trkpt>
      <trkpt lat="43.257192" lon="-2.890967">
        <ele>167.9</ele>
        <time>2019-06-27T07:30:31Z</time>
      </trkpt>
      <trkpt lat="43.257180" lon="-2.891120">
        <ele>167.0</ele>
        <time>2019-06-27T07:30:31Z</time>
      </trkpt>
      <trkpt lat="43.257156" lon="-2.891282">
        <ele>166.0</ele>
        <time>2019-06-27T07:30:31Z</time>
      </trkpt>
      <trkpt lat="43.257115" lon="-2.891395">
        <ele>165.1</ele>
        <time>2019-06-27T07:30:31Z</time>
      </trkpt>
      <trkpt lat="43.257042" lon="-2.891452">
        <ele>165.0</ele>
        <time>2019-06-27T07:30:31Z</time>
      </trkpt>
      <trkpt lat="43.256963" lon="-2.891509">
        <ele>163.8</ele>
        <time>2019-06-27T07:30:31Z</time>
      </trkpt>
      <trkpt lat="43.256883" lon="-2.891566">
        <ele>162.1</ele>
        <time>2019-06-27T07:30:31Z</time>
      </trkpt>
      <trkpt lat="43.256805" lon="-2.891646">
        <ele>161.1</ele>
        <time>2019-06-27T07:30:31Z</time>
      </trkpt>
      <trkpt lat="43.256726" lon="-2.891726">
        <ele>159.0</ele>
        <time>2019-06-27T07:30:31Z</time>
      </trkpt>
      <trkpt lat="43.256645" lon="-2.891807">
        <ele>156.9</ele>
        <time>2019-06-27T07:30:31Z</time>
      </trkpt>
      <trkpt lat="43.256546" lon="-2.891877">
        <ele>153.6</ele>
        <time>2019-06-27T07:30:31Z</time>
      </trkpt>
      <trkpt lat="43.256452" lon="-2.891961">
        <ele>151.1</ele>
        <time>2019-06-27T07:30:31Z</time>
      </trkpt>
      <trkpt lat="43.256358" lon="-2.892045">
        <ele>147.9</ele>
        <time>2019-06-27T07:30:31Z</time>
      </trkpt>
      <trkpt lat="43.256264" lon="-2.892128">
        <ele>144.5</ele>
        <time>2019-06-27T07:30:31Z</time>
      </trkpt>
      <trkpt lat="43.256186" lon="-2.892228">
        <ele>141.7</ele>
        <time>2019-06-27T07:30:31Z</time>
      </trkpt>
      <trkpt lat="43.256110" lon="-2.892330">
        <ele>138.8</ele>
        <time>2019-06-27T07:30:31Z</time>
      </trkpt>
      <trkpt lat="43.256057" lon="-2.892483">
        <ele>136.9</ele>
        <time>2019-06-27T07:30:31Z</time>
      </trkpt>
      <trkpt lat="43.256011" lon="-2.892641">
        <ele>134.8</ele>
        <time>2019-06-27T07:30:31Z</time>
      </trkpt>
      <trkpt lat="43.255965" lon="-2.892800">
        <ele>134.1</ele>
        <time>2019-06-27T07:30:31Z</time>
      </trkpt>
      <trkpt lat="43.255919" lon="-2.892958">
        <ele>133.5</ele>
        <time>2019-06-27T07:30:31Z</time>
      </trkpt>
      <trkpt lat="43.255858" lon="-2.893074">
        <ele>132.2</ele>
        <time>2019-06-27T07:30:31Z</time>
      </trkpt>
      <trkpt lat="43.255777" lon="-2.893180">
        <ele>130.4</ele>
        <time>2019-06-27T07:30:31Z</time>
      </trkpt>
      <trkpt lat="43.255702" lon="-2.893294">
        <ele>128.7</ele>
        <time>2019-06-27T07:30:31Z</time>
      </trkpt>
      <trkpt lat="43.255668" lon="-2.893450">
        <ele>126.5</ele>
        <time>2019-06-27T07:30:31Z</time>
      </trkpt>
      <trkpt lat="43.255685" lon="-2.893585">
        <ele>124.7</ele>
        <time>2019-06-27T07:30:31Z</time>
      </trkpt>
      <trkpt lat="43.255707" lon="-2.893737">
        <ele>122.8</ele>
        <time>2019-06-27T07:30:31Z</time>
      </trkpt>
      <trkpt lat="43.255707" lon="-2.893922">
        <ele>121.0</ele>
        <time>2019-06-27T07:30:31Z</time>
      </trkpt>
      <trkpt lat="43.255660" lon="-2.894047">
        <ele>120.0</ele>
        <time>2019-06-27T07:30:31Z</time>
      </trkpt>
      <trkpt lat="43.255629" lon="-2.894240">
        <ele>119.7</ele>
        <time>2019-06-27T07:30:31Z</time>
      </trkpt>
      <trkpt lat="43.255638" lon="-2.894403">
        <ele>118.7</ele>
        <time>2019-06-27T07:30:31Z</time>
      </trkpt>
      <trkpt lat="43.255681" lon="-2.894534">
        <ele>116.8</ele>
        <time>2019-06-27T07:30:31Z</time>
      </trkpt>
      <trkpt lat="43.255724" lon="-2.894664">
        <ele>114.7</ele>
        <time>2019-06-27T07:30:31Z</time>
      </trkpt>
      <trkpt lat="43.255704" lon="-2.894825">
        <ele>112.6</ele>
        <time>2019-06-27T07:30:31Z</time>
      </trkpt>
      <trkpt lat="43.255662" lon="-2.894987">
        <ele>109.9</ele>
        <time>2019-06-27T07:30:31Z</time>
      </trkpt>
      <trkpt lat="43.255612" lon="-2.895151">
        <ele>108.3</ele>
        <time>2019-06-27T07:30:31Z</time>
      </trkpt>
      <trkpt lat="43.255560" lon="-2.895316">
        <ele>105.8</ele>
        <time>2019-06-27T07:30:31Z</time>
      </trkpt>
      <trkpt lat="43.255518" lon="-2.895509">
        <ele>103.6</ele>
        <time>2019-06-27T07:30:31Z</time>
      </trkpt>
      <trkpt lat="43.255470" lon="-2.895673">
        <ele>102.0</ele>
        <time>2019-06-27T07:30:31Z</time>
      </trkpt>
      <trkpt lat="43.255406" lon="-2.895820">
        <ele>101.1</ele>
        <time>2019-06-27T07:30:31Z</time>
      </trkpt>
      <trkpt lat="43.255358" lon="-2.895977">
        <ele>99.6</ele>
        <time>2019-06-27T07:30:31Z</time>
      </trkpt>
      <trkpt lat="43.255309" lon="-2.896133">
        <ele>99.0</ele>
        <time>2019-06-27T07:30:31Z</time>
      </trkpt>
      <trkpt lat="43.255234" lon="-2.896277">
        <ele>97.9</ele>
        <time>2019-06-27T07:30:31Z</time>
      </trkpt>
      <trkpt lat="43.255151" lon="-2.896403">
        <ele>97.7</ele>
        <time>2019-06-27T07:30:31Z</time>
      </trkpt>
      <trkpt lat="43.255070" lon="-2.896541">
        <ele>97.0</ele>
        <time>2019-06-27T07:30:31Z</time>
      </trkpt>
      <trkpt lat="43.254961" lon="-2.896631">
        <ele>97.0</ele>
        <time>2019-06-27T07:30:31Z</time>
      </trkpt>
      <trkpt lat="43.254849" lon="-2.896729">
        <ele>96.4</ele>
        <time>2019-06-27T07:30:31Z</time>
      </trkpt>
      <trkpt lat="43.254747" lon="-2.896815">
        <ele>96.0</ele>
        <time>2019-06-27T07:30:31Z</time>
      </trkpt>
      <trkpt lat="43.254655" lon="-2.896923">
        <ele>94.4</ele>
        <time>2019-06-27T07:30:31Z</time>
      </trkpt>
      <trkpt lat="43.254564" lon="-2.897031">
        <ele>93.0</ele>
        <time>2019-06-27T07:30:31Z</time>
      </trkpt>
      <trkpt lat="43.254470" lon="-2.897137">
        <ele>90.6</ele>
        <time>2019-06-27T07:30:31Z</time>
      </trkpt>
      <trkpt lat="43.254361" lon="-2.897233">
        <ele>88.6</ele>
        <time>2019-06-27T07:30:31Z</time>
      </trkpt>
      <trkpt lat="43.254253" lon="-2.897330">
        <ele>88.0</ele>
        <time>2019-06-27T07:30:31Z</time>
      </trkpt>
      <trkpt lat="43.254145" lon="-2.897431">
        <ele>87.0</ele>
        <time>2019-06-27T07:30:31Z</time>
      </trkpt>
      <trkpt lat="43.254037" lon="-2.897531">
        <ele>86.5</ele>
        <time>2019-06-27T07:30:31Z</time>
      </trkpt>
      <trkpt lat="43.253945" lon="-2.897608">
        <ele>86.2</ele>
        <time>2019-06-27T07:30:31Z</time>
      </trkpt>
      <trkpt lat="43.253853" lon="-2.897685">
        <ele>85.9</ele>
        <time>2019-06-27T07:30:31Z</time>
      </trkpt>
      <trkpt lat="43.253761" lon="-2.897762">
        <ele>85.7</ele>
        <time>2019-06-27T07:30:31Z</time>
      </trkpt>
      <trkpt lat="43.253679" lon="-2.897868">
        <ele>84.9</ele>
        <time>2019-06-27T07:30:31Z</time>
      </trkpt>
      <trkpt lat="43.253604" lon="-2.897979">
        <ele>83.1</ele>
        <time>2019-06-27T07:30:31Z</time>
      </trkpt>
      <trkpt lat="43.253552" lon="-2.898087">
        <ele>83.1</ele>
        <time>2019-06-27T07:30:31Z</time>
      </trkpt>
      <trkpt lat="43.253549" lon="-2.898154">
        <ele>82.3</ele>
        <time>2019-06-27T07:30:31Z</time>
      </trkpt>
      <trkpt lat="43.253585" lon="-2.898259">
        <ele>80.4</ele>
        <time>2019-06-27T07:30:31Z</time>
      </trkpt>
      <trkpt lat="43.253663" lon="-2.898327">
        <ele>78.5</ele>
        <time>2019-06-27T07:30:31Z</time>
      </trkpt>
      <trkpt lat="43.253753" lon="-2.898336">
        <ele>77.7</ele>
        <time>2019-06-27T07:30:31Z</time>
      </trkpt>
      <trkpt lat="43.253843" lon="-2.898344">
        <ele>77.2</ele>
        <time>2019-06-27T07:30:31Z</time>
      </trkpt>
      <trkpt lat="43.253934" lon="-2.898352">
        <ele>77.1</ele>
        <time>2019-06-27T07:30:31Z</time>
      </trkpt>
      <trkpt lat="43.254017" lon="-2.898378">
        <ele>76.6</ele>
        <time>2019-06-27T07:30:31Z</time>
      </trkpt>
      <trkpt lat="43.254107" lon="-2.898418">
        <ele>77.0</ele>
        <time>2019-06-27T07:30:31Z</time>
      </trkpt>
      <trkpt lat="43.254187" lon="-2.898489">
        <ele>75.5</ele>
        <time>2019-06-27T07:30:31Z</time>
      </trkpt>
      <trkpt lat="43.254250" lon="-2.898562">
        <ele>70.2</ele>
        <time>2019-06-27T07:30:31Z</time>
      </trkpt>
      <trkpt lat="43.254293" lon="-2.898636">
        <ele>67.6</ele>
        <time>2019-06-27T07:30:31Z</time>
      </trkpt>
      <trkpt lat="43.254336" lon="-2.898710">
        <ele>68.0</ele>
        <time>2019-06-27T07:30:31Z</time>
      </trkpt>
      <trkpt lat="43.254378" lon="-2.898784">
        <ele>68.2</ele>
        <time>2019-06-27T07:30:31Z</time>
      </trkpt>
      <trkpt lat="43.254417" lon="-2.898868">
        <ele>69.8</ele>
        <time>2019-06-27T07:30:31Z</time>
      </trkpt>
      <trkpt lat="43.254462" lon="-2.898951">
        <ele>75.4</ele>
        <time>2019-06-27T07:30:31Z</time>
      </trkpt>
      <trkpt lat="43.254506" lon="-2.899034">
        <ele>79.0</ele>
        <time>2019-06-27T07:30:31Z</time>
      </trkpt>
      <trkpt lat="43.254562" lon="-2.899117">
        <ele>79.3</ele>
        <time>2019-06-27T07:30:31Z</time>
      </trkpt>
      <trkpt lat="43.254613" lon="-2.899205">
        <ele>79.5</ele>
        <time>2019-06-27T07:30:31Z</time>
      </trkpt>
      <trkpt lat="43.254664" lon="-2.899293">
        <ele>80.3</ele>
        <time>2019-06-27T07:30:31Z</time>
      </trkpt>
      <trkpt lat="43.254714" lon="-2.899382">
        <ele>80.6</ele>
        <time>2019-06-27T07:30:31Z</time>
      </trkpt>
      <trkpt lat="43.254755" lon="-2.899481">
        <ele>81.0</ele>
        <time>2019-06-27T07:30:31Z</time>
      </trkpt>
      <trkpt lat="43.254796" lon="-2.899580">
        <ele>81.5</ele>
        <time>2019-06-27T07:30:31Z</time>
      </trkpt>
      <trkpt lat="43.254837" lon="-2.899679">
        <ele>82.2</ele>
        <time>2019-06-27T07:30:31Z</time>
      </trkpt>
      <trkpt lat="43.254879" lon="-2.899778">
        <ele>83.0</ele>
        <time>2019-06-27T07:30:31Z</time>
      </trkpt>
      <trkpt lat="43.254905" lon="-2.899881">
        <ele>82.9</ele>
        <time>2019-06-27T07:30:31Z</time>
      </trkpt>
      <trkpt lat="43.254932" lon="-2.899983">
        <ele>84.0</ele>
        <time>2019-06-27T07:30:31Z</time>
      </trkpt>
      <trkpt lat="43.254960" lon="-2.900086">
        <ele>84.0</ele>
        <time>2019-06-27T07:30:31Z</time>
      </trkpt>
      <trkpt lat="43.254908" lon="-2.900136">
        <ele>84.0</ele>
        <time>2019-06-27T07:30:31Z</time>
      </trkpt>
      <trkpt lat="43.254873" lon="-2.900172">
        <ele>84.0</ele>
        <time>2019-06-27T07:30:31Z</time>
      </trkpt>
      <trkpt lat="43.254890" lon="-2.900237">
        <ele>84.0</ele>
        <time>2019-06-27T07:30:31Z</time>
      </trkpt>
      <trkpt lat="43.254926" lon="-2.900272">
        <ele>84.0</ele>
        <time>2019-06-27T07:30:31Z</time>
      </trkpt>
      <trkpt lat="43.254982" lon="-2.900281">
        <ele>84.6</ele>
        <time>2019-06-27T07:30:31Z</time>
      </trkpt>
      <trkpt lat="43.255012" lon="-2.900334">
        <ele>85.0</ele>
        <time>2019-06-27T07:30:31Z</time>
      </trkpt>
      <trkpt lat="43.255031" lon="-2.900413">
        <ele>85.0</ele>
        <time>2019-06-27T07:30:31Z</time>
      </trkpt>
      <trkpt lat="43.255051" lon="-2.900494">
        <ele>85.0</ele>
        <time>2019-06-27T07:30:31Z</time>
      </trkpt>
      <trkpt lat="43.255076" lon="-2.900578">
        <ele>85.1</ele>
        <time>2019-06-27T07:30:31Z</time>
      </trkpt>
      <trkpt lat="43.255100" lon="-2.900662">
        <ele>86.0</ele>
        <time>2019-06-27T07:30:31Z</time>
      </trkpt>
      <trkpt lat="43.255125" lon="-2.900746">
        <ele>86.0</ele>
        <time>2019-06-27T07:30:31Z</time>
      </trkpt>
      <trkpt lat="43.255150" lon="-2.900831">
        <ele>86.0</ele>
        <time>2019-06-27T07:30:31Z</time>
      </trkpt>
      <trkpt lat="43.255156" lon="-2.900926">
        <ele>86.0</ele>
        <time>2019-06-27T07:30:31Z</time>
      </trkpt>
      <trkpt lat="43.255093" lon="-2.900979">
        <ele>86.0</ele>
        <time>2019-06-27T07:30:31Z</time>
      </trkpt>
      <trkpt lat="43.255018" lon="-2.901018">
        <ele>86.0</ele>
        <time>2019-06-27T07:30:31Z</time>
      </trkpt>
      <trkpt lat="43.254943" lon="-2.901056">
        <ele>85.0</ele>
        <time>2019-06-27T07:30:31Z</time>
      </trkpt>
      <trkpt lat="43.254868" lon="-2.901094">
        <ele>85.0</ele>
        <time>2019-06-27T07:30:31Z</time>
      </trkpt>
      <trkpt lat="43.254793" lon="-2.901133">
        <ele>84.3</ele>
        <time>2019-06-27T07:30:31Z</time>
      </trkpt>
      <trkpt lat="43.254718" lon="-2.901171">
        <ele>84.0</ele>
        <time>2019-06-27T07:30:31Z</time>
      </trkpt>
      <trkpt lat="43.254643" lon="-2.901210">
        <ele>83.7</ele>
        <time>2019-06-27T07:30:31Z</time>
      </trkpt>
      <trkpt lat="43.254568" lon="-2.901248">
        <ele>83.0</ele>
        <time>2019-06-27T07:30:31Z</time>
      </trkpt>
      <trkpt lat="43.254493" lon="-2.901286">
        <ele>83.0</ele>
        <time>2019-06-27T07:30:31Z</time>
      </trkpt>
      <trkpt lat="43.254411" lon="-2.901325">
        <ele>82.0</ele>
        <time>2019-06-27T07:30:31Z</time>
      </trkpt>
      <trkpt lat="43.254334" lon="-2.901367">
        <ele>82.0</ele>
        <time>2019-06-27T07:30:31Z</time>
      </trkpt>
      <trkpt lat="43.254257" lon="-2.901410">
        <ele>81.7</ele>
        <time>2019-06-27T07:30:31Z</time>
      </trkpt>
      <trkpt lat="43.254179" lon="-2.901453">
        <ele>81.0</ele>
        <time>2019-06-27T07:30:31Z</time>
      </trkpt>
      <trkpt lat="43.254108" lon="-2.901485">
        <ele>81.0</ele>
        <time>2019-06-27T07:30:31Z</time>
      </trkpt>
      <trkpt lat="43.254038" lon="-2.901523">
        <ele>80.0</ele>
        <time>2019-06-27T07:30:31Z</time>
      </trkpt>
      <trkpt lat="43.253975" lon="-2.901566">
        <ele>80.0</ele>
        <time>2019-06-27T07:30:31Z</time>
      </trkpt>
      <trkpt lat="43.253906" lon="-2.901604">
        <ele>79.7</ele>
        <time>2019-06-27T07:30:31Z</time>
      </trkpt>
      <trkpt lat="43.253837" lon="-2.901642">
        <ele>79.0</ele>
        <time>2019-06-27T07:30:31Z</time>
      </trkpt>
      <trkpt lat="43.253768" lon="-2.901680">
        <ele>79.0</ele>
        <time>2019-06-27T07:30:31Z</time>
      </trkpt>
      <trkpt lat="43.253698" lon="-2.901712">
        <ele>78.5</ele>
        <time>2019-06-27T07:30:31Z</time>
      </trkpt>
      <trkpt lat="43.253625" lon="-2.901759">
        <ele>78.0</ele>
        <time>2019-06-27T07:30:31Z</time>
      </trkpt>
      <trkpt lat="43.253553" lon="-2.901805">
        <ele>78.0</ele>
        <time>2019-06-27T07:30:31Z</time>
      </trkpt>
      <trkpt lat="43.253483" lon="-2.901837">
        <ele>77.3</ele>
        <time>2019-06-27T07:30:31Z</time>
      </trkpt>
      <trkpt lat="43.253414" lon="-2.901874">
        <ele>77.0</ele>
        <time>2019-06-27T07:30:31Z</time>
      </trkpt>
      <trkpt lat="43.253345" lon="-2.901911">
        <ele>77.0</ele>
        <time>2019-06-27T07:30:31Z</time>
      </trkpt>
      <trkpt lat="43.253276" lon="-2.901948">
        <ele>76.0</ele>
        <time>2019-06-27T07:30:31Z</time>
      </trkpt>
      <trkpt lat="43.253207" lon="-2.901985">
        <ele>76.0</ele>
        <time>2019-06-27T07:30:31Z</time>
      </trkpt>
      <trkpt lat="43.253138" lon="-2.902022">
        <ele>76.0</ele>
        <time>2019-06-27T07:30:31Z</time>
      </trkpt>
      <trkpt lat="43.253070" lon="-2.902071">
        <ele>75.1</ele>
        <time>2019-06-27T07:30:31Z</time>
      </trkpt>
      <trkpt lat="43.253000" lon="-2.902121">
        <ele>75.0</ele>
        <time>2019-06-27T07:30:31Z</time>
      </trkpt>
      <trkpt lat="43.252922" lon="-2.902166">
        <ele>74.8</ele>
        <time>2019-06-27T07:30:31Z</time>
      </trkpt>
      <trkpt lat="43.252839" lon="-2.902203">
        <ele>74.0</ele>
        <time>2019-06-27T07:30:31Z</time>
      </trkpt>
      <trkpt lat="43.252757" lon="-2.902240">
        <ele>74.0</ele>
        <time>2019-06-27T07:30:31Z</time>
      </trkpt>
      <trkpt lat="43.252670" lon="-2.902283">
        <ele>73.1</ele>
        <time>2019-06-27T07:30:31Z</time>
      </trkpt>
      <trkpt lat="43.252584" lon="-2.902331">
        <ele>73.0</ele>
        <time>2019-06-27T07:30:31Z</time>
      </trkpt>
      <trkpt lat="43.252498" lon="-2.902379">
        <ele>72.3</ele>
        <time>2019-06-27T07:30:31Z</time>
      </trkpt>
      <trkpt lat="43.252412" lon="-2.902427">
        <ele>72.0</ele>
        <time>2019-06-27T07:30:31Z</time>
      </trkpt>
      <trkpt lat="43.252326" lon="-2.902475">
        <ele>71.1</ele>
        <time>2019-06-27T07:30:31Z</time>
      </trkpt>
      <trkpt lat="43.252240" lon="-2.902523">
        <ele>71.0</ele>
        <time>2019-06-27T07:30:31Z</time>
      </trkpt>
      <trkpt lat="43.252153" lon="-2.902571">
        <ele>70.7</ele>
        <time>2019-06-27T07:30:31Z</time>
      </trkpt>
      <trkpt lat="43.252067" lon="-2.902619">
        <ele>70.0</ele>
        <time>2019-06-27T07:30:31Z</time>
      </trkpt>
      <trkpt lat="43.251981" lon="-2.902667">
        <ele>69.0</ele>
        <time>2019-06-27T07:30:31Z</time>
      </trkpt>
      <trkpt lat="43.251895" lon="-2.902715">
        <ele>69.0</ele>
        <time>2019-06-27T07:30:31Z</time>
      </trkpt>
      <trkpt lat="43.251809" lon="-2.902763">
        <ele>68.1</ele>
        <time>2019-06-27T07:30:31Z</time>
      </trkpt>
      <trkpt lat="43.251722" lon="-2.902808">
        <ele>68.0</ele>
        <time>2019-06-27T07:30:31Z</time>
      </trkpt>
      <trkpt lat="43.251635" lon="-2.902853">
        <ele>67.2</ele>
        <time>2019-06-27T07:30:31Z</time>
      </trkpt>
      <trkpt lat="43.251548" lon="-2.902899">
        <ele>67.0</ele>
        <time>2019-06-27T07:30:31Z</time>
      </trkpt>
      <trkpt lat="43.251461" lon="-2.902944">
        <ele>66.3</ele>
        <time>2019-06-27T07:30:31Z</time>
      </trkpt>
      <trkpt lat="43.251374" lon="-2.902990">
        <ele>66.0</ele>
        <time>2019-06-27T07:30:31Z</time>
      </trkpt>
      <trkpt lat="43.251287" lon="-2.903035">
        <ele>65.5</ele>
        <time>2019-06-27T07:30:31Z</time>
      </trkpt>
      <trkpt lat="43.251200" lon="-2.903081">
        <ele>65.0</ele>
        <time>2019-06-27T07:30:31Z</time>
      </trkpt>
      <trkpt lat="43.251113" lon="-2.903126">
        <ele>64.0</ele>
        <time>2019-06-27T07:30:31Z</time>
      </trkpt>
      <trkpt lat="43.251026" lon="-2.903171">
        <ele>64.0</ele>
        <time>2019-06-27T07:30:31Z</time>
      </trkpt>
      <trkpt lat="43.250939" lon="-2.903217">
        <ele>63.0</ele>
        <time>2019-06-27T07:30:31Z</time>
      </trkpt>
      <trkpt lat="43.250852" lon="-2.903271">
        <ele>62.8</ele>
        <time>2019-06-27T07:30:31Z</time>
      </trkpt>
      <trkpt lat="43.250768" lon="-2.903316">
        <ele>62.0</ele>
        <time>2019-06-27T07:30:31Z</time>
      </trkpt>
      <trkpt lat="43.250685" lon="-2.903362">
        <ele>61.1</ele>
        <time>2019-06-27T07:30:31Z</time>
      </trkpt>
      <trkpt lat="43.250601" lon="-2.903407">
        <ele>61.0</ele>
        <time>2019-06-27T07:30:31Z</time>
      </trkpt>
      <trkpt lat="43.250518" lon="-2.903453">
        <ele>61.0</ele>
        <time>2019-06-27T07:30:31Z</time>
      </trkpt>
      <trkpt lat="43.250434" lon="-2.903498">
        <ele>60.0</ele>
        <time>2019-06-27T07:30:31Z</time>
      </trkpt>
      <trkpt lat="43.250351" lon="-2.903544">
        <ele>60.0</ele>
        <time>2019-06-27T07:30:31Z</time>
      </trkpt>
      <trkpt lat="43.250267" lon="-2.903589">
        <ele>60.0</ele>
        <time>2019-06-27T07:30:31Z</time>
      </trkpt>
      <trkpt lat="43.250184" lon="-2.903634">
        <ele>59.4</ele>
        <time>2019-06-27T07:30:31Z</time>
      </trkpt>
      <trkpt lat="43.250100" lon="-2.903680">
        <ele>59.0</ele>
        <time>2019-06-27T07:30:31Z</time>
      </trkpt>
      <trkpt lat="43.250017" lon="-2.903725">
        <ele>59.0</ele>
        <time>2019-06-27T07:30:31Z</time>
      </trkpt>
      <trkpt lat="43.249933" lon="-2.903771">
        <ele>59.0</ele>
        <time>2019-06-27T07:30:31Z</time>
      </trkpt>
      <trkpt lat="43.249864" lon="-2.903798">
        <ele>59.0</ele>
        <time>2019-06-27T07:30:31Z</time>
      </trkpt>
      <trkpt lat="43.249835" lon="-2.903851">
        <ele>59.0</ele>
        <time>2019-06-27T07:30:31Z</time>
      </trkpt>
      <trkpt lat="43.249770" lon="-2.903892">
        <ele>59.0</ele>
        <time>2019-06-27T07:30:31Z</time>
      </trkpt>
      <trkpt lat="43.249699" lon="-2.903929">
        <ele>59.0</ele>
        <time>2019-06-27T07:30:31Z</time>
      </trkpt>
      <trkpt lat="43.249628" lon="-2.903966">
        <ele>58.6</ele>
        <time>2019-06-27T07:30:31Z</time>
      </trkpt>
      <trkpt lat="43.249562" lon="-2.904011">
        <ele>56.2</ele>
        <time>2019-06-27T07:30:31Z</time>
      </trkpt>
      <trkpt lat="43.249492" lon="-2.904046">
        <ele>51.8</ele>
        <time>2019-06-27T07:30:31Z</time>
      </trkpt>
      <trkpt lat="43.249422" lon="-2.904080">
        <ele>50.0</ele>
        <time>2019-06-27T07:30:31Z</time>
      </trkpt>
      <trkpt lat="43.249352" lon="-2.904115">
        <ele>50.2</ele>
        <time>2019-06-27T07:30:31Z</time>
      </trkpt>
      <trkpt lat="43.249282" lon="-2.904150">
        <ele>52.3</ele>
        <time>2019-06-27T07:30:31Z</time>
      </trkpt>
      <trkpt lat="43.249212" lon="-2.904186">
        <ele>56.3</ele>
        <time>2019-06-27T07:30:31Z</time>
      </trkpt>
      <trkpt lat="43.249143" lon="-2.904222">
        <ele>58.0</ele>
        <time>2019-06-27T07:30:31Z</time>
      </trkpt>
      <trkpt lat="43.249084" lon="-2.904267">
        <ele>58.0</ele>
        <time>2019-06-27T07:30:31Z</time>
      </trkpt>
      <trkpt lat="43.249021" lon="-2.904311">
        <ele>58.0</ele>
        <time>2019-06-27T07:30:31Z</time>
      </trkpt>
      <trkpt lat="43.248968" lon="-2.904383">
        <ele>57.9</ele>
        <time>2019-06-27T07:30:31Z</time>
      </trkpt>
      <trkpt lat="43.248914" lon="-2.904463">
        <ele>57.7</ele>
        <time>2019-06-27T07:30:31Z</time>
      </trkpt>
      <trkpt lat="43.248859" lon="-2.904543">
        <ele>57.0</ele>
        <time>2019-06-27T07:30:31Z</time>
      </trkpt>
      <trkpt lat="43.248820" lon="-2.904653">
        <ele>56.6</ele>
        <time>2019-06-27T07:30:31Z</time>
      </trkpt>
      <trkpt lat="43.248794" lon="-2.904762">
        <ele>56.0</ele>
        <time>2019-06-27T07:30:31Z</time>
      </trkpt>
      <trkpt lat="43.248763" lon="-2.904872">
        <ele>56.0</ele>
        <time>2019-06-27T07:30:31Z</time>
      </trkpt>
      <trkpt lat="43.248727" lon="-2.904982">
        <ele>55.3</ele>
        <time>2019-06-27T07:30:31Z</time>
      </trkpt>
      <trkpt lat="43.248700" lon="-2.905094">
        <ele>55.0</ele>
        <time>2019-06-27T07:30:31Z</time>
      </trkpt>
      <trkpt lat="43.248677" lon="-2.905209">
        <ele>54.4</ele>
        <time>2019-06-27T07:30:31Z</time>
      </trkpt>
      <trkpt lat="43.248665" lon="-2.905328">
        <ele>54.0</ele>
        <time>2019-06-27T07:30:31Z</time>
      </trkpt>
      <trkpt lat="43.248654" lon="-2.905447">
        <ele>53.9</ele>
        <time>2019-06-27T07:30:31Z</time>
      </trkpt>
      <trkpt lat="43.248642" lon="-2.905567">
        <ele>52.7</ele>
        <time>2019-06-27T07:30:31Z</time>
      </trkpt>
      <trkpt lat="43.248631" lon="-2.905686">
        <ele>52.1</ele>
        <time>2019-06-27T07:30:31Z</time>
      </trkpt>
      <trkpt lat="43.248628" lon="-2.905811">
        <ele>52.0</ele>
        <time>2019-06-27T07:30:31Z</time>
      </trkpt>
      <trkpt lat="43.248626" lon="-2.905944">
        <ele>51.0</ele>
        <time>2019-06-27T07:30:31Z</time>
      </trkpt>
      <trkpt lat="43.248625" lon="-2.906075">
        <ele>50.8</ele>
        <time>2019-06-27T07:30:31Z</time>
      </trkpt>
      <trkpt lat="43.248581" lon="-2.906149">
        <ele>50.0</ele>
        <time>2019-06-27T07:30:31Z</time>
      </trkpt>
      <trkpt lat="43.248539" lon="-2.906227">
        <ele>50.0</ele>
        <time>2019-06-27T07:30:31Z</time>
      </trkpt>
      <trkpt lat="43.248500" lon="-2.906314">
        <ele>49.0</ele>
        <time>2019-06-27T07:30:31Z</time>
      </trkpt>
      <trkpt lat="43.248463" lon="-2.906420">
        <ele>48.7</ele>
        <time>2019-06-27T07:30:31Z</time>
      </trkpt>
      <trkpt lat="43.248433" lon="-2.906523">
        <ele>47.6</ele>
        <time>2019-06-27T07:30:31Z</time>
      </trkpt>
      <trkpt lat="43.248407" lon="-2.906631">
        <ele>46.2</ele>
        <time>2019-06-27T07:30:31Z</time>
      </trkpt>
      <trkpt lat="43.248378" lon="-2.906742">
        <ele>44.8</ele>
        <time>2019-06-27T07:30:31Z</time>
      </trkpt>
      <trkpt lat="43.248350" lon="-2.906836">
        <ele>43.2</ele>
        <time>2019-06-27T07:30:31Z</time>
      </trkpt>
      <trkpt lat="43.248311" lon="-2.906922">
        <ele>41.4</ele>
        <time>2019-06-27T07:30:31Z</time>
      </trkpt>
      <trkpt lat="43.248273" lon="-2.906989">
        <ele>39.4</ele>
        <time>2019-06-27T07:30:31Z</time>
      </trkpt>
      <trkpt lat="43.248259" lon="-2.907076">
        <ele>39.1</ele>
        <time>2019-06-27T07:30:31Z</time>
      </trkpt>
      <trkpt lat="43.248245" lon="-2.907163">
        <ele>38.8</ele>
        <time>2019-06-27T07:30:31Z</time>
      </trkpt>
      <trkpt lat="43.248221" lon="-2.907250">
        <ele>38.5</ele>
        <time>2019-06-27T07:30:31Z</time>
      </trkpt>
      <trkpt lat="43.248191" lon="-2.907314">
        <ele>38.4</ele>
        <time>2019-06-27T07:30:31Z</time>
      </trkpt>
      <trkpt lat="43.248137" lon="-2.907303">
        <ele>38.0</ele>
        <time>2019-06-27T07:30:31Z</time>
      </trkpt>
      <trkpt lat="43.248093" lon="-2.907298">
        <ele>38.0</ele>
        <time>2019-06-27T07:30:31Z</time>
      </trkpt>
      <trkpt lat="43.248068" lon="-2.907370">
        <ele>38.0</ele>
        <time>2019-06-27T07:30:31Z</time>
      </trkpt>
      <trkpt lat="43.248044" lon="-2.907449">
        <ele>38.0</ele>
        <time>2019-06-27T07:30:31Z</time>
      </trkpt>
      <trkpt lat="43.248020" lon="-2.907531">
        <ele>36.6</ele>
        <time>2019-06-27T07:30:31Z</time>
      </trkpt>
      <trkpt lat="43.247973" lon="-2.907555">
        <ele>36.7</ele>
        <time>2019-06-27T07:30:31Z</time>
      </trkpt>
      <trkpt lat="43.247916" lon="-2.907539">
        <ele>37.1</ele>
        <time>2019-06-27T07:30:31Z</time>
      </trkpt>
      <trkpt lat="43.247859" lon="-2.907523">
        <ele>37.1</ele>
        <time>2019-06-27T07:30:31Z</time>
      </trkpt>
      <trkpt lat="43.247814" lon="-2.907514">
        <ele>37.0</ele>
        <time>2019-06-27T07:30:31Z</time>
      </trkpt>
      <trkpt lat="43.247785" lon="-2.907611">
        <ele>36.9</ele>
        <time>2019-06-27T07:30:31Z</time>
      </trkpt>
      <trkpt lat="43.247758" lon="-2.907712">
        <ele>36.0</ele>
        <time>2019-06-27T07:30:31Z</time>
      </trkpt>
      <trkpt lat="43.247731" lon="-2.907813">
        <ele>36.0</ele>
        <time>2019-06-27T07:30:31Z</time>
      </trkpt>
      <trkpt lat="43.247706" lon="-2.907919">
        <ele>35.9</ele>
        <time>2019-06-27T07:30:31Z</time>
      </trkpt>
      <trkpt lat="43.247682" lon="-2.908024">
        <ele>35.0</ele>
        <time>2019-06-27T07:30:31Z</time>
      </trkpt>
      <trkpt lat="43.247657" lon="-2.908130">
        <ele>35.0</ele>
        <time>2019-06-27T07:30:31Z</time>
      </trkpt>
      <trkpt lat="43.247632" lon="-2.908235">
        <ele>34.0</ele>
        <time>2019-06-27T07:30:31Z</time>
      </trkpt>
      <trkpt lat="43.247607" lon="-2.908341">
        <ele>34.0</ele>
        <time>2019-06-27T07:30:31Z</time>
      </trkpt>
      <trkpt lat="43.247582" lon="-2.908447">
        <ele>34.0</ele>
        <time>2019-06-27T07:30:31Z</time>
      </trkpt>
      <trkpt lat="43.247558" lon="-2.908552">
        <ele>32.8</ele>
        <time>2019-06-27T07:30:31Z</time>
      </trkpt>
      <trkpt lat="43.247533" lon="-2.908658">
        <ele>29.8</ele>
        <time>2019-06-27T07:30:31Z</time>
      </trkpt>
      <trkpt lat="43.247512" lon="-2.908768">
        <ele>27.1</ele>
        <time>2019-06-27T07:30:31Z</time>
      </trkpt>
      <trkpt lat="43.247487" lon="-2.908870">
        <ele>31.0</ele>
        <time>2019-06-27T07:30:31Z</time>
      </trkpt>
      <trkpt lat="43.247462" lon="-2.908971">
        <ele>32.4</ele>
        <time>2019-06-27T07:30:31Z</time>
      </trkpt>
      <trkpt lat="43.247437" lon="-2.909072">
        <ele>32.0</ele>
        <time>2019-06-27T07:30:31Z</time>
      </trkpt>
      <trkpt lat="43.247411" lon="-2.909174">
        <ele>32.0</ele>
        <time>2019-06-27T07:30:31Z</time>
      </trkpt>
      <trkpt lat="43.247386" lon="-2.909275">
        <ele>32.0</ele>
        <time>2019-06-27T07:30:31Z</time>
      </trkpt>
      <trkpt lat="43.247349" lon="-2.909374">
        <ele>32.0</ele>
        <time>2019-06-27T07:30:31Z</time>
      </trkpt>
      <trkpt lat="43.247296" lon="-2.909466">
        <ele>32.0</ele>
        <time>2019-06-27T07:30:31Z</time>
      </trkpt>
      <trkpt lat="43.247238" lon="-2.909545">
        <ele>32.0</ele>
        <time>2019-06-27T07:30:31Z</time>
      </trkpt>
      <trkpt lat="43.247169" lon="-2.909595">
        <ele>31.9</ele>
        <time>2019-06-27T07:30:31Z</time>
      </trkpt>
      <trkpt lat="43.247111" lon="-2.909599">
        <ele>31.2</ele>
        <time>2019-06-27T07:30:31Z</time>
      </trkpt>
      <trkpt lat="43.247043" lon="-2.909585">
        <ele>31.0</ele>
        <time>2019-06-27T07:30:31Z</time>
      </trkpt>
      <trkpt lat="43.246982" lon="-2.909543">
        <ele>30.0</ele>
        <time>2019-06-27T07:30:31Z</time>
      </trkpt>
      <trkpt lat="43.246921" lon="-2.909470">
        <ele>29.5</ele>
        <time>2019-06-27T07:30:31Z</time>
      </trkpt>
      <trkpt lat="43.246892" lon="-2.909388">
        <ele>29.0</ele>
        <time>2019-06-27T07:30:31Z</time>
      </trkpt>
      <trkpt lat="43.246804" lon="-2.909384">
        <ele>28.8</ele>
        <time>2019-06-27T07:30:31Z</time>
      </trkpt>
      <trkpt lat="43.246782" lon="-2.909292">
        <ele>27.2</ele>
        <time>2019-06-27T07:30:31Z</time>
      </trkpt>
      <trkpt lat="43.246773" lon="-2.909164">
        <ele>22.8</ele>
        <time>2019-06-27T07:30:31Z</time>
      </trkpt>
      <trkpt lat="43.246731" lon="-2.909088">
        <ele>20.2</ele>
        <time>2019-06-27T07:30:31Z</time>
      </trkpt>
      <trkpt lat="43.246677" lon="-2.909077">
        <ele>21.4</ele>
        <time>2019-06-27T07:30:31Z</time>
      </trkpt>
      <trkpt lat="43.246615" lon="-2.909115">
        <ele>23.7</ele>
        <time>2019-06-27T07:30:31Z</time>
      </trkpt>
      <trkpt lat="43.246537" lon="-2.909088">
        <ele>26.0</ele>
        <time>2019-06-27T07:30:31Z</time>
      </trkpt>
      <trkpt lat="43.246481" lon="-2.909068">
        <ele>25.6</ele>
        <time>2019-06-27T07:30:31Z</time>
      </trkpt>
      <trkpt lat="43.246455" lon="-2.909207">
        <ele>25.0</ele>
        <time>2019-06-27T07:30:31Z</time>
      </trkpt>
      <trkpt lat="43.246433" lon="-2.909354">
        <ele>25.0</ele>
        <time>2019-06-27T07:30:31Z</time>
      </trkpt>
      <trkpt lat="43.246411" lon="-2.909501">
        <ele>24.9</ele>
        <time>2019-06-27T07:30:31Z</time>
      </trkpt>
      <trkpt lat="43.246394" lon="-2.909584">
        <ele>24.9</ele>
        <time>2019-06-27T07:30:31Z</time>
      </trkpt>
      <trkpt lat="43.246390" lon="-2.909582">
        <ele>25.0</ele>
        <time>2019-06-27T08:22:49Z</time>
      </trkpt>
      <trkpt lat="43.246368" lon="-2.909693">
        <ele>24.9</ele>
        <time>2019-06-27T08:22:49Z</time>
      </trkpt>
      <trkpt lat="43.246342" lon="-2.909800">
        <ele>24.5</ele>
        <time>2019-06-27T08:22:49Z</time>
      </trkpt>
      <trkpt lat="43.246316" lon="-2.909908">
        <ele>24.1</ele>
        <time>2019-06-27T08:22:49Z</time>
      </trkpt>
      <trkpt lat="43.246290" lon="-2.910015">
        <ele>24.0</ele>
        <time>2019-06-27T08:22:49Z</time>
      </trkpt>
      <trkpt lat="43.246276" lon="-2.910152">
        <ele>24.0</ele>
        <time>2019-06-27T08:22:49Z</time>
      </trkpt>
      <trkpt lat="43.246262" lon="-2.910289">
        <ele>24.0</ele>
        <time>2019-06-27T08:22:49Z</time>
      </trkpt>
      <trkpt lat="43.246249" lon="-2.910426">
        <ele>24.0</ele>
        <time>2019-06-27T08:22:49Z</time>
      </trkpt>
      <trkpt lat="43.246235" lon="-2.910563">
        <ele>23.9</ele>
        <time>2019-06-27T08:22:49Z</time>
      </trkpt>
      <trkpt lat="43.246227" lon="-2.910694">
        <ele>23.9</ele>
        <time>2019-06-27T08:22:49Z</time>
      </trkpt>
      <trkpt lat="43.246222" lon="-2.910826">
        <ele>23.1</ele>
        <time>2019-06-27T08:22:49Z</time>
      </trkpt>
      <trkpt lat="43.246218" lon="-2.910957">
        <ele>23.0</ele>
        <time>2019-06-27T08:22:49Z</time>
      </trkpt>
      <trkpt lat="43.246213" lon="-2.911088">
        <ele>23.0</ele>
        <time>2019-06-27T08:22:49Z</time>
      </trkpt>
      <trkpt lat="43.246212" lon="-2.911230">
        <ele>23.0</ele>
        <time>2019-06-27T08:22:49Z</time>
      </trkpt>
      <trkpt lat="43.246214" lon="-2.911377">
        <ele>22.4</ele>
        <time>2019-06-27T08:22:49Z</time>
      </trkpt>
      <trkpt lat="43.246209" lon="-2.911536">
        <ele>22.0</ele>
        <time>2019-06-27T08:22:49Z</time>
      </trkpt>
      <trkpt lat="43.246201" lon="-2.911697">
        <ele>22.0</ele>
        <time>2019-06-27T08:22:49Z</time>
      </trkpt>
      <trkpt lat="43.246193" lon="-2.911858">
        <ele>22.0</ele>
        <time>2019-06-27T08:22:49Z</time>
      </trkpt>
      <trkpt lat="43.246182" lon="-2.912018">
        <ele>22.0</ele>
        <time>2019-06-27T08:22:49Z</time>
      </trkpt>
      <trkpt lat="43.246171" lon="-2.912179">
        <ele>22.0</ele>
        <time>2019-06-27T08:22:49Z</time>
      </trkpt>
      <trkpt lat="43.246161" lon="-2.912340">
        <ele>22.0</ele>
        <time>2019-06-27T08:22:49Z</time>
      </trkpt>
      <trkpt lat="43.246156" lon="-2.912503">
        <ele>21.0</ele>
        <time>2019-06-27T08:22:49Z</time>
      </trkpt>
      <trkpt lat="43.246146" lon="-2.912656">
        <ele>21.0</ele>
        <time>2019-06-27T08:22:49Z</time>
      </trkpt>
      <trkpt lat="43.246135" lon="-2.912808">
        <ele>20.8</ele>
        <time>2019-06-27T08:22:49Z</time>
      </trkpt>
      <trkpt lat="43.246128" lon="-2.912940">
        <ele>20.7</ele>
        <time>2019-06-27T08:22:49Z</time>
      </trkpt>
      <trkpt lat="43.246119" lon="-2.913072">
        <ele>20.5</ele>
        <time>2019-06-27T08:22:49Z</time>
      </trkpt>
      <trkpt lat="43.246111" lon="-2.913204">
        <ele>19.6</ele>
        <time>2019-06-27T08:22:49Z</time>
      </trkpt>
      <trkpt lat="43.246102" lon="-2.913336">
        <ele>19.2</ele>
        <time>2019-06-27T08:22:49Z</time>
      </trkpt>
      <trkpt lat="43.246093" lon="-2.913469">
        <ele>18.6</ele>
        <time>2019-06-27T08:22:49Z</time>
      </trkpt>
      <trkpt lat="43.246087" lon="-2.913602">
        <ele>18.6</ele>
        <time>2019-06-27T08:22:49Z</time>
      </trkpt>
      <trkpt lat="43.246078" lon="-2.913737">
        <ele>19.4</ele>
        <time>2019-06-27T08:22:49Z</time>
      </trkpt>
      <trkpt lat="43.246069" lon="-2.913876">
        <ele>19.4</ele>
        <time>2019-06-27T08:22:49Z</time>
      </trkpt>
      <trkpt lat="43.246056" lon="-2.914017">
        <ele>19.1</ele>
        <time>2019-06-27T08:22:49Z</time>
      </trkpt>
      <trkpt lat="43.246040" lon="-2.914144">
        <ele>18.3</ele>
        <time>2019-06-27T08:22:49Z</time>
      </trkpt>
      <trkpt lat="43.246025" lon="-2.914270">
        <ele>19.4</ele>
        <time>2019-06-27T08:22:49Z</time>
      </trkpt>
      <trkpt lat="43.246001" lon="-2.914387">
        <ele>19.8</ele>
        <time>2019-06-27T08:22:49Z</time>
      </trkpt>
      <trkpt lat="43.245974" lon="-2.914505">
        <ele>19.2</ele>
        <time>2019-06-27T08:22:49Z</time>
      </trkpt>
      <trkpt lat="43.245936" lon="-2.914612">
        <ele>19.4</ele>
        <time>2019-06-27T08:22:49Z</time>
      </trkpt>
      <trkpt lat="43.245897" lon="-2.914720">
        <ele>18.8</ele>
        <time>2019-06-27T08:22:49Z</time>
      </trkpt>
      <trkpt lat="43.245859" lon="-2.914827">
        <ele>19.7</ele>
        <time>2019-06-27T08:22:49Z</time>
      </trkpt>
      <trkpt lat="43.245817" lon="-2.914934">
        <ele>18.7</ele>
        <time>2019-06-27T08:22:49Z</time>
      </trkpt>
      <trkpt lat="43.245770" lon="-2.915018">
        <ele>18.6</ele>
        <time>2019-06-27T08:22:49Z</time>
      </trkpt>
      <trkpt lat="43.245723" lon="-2.915103">
        <ele>18.8</ele>
        <time>2019-06-27T08:22:49Z</time>
      </trkpt>
      <trkpt lat="43.245676" lon="-2.915188">
        <ele>18.7</ele>
        <time>2019-06-27T08:22:49Z</time>
      </trkpt>
      <trkpt lat="43.245629" lon="-2.915273">
        <ele>19.0</ele>
        <time>2019-06-27T08:22:49Z</time>
      </trkpt>
      <trkpt lat="43.245573" lon="-2.915352">
        <ele>18.6</ele>
        <time>2019-06-27T08:22:49Z</time>
      </trkpt>
      <trkpt lat="43.245517" lon="-2.915431">
        <ele>19.0</ele>
        <time>2019-06-27T08:22:49Z</time>
      </trkpt>
      <trkpt lat="43.245457" lon="-2.915501">
        <ele>18.8</ele>
        <time>2019-06-27T08:22:49Z</time>
      </trkpt>
      <trkpt lat="43.245397" lon="-2.915571">
        <ele>18.6</ele>
        <time>2019-06-27T08:22:49Z</time>
      </trkpt>
      <trkpt lat="43.245337" lon="-2.915644">
        <ele>18.5</ele>
        <time>2019-06-27T08:22:49Z</time>
      </trkpt>
      <trkpt lat="43.245282" lon="-2.915725">
        <ele>18.6</ele>
        <time>2019-06-27T08:22:49Z</time>
      </trkpt>
      <trkpt lat="43.245227" lon="-2.915804">
        <ele>19.0</ele>
        <time>2019-06-27T08:22:49Z</time>
      </trkpt>
      <trkpt lat="43.245167" lon="-2.915874">
        <ele>18.4</ele>
        <time>2019-06-27T08:22:49Z</time>
      </trkpt>
      <trkpt lat="43.245107" lon="-2.915944">
        <ele>19.0</ele>
        <time>2019-06-27T08:22:49Z</time>
      </trkpt>
      <trkpt lat="43.245047" lon="-2.916014">
        <ele>18.6</ele>
        <time>2019-06-27T08:22:49Z</time>
      </trkpt>
      <trkpt lat="43.244987" lon="-2.916094">
        <ele>19.2</ele>
        <time>2019-06-27T08:22:49Z</time>
      </trkpt>
      <trkpt lat="43.244928" lon="-2.916173">
        <ele>19.0</ele>
        <time>2019-06-27T08:22:49Z</time>
      </trkpt>
      <trkpt lat="43.244869" lon="-2.916252">
        <ele>19.2</ele>
        <time>2019-06-27T08:22:49Z</time>
      </trkpt>
      <trkpt lat="43.244821" lon="-2.916336">
        <ele>19.4</ele>
        <time>2019-06-27T08:22:49Z</time>
      </trkpt>
      <trkpt lat="43.244766" lon="-2.916416">
        <ele>19.4</ele>
        <time>2019-06-27T08:22:49Z</time>
      </trkpt>
      <trkpt lat="43.244712" lon="-2.916495">
        <ele>19.2</ele>
        <time>2019-06-27T08:22:49Z</time>
      </trkpt>
      <trkpt lat="43.244658" lon="-2.916574">
        <ele>19.0</ele>
        <time>2019-06-27T08:22:49Z</time>
      </trkpt>
      <trkpt lat="43.244608" lon="-2.916660">
        <ele>18.9</ele>
        <time>2019-06-27T08:22:49Z</time>
      </trkpt>
      <trkpt lat="43.244557" lon="-2.916746">
        <ele>18.5</ele>
        <time>2019-06-27T08:22:49Z</time>
      </trkpt>
      <trkpt lat="43.244511" lon="-2.916844">
        <ele>18.5</ele>
        <time>2019-06-27T08:22:49Z</time>
      </trkpt>
      <trkpt lat="43.244463" lon="-2.916949">
        <ele>19.4</ele>
        <time>2019-06-27T08:22:49Z</time>
      </trkpt>
      <trkpt lat="43.244412" lon="-2.917048">
        <ele>19.5</ele>
        <time>2019-06-27T08:22:49Z</time>
      </trkpt>
      <trkpt lat="43.244362" lon="-2.917148">
        <ele>19.3</ele>
        <time>2019-06-27T08:22:49Z</time>
      </trkpt>
      <trkpt lat="43.244307" lon="-2.917240">
        <ele>19.2</ele>
        <time>2019-06-27T08:22:49Z</time>
      </trkpt>
      <trkpt lat="43.244254" lon="-2.917335">
        <ele>19.0</ele>
        <time>2019-06-27T08:22:49Z</time>
      </trkpt>
      <trkpt lat="43.244198" lon="-2.917415">
        <ele>19.8</ele>
        <time>2019-06-27T08:22:49Z</time>
      </trkpt>
      <trkpt lat="43.244138" lon="-2.917484">
        <ele>19.6</ele>
        <time>2019-06-27T08:22:49Z</time>
      </trkpt>
      <trkpt lat="43.244073" lon="-2.917532">
        <ele>19.1</ele>
        <time>2019-06-27T08:22:49Z</time>
      </trkpt>
      <trkpt lat="43.244004" lon="-2.917571">
        <ele>17.6</ele>
        <time>2019-06-27T08:22:49Z</time>
      </trkpt>
      <trkpt lat="43.243936" lon="-2.917609">
        <ele>14.6</ele>
        <time>2019-06-27T08:22:49Z</time>
      </trkpt>
      <trkpt lat="43.243858" lon="-2.917635">
        <ele>12.9</ele>
        <time>2019-06-27T08:22:49Z</time>
      </trkpt>
      <trkpt lat="43.243781" lon="-2.917665">
        <ele>12.1</ele>
        <time>2019-06-27T08:22:49Z</time>
      </trkpt>
      <trkpt lat="43.243703" lon="-2.917691">
        <ele>12.0</ele>
        <time>2019-06-27T08:22:49Z</time>
      </trkpt>
      <trkpt lat="43.243625" lon="-2.917717">
        <ele>12.0</ele>
        <time>2019-06-27T08:22:49Z</time>
      </trkpt>
      <trkpt lat="43.243546" lon="-2.917743">
        <ele>12.0</ele>
        <time>2019-06-27T08:22:49Z</time>
      </trkpt>
      <trkpt lat="43.243467" lon="-2.917769">
        <ele>12.0</ele>
        <time>2019-06-27T08:22:49Z</time>
      </trkpt>
      <trkpt lat="43.243388" lon="-2.917795">
        <ele>11.5</ele>
        <time>2019-06-27T08:22:49Z</time>
      </trkpt>
      <trkpt lat="43.243308" lon="-2.917821">
        <ele>11.0</ele>
        <time>2019-06-27T08:22:49Z</time>
      </trkpt>
      <trkpt lat="43.243229" lon="-2.917849">
        <ele>11.0</ele>
        <time>2019-06-27T08:22:49Z</time>
      </trkpt>
      <trkpt lat="43.243150" lon="-2.917878">
        <ele>11.0</ele>
        <time>2019-06-27T08:22:49Z</time>
      </trkpt>
      <trkpt lat="43.243070" lon="-2.917906">
        <ele>11.0</ele>
        <time>2019-06-27T08:22:49Z</time>
      </trkpt>
      <trkpt lat="43.242991" lon="-2.917934">
        <ele>11.0</ele>
        <time>2019-06-27T08:22:49Z</time>
      </trkpt>
      <trkpt lat="43.242912" lon="-2.917962">
        <ele>11.0</ele>
        <time>2019-06-27T08:22:49Z</time>
      </trkpt>
      <trkpt lat="43.242833" lon="-2.917990">
        <ele>11.0</ele>
        <time>2019-06-27T08:22:49Z</time>
      </trkpt>
      <trkpt lat="43.242753" lon="-2.918018">
        <ele>11.7</ele>
        <time>2019-06-27T08:22:49Z</time>
      </trkpt>
      <trkpt lat="43.242674" lon="-2.918047">
        <ele>16.8</ele>
        <time>2019-06-27T08:22:49Z</time>
      </trkpt>
      <trkpt lat="43.242639" lon="-2.918057">
        <ele>18.2</ele>
        <time>2019-06-27T08:22:49Z</time>
      </trkpt>
      <trkpt lat="43.242656" lon="-2.918139">
        <ele>14.7</ele>
        <time>2019-06-27T08:22:49Z</time>
      </trkpt>
      <trkpt lat="43.242609" lon="-2.918178">
        <ele>15.5</ele>
        <time>2019-06-27T08:22:49Z</time>
      </trkpt>
      <trkpt lat="43.242546" lon="-2.918200">
        <ele>17.1</ele>
        <time>2019-06-27T08:22:49Z</time>
      </trkpt>
      <trkpt lat="43.242482" lon="-2.918222">
        <ele>17.7</ele>
        <time>2019-06-27T08:22:49Z</time>
      </trkpt>
      <trkpt lat="43.242419" lon="-2.918245">
        <ele>17.7</ele>
        <time>2019-06-27T08:22:49Z</time>
      </trkpt>
      <trkpt lat="43.242355" lon="-2.918267">
        <ele>18.2</ele>
        <time>2019-06-27T08:22:49Z</time>
      </trkpt>
      <trkpt lat="43.242297" lon="-2.918310">
        <ele>18.0</ele>
        <time>2019-06-27T08:22:49Z</time>
      </trkpt>
      <trkpt lat="43.242243" lon="-2.918369">
        <ele>18.7</ele>
        <time>2019-06-27T08:22:49Z</time>
      </trkpt>
      <trkpt lat="43.242194" lon="-2.918438">
        <ele>18.8</ele>
        <time>2019-06-27T08:22:49Z</time>
      </trkpt>
      <trkpt lat="43.242161" lon="-2.918525">
        <ele>18.4</ele>
        <time>2019-06-27T08:22:49Z</time>
      </trkpt>
      <trkpt lat="43.242138" lon="-2.918594">
        <ele>18.0</ele>
        <time>2019-06-27T08:22:49Z</time>
      </trkpt>
      <trkpt lat="43.242101" lon="-2.918663">
        <ele>17.9</ele>
        <time>2019-06-27T08:22:49Z</time>
      </trkpt>
      <trkpt lat="43.242067" lon="-2.918721">
        <ele>17.9</ele>
        <time>2019-06-27T08:22:49Z</time>
      </trkpt>
      <trkpt lat="43.242025" lon="-2.918779">
        <ele>17.9</ele>
        <time>2019-06-27T08:22:49Z</time>
      </trkpt>
      <trkpt lat="43.241977" lon="-2.918860">
        <ele>17.8</ele>
        <time>2019-06-27T08:22:49Z</time>
      </trkpt>
      <trkpt lat="43.241941" lon="-2.918922">
        <ele>17.4</ele>
        <time>2019-06-27T08:22:49Z</time>
      </trkpt>
      <trkpt lat="43.241900" lon="-2.918988">
        <ele>17.0</ele>
        <time>2019-06-27T08:22:49Z</time>
      </trkpt>
      <trkpt lat="43.241853" lon="-2.919067">
        <ele>17.0</ele>
        <time>2019-06-27T08:22:49Z</time>
      </trkpt>
      <trkpt lat="43.241814" lon="-2.919136">
        <ele>17.0</ele>
        <time>2019-06-27T08:22:49Z</time>
      </trkpt>
      <trkpt lat="43.241764" lon="-2.919218">
        <ele>17.0</ele>
        <time>2019-06-27T08:22:49Z</time>
      </trkpt>
      <trkpt lat="43.241712" lon="-2.919280">
        <ele>16.6</ele>
        <time>2019-06-27T08:22:49Z</time>
      </trkpt>
      <trkpt lat="43.241661" lon="-2.919359">
        <ele>16.0</ele>
        <time>2019-06-27T08:22:49Z</time>
      </trkpt>
      <trkpt lat="43.241613" lon="-2.919431">
        <ele>16.0</ele>
        <time>2019-06-27T08:22:49Z</time>
      </trkpt>
      <trkpt lat="43.241561" lon="-2.919504">
        <ele>16.0</ele>
        <time>2019-06-27T08:22:49Z</time>
      </trkpt>
      <trkpt lat="43.241508" lon="-2.919574">
        <ele>16.0</ele>
        <time>2019-06-27T08:22:49Z</time>
      </trkpt>
      <trkpt lat="43.241456" lon="-2.919645">
        <ele>15.0</ele>
        <time>2019-06-27T08:22:49Z</time>
      </trkpt>
      <trkpt lat="43.241406" lon="-2.919705">
        <ele>14.9</ele>
        <time>2019-06-27T08:22:49Z</time>
      </trkpt>
      <trkpt lat="43.241351" lon="-2.919748">
        <ele>14.0</ele>
        <time>2019-06-27T08:22:49Z</time>
      </trkpt>
      <trkpt lat="43.241309" lon="-2.919807">
        <ele>14.0</ele>
        <time>2019-06-27T08:22:49Z</time>
      </trkpt>
      <trkpt lat="43.241252" lon="-2.919832">
        <ele>14.0</ele>
        <time>2019-06-27T08:22:49Z</time>
      </trkpt>
      <trkpt lat="43.241193" lon="-2.919755">
        <ele>14.0</ele>
        <time>2019-06-27T08:22:49Z</time>
      </trkpt>
      <trkpt lat="43.241128" lon="-2.919732">
        <ele>14.3</ele>
        <time>2019-06-27T08:22:49Z</time>
      </trkpt>
      <trkpt lat="43.241097" lon="-2.919833">
        <ele>13.8</ele>
        <time>2019-06-27T08:22:49Z</time>
      </trkpt>
      <trkpt lat="43.241070" lon="-2.919944">
        <ele>13.2</ele>
        <time>2019-06-27T08:22:49Z</time>
      </trkpt>
      <trkpt lat="43.241053" lon="-2.920046">
        <ele>12.9</ele>
        <time>2019-06-27T08:22:49Z</time>
      </trkpt>
      <trkpt lat="43.241022" lon="-2.920142">
        <ele>12.5</ele>
        <time>2019-06-27T08:22:49Z</time>
      </trkpt>
      <trkpt lat="43.240990" lon="-2.920175">
        <ele>12.9</ele>
        <time>2019-06-27T08:22:49Z</time>
      </trkpt>
      <trkpt lat="43.240907" lon="-2.920114">
        <ele>13.3</ele>
        <time>2019-06-27T08:22:49Z</time>
      </trkpt>
      <trkpt lat="43.240845" lon="-2.920092">
        <ele>13.6</ele>
        <time>2019-06-27T08:22:49Z</time>
      </trkpt>
      <trkpt lat="43.240787" lon="-2.920055">
        <ele>14.0</ele>
        <time>2019-06-27T08:22:49Z</time>
      </trkpt>
      <trkpt lat="43.240724" lon="-2.920029">
        <ele>13.6</ele>
        <time>2019-06-27T08:22:49Z</time>
      </trkpt>
      <trkpt lat="43.240672" lon="-2.920077">
        <ele>14.1</ele>
        <time>2019-06-27T08:22:49Z</time>
      </trkpt>
      <trkpt lat="43.240626" lon="-2.920137">
        <ele>14.3</ele>
        <time>2019-06-27T08:22:49Z</time>
      </trkpt>
      <trkpt lat="43.240572" lon="-2.920204">
        <ele>14.5</ele>
        <time>2019-06-27T08:22:49Z</time>
      </trkpt>
      <trkpt lat="43.240513" lon="-2.920268">
        <ele>15.4</ele>
        <time>2019-06-27T08:22:49Z</time>
      </trkpt>
      <trkpt lat="43.240464" lon="-2.920330">
        <ele>16.0</ele>
        <time>2019-06-27T08:22:49Z</time>
      </trkpt>
      <trkpt lat="43.240471" lon="-2.920400">
        <ele>16.5</ele>
        <time>2019-06-27T08:22:49Z</time>
      </trkpt>
      <trkpt lat="43.240468" lon="-2.920486">
        <ele>17.0</ele>
        <time>2019-06-27T08:22:49Z</time>
      </trkpt>
      <trkpt lat="43.240466" lon="-2.920572">
        <ele>17.0</ele>
        <time>2019-06-27T08:22:49Z</time>
      </trkpt>
      <trkpt lat="43.240457" lon="-2.920621">
        <ele>17.1</ele>
        <time>2019-06-27T08:22:49Z</time>
      </trkpt>
      <trkpt lat="43.240391" lon="-2.920606">
        <ele>17.9</ele>
        <time>2019-06-27T08:22:49Z</time>
      </trkpt>
      <trkpt lat="43.240325" lon="-2.920601">
        <ele>18.3</ele>
        <time>2019-06-27T08:22:49Z</time>
      </trkpt>
      <trkpt lat="43.240269" lon="-2.920629">
        <ele>19.2</ele>
        <time>2019-06-27T08:22:49Z</time>
      </trkpt>
      <trkpt lat="43.240213" lon="-2.920656">
        <ele>19.7</ele>
        <time>2019-06-27T08:22:49Z</time>
      </trkpt>
      <trkpt lat="43.240140" lon="-2.920661">
        <ele>20.2</ele>
        <time>2019-06-27T08:22:49Z</time>
      </trkpt>
      <trkpt lat="43.240054" lon="-2.920643">
        <ele>20.9</ele>
        <time>2019-06-27T08:22:49Z</time>
      </trkpt>
      <trkpt lat="43.239979" lon="-2.920595">
        <ele>21.5</ele>
        <time>2019-06-27T08:22:49Z</time>
      </trkpt>
      <trkpt lat="43.239902" lon="-2.920535">
        <ele>21.2</ele>
        <time>2019-06-27T08:22:49Z</time>
      </trkpt>
      <trkpt lat="43.239825" lon="-2.920474">
        <ele>22.0</ele>
        <time>2019-06-27T08:22:49Z</time>
      </trkpt>
      <trkpt lat="43.239744" lon="-2.920410">
        <ele>22.7</ele>
        <time>2019-06-27T08:22:49Z</time>
      </trkpt>
      <trkpt lat="43.239663" lon="-2.920345">
        <ele>23.4</ele>
        <time>2019-06-27T08:22:49Z</time>
      </trkpt>
      <trkpt lat="43.239582" lon="-2.920281">
        <ele>24.0</ele>
        <time>2019-06-27T08:22:49Z</time>
      </trkpt>
      <trkpt lat="43.239499" lon="-2.920237">
        <ele>25.4</ele>
        <time>2019-06-27T08:22:49Z</time>
      </trkpt>
      <trkpt lat="43.239424" lon="-2.920208">
        <ele>26.4</ele>
        <time>2019-06-27T08:22:49Z</time>
      </trkpt>
      <trkpt lat="43.239350" lon="-2.920192">
        <ele>28.0</ele>
        <time>2019-06-27T08:22:49Z</time>
      </trkpt>
      <trkpt lat="43.239276" lon="-2.920181">
        <ele>28.6</ele>
        <time>2019-06-27T08:22:49Z</time>
      </trkpt>
      <trkpt lat="43.239202" lon="-2.920174">
        <ele>29.2</ele>
        <time>2019-06-27T08:22:49Z</time>
      </trkpt>
      <trkpt lat="43.239129" lon="-2.920171">
        <ele>30.7</ele>
        <time>2019-06-27T08:22:49Z</time>
      </trkpt>
      <trkpt lat="43.239053" lon="-2.920162">
        <ele>31.6</ele>
        <time>2019-06-27T08:22:49Z</time>
      </trkpt>
      <trkpt lat="43.238977" lon="-2.920152">
        <ele>32.3</ele>
        <time>2019-06-27T08:22:49Z</time>
      </trkpt>
      <trkpt lat="43.238920" lon="-2.920102">
        <ele>33.2</ele>
        <time>2019-06-27T08:22:49Z</time>
      </trkpt>
      <trkpt lat="43.238935" lon="-2.920002">
        <ele>33.2</ele>
        <time>2019-06-27T08:22:49Z</time>
      </trkpt>
      <trkpt lat="43.238959" lon="-2.919903">
        <ele>33.0</ele>
        <time>2019-06-27T08:22:49Z</time>
      </trkpt>
      <trkpt lat="43.238986" lon="-2.919812">
        <ele>32.1</ele>
        <time>2019-06-27T08:22:49Z</time>
      </trkpt>
      <trkpt lat="43.239013" lon="-2.919721">
        <ele>32.6</ele>
        <time>2019-06-27T08:22:49Z</time>
      </trkpt>
      <trkpt lat="43.239043" lon="-2.919633">
        <ele>33.7</ele>
        <time>2019-06-27T08:22:49Z</time>
      </trkpt>
      <trkpt lat="43.239000" lon="-2.919593">
        <ele>35.3</ele>
        <time>2019-06-27T08:22:49Z</time>
      </trkpt>
      <trkpt lat="43.238955" lon="-2.919579">
        <ele>35.9</ele>
        <time>2019-06-27T08:22:49Z</time>
      </trkpt>
      <trkpt lat="43.238919" lon="-2.919683">
        <ele>35.0</ele>
        <time>2019-06-27T08:22:49Z</time>
      </trkpt>
      <trkpt lat="43.238890" lon="-2.919771">
        <ele>34.9</ele>
        <time>2019-06-27T08:22:49Z</time>
      </trkpt>
      <trkpt lat="43.238862" lon="-2.919858">
        <ele>35.0</ele>
        <time>2019-06-27T08:22:49Z</time>
      </trkpt>
      <trkpt lat="43.238831" lon="-2.919939">
        <ele>34.5</ele>
        <time>2019-06-27T08:22:49Z</time>
      </trkpt>
      <trkpt lat="43.238792" lon="-2.920010">
        <ele>34.4</ele>
        <time>2019-06-27T08:22:49Z</time>
      </trkpt>
      <trkpt lat="43.238742" lon="-2.920029">
        <ele>35.0</ele>
        <time>2019-06-27T08:22:49Z</time>
      </trkpt>
      <trkpt lat="43.238692" lon="-2.920048">
        <ele>35.1</ele>
        <time>2019-06-27T08:22:49Z</time>
      </trkpt>
      <trkpt lat="43.238634" lon="-2.920044">
        <ele>35.9</ele>
        <time>2019-06-27T08:22:49Z</time>
      </trkpt>
      <trkpt lat="43.238586" lon="-2.919968">
        <ele>36.4</ele>
        <time>2019-06-27T08:22:49Z</time>
      </trkpt>
      <trkpt lat="43.238532" lon="-2.919897">
        <ele>37.1</ele>
        <time>2019-06-27T08:22:49Z</time>
      </trkpt>
      <trkpt lat="43.238472" lon="-2.919843">
        <ele>38.0</ele>
        <time>2019-06-27T08:22:49Z</time>
      </trkpt>
      <trkpt lat="43.238412" lon="-2.919792">
        <ele>38.3</ele>
        <time>2019-06-27T08:22:49Z</time>
      </trkpt>
      <trkpt lat="43.238350" lon="-2.919743">
        <ele>39.0</ele>
        <time>2019-06-27T08:22:49Z</time>
      </trkpt>
      <trkpt lat="43.238289" lon="-2.919693">
        <ele>40.0</ele>
        <time>2019-06-27T08:22:49Z</time>
      </trkpt>
      <trkpt lat="43.238227" lon="-2.919644">
        <ele>40.0</ele>
        <time>2019-06-27T08:22:49Z</time>
      </trkpt>
      <trkpt lat="43.238164" lon="-2.919602">
        <ele>41.0</ele>
        <time>2019-06-27T08:22:49Z</time>
      </trkpt>
      <trkpt lat="43.238100" lon="-2.919559">
        <ele>41.0</ele>
        <time>2019-06-27T08:22:49Z</time>
      </trkpt>
      <trkpt lat="43.238036" lon="-2.919507">
        <ele>42.0</ele>
        <time>2019-06-27T08:22:49Z</time>
      </trkpt>
      <trkpt lat="43.237971" lon="-2.919455">
        <ele>42.0</ele>
        <time>2019-06-27T08:22:49Z</time>
      </trkpt>
      <trkpt lat="43.237907" lon="-2.919403">
        <ele>43.0</ele>
        <time>2019-06-27T08:22:49Z</time>
      </trkpt>
      <trkpt lat="43.237842" lon="-2.919358">
        <ele>43.0</ele>
        <time>2019-06-27T08:22:49Z</time>
      </trkpt>
      <trkpt lat="43.237778" lon="-2.919313">
        <ele>43.0</ele>
        <time>2019-06-27T08:22:49Z</time>
      </trkpt>
      <trkpt lat="43.237713" lon="-2.919268">
        <ele>44.0</ele>
        <time>2019-06-27T08:22:49Z</time>
      </trkpt>
      <trkpt lat="43.237649" lon="-2.919223">
        <ele>44.0</ele>
        <time>2019-06-27T08:22:49Z</time>
      </trkpt>
      <trkpt lat="43.237584" lon="-2.919178">
        <ele>44.1</ele>
        <time>2019-06-27T08:22:49Z</time>
      </trkpt>
      <trkpt lat="43.237519" lon="-2.919133">
        <ele>45.0</ele>
        <time>2019-06-27T08:22:49Z</time>
      </trkpt>
      <trkpt lat="43.237457" lon="-2.919085">
        <ele>45.0</ele>
        <time>2019-06-27T08:22:49Z</time>
      </trkpt>
      <trkpt lat="43.237394" lon="-2.919037">
        <ele>45.0</ele>
        <time>2019-06-27T08:22:49Z</time>
      </trkpt>
      <trkpt lat="43.237332" lon="-2.918989">
        <ele>45.0</ele>
        <time>2019-06-27T08:22:49Z</time>
      </trkpt>
      <trkpt lat="43.237269" lon="-2.918941">
        <ele>45.0</ele>
        <time>2019-06-27T08:22:49Z</time>
      </trkpt>
      <trkpt lat="43.237207" lon="-2.918893">
        <ele>45.5</ele>
        <time>2019-06-27T08:22:49Z</time>
      </trkpt>
      <trkpt lat="43.237144" lon="-2.918845">
        <ele>46.0</ele>
        <time>2019-06-27T08:22:49Z</time>
      </trkpt>
      <trkpt lat="43.237082" lon="-2.918797">
        <ele>46.0</ele>
        <time>2019-06-27T08:22:49Z</time>
      </trkpt>
      <trkpt lat="43.237019" lon="-2.918751">
        <ele>46.0</ele>
        <time>2019-06-27T08:22:49Z</time>
      </trkpt>
      <trkpt lat="43.236961" lon="-2.918722">
        <ele>46.0</ele>
        <time>2019-06-27T08:22:49Z</time>
      </trkpt>
      <trkpt lat="43.236902" lon="-2.918694">
        <ele>46.0</ele>
        <time>2019-06-27T08:22:49Z</time>
      </trkpt>
      <trkpt lat="43.236844" lon="-2.918667">
        <ele>46.2</ele>
        <time>2019-06-27T08:22:49Z</time>
      </trkpt>
      <trkpt lat="43.236785" lon="-2.918639">
        <ele>46.8</ele>
        <time>2019-06-27T08:22:49Z</time>
      </trkpt>
      <trkpt lat="43.236727" lon="-2.918612">
        <ele>47.0</ele>
        <time>2019-06-27T08:22:49Z</time>
      </trkpt>
      <trkpt lat="43.236668" lon="-2.918584">
        <ele>47.0</ele>
        <time>2019-06-27T08:22:49Z</time>
      </trkpt>
      <trkpt lat="43.236610" lon="-2.918557">
        <ele>47.0</ele>
        <time>2019-06-27T08:22:49Z</time>
      </trkpt>
      <trkpt lat="43.236551" lon="-2.918524">
        <ele>48.0</ele>
        <time>2019-06-27T08:22:49Z</time>
      </trkpt>
      <trkpt lat="43.236493" lon="-2.918491">
        <ele>48.0</ele>
        <time>2019-06-27T08:22:49Z</time>
      </trkpt>
      <trkpt lat="43.236434" lon="-2.918447">
        <ele>48.0</ele>
        <time>2019-06-27T08:22:49Z</time>
      </trkpt>
      <trkpt lat="43.236375" lon="-2.918404">
        <ele>48.0</ele>
        <time>2019-06-27T08:22:49Z</time>
      </trkpt>
      <trkpt lat="43.236317" lon="-2.918360">
        <ele>48.0</ele>
        <time>2019-06-27T08:22:49Z</time>
      </trkpt>
      <trkpt lat="43.236258" lon="-2.918316">
        <ele>48.7</ele>
        <time>2019-06-27T08:22:49Z</time>
      </trkpt>
      <trkpt lat="43.236198" lon="-2.918267">
        <ele>49.0</ele>
        <time>2019-06-27T08:22:49Z</time>
      </trkpt>
      <trkpt lat="43.236140" lon="-2.918208">
        <ele>49.0</ele>
        <time>2019-06-27T08:22:49Z</time>
      </trkpt>
      <trkpt lat="43.236081" lon="-2.918149">
        <ele>49.0</ele>
        <time>2019-06-27T08:22:49Z</time>
      </trkpt>
      <trkpt lat="43.236021" lon="-2.918079">
        <ele>49.0</ele>
        <time>2019-06-27T08:22:49Z</time>
      </trkpt>
      <trkpt lat="43.235962" lon="-2.918010">
        <ele>50.0</ele>
        <time>2019-06-27T08:22:49Z</time>
      </trkpt>
      <trkpt lat="43.235901" lon="-2.917939">
        <ele>50.0</ele>
        <time>2019-06-27T08:22:49Z</time>
      </trkpt>
      <trkpt lat="43.235848" lon="-2.917868">
        <ele>50.0</ele>
        <time>2019-06-27T08:22:49Z</time>
      </trkpt>
      <trkpt lat="43.235804" lon="-2.917784">
        <ele>50.7</ele>
        <time>2019-06-27T08:22:49Z</time>
      </trkpt>
      <trkpt lat="43.235757" lon="-2.917697">
        <ele>51.0</ele>
        <time>2019-06-27T08:22:49Z</time>
      </trkpt>
      <trkpt lat="43.235710" lon="-2.917609">
        <ele>51.0</ele>
        <time>2019-06-27T08:22:49Z</time>
      </trkpt>
      <trkpt lat="43.235664" lon="-2.917522">
        <ele>52.0</ele>
        <time>2019-06-27T08:22:49Z</time>
      </trkpt>
      <trkpt lat="43.235617" lon="-2.917434">
        <ele>52.0</ele>
        <time>2019-06-27T08:22:49Z</time>
      </trkpt>
      <trkpt lat="43.235571" lon="-2.917347">
        <ele>53.0</ele>
        <time>2019-06-27T08:22:49Z</time>
      </trkpt>
      <trkpt lat="43.235524" lon="-2.917259">
        <ele>53.0</ele>
        <time>2019-06-27T08:22:49Z</time>
      </trkpt>
      <trkpt lat="43.235477" lon="-2.917172">
        <ele>53.0</ele>
        <time>2019-06-27T08:22:49Z</time>
      </trkpt>
      <trkpt lat="43.235422" lon="-2.917165">
        <ele>53.2</ele>
        <time>2019-06-27T08:22:49Z</time>
      </trkpt>
      <trkpt lat="43.235366" lon="-2.917158">
        <ele>54.0</ele>
        <time>2019-06-27T08:22:49Z</time>
      </trkpt>
      <trkpt lat="43.235314" lon="-2.917187">
        <ele>54.0</ele>
        <time>2019-06-27T08:22:49Z</time>
      </trkpt>
      <trkpt lat="43.235265" lon="-2.917230">
        <ele>54.0</ele>
        <time>2019-06-27T08:22:49Z</time>
      </trkpt>
      <trkpt lat="43.235216" lon="-2.917272">
        <ele>54.0</ele>
        <time>2019-06-27T08:22:49Z</time>
      </trkpt>
      <trkpt lat="43.235175" lon="-2.917188">
        <ele>54.7</ele>
        <time>2019-06-27T08:22:49Z</time>
      </trkpt>
      <trkpt lat="43.235133" lon="-2.917105">
        <ele>55.0</ele>
        <time>2019-06-27T08:22:49Z</time>
      </trkpt>
      <trkpt lat="43.235091" lon="-2.917022">
        <ele>55.2</ele>
        <time>2019-06-27T08:22:49Z</time>
      </trkpt>
      <trkpt lat="43.235049" lon="-2.916938">
        <ele>55.3</ele>
        <time>2019-06-27T08:22:49Z</time>
      </trkpt>
      <trkpt lat="43.235008" lon="-2.916855">
        <ele>55.8</ele>
        <time>2019-06-27T08:22:49Z</time>
      </trkpt>
      <trkpt lat="43.234966" lon="-2.916772">
        <ele>56.0</ele>
        <time>2019-06-27T08:22:49Z</time>
      </trkpt>
      <trkpt lat="43.234929" lon="-2.916688">
        <ele>56.7</ele>
        <time>2019-06-27T08:22:49Z</time>
      </trkpt>
      <trkpt lat="43.234892" lon="-2.916605">
        <ele>57.2</ele>
        <time>2019-06-27T08:22:49Z</time>
      </trkpt>
      <trkpt lat="43.234856" lon="-2.916522">
        <ele>57.6</ele>
        <time>2019-06-27T08:22:49Z</time>
      </trkpt>
      <trkpt lat="43.234816" lon="-2.916438">
        <ele>58.8</ele>
        <time>2019-06-27T08:22:49Z</time>
      </trkpt>
      <trkpt lat="43.234769" lon="-2.916356">
        <ele>59.1</ele>
        <time>2019-06-27T08:22:49Z</time>
      </trkpt>
      <trkpt lat="43.234714" lon="-2.916305">
        <ele>59.2</ele>
        <time>2019-06-27T08:22:49Z</time>
      </trkpt>
      <trkpt lat="43.234658" lon="-2.916253">
        <ele>58.6</ele>
        <time>2019-06-27T08:22:49Z</time>
      </trkpt>
      <trkpt lat="43.234601" lon="-2.916206">
        <ele>57.7</ele>
        <time>2019-06-27T08:22:49Z</time>
      </trkpt>
      <trkpt lat="43.234540" lon="-2.916172">
        <ele>55.9</ele>
        <time>2019-06-27T08:22:49Z</time>
      </trkpt>
      <trkpt lat="43.234478" lon="-2.916138">
        <ele>55.5</ele>
        <time>2019-06-27T08:22:49Z</time>
      </trkpt>
      <trkpt lat="43.234416" lon="-2.916106">
        <ele>58.0</ele>
        <time>2019-06-27T08:22:49Z</time>
      </trkpt>
      <trkpt lat="43.234353" lon="-2.916075">
        <ele>60.2</ele>
        <time>2019-06-27T08:22:49Z</time>
      </trkpt>
      <trkpt lat="43.234290" lon="-2.916023">
        <ele>61.0</ele>
        <time>2019-06-27T08:22:49Z</time>
      </trkpt>
      <trkpt lat="43.234244" lon="-2.915961">
        <ele>60.8</ele>
        <time>2019-06-27T08:22:49Z</time>
      </trkpt>
      <trkpt lat="43.234202" lon="-2.915898">
        <ele>60.6</ele>
        <time>2019-06-27T08:22:49Z</time>
      </trkpt>
      <trkpt lat="43.234165" lon="-2.915830">
        <ele>60.3</ele>
        <time>2019-06-27T08:22:49Z</time>
      </trkpt>
      <trkpt lat="43.234127" lon="-2.915761">
        <ele>60.0</ele>
        <time>2019-06-27T08:22:49Z</time>
      </trkpt>
      <trkpt lat="43.234089" lon="-2.915693">
        <ele>58.8</ele>
        <time>2019-06-27T08:22:49Z</time>
      </trkpt>
      <trkpt lat="43.234052" lon="-2.915625">
        <ele>58.5</ele>
        <time>2019-06-27T08:22:49Z</time>
      </trkpt>
      <trkpt lat="43.234013" lon="-2.915548">
        <ele>58.1</ele>
        <time>2019-06-27T08:22:49Z</time>
      </trkpt>
      <trkpt lat="43.233974" lon="-2.915469">
        <ele>57.0</ele>
        <time>2019-06-27T08:22:49Z</time>
      </trkpt>
      <trkpt lat="43.233931" lon="-2.915389">
        <ele>56.6</ele>
        <time>2019-06-27T08:22:49Z</time>
      </trkpt>
      <trkpt lat="43.233889" lon="-2.915310">
        <ele>56.1</ele>
        <time>2019-06-27T08:22:49Z</time>
      </trkpt>
      <trkpt lat="43.233842" lon="-2.915232">
        <ele>55.8</ele>
        <time>2019-06-27T08:22:49Z</time>
      </trkpt>
      <trkpt lat="43.233795" lon="-2.915154">
        <ele>55.0</ele>
        <time>2019-06-27T08:22:49Z</time>
      </trkpt>
      <trkpt lat="43.233747" lon="-2.915095">
        <ele>55.0</ele>
        <time>2019-06-27T08:22:49Z</time>
      </trkpt>
      <trkpt lat="43.233698" lon="-2.915036">
        <ele>55.3</ele>
        <time>2019-06-27T08:22:49Z</time>
      </trkpt>
      <trkpt lat="43.233641" lon="-2.914993">
        <ele>57.0</ele>
        <time>2019-06-27T08:22:49Z</time>
      </trkpt>
      <trkpt lat="43.233561" lon="-2.914967">
        <ele>59.6</ele>
        <time>2019-06-27T08:22:49Z</time>
      </trkpt>
      <trkpt lat="43.233480" lon="-2.914941">
        <ele>60.0</ele>
        <time>2019-06-27T08:22:49Z</time>
      </trkpt>
      <trkpt lat="43.233414" lon="-2.914908">
        <ele>60.0</ele>
        <time>2019-06-27T08:22:49Z</time>
      </trkpt>
      <trkpt lat="43.233348" lon="-2.914875">
        <ele>60.9</ele>
        <time>2019-06-27T08:22:49Z</time>
      </trkpt>
      <trkpt lat="43.233284" lon="-2.914842">
        <ele>62.4</ele>
        <time>2019-06-27T08:22:49Z</time>
      </trkpt>
      <trkpt lat="43.233220" lon="-2.914811">
        <ele>64.7</ele>
        <time>2019-06-27T08:22:49Z</time>
      </trkpt>
      <trkpt lat="43.233155" lon="-2.914779">
        <ele>66.5</ele>
        <time>2019-06-27T08:22:49Z</time>
      </trkpt>
      <trkpt lat="43.233091" lon="-2.914747">
        <ele>67.0</ele>
        <time>2019-06-27T08:22:49Z</time>
      </trkpt>
      <trkpt lat="43.233027" lon="-2.914716">
        <ele>66.7</ele>
        <time>2019-06-27T08:22:49Z</time>
      </trkpt>
      <trkpt lat="43.232962" lon="-2.914684">
        <ele>64.2</ele>
        <time>2019-06-27T08:22:49Z</time>
      </trkpt>
      <trkpt lat="43.232908" lon="-2.914677">
        <ele>60.1</ele>
        <time>2019-06-27T08:22:49Z</time>
      </trkpt>
      <trkpt lat="43.232872" lon="-2.914698">
        <ele>58.5</ele>
        <time>2019-06-27T08:22:49Z</time>
      </trkpt>
      <trkpt lat="43.232847" lon="-2.914739">
        <ele>58.5</ele>
        <time>2019-06-27T08:22:49Z</time>
      </trkpt>
      <trkpt lat="43.232815" lon="-2.914790">
        <ele>58.3</ele>
        <time>2019-06-27T08:22:49Z</time>
      </trkpt>
      <trkpt lat="43.232787" lon="-2.914844">
        <ele>58.1</ele>
        <time>2019-06-27T08:22:49Z</time>
      </trkpt>
      <trkpt lat="43.232759" lon="-2.914901">
        <ele>59.3</ele>
        <time>2019-06-27T08:22:49Z</time>
      </trkpt>
      <trkpt lat="43.232729" lon="-2.914958">
        <ele>61.9</ele>
        <time>2019-06-27T08:22:49Z</time>
      </trkpt>
      <trkpt lat="43.232695" lon="-2.914999">
        <ele>62.5</ele>
        <time>2019-06-27T08:22:49Z</time>
      </trkpt>
      <trkpt lat="43.232654" lon="-2.915048">
        <ele>63.8</ele>
        <time>2019-06-27T08:22:49Z</time>
      </trkpt>
      <trkpt lat="43.232612" lon="-2.915101">
        <ele>67.0</ele>
        <time>2019-06-27T08:22:49Z</time>
      </trkpt>
      <trkpt lat="43.232569" lon="-2.915155">
        <ele>70.2</ele>
        <time>2019-06-27T08:22:49Z</time>
      </trkpt>
      <trkpt lat="43.232520" lon="-2.915207">
        <ele>73.1</ele>
        <time>2019-06-27T08:22:49Z</time>
      </trkpt>
      <trkpt lat="43.232472" lon="-2.915258">
        <ele>74.0</ele>
        <time>2019-06-27T08:22:49Z</time>
      </trkpt>
      <trkpt lat="43.232424" lon="-2.915310">
        <ele>73.3</ele>
        <time>2019-06-27T08:22:49Z</time>
      </trkpt>
      <trkpt lat="43.232377" lon="-2.915373">
        <ele>70.1</ele>
        <time>2019-06-27T08:22:49Z</time>
      </trkpt>
      <trkpt lat="43.232331" lon="-2.915437">
        <ele>66.0</ele>
        <time>2019-06-27T08:22:49Z</time>
      </trkpt>
      <trkpt lat="43.232279" lon="-2.915501">
        <ele>67.3</ele>
        <time>2019-06-27T08:22:49Z</time>
      </trkpt>
      <trkpt lat="43.232223" lon="-2.915552">
        <ele>69.1</ele>
        <time>2019-06-27T08:22:49Z</time>
      </trkpt>
      <trkpt lat="43.232157" lon="-2.915580">
        <ele>66.8</ele>
        <time>2019-06-27T08:22:49Z</time>
      </trkpt>
      <trkpt lat="43.232085" lon="-2.915580">
        <ele>64.6</ele>
        <time>2019-06-27T08:22:49Z</time>
      </trkpt>
      <trkpt lat="43.232013" lon="-2.915556">
        <ele>63.2</ele>
        <time>2019-06-27T08:22:49Z</time>
      </trkpt>
      <trkpt lat="43.231939" lon="-2.915508">
        <ele>61.4</ele>
        <time>2019-06-27T08:22:49Z</time>
      </trkpt>
      <trkpt lat="43.231950" lon="-2.915425">
        <ele>60.6</ele>
        <time>2019-06-27T08:22:49Z</time>
      </trkpt>
      <trkpt lat="43.231907" lon="-2.915382">
        <ele>60.0</ele>
        <time>2019-06-27T08:22:49Z</time>
      </trkpt>
      <trkpt lat="43.231834" lon="-2.915369">
        <ele>59.4</ele>
        <time>2019-06-27T08:22:49Z</time>
      </trkpt>
      <trkpt lat="43.231762" lon="-2.915357">
        <ele>59.0</ele>
        <time>2019-06-27T08:22:49Z</time>
      </trkpt>
      <trkpt lat="43.231690" lon="-2.915370">
        <ele>58.3</ele>
        <time>2019-06-27T08:22:49Z</time>
      </trkpt>
      <trkpt lat="43.231617" lon="-2.915384">
        <ele>57.4</ele>
        <time>2019-06-27T08:22:49Z</time>
      </trkpt>
      <trkpt lat="43.231538" lon="-2.915363">
        <ele>57.4</ele>
        <time>2019-06-27T08:22:49Z</time>
      </trkpt>
      <trkpt lat="43.231461" lon="-2.915347">
        <ele>57.0</ele>
        <time>2019-06-27T08:22:49Z</time>
      </trkpt>
      <trkpt lat="43.231383" lon="-2.915330">
        <ele>57.0</ele>
        <time>2019-06-27T08:22:49Z</time>
      </trkpt>
      <trkpt lat="43.231306" lon="-2.915314">
        <ele>57.0</ele>
        <time>2019-06-27T08:22:49Z</time>
      </trkpt>
      <trkpt lat="43.231226" lon="-2.915290">
        <ele>57.3</ele>
        <time>2019-06-27T08:22:49Z</time>
      </trkpt>
      <trkpt lat="43.231146" lon="-2.915267">
        <ele>58.0</ele>
        <time>2019-06-27T08:22:49Z</time>
      </trkpt>
      <trkpt lat="43.231065" lon="-2.915251">
        <ele>58.9</ele>
        <time>2019-06-27T08:22:49Z</time>
      </trkpt>
      <trkpt lat="43.230981" lon="-2.915240">
        <ele>59.9</ele>
        <time>2019-06-27T08:22:49Z</time>
      </trkpt>
      <trkpt lat="43.230894" lon="-2.915227">
        <ele>60.0</ele>
        <time>2019-06-27T08:22:49Z</time>
      </trkpt>
      <trkpt lat="43.230805" lon="-2.915257">
        <ele>60.0</ele>
        <time>2019-06-27T08:22:49Z</time>
      </trkpt>
      <trkpt lat="43.230717" lon="-2.915287">
        <ele>60.7</ele>
        <time>2019-06-27T08:22:49Z</time>
      </trkpt>
      <trkpt lat="43.230629" lon="-2.915317">
        <ele>60.8</ele>
        <time>2019-06-27T08:22:49Z</time>
      </trkpt>
      <trkpt lat="43.230541" lon="-2.915347">
        <ele>60.9</ele>
        <time>2019-06-27T08:22:49Z</time>
      </trkpt>
      <trkpt lat="43.230453" lon="-2.915376">
        <ele>61.5</ele>
        <time>2019-06-27T08:22:49Z</time>
      </trkpt>
      <trkpt lat="43.230364" lon="-2.915406">
        <ele>61.8</ele>
        <time>2019-06-27T08:22:49Z</time>
      </trkpt>
      <trkpt lat="43.230276" lon="-2.915448">
        <ele>63.5</ele>
        <time>2019-06-27T08:22:49Z</time>
      </trkpt>
      <trkpt lat="43.230188" lon="-2.915490">
        <ele>64.2</ele>
        <time>2019-06-27T08:22:49Z</time>
      </trkpt>
      <trkpt lat="43.230088" lon="-2.915497">
        <ele>65.4</ele>
        <time>2019-06-27T08:22:49Z</time>
      </trkpt>
      <trkpt lat="43.229988" lon="-2.915504">
        <ele>66.5</ele>
        <time>2019-06-27T08:22:49Z</time>
      </trkpt>
      <trkpt lat="43.229885" lon="-2.915502">
        <ele>68.6</ele>
        <time>2019-06-27T08:22:49Z</time>
      </trkpt>
      <trkpt lat="43.229783" lon="-2.915501">
        <ele>69.7</ele>
        <time>2019-06-27T08:22:49Z</time>
      </trkpt>
      <trkpt lat="43.229681" lon="-2.915499">
        <ele>70.7</ele>
        <time>2019-06-27T08:22:49Z</time>
      </trkpt>
      <trkpt lat="43.229611" lon="-2.915498">
        <ele>70.6</ele>
        <time>2019-06-27T08:22:49Z</time>
      </trkpt>
      <trkpt lat="43.229541" lon="-2.915522">
        <ele>70.2</ele>
        <time>2019-06-27T08:22:49Z</time>
      </trkpt>
      <trkpt lat="43.229475" lon="-2.915564">
        <ele>70.8</ele>
        <time>2019-06-27T08:22:49Z</time>
      </trkpt>
      <trkpt lat="43.229408" lon="-2.915606">
        <ele>71.1</ele>
        <time>2019-06-27T08:22:49Z</time>
      </trkpt>
      <trkpt lat="43.229343" lon="-2.915647">
        <ele>71.3</ele>
        <time>2019-06-27T08:22:49Z</time>
      </trkpt>
      <trkpt lat="43.229278" lon="-2.915687">
        <ele>71.8</ele>
        <time>2019-06-27T08:22:49Z</time>
      </trkpt>
      <trkpt lat="43.229208" lon="-2.915717">
        <ele>72.1</ele>
        <time>2019-06-27T08:22:49Z</time>
      </trkpt>
      <trkpt lat="43.229138" lon="-2.915746">
        <ele>71.8</ele>
        <time>2019-06-27T08:22:49Z</time>
      </trkpt>
      <trkpt lat="43.229079" lon="-2.915796">
        <ele>72.5</ele>
        <time>2019-06-27T08:22:49Z</time>
      </trkpt>
      <trkpt lat="43.229015" lon="-2.915842">
        <ele>72.3</ele>
        <time>2019-06-27T08:22:49Z</time>
      </trkpt>
      <trkpt lat="43.228944" lon="-2.915884">
        <ele>73.0</ele>
        <time>2019-06-27T08:22:49Z</time>
      </trkpt>
      <trkpt lat="43.228865" lon="-2.915919">
        <ele>73.2</ele>
        <time>2019-06-27T08:22:49Z</time>
      </trkpt>
      <trkpt lat="43.228787" lon="-2.915954">
        <ele>73.7</ele>
        <time>2019-06-27T08:22:49Z</time>
      </trkpt>
      <trkpt lat="43.228711" lon="-2.916007">
        <ele>74.8</ele>
        <time>2019-06-27T08:22:49Z</time>
      </trkpt>
      <trkpt lat="43.228622" lon="-2.916035">
        <ele>74.2</ele>
        <time>2019-06-27T08:22:49Z</time>
      </trkpt>
      <trkpt lat="43.228532" lon="-2.916086">
        <ele>75.3</ele>
        <time>2019-06-27T08:22:49Z</time>
      </trkpt>
      <trkpt lat="43.228456" lon="-2.916150">
        <ele>75.5</ele>
        <time>2019-06-27T08:22:49Z</time>
      </trkpt>
      <trkpt lat="43.228385" lon="-2.916204">
        <ele>75.0</ele>
        <time>2019-06-27T08:22:49Z</time>
      </trkpt>
      <trkpt lat="43.228309" lon="-2.916259">
        <ele>75.0</ele>
        <time>2019-06-27T08:22:49Z</time>
      </trkpt>
      <trkpt lat="43.228239" lon="-2.916292">
        <ele>74.8</ele>
        <time>2019-06-27T08:22:49Z</time>
      </trkpt>
      <trkpt lat="43.228157" lon="-2.916316">
        <ele>75.0</ele>
        <time>2019-06-27T08:22:49Z</time>
      </trkpt>
      <trkpt lat="43.228079" lon="-2.916333">
        <ele>75.3</ele>
        <time>2019-06-27T08:22:49Z</time>
      </trkpt>
      <trkpt lat="43.227998" lon="-2.916360">
        <ele>75.7</ele>
        <time>2019-06-27T08:22:49Z</time>
      </trkpt>
      <trkpt lat="43.227923" lon="-2.916371">
        <ele>75.9</ele>
        <time>2019-06-27T08:22:49Z</time>
      </trkpt>
      <trkpt lat="43.227852" lon="-2.916371">
        <ele>75.2</ele>
        <time>2019-06-27T08:22:49Z</time>
      </trkpt>
      <trkpt lat="43.227750" lon="-2.916420">
        <ele>76.0</ele>
        <time>2019-06-27T08:22:49Z</time>
      </trkpt>
      <trkpt lat="43.227664" lon="-2.916476">
        <ele>76.6</ele>
        <time>2019-06-27T08:22:49Z</time>
      </trkpt>
      <trkpt lat="43.227610" lon="-2.916517">
        <ele>77.2</ele>
        <time>2019-06-27T08:22:49Z</time>
      </trkpt>
      <trkpt lat="43.227552" lon="-2.916547">
        <ele>77.0</ele>
        <time>2019-06-27T08:22:49Z</time>
      </trkpt>
      <trkpt lat="43.227493" lon="-2.916576">
        <ele>77.4</ele>
        <time>2019-06-27T08:22:49Z</time>
      </trkpt>
      <trkpt lat="43.227435" lon="-2.916606">
        <ele>78.2</ele>
        <time>2019-06-27T08:22:49Z</time>
      </trkpt>
      <trkpt lat="43.227370" lon="-2.916637">
        <ele>78.0</ele>
        <time>2019-06-27T08:22:49Z</time>
      </trkpt>
      <trkpt lat="43.227306" lon="-2.916668">
        <ele>78.1</ele>
        <time>2019-06-27T08:22:49Z</time>
      </trkpt>
      <trkpt lat="43.227295" lon="-2.916743">
        <ele>78.0</ele>
        <time>2019-06-27T08:22:49Z</time>
      </trkpt>
      <trkpt lat="43.227293" lon="-2.916841">
        <ele>79.8</ele>
        <time>2019-06-27T08:22:49Z</time>
      </trkpt>
      <trkpt lat="43.227243" lon="-2.916878">
        <ele>79.4</ele>
        <time>2019-06-27T08:22:49Z</time>
      </trkpt>
      <trkpt lat="43.227192" lon="-2.916900">
        <ele>79.5</ele>
        <time>2019-06-27T08:22:49Z</time>
      </trkpt>
      <trkpt lat="43.227128" lon="-2.916889">
        <ele>79.0</ele>
        <time>2019-06-27T08:22:49Z</time>
      </trkpt>
      <trkpt lat="43.227063" lon="-2.916878">
        <ele>79.0</ele>
        <time>2019-06-27T08:22:49Z</time>
      </trkpt>
      <trkpt lat="43.227045" lon="-2.916803">
        <ele>79.0</ele>
        <time>2019-06-27T08:22:49Z</time>
      </trkpt>
      <trkpt lat="43.227019" lon="-2.916751">
        <ele>79.0</ele>
        <time>2019-06-27T08:22:49Z</time>
      </trkpt>
      <trkpt lat="43.226965" lon="-2.916715">
        <ele>79.6</ele>
        <time>2019-06-27T08:22:49Z</time>
      </trkpt>
      <trkpt lat="43.226897" lon="-2.916687">
        <ele>80.0</ele>
        <time>2019-06-27T08:22:49Z</time>
      </trkpt>
      <trkpt lat="43.226829" lon="-2.916658">
        <ele>81.0</ele>
        <time>2019-06-27T08:22:49Z</time>
      </trkpt>
      <trkpt lat="43.226766" lon="-2.916612">
        <ele>81.1</ele>
        <time>2019-06-27T08:22:49Z</time>
      </trkpt>
      <trkpt lat="43.226701" lon="-2.916579">
        <ele>82.0</ele>
        <time>2019-06-27T08:22:49Z</time>
      </trkpt>
      <trkpt lat="43.226639" lon="-2.916538">
        <ele>82.2</ele>
        <time>2019-06-27T08:22:49Z</time>
      </trkpt>
      <trkpt lat="43.226578" lon="-2.916497">
        <ele>83.0</ele>
        <time>2019-06-27T08:22:49Z</time>
      </trkpt>
      <trkpt lat="43.226517" lon="-2.916470">
        <ele>83.9</ele>
        <time>2019-06-27T08:22:49Z</time>
      </trkpt>
      <trkpt lat="43.226455" lon="-2.916442">
        <ele>84.3</ele>
        <time>2019-06-27T08:22:49Z</time>
      </trkpt>
      <trkpt lat="43.226394" lon="-2.916409">
        <ele>85.4</ele>
        <time>2019-06-27T08:22:49Z</time>
      </trkpt>
      <trkpt lat="43.226333" lon="-2.916377">
        <ele>86.1</ele>
        <time>2019-06-27T08:22:49Z</time>
      </trkpt>
      <trkpt lat="43.226271" lon="-2.916344">
        <ele>86.6</ele>
        <time>2019-06-27T08:22:49Z</time>
      </trkpt>
      <trkpt lat="43.226225" lon="-2.916428">
        <ele>86.4</ele>
        <time>2019-06-27T08:22:49Z</time>
      </trkpt>
      <trkpt lat="43.226185" lon="-2.916520">
        <ele>86.8</ele>
        <time>2019-06-27T08:22:49Z</time>
      </trkpt>
      <trkpt lat="43.226145" lon="-2.916600">
        <ele>87.1</ele>
        <time>2019-06-27T08:22:49Z</time>
      </trkpt>
      <trkpt lat="43.226095" lon="-2.916635">
        <ele>88.2</ele>
        <time>2019-06-27T08:22:49Z</time>
      </trkpt>
      <trkpt lat="43.226028" lon="-2.916624">
        <ele>88.8</ele>
        <time>2019-06-27T08:22:49Z</time>
      </trkpt>
      <trkpt lat="43.225962" lon="-2.916613">
        <ele>89.6</ele>
        <time>2019-06-27T08:22:49Z</time>
      </trkpt>
      <trkpt lat="43.225897" lon="-2.916583">
        <ele>89.5</ele>
        <time>2019-06-27T08:22:49Z</time>
      </trkpt>
      <trkpt lat="43.225833" lon="-2.916550">
        <ele>89.5</ele>
        <time>2019-06-27T08:22:49Z</time>
      </trkpt>
      <trkpt lat="43.225769" lon="-2.916517">
        <ele>89.8</ele>
        <time>2019-06-27T08:22:49Z</time>
      </trkpt>
      <trkpt lat="43.225704" lon="-2.916486">
        <ele>89.7</ele>
        <time>2019-06-27T08:22:49Z</time>
      </trkpt>
      <trkpt lat="43.225637" lon="-2.916472">
        <ele>90.7</ele>
        <time>2019-06-27T08:22:49Z</time>
      </trkpt>
      <trkpt lat="43.225564" lon="-2.916441">
        <ele>91.1</ele>
        <time>2019-06-27T08:22:49Z</time>
      </trkpt>
      <trkpt lat="43.225490" lon="-2.916409">
        <ele>91.6</ele>
        <time>2019-06-27T08:22:49Z</time>
      </trkpt>
      <trkpt lat="43.225417" lon="-2.916378">
        <ele>91.3</ele>
        <time>2019-06-27T08:22:49Z</time>
      </trkpt>
      <trkpt lat="43.225343" lon="-2.916347">
        <ele>91.9</ele>
        <time>2019-06-27T08:22:49Z</time>
      </trkpt>
      <trkpt lat="43.225270" lon="-2.916315">
        <ele>92.5</ele>
        <time>2019-06-27T08:22:49Z</time>
      </trkpt>
      <trkpt lat="43.225196" lon="-2.916284">
        <ele>92.5</ele>
        <time>2019-06-27T08:22:49Z</time>
      </trkpt>
      <trkpt lat="43.225124" lon="-2.916255">
        <ele>92.8</ele>
        <time>2019-06-27T08:22:49Z</time>
      </trkpt>
      <trkpt lat="43.225052" lon="-2.916227">
        <ele>92.7</ele>
        <time>2019-06-27T08:22:49Z</time>
      </trkpt>
      <trkpt lat="43.224979" lon="-2.916198">
        <ele>93.1</ele>
        <time>2019-06-27T08:22:49Z</time>
      </trkpt>
      <trkpt lat="43.224907" lon="-2.916179">
        <ele>94.2</ele>
        <time>2019-06-27T08:22:49Z</time>
      </trkpt>
      <trkpt lat="43.224834" lon="-2.916160">
        <ele>95.1</ele>
        <time>2019-06-27T08:22:49Z</time>
      </trkpt>
      <trkpt lat="43.224758" lon="-2.916131">
        <ele>95.8</ele>
        <time>2019-06-27T08:22:49Z</time>
      </trkpt>
      <trkpt lat="43.224682" lon="-2.916103">
        <ele>97.0</ele>
        <time>2019-06-27T08:22:49Z</time>
      </trkpt>
      <trkpt lat="43.224605" lon="-2.916074">
        <ele>97.4</ele>
        <time>2019-06-27T08:22:49Z</time>
      </trkpt>
      <trkpt lat="43.224533" lon="-2.916037">
        <ele>97.8</ele>
        <time>2019-06-27T08:22:49Z</time>
      </trkpt>
      <trkpt lat="43.224461" lon="-2.916000">
        <ele>98.4</ele>
        <time>2019-06-27T08:22:49Z</time>
      </trkpt>
      <trkpt lat="43.224388" lon="-2.915963">
        <ele>98.6</ele>
        <time>2019-06-27T08:22:49Z</time>
      </trkpt>
      <trkpt lat="43.224316" lon="-2.915930">
        <ele>99.1</ele>
        <time>2019-06-27T08:22:49Z</time>
      </trkpt>
      <trkpt lat="43.224241" lon="-2.915883">
        <ele>99.4</ele>
        <time>2019-06-27T08:22:49Z</time>
      </trkpt>
      <trkpt lat="43.224174" lon="-2.915857">
        <ele>99.9</ele>
        <time>2019-06-27T08:22:49Z</time>
      </trkpt>
      <trkpt lat="43.224103" lon="-2.915819">
        <ele>100.3</ele>
        <time>2019-06-27T08:22:49Z</time>
      </trkpt>
      <trkpt lat="43.224035" lon="-2.915785">
        <ele>100.9</ele>
        <time>2019-06-27T08:22:49Z</time>
      </trkpt>
      <trkpt lat="43.223957" lon="-2.915750">
        <ele>101.3</ele>
        <time>2019-06-27T08:22:49Z</time>
      </trkpt>
      <trkpt lat="43.223884" lon="-2.915696">
        <ele>100.7</ele>
        <time>2019-06-27T08:22:49Z</time>
      </trkpt>
      <trkpt lat="43.223798" lon="-2.915649">
        <ele>100.1</ele>
        <time>2019-06-27T08:22:49Z</time>
      </trkpt>
      <trkpt lat="43.223712" lon="-2.915603">
        <ele>101.0</ele>
        <time>2019-06-27T08:22:49Z</time>
      </trkpt>
      <trkpt lat="43.223622" lon="-2.915578">
        <ele>101.3</ele>
        <time>2019-06-27T08:22:49Z</time>
      </trkpt>
      <trkpt lat="43.223532" lon="-2.915593">
        <ele>103.0</ele>
        <time>2019-06-27T08:22:49Z</time>
      </trkpt>
      <trkpt lat="43.223442" lon="-2.915608">
        <ele>104.1</ele>
        <time>2019-06-27T08:22:49Z</time>
      </trkpt>
      <trkpt lat="43.223374" lon="-2.915544">
        <ele>105.7</ele>
        <time>2019-06-27T08:22:49Z</time>
      </trkpt>
      <trkpt lat="43.223356" lon="-2.915424">
        <ele>107.7</ele>
        <time>2019-06-27T08:22:49Z</time>
      </trkpt>
      <trkpt lat="43.223344" lon="-2.915305">
        <ele>110.1</ele>
        <time>2019-06-27T08:22:49Z</time>
      </trkpt>
      <trkpt lat="43.223321" lon="-2.915204">
        <ele>112.2</ele>
        <time>2019-06-27T08:22:49Z</time>
      </trkpt>
      <trkpt lat="43.223255" lon="-2.915144">
        <ele>113.0</ele>
        <time>2019-06-27T08:22:49Z</time>
      </trkpt>
      <trkpt lat="43.223189" lon="-2.915084">
        <ele>113.1</ele>
        <time>2019-06-27T08:22:49Z</time>
      </trkpt>
      <trkpt lat="43.223122" lon="-2.915023">
        <ele>114.0</ele>
        <time>2019-06-27T08:22:49Z</time>
      </trkpt>
      <trkpt lat="43.223058" lon="-2.914952">
        <ele>114.7</ele>
        <time>2019-06-27T08:22:49Z</time>
      </trkpt>
      <trkpt lat="43.222993" lon="-2.914884">
        <ele>115.0</ele>
        <time>2019-06-27T08:22:49Z</time>
      </trkpt>
      <trkpt lat="43.222920" lon="-2.914842">
        <ele>115.0</ele>
        <time>2019-06-27T08:22:49Z</time>
      </trkpt>
      <trkpt lat="43.222856" lon="-2.914767">
        <ele>116.0</ele>
        <time>2019-06-27T08:22:49Z</time>
      </trkpt>
      <trkpt lat="43.222791" lon="-2.914692">
        <ele>116.0</ele>
        <time>2019-06-27T08:22:49Z</time>
      </trkpt>
      <trkpt lat="43.222727" lon="-2.914599">
        <ele>116.1</ele>
        <time>2019-06-27T08:22:49Z</time>
      </trkpt>
      <trkpt lat="43.222662" lon="-2.914506">
        <ele>117.0</ele>
        <time>2019-06-27T08:22:49Z</time>
      </trkpt>
      <trkpt lat="43.222594" lon="-2.914418">
        <ele>117.0</ele>
        <time>2019-06-27T08:22:49Z</time>
      </trkpt>
      <trkpt lat="43.222525" lon="-2.914329">
        <ele>118.0</ele>
        <time>2019-06-27T08:22:49Z</time>
      </trkpt>
      <trkpt lat="43.222457" lon="-2.914241">
        <ele>118.0</ele>
        <time>2019-06-27T08:22:49Z</time>
      </trkpt>
      <trkpt lat="43.222405" lon="-2.914137">
        <ele>118.0</ele>
        <time>2019-06-27T08:22:49Z</time>
      </trkpt>
      <trkpt lat="43.222344" lon="-2.914049">
        <ele>119.0</ele>
        <time>2019-06-27T08:22:49Z</time>
      </trkpt>
      <trkpt lat="43.222295" lon="-2.913970">
        <ele>119.0</ele>
        <time>2019-06-27T08:22:49Z</time>
      </trkpt>
      <trkpt lat="43.222247" lon="-2.913891">
        <ele>119.0</ele>
        <time>2019-06-27T08:22:49Z</time>
      </trkpt>
      <trkpt lat="43.222171" lon="-2.913865">
        <ele>119.0</ele>
        <time>2019-06-27T08:22:49Z</time>
      </trkpt>
      <trkpt lat="43.222088" lon="-2.913847">
        <ele>120.0</ele>
        <time>2019-06-27T08:22:49Z</time>
      </trkpt>
      <trkpt lat="43.222006" lon="-2.913829">
        <ele>121.1</ele>
        <time>2019-06-27T08:22:49Z</time>
      </trkpt>
      <trkpt lat="43.221924" lon="-2.913811">
        <ele>123.2</ele>
        <time>2019-06-27T08:22:49Z</time>
      </trkpt>
      <trkpt lat="43.221852" lon="-2.913759">
        <ele>124.5</ele>
        <time>2019-06-27T08:22:49Z</time>
      </trkpt>
      <trkpt lat="43.221782" lon="-2.913708">
        <ele>125.1</ele>
        <time>2019-06-27T08:22:49Z</time>
      </trkpt>
      <trkpt lat="43.221711" lon="-2.913656">
        <ele>126.3</ele>
        <time>2019-06-27T08:22:49Z</time>
      </trkpt>
      <trkpt lat="43.221681" lon="-2.913552">
        <ele>126.3</ele>
        <time>2019-06-27T08:22:49Z</time>
      </trkpt>
      <trkpt lat="43.221659" lon="-2.913439">
        <ele>126.8</ele>
        <time>2019-06-27T08:22:49Z</time>
      </trkpt>
      <trkpt lat="43.221637" lon="-2.913326">
        <ele>127.3</ele>
        <time>2019-06-27T08:22:49Z</time>
      </trkpt>
      <trkpt lat="43.221615" lon="-2.913213">
        <ele>127.0</ele>
        <time>2019-06-27T08:22:49Z</time>
      </trkpt>
      <trkpt lat="43.221567" lon="-2.913145">
        <ele>127.2</ele>
        <time>2019-06-27T08:22:49Z</time>
      </trkpt>
      <trkpt lat="43.221505" lon="-2.913080">
        <ele>127.5</ele>
        <time>2019-06-27T08:22:49Z</time>
      </trkpt>
      <trkpt lat="43.221431" lon="-2.913011">
        <ele>129.0</ele>
        <time>2019-06-27T08:22:49Z</time>
      </trkpt>
      <trkpt lat="43.221356" lon="-2.912941">
        <ele>130.5</ele>
        <time>2019-06-27T08:22:49Z</time>
      </trkpt>
      <trkpt lat="43.221282" lon="-2.912872">
        <ele>132.2</ele>
        <time>2019-06-27T08:22:49Z</time>
      </trkpt>
      <trkpt lat="43.221208" lon="-2.912802">
        <ele>134.4</ele>
        <time>2019-06-27T08:22:49Z</time>
      </trkpt>
      <trkpt lat="43.221133" lon="-2.912733">
        <ele>136.5</ele>
        <time>2019-06-27T08:22:49Z</time>
      </trkpt>
      <trkpt lat="43.221059" lon="-2.912663">
        <ele>138.6</ele>
        <time>2019-06-27T08:22:49Z</time>
      </trkpt>
      <trkpt lat="43.220984" lon="-2.912594">
        <ele>139.9</ele>
        <time>2019-06-27T08:22:49Z</time>
      </trkpt>
      <trkpt lat="43.220910" lon="-2.912524">
        <ele>140.7</ele>
        <time>2019-06-27T08:22:49Z</time>
      </trkpt>
      <trkpt lat="43.220835" lon="-2.912454">
        <ele>141.3</ele>
        <time>2019-06-27T08:22:49Z</time>
      </trkpt>
      <trkpt lat="43.220761" lon="-2.912385">
        <ele>142.7</ele>
        <time>2019-06-27T08:22:49Z</time>
      </trkpt>
      <trkpt lat="43.220687" lon="-2.912315">
        <ele>143.1</ele>
        <time>2019-06-27T08:22:49Z</time>
      </trkpt>
      <trkpt lat="43.220613" lon="-2.912244">
        <ele>143.7</ele>
        <time>2019-06-27T08:22:49Z</time>
      </trkpt>
      <trkpt lat="43.220540" lon="-2.912173">
        <ele>144.0</ele>
        <time>2019-06-27T08:22:49Z</time>
      </trkpt>
      <trkpt lat="43.220466" lon="-2.912102">
        <ele>144.6</ele>
        <time>2019-06-27T08:22:49Z</time>
      </trkpt>
      <trkpt lat="43.220388" lon="-2.912041">
        <ele>146.0</ele>
        <time>2019-06-27T08:22:49Z</time>
      </trkpt>
      <trkpt lat="43.220309" lon="-2.911985">
        <ele>148.1</ele>
        <time>2019-06-27T08:22:49Z</time>
      </trkpt>
      <trkpt lat="43.220238" lon="-2.911921">
        <ele>150.3</ele>
        <time>2019-06-27T08:22:49Z</time>
      </trkpt>
      <trkpt lat="43.220168" lon="-2.911857">
        <ele>151.9</ele>
        <time>2019-06-27T08:22:49Z</time>
      </trkpt>
      <trkpt lat="43.220097" lon="-2.911793">
        <ele>152.0</ele>
        <time>2019-06-27T08:22:49Z</time>
      </trkpt>
      <trkpt lat="43.220060" lon="-2.911692">
        <ele>153.0</ele>
        <time>2019-06-27T08:22:49Z</time>
      </trkpt>
      <trkpt lat="43.220029" lon="-2.911611">
        <ele>153.0</ele>
        <time>2019-06-27T08:22:49Z</time>
      </trkpt>
      <trkpt lat="43.219999" lon="-2.911536">
        <ele>153.6</ele>
        <time>2019-06-27T08:22:49Z</time>
      </trkpt>
      <trkpt lat="43.219955" lon="-2.911473">
        <ele>154.6</ele>
        <time>2019-06-27T08:22:49Z</time>
      </trkpt>
      <trkpt lat="43.219909" lon="-2.911467">
        <ele>155.0</ele>
        <time>2019-06-27T08:22:49Z</time>
      </trkpt>
      <trkpt lat="43.219857" lon="-2.911485">
        <ele>155.3</ele>
        <time>2019-06-27T08:22:49Z</time>
      </trkpt>
      <trkpt lat="43.219847" lon="-2.911572">
        <ele>156.0</ele>
        <time>2019-06-27T08:22:49Z</time>
      </trkpt>
      <trkpt lat="43.219836" lon="-2.911658">
        <ele>157.1</ele>
        <time>2019-06-27T08:22:49Z</time>
      </trkpt>
      <trkpt lat="43.219833" lon="-2.911752">
        <ele>158.0</ele>
        <time>2019-06-27T08:22:49Z</time>
      </trkpt>
      <trkpt lat="43.219831" lon="-2.911846">
        <ele>159.0</ele>
        <time>2019-06-27T08:22:49Z</time>
      </trkpt>
      <trkpt lat="43.219799" lon="-2.911936">
        <ele>159.7</ele>
        <time>2019-06-27T08:22:49Z</time>
      </trkpt>
      <trkpt lat="43.219779" lon="-2.912033">
        <ele>161.0</ele>
        <time>2019-06-27T08:22:49Z</time>
      </trkpt>
      <trkpt lat="43.219816" lon="-2.912126">
        <ele>161.7</ele>
        <time>2019-06-27T08:22:49Z</time>
      </trkpt>
      <trkpt lat="43.219855" lon="-2.912233">
        <ele>163.1</ele>
        <time>2019-06-27T08:22:49Z</time>
      </trkpt>
      <trkpt lat="43.219894" lon="-2.912341">
        <ele>164.2</ele>
        <time>2019-06-27T08:22:49Z</time>
      </trkpt>
      <trkpt lat="43.219933" lon="-2.912449">
        <ele>166.1</ele>
        <time>2019-06-27T08:22:49Z</time>
      </trkpt>
      <trkpt lat="43.219952" lon="-2.912530">
        <ele>167.0</ele>
        <time>2019-06-27T08:22:49Z</time>
      </trkpt>
      <trkpt lat="43.219915" lon="-2.912560">
        <ele>168.3</ele>
        <time>2019-06-27T08:22:49Z</time>
      </trkpt>
      <trkpt lat="43.219853" lon="-2.912542">
        <ele>169.8</ele>
        <time>2019-06-27T08:22:49Z</time>
      </trkpt>
      <trkpt lat="43.219795" lon="-2.912509">
        <ele>171.1</ele>
        <time>2019-06-27T08:22:49Z</time>
      </trkpt>
      <trkpt lat="43.219736" lon="-2.912478">
        <ele>172.2</ele>
        <time>2019-06-27T08:22:49Z</time>
      </trkpt>
      <trkpt lat="43.219682" lon="-2.912442">
        <ele>173.2</ele>
        <time>2019-06-27T08:22:49Z</time>
      </trkpt>
      <trkpt lat="43.219623" lon="-2.912404">
        <ele>174.5</ele>
        <time>2019-06-27T08:22:49Z</time>
      </trkpt>
      <trkpt lat="43.219571" lon="-2.912367">
        <ele>175.8</ele>
        <time>2019-06-27T08:22:49Z</time>
      </trkpt>
      <trkpt lat="43.219522" lon="-2.912329">
        <ele>176.3</ele>
        <time>2019-06-27T08:22:49Z</time>
      </trkpt>
      <trkpt lat="43.219470" lon="-2.912283">
        <ele>176.8</ele>
        <time>2019-06-27T08:22:49Z</time>
      </trkpt>
      <trkpt lat="43.219411" lon="-2.912234">
        <ele>177.9</ele>
        <time>2019-06-27T08:22:49Z</time>
      </trkpt>
      <trkpt lat="43.219353" lon="-2.912173">
        <ele>178.5</ele>
        <time>2019-06-27T08:22:49Z</time>
      </trkpt>
      <trkpt lat="43.219307" lon="-2.912127">
        <ele>178.8</ele>
        <time>2019-06-27T08:22:49Z</time>
      </trkpt>
      <trkpt lat="43.219254" lon="-2.912068">
        <ele>179.0</ele>
        <time>2019-06-27T08:22:49Z</time>
      </trkpt>
      <trkpt lat="43.219207" lon="-2.912035">
        <ele>180.2</ele>
        <time>2019-06-27T08:22:49Z</time>
      </trkpt>
      <trkpt lat="43.219143" lon="-2.912009">
        <ele>180.9</ele>
        <time>2019-06-27T08:22:49Z</time>
      </trkpt>
      <trkpt lat="43.219096" lon="-2.912029">
        <ele>181.2</ele>
        <time>2019-06-27T08:22:49Z</time>
      </trkpt>
      <trkpt lat="43.219121" lon="-2.912129">
        <ele>182.9</ele>
        <time>2019-06-27T08:22:49Z</time>
      </trkpt>
      <trkpt lat="43.219166" lon="-2.912187">
        <ele>183.0</ele>
        <time>2019-06-27T08:22:49Z</time>
      </trkpt>
      <trkpt lat="43.219235" lon="-2.912286">
        <ele>184.1</ele>
        <time>2019-06-27T08:22:49Z</time>
      </trkpt>
      <trkpt lat="43.219304" lon="-2.912384">
        <ele>184.9</ele>
        <time>2019-06-27T08:22:49Z</time>
      </trkpt>
      <trkpt lat="43.219351" lon="-2.912472">
        <ele>185.8</ele>
        <time>2019-06-27T08:22:49Z</time>
      </trkpt>
      <trkpt lat="43.219398" lon="-2.912577">
        <ele>187.1</ele>
        <time>2019-06-27T08:22:49Z</time>
      </trkpt>
      <trkpt lat="43.219455" lon="-2.912694">
        <ele>188.6</ele>
        <time>2019-06-27T08:22:49Z</time>
      </trkpt>
      <trkpt lat="43.219512" lon="-2.912819">
        <ele>190.9</ele>
        <time>2019-06-27T08:22:49Z</time>
      </trkpt>
      <trkpt lat="43.219560" lon="-2.912969">
        <ele>192.3</ele>
        <time>2019-06-27T08:22:49Z</time>
      </trkpt>
      <trkpt lat="43.219605" lon="-2.913125">
        <ele>195.3</ele>
        <time>2019-06-27T08:22:49Z</time>
      </trkpt>
      <trkpt lat="43.219638" lon="-2.913280">
        <ele>198.2</ele>
        <time>2019-06-27T08:22:49Z</time>
      </trkpt>
      <trkpt lat="43.219667" lon="-2.913432">
        <ele>200.0</ele>
        <time>2019-06-27T08:22:49Z</time>
      </trkpt>
      <trkpt lat="43.219703" lon="-2.913549">
        <ele>202.0</ele>
        <time>2019-06-27T08:22:49Z</time>
      </trkpt>
      <trkpt lat="43.219734" lon="-2.913672">
        <ele>204.3</ele>
        <time>2019-06-27T08:22:49Z</time>
      </trkpt>
      <trkpt lat="43.219765" lon="-2.913795">
        <ele>205.7</ele>
        <time>2019-06-27T08:22:49Z</time>
      </trkpt>
      <trkpt lat="43.219787" lon="-2.913886">
        <ele>206.7</ele>
        <time>2019-06-27T08:22:49Z</time>
      </trkpt>
      <trkpt lat="43.219803" lon="-2.913981">
        <ele>207.9</ele>
        <time>2019-06-27T08:22:49Z</time>
      </trkpt>
      <trkpt lat="43.219818" lon="-2.914075">
        <ele>209.1</ele>
        <time>2019-06-27T08:22:49Z</time>
      </trkpt>
      <trkpt lat="43.219822" lon="-2.914182">
        <ele>210.7</ele>
        <time>2019-06-27T08:22:49Z</time>
      </trkpt>
      <trkpt lat="43.219766" lon="-2.914206">
        <ele>212.4</ele>
        <time>2019-06-27T08:22:49Z</time>
      </trkpt>
      <trkpt lat="43.219700" lon="-2.914133">
        <ele>213.0</ele>
        <time>2019-06-27T08:22:49Z</time>
      </trkpt>
      <trkpt lat="43.219634" lon="-2.914059">
        <ele>213.9</ele>
        <time>2019-06-27T08:22:49Z</time>
      </trkpt>
      <trkpt lat="43.219567" lon="-2.913988">
        <ele>214.2</ele>
        <time>2019-06-27T08:22:49Z</time>
      </trkpt>
      <trkpt lat="43.219495" lon="-2.913921">
        <ele>214.7</ele>
        <time>2019-06-27T08:22:49Z</time>
      </trkpt>
      <trkpt lat="43.219428" lon="-2.913849">
        <ele>215.1</ele>
        <time>2019-06-27T08:22:49Z</time>
      </trkpt>
      <trkpt lat="43.219361" lon="-2.913777">
        <ele>215.4</ele>
        <time>2019-06-27T08:22:49Z</time>
      </trkpt>
      <trkpt lat="43.219278" lon="-2.913731">
        <ele>215.8</ele>
        <time>2019-06-27T08:22:49Z</time>
      </trkpt>
      <trkpt lat="43.219193" lon="-2.913702">
        <ele>216.9</ele>
        <time>2019-06-27T08:22:49Z</time>
      </trkpt>
      <trkpt lat="43.219123" lon="-2.913707">
        <ele>217.5</ele>
        <time>2019-06-27T08:22:49Z</time>
      </trkpt>
      <trkpt lat="43.219160" lon="-2.913806">
        <ele>219.3</ele>
        <time>2019-06-27T08:22:49Z</time>
      </trkpt>
      <trkpt lat="43.219196" lon="-2.913906">
        <ele>220.8</ele>
        <time>2019-06-27T08:22:49Z</time>
      </trkpt>
      <trkpt lat="43.219232" lon="-2.914006">
        <ele>222.2</ele>
        <time>2019-06-27T08:22:49Z</time>
      </trkpt>
      <trkpt lat="43.219284" lon="-2.914083">
        <ele>222.6</ele>
        <time>2019-06-27T08:22:49Z</time>
      </trkpt>
      <trkpt lat="43.219351" lon="-2.914189">
        <ele>223.6</ele>
        <time>2019-06-27T08:22:49Z</time>
      </trkpt>
      <trkpt lat="43.219421" lon="-2.914303">
        <ele>224.7</ele>
        <time>2019-06-27T08:22:49Z</time>
      </trkpt>
      <trkpt lat="43.219484" lon="-2.914448">
        <ele>226.1</ele>
        <time>2019-06-27T08:22:49Z</time>
      </trkpt>
      <trkpt lat="43.219548" lon="-2.914592">
        <ele>227.2</ele>
        <time>2019-06-27T08:22:49Z</time>
      </trkpt>
      <trkpt lat="43.219565" lon="-2.914765">
        <ele>229.9</ele>
        <time>2019-06-27T08:22:49Z</time>
      </trkpt>
      <trkpt lat="43.219573" lon="-2.914914">
        <ele>232.1</ele>
        <time>2019-06-27T08:22:49Z</time>
      </trkpt>
      <trkpt lat="43.219574" lon="-2.915050">
        <ele>233.1</ele>
        <time>2019-06-27T08:22:49Z</time>
      </trkpt>
      <trkpt lat="43.219559" lon="-2.915181">
        <ele>234.6</ele>
        <time>2019-06-27T08:22:49Z</time>
      </trkpt>
      <trkpt lat="43.219510" lon="-2.915266">
        <ele>237.3</ele>
        <time>2019-06-27T08:22:49Z</time>
      </trkpt>
      <trkpt lat="43.219494" lon="-2.915378">
        <ele>239.4</ele>
        <time>2019-06-27T08:22:49Z</time>
      </trkpt>
      <trkpt lat="43.219501" lon="-2.915501">
        <ele>240.6</ele>
        <time>2019-06-27T08:22:49Z</time>
      </trkpt>
      <trkpt lat="43.219513" lon="-2.915634">
        <ele>242.2</ele>
        <time>2019-06-27T08:22:49Z</time>
      </trkpt>
      <trkpt lat="43.219530" lon="-2.915763">
        <ele>244.0</ele>
        <time>2019-06-27T08:22:49Z</time>
      </trkpt>
      <trkpt lat="43.219547" lon="-2.915893">
        <ele>245.4</ele>
        <time>2019-06-27T08:22:49Z</time>
      </trkpt>
      <trkpt lat="43.219552" lon="-2.916004">
        <ele>246.3</ele>
        <time>2019-06-27T08:22:49Z</time>
      </trkpt>
      <trkpt lat="43.219513" lon="-2.916104">
        <ele>248.0</ele>
        <time>2019-06-27T08:22:49Z</time>
      </trkpt>
      <trkpt lat="43.219475" lon="-2.916204">
        <ele>249.3</ele>
        <time>2019-06-27T08:22:49Z</time>
      </trkpt>
      <trkpt lat="43.219408" lon="-2.916255">
        <ele>251.7</ele>
        <time>2019-06-27T08:22:49Z</time>
      </trkpt>
      <trkpt lat="43.219349" lon="-2.916323">
        <ele>254.1</ele>
        <time>2019-06-27T08:22:49Z</time>
      </trkpt>
      <trkpt lat="43.219306" lon="-2.916423">
        <ele>256.6</ele>
        <time>2019-06-27T08:22:49Z</time>
      </trkpt>
      <trkpt lat="43.219277" lon="-2.916527">
        <ele>259.0</ele>
        <time>2019-06-27T08:22:49Z</time>
      </trkpt>
      <trkpt lat="43.219251" lon="-2.916643">
        <ele>261.4</ele>
        <time>2019-06-27T08:22:49Z</time>
      </trkpt>
      <trkpt lat="43.219227" lon="-2.916775">
        <ele>264.1</ele>
        <time>2019-06-27T08:22:49Z</time>
      </trkpt>
      <trkpt lat="43.219217" lon="-2.916933">
        <ele>266.9</ele>
        <time>2019-06-27T08:22:49Z</time>
      </trkpt>
      <trkpt lat="43.219226" lon="-2.917063">
        <ele>267.8</ele>
        <time>2019-06-27T08:22:49Z</time>
      </trkpt>
      <trkpt lat="43.219235" lon="-2.917192">
        <ele>269.7</ele>
        <time>2019-06-27T08:22:49Z</time>
      </trkpt>
      <trkpt lat="43.219244" lon="-2.917322">
        <ele>271.1</ele>
        <time>2019-06-27T08:22:49Z</time>
      </trkpt>
      <trkpt lat="43.219240" lon="-2.917443">
        <ele>273.3</ele>
        <time>2019-06-27T08:22:49Z</time>
      </trkpt>
      <trkpt lat="43.219216" lon="-2.917570">
        <ele>276.4</ele>
        <time>2019-06-27T08:22:49Z</time>
      </trkpt>
      <trkpt lat="43.219213" lon="-2.917712">
        <ele>279.2</ele>
        <time>2019-06-27T08:22:49Z</time>
      </trkpt>
      <trkpt lat="43.219215" lon="-2.917858">
        <ele>282.1</ele>
        <time>2019-06-27T08:22:49Z</time>
      </trkpt>
      <trkpt lat="43.219202" lon="-2.917990">
        <ele>284.8</ele>
        <time>2019-06-27T08:22:49Z</time>
      </trkpt>
      <trkpt lat="43.219190" lon="-2.918123">
        <ele>287.5</ele>
        <time>2019-06-27T08:22:49Z</time>
      </trkpt>
      <trkpt lat="43.219173" lon="-2.918241">
        <ele>290.1</ele>
        <time>2019-06-27T08:22:49Z</time>
      </trkpt>
      <trkpt lat="43.219154" lon="-2.918360">
        <ele>292.0</ele>
        <time>2019-06-27T08:22:49Z</time>
      </trkpt>
      <trkpt lat="43.219145" lon="-2.918487">
        <ele>292.7</ele>
        <time>2019-06-27T08:22:49Z</time>
      </trkpt>
      <trkpt lat="43.219141" lon="-2.918623">
        <ele>292.8</ele>
        <time>2019-06-27T08:22:49Z</time>
      </trkpt>
      <trkpt lat="43.219150" lon="-2.918763">
        <ele>292.6</ele>
        <time>2019-06-27T08:22:49Z</time>
      </trkpt>
      <trkpt lat="43.219166" lon="-2.918911">
        <ele>293.2</ele>
        <time>2019-06-27T08:22:49Z</time>
      </trkpt>
      <trkpt lat="43.219194" lon="-2.919042">
        <ele>294.7</ele>
        <time>2019-06-27T08:22:49Z</time>
      </trkpt>
      <trkpt lat="43.219227" lon="-2.919160">
        <ele>295.9</ele>
        <time>2019-06-27T08:22:49Z</time>
      </trkpt>
      <trkpt lat="43.219264" lon="-2.919277">
        <ele>297.0</ele>
        <time>2019-06-27T08:22:49Z</time>
      </trkpt>
      <trkpt lat="43.219316" lon="-2.919388">
        <ele>298.6</ele>
        <time>2019-06-27T08:22:49Z</time>
      </trkpt>
      <trkpt lat="43.219368" lon="-2.919499">
        <ele>300.6</ele>
        <time>2019-06-27T08:22:49Z</time>
      </trkpt>
      <trkpt lat="43.219426" lon="-2.919604">
        <ele>302.4</ele>
        <time>2019-06-27T08:22:49Z</time>
      </trkpt>
      <trkpt lat="43.219488" lon="-2.919707">
        <ele>303.9</ele>
        <time>2019-06-27T08:22:49Z</time>
      </trkpt>
      <trkpt lat="43.219558" lon="-2.919803">
        <ele>304.7</ele>
        <time>2019-06-27T08:22:49Z</time>
      </trkpt>
      <trkpt lat="43.219627" lon="-2.919897">
        <ele>306.0</ele>
        <time>2019-06-27T08:22:49Z</time>
      </trkpt>
      <trkpt lat="43.219696" lon="-2.919992">
        <ele>307.0</ele>
        <time>2019-06-27T08:22:49Z</time>
      </trkpt>
      <trkpt lat="43.219755" lon="-2.920111">
        <ele>309.1</ele>
        <time>2019-06-27T08:22:49Z</time>
      </trkpt>
      <trkpt lat="43.219827" lon="-2.920226">
        <ele>310.2</ele>
        <time>2019-06-27T08:22:49Z</time>
      </trkpt>
      <trkpt lat="43.219899" lon="-2.920340">
        <ele>311.3</ele>
        <time>2019-06-27T08:22:49Z</time>
      </trkpt>
      <trkpt lat="43.219971" lon="-2.920455">
        <ele>312.4</ele>
        <time>2019-06-27T08:22:49Z</time>
      </trkpt>
      <trkpt lat="43.220041" lon="-2.920574">
        <ele>312.8</ele>
        <time>2019-06-27T08:22:49Z</time>
      </trkpt>
      <trkpt lat="43.220105" lon="-2.920696">
        <ele>314.3</ele>
        <time>2019-06-27T08:22:49Z</time>
      </trkpt>
      <trkpt lat="43.220153" lon="-2.920792">
        <ele>314.9</ele>
        <time>2019-06-27T08:22:49Z</time>
      </trkpt>
      <trkpt lat="43.220222" lon="-2.920897">
        <ele>314.8</ele>
        <time>2019-06-27T08:22:49Z</time>
      </trkpt>
      <trkpt lat="43.220290" lon="-2.921002">
        <ele>314.3</ele>
        <time>2019-06-27T08:22:49Z</time>
      </trkpt>
      <trkpt lat="43.220359" lon="-2.921107">
        <ele>314.4</ele>
        <time>2019-06-27T08:22:49Z</time>
      </trkpt>
      <trkpt lat="43.220374" lon="-2.921191">
        <ele>314.5</ele>
        <time>2019-06-27T08:22:49Z</time>
      </trkpt>
      <trkpt lat="43.220356" lon="-2.921268">
        <ele>314.6</ele>
        <time>2019-06-27T08:22:49Z</time>
      </trkpt>
      <trkpt lat="43.220309" lon="-2.921302">
        <ele>314.2</ele>
        <time>2019-06-27T08:22:49Z</time>
      </trkpt>
      <trkpt lat="43.220237" lon="-2.921306">
        <ele>314.6</ele>
        <time>2019-06-27T08:22:49Z</time>
      </trkpt>
      <trkpt lat="43.220152" lon="-2.921305">
        <ele>315.1</ele>
        <time>2019-06-27T08:22:49Z</time>
      </trkpt>
      <trkpt lat="43.220067" lon="-2.921305">
        <ele>315.2</ele>
        <time>2019-06-27T08:22:49Z</time>
      </trkpt>
      <trkpt lat="43.219982" lon="-2.921305">
        <ele>316.2</ele>
        <time>2019-06-27T08:22:49Z</time>
      </trkpt>
      <trkpt lat="43.219897" lon="-2.921309">
        <ele>316.1</ele>
        <time>2019-06-27T08:22:49Z</time>
      </trkpt>
      <trkpt lat="43.219821" lon="-2.921335">
        <ele>316.7</ele>
        <time>2019-06-27T08:22:49Z</time>
      </trkpt>
      <trkpt lat="43.219750" lon="-2.921362">
        <ele>317.1</ele>
        <time>2019-06-27T08:22:49Z</time>
      </trkpt>
      <trkpt lat="43.219682" lon="-2.921397">
        <ele>317.5</ele>
        <time>2019-06-27T08:22:49Z</time>
      </trkpt>
      <trkpt lat="43.219614" lon="-2.921432">
        <ele>317.1</ele>
        <time>2019-06-27T08:22:49Z</time>
      </trkpt>
      <trkpt lat="43.219546" lon="-2.921467">
        <ele>317.4</ele>
        <time>2019-06-27T08:22:49Z</time>
      </trkpt>
      <trkpt lat="43.219478" lon="-2.921494">
        <ele>318.0</ele>
        <time>2019-06-27T08:22:49Z</time>
      </trkpt>
      <trkpt lat="43.219415" lon="-2.921538">
        <ele>318.1</ele>
        <time>2019-06-27T08:22:49Z</time>
      </trkpt>
      <trkpt lat="43.219355" lon="-2.921587">
        <ele>318.7</ele>
        <time>2019-06-27T08:22:49Z</time>
      </trkpt>
      <trkpt lat="43.219297" lon="-2.921641">
        <ele>319.4</ele>
        <time>2019-06-27T08:22:49Z</time>
      </trkpt>
      <trkpt lat="43.219239" lon="-2.921695">
        <ele>320.5</ele>
        <time>2019-06-27T08:22:49Z</time>
      </trkpt>
      <trkpt lat="43.219180" lon="-2.921749">
        <ele>321.0</ele>
        <time>2019-06-27T08:22:49Z</time>
      </trkpt>
      <trkpt lat="43.219121" lon="-2.921803">
        <ele>322.3</ele>
        <time>2019-06-27T08:22:49Z</time>
      </trkpt>
      <trkpt lat="43.219064" lon="-2.921869">
        <ele>323.6</ele>
        <time>2019-06-27T08:22:49Z</time>
      </trkpt>
      <trkpt lat="43.219011" lon="-2.921950">
        <ele>324.7</ele>
        <time>2019-06-27T08:22:49Z</time>
      </trkpt>
      <trkpt lat="43.218958" lon="-2.922031">
        <ele>326.8</ele>
        <time>2019-06-27T08:22:49Z</time>
      </trkpt>
      <trkpt lat="43.218905" lon="-2.922112">
        <ele>328.1</ele>
        <time>2019-06-27T08:22:49Z</time>
      </trkpt>
      <trkpt lat="43.218855" lon="-2.922213">
        <ele>329.3</ele>
        <time>2019-06-27T08:22:49Z</time>
      </trkpt>
      <trkpt lat="43.218806" lon="-2.922313">
        <ele>330.5</ele>
        <time>2019-06-27T08:22:49Z</time>
      </trkpt>
      <trkpt lat="43.218755" lon="-2.922414">
        <ele>331.5</ele>
        <time>2019-06-27T08:22:49Z</time>
      </trkpt>
      <trkpt lat="43.218702" lon="-2.922518">
        <ele>332.4</ele>
        <time>2019-06-27T08:22:49Z</time>
      </trkpt>
      <trkpt lat="43.218695" lon="-2.922640">
        <ele>333.0</ele>
        <time>2019-06-27T08:22:49Z</time>
      </trkpt>
      <trkpt lat="43.218701" lon="-2.922762">
        <ele>334.8</ele>
        <time>2019-06-27T08:22:49Z</time>
      </trkpt>
      <trkpt lat="43.218717" lon="-2.922881">
        <ele>336.1</ele>
        <time>2019-06-27T08:22:49Z</time>
      </trkpt>
      <trkpt lat="43.218730" lon="-2.923012">
        <ele>338.5</ele>
        <time>2019-06-27T08:22:49Z</time>
      </trkpt>
      <trkpt lat="43.218725" lon="-2.923143">
        <ele>340.9</ele>
        <time>2019-06-27T08:22:49Z</time>
      </trkpt>
      <trkpt lat="43.218713" lon="-2.923266">
        <ele>342.8</ele>
        <time>2019-06-27T08:22:49Z</time>
      </trkpt>
      <trkpt lat="43.218679" lon="-2.923401">
        <ele>345.4</ele>
        <time>2019-06-27T08:22:49Z</time>
      </trkpt>
      <trkpt lat="43.218649" lon="-2.923535">
        <ele>347.6</ele>
        <time>2019-06-27T08:22:49Z</time>
      </trkpt>
      <trkpt lat="43.218636" lon="-2.923679">
        <ele>350.6</ele>
        <time>2019-06-27T08:22:49Z</time>
      </trkpt>
      <trkpt lat="43.218622" lon="-2.923822">
        <ele>352.7</ele>
        <time>2019-06-27T08:22:49Z</time>
      </trkpt>
      <trkpt lat="43.218591" lon="-2.923918">
        <ele>352.8</ele>
        <time>2019-06-27T08:22:49Z</time>
      </trkpt>
      <trkpt lat="43.218531" lon="-2.923956">
        <ele>353.6</ele>
        <time>2019-06-27T08:22:49Z</time>
      </trkpt>
      <trkpt lat="43.218472" lon="-2.923983">
        <ele>353.8</ele>
        <time>2019-06-27T08:22:49Z</time>
      </trkpt>
      <trkpt lat="43.218394" lon="-2.923985">
        <ele>355.8</ele>
        <time>2019-06-27T08:22:49Z</time>
      </trkpt>
      <trkpt lat="43.218308" lon="-2.924001">
        <ele>357.2</ele>
        <time>2019-06-27T08:22:49Z</time>
      </trkpt>
      <trkpt lat="43.218225" lon="-2.924036">
        <ele>359.1</ele>
        <time>2019-06-27T08:22:49Z</time>
      </trkpt>
      <trkpt lat="43.218151" lon="-2.924099">
        <ele>360.4</ele>
        <time>2019-06-27T08:22:49Z</time>
      </trkpt>
      <trkpt lat="43.218077" lon="-2.924161">
        <ele>361.6</ele>
        <time>2019-06-27T08:22:49Z</time>
      </trkpt>
      <trkpt lat="43.218005" lon="-2.924223">
        <ele>362.7</ele>
        <time>2019-06-27T08:22:49Z</time>
      </trkpt>
      <trkpt lat="43.217938" lon="-2.924309">
        <ele>363.0</ele>
        <time>2019-06-27T08:22:49Z</time>
      </trkpt>
      <trkpt lat="43.217871" lon="-2.924396">
        <ele>363.2</ele>
        <time>2019-06-27T08:22:49Z</time>
      </trkpt>
      <trkpt lat="43.217804" lon="-2.924482">
        <ele>364.6</ele>
        <time>2019-06-27T08:22:49Z</time>
      </trkpt>
      <trkpt lat="43.217742" lon="-2.924573">
        <ele>365.2</ele>
        <time>2019-06-27T08:22:49Z</time>
      </trkpt>
      <trkpt lat="43.217685" lon="-2.924669">
        <ele>366.0</ele>
        <time>2019-06-27T08:22:49Z</time>
      </trkpt>
      <trkpt lat="43.217629" lon="-2.924768">
        <ele>365.9</ele>
        <time>2019-06-27T08:22:49Z</time>
      </trkpt>
      <trkpt lat="43.217569" lon="-2.924864">
        <ele>367.0</ele>
        <time>2019-06-27T08:22:49Z</time>
      </trkpt>
      <trkpt lat="43.217511" lon="-2.924960">
        <ele>367.8</ele>
        <time>2019-06-27T08:22:49Z</time>
      </trkpt>
      <trkpt lat="43.217457" lon="-2.925060">
        <ele>367.8</ele>
        <time>2019-06-27T08:22:49Z</time>
      </trkpt>
      <trkpt lat="43.217403" lon="-2.925160">
        <ele>367.6</ele>
        <time>2019-06-27T08:22:49Z</time>
      </trkpt>
      <trkpt lat="43.217349" lon="-2.925260">
        <ele>369.4</ele>
        <time>2019-06-27T08:22:49Z</time>
      </trkpt>
      <trkpt lat="43.217296" lon="-2.925367">
        <ele>370.0</ele>
        <time>2019-06-27T08:22:49Z</time>
      </trkpt>
      <trkpt lat="43.217244" lon="-2.925474">
        <ele>369.0</ele>
        <time>2019-06-27T08:22:49Z</time>
      </trkpt>
      <trkpt lat="43.217194" lon="-2.925582">
        <ele>368.8</ele>
        <time>2019-06-27T08:22:49Z</time>
      </trkpt>
      <trkpt lat="43.217148" lon="-2.925690">
        <ele>368.3</ele>
        <time>2019-06-27T08:22:49Z</time>
      </trkpt>
      <trkpt lat="43.217101" lon="-2.925798">
        <ele>369.1</ele>
        <time>2019-06-27T08:22:49Z</time>
      </trkpt>
      <trkpt lat="43.217061" lon="-2.925906">
        <ele>369.8</ele>
        <time>2019-06-27T08:22:49Z</time>
      </trkpt>
      <trkpt lat="43.217029" lon="-2.926012">
        <ele>370.2</ele>
        <time>2019-06-27T08:22:49Z</time>
      </trkpt>
      <trkpt lat="43.216993" lon="-2.926106">
        <ele>370.9</ele>
        <time>2019-06-27T08:22:49Z</time>
      </trkpt>
      <trkpt lat="43.216972" lon="-2.926210">
        <ele>371.2</ele>
        <time>2019-06-27T08:22:49Z</time>
      </trkpt>
      <trkpt lat="43.216952" lon="-2.926315">
        <ele>371.6</ele>
        <time>2019-06-27T08:22:49Z</time>
      </trkpt>
      <trkpt lat="43.216926" lon="-2.926421">
        <ele>372.3</ele>
        <time>2019-06-27T08:22:49Z</time>
      </trkpt>
      <trkpt lat="43.216901" lon="-2.926528">
        <ele>372.7</ele>
        <time>2019-06-27T08:22:49Z</time>
      </trkpt>
      <trkpt lat="43.216881" lon="-2.926638">
        <ele>372.8</ele>
        <time>2019-06-27T08:22:49Z</time>
      </trkpt>
      <trkpt lat="43.216862" lon="-2.926747">
        <ele>371.9</ele>
        <time>2019-06-27T08:22:49Z</time>
      </trkpt>
      <trkpt lat="43.216842" lon="-2.926856">
        <ele>371.0</ele>
        <time>2019-06-27T08:22:49Z</time>
      </trkpt>
      <trkpt lat="43.216823" lon="-2.926966">
        <ele>372.3</ele>
        <time>2019-06-27T08:22:49Z</time>
      </trkpt>
      <trkpt lat="43.216842" lon="-2.927077">
        <ele>373.1</ele>
        <time>2019-06-27T08:22:49Z</time>
      </trkpt>
      <trkpt lat="43.216923" lon="-2.927123">
        <ele>374.9</ele>
        <time>2019-06-27T08:22:49Z</time>
      </trkpt>
      <trkpt lat="43.217016" lon="-2.927106">
        <ele>374.9</ele>
        <time>2019-06-27T08:22:49Z</time>
      </trkpt>
      <trkpt lat="43.217090" lon="-2.927084">
        <ele>374.7</ele>
        <time>2019-06-27T08:22:49Z</time>
      </trkpt>
      <trkpt lat="43.217165" lon="-2.927062">
        <ele>374.6</ele>
        <time>2019-06-27T08:22:49Z</time>
      </trkpt>
      <trkpt lat="43.217240" lon="-2.927040">
        <ele>373.9</ele>
        <time>2019-06-27T08:22:49Z</time>
      </trkpt>
      <trkpt lat="43.217314" lon="-2.927018">
        <ele>373.2</ele>
        <time>2019-06-27T08:22:49Z</time>
      </trkpt>
      <trkpt lat="43.217399" lon="-2.927000">
        <ele>372.6</ele>
        <time>2019-06-27T08:22:49Z</time>
      </trkpt>
      <trkpt lat="43.217487" lon="-2.927005">
        <ele>372.8</ele>
        <time>2019-06-27T08:22:49Z</time>
      </trkpt>
      <trkpt lat="43.217576" lon="-2.927041">
        <ele>373.6</ele>
        <time>2019-06-27T08:22:49Z</time>
      </trkpt>
      <trkpt lat="43.217664" lon="-2.927087">
        <ele>374.4</ele>
        <time>2019-06-27T08:22:49Z</time>
      </trkpt>
      <trkpt lat="43.217750" lon="-2.927144">
        <ele>376.3</ele>
        <time>2019-06-27T08:22:49Z</time>
      </trkpt>
      <trkpt lat="43.217829" lon="-2.927226">
        <ele>379.0</ele>
        <time>2019-06-27T08:22:49Z</time>
      </trkpt>
      <trkpt lat="43.217910" lon="-2.927307">
        <ele>379.9</ele>
        <time>2019-06-27T08:22:49Z</time>
      </trkpt>
      <trkpt lat="43.217991" lon="-2.927374">
        <ele>381.0</ele>
        <time>2019-06-27T08:22:49Z</time>
      </trkpt>
      <trkpt lat="43.218070" lon="-2.927448">
        <ele>380.9</ele>
        <time>2019-06-27T08:22:49Z</time>
      </trkpt>
      <trkpt lat="43.218149" lon="-2.927528">
        <ele>380.9</ele>
        <time>2019-06-27T08:22:49Z</time>
      </trkpt>
      <trkpt lat="43.218227" lon="-2.927609">
        <ele>381.6</ele>
        <time>2019-06-27T08:22:49Z</time>
      </trkpt>
      <trkpt lat="43.218301" lon="-2.927701">
        <ele>383.0</ele>
        <time>2019-06-27T08:22:49Z</time>
      </trkpt>
      <trkpt lat="43.218372" lon="-2.927797">
        <ele>383.6</ele>
        <time>2019-06-27T08:22:49Z</time>
      </trkpt>
      <trkpt lat="43.218440" lon="-2.927882">
        <ele>384.0</ele>
        <time>2019-06-27T08:22:49Z</time>
      </trkpt>
      <trkpt lat="43.218507" lon="-2.927967">
        <ele>385.0</ele>
        <time>2019-06-27T08:22:49Z</time>
      </trkpt>
      <trkpt lat="43.218547" lon="-2.928063">
        <ele>385.8</ele>
        <time>2019-06-27T08:22:49Z</time>
      </trkpt>
      <trkpt lat="43.218587" lon="-2.928159">
        <ele>386.4</ele>
        <time>2019-06-27T08:22:49Z</time>
      </trkpt>
      <trkpt lat="43.218621" lon="-2.928254">
        <ele>387.2</ele>
        <time>2019-06-27T08:22:49Z</time>
      </trkpt>
      <trkpt lat="43.218628" lon="-2.928352">
        <ele>387.7</ele>
        <time>2019-06-27T08:22:49Z</time>
      </trkpt>
      <trkpt lat="43.218604" lon="-2.928444">
        <ele>388.7</ele>
        <time>2019-06-27T08:22:49Z</time>
      </trkpt>
      <trkpt lat="43.218588" lon="-2.928561">
        <ele>388.7</ele>
        <time>2019-06-27T08:22:49Z</time>
      </trkpt>
      <trkpt lat="43.218574" lon="-2.928682">
        <ele>389.1</ele>
        <time>2019-06-27T08:22:49Z</time>
      </trkpt>
      <trkpt lat="43.218554" lon="-2.928802">
        <ele>390.0</ele>
        <time>2019-06-27T08:22:49Z</time>
      </trkpt>
      <trkpt lat="43.218526" lon="-2.928914">
        <ele>390.8</ele>
        <time>2019-06-27T08:22:49Z</time>
      </trkpt>
      <trkpt lat="43.218498" lon="-2.929027">
        <ele>390.2</ele>
        <time>2019-06-27T08:22:49Z</time>
      </trkpt>
      <trkpt lat="43.218456" lon="-2.929124">
        <ele>391.3</ele>
        <time>2019-06-27T08:22:49Z</time>
      </trkpt>
      <trkpt lat="43.218415" lon="-2.929220">
        <ele>392.8</ele>
        <time>2019-06-27T08:22:49Z</time>
      </trkpt>
      <trkpt lat="43.218379" lon="-2.929335">
        <ele>393.4</ele>
        <time>2019-06-27T08:22:49Z</time>
      </trkpt>
      <trkpt lat="43.218342" lon="-2.929450">
        <ele>394.4</ele>
        <time>2019-06-27T08:22:49Z</time>
      </trkpt>
      <trkpt lat="43.218304" lon="-2.929564">
        <ele>396.1</ele>
        <time>2019-06-27T08:22:49Z</time>
      </trkpt>
      <trkpt lat="43.218268" lon="-2.929658">
        <ele>396.7</ele>
        <time>2019-06-27T08:22:49Z</time>
      </trkpt>
      <trkpt lat="43.218228" lon="-2.929764">
        <ele>398.3</ele>
        <time>2019-06-27T08:22:49Z</time>
      </trkpt>
      <trkpt lat="43.218178" lon="-2.929884">
        <ele>398.5</ele>
        <time>2019-06-27T08:22:49Z</time>
      </trkpt>
      <trkpt lat="43.218130" lon="-2.930002">
        <ele>399.8</ele>
        <time>2019-06-27T08:22:49Z</time>
      </trkpt>
      <trkpt lat="43.218081" lon="-2.930120">
        <ele>400.5</ele>
        <time>2019-06-27T08:22:49Z</time>
      </trkpt>
      <trkpt lat="43.218033" lon="-2.930239">
        <ele>399.3</ele>
        <time>2019-06-27T08:22:49Z</time>
      </trkpt>
      <trkpt lat="43.217992" lon="-2.930339">
        <ele>399.2</ele>
        <time>2019-06-27T08:22:49Z</time>
      </trkpt>
      <trkpt lat="43.217956" lon="-2.930444">
        <ele>400.6</ele>
        <time>2019-06-27T08:22:49Z</time>
      </trkpt>
      <trkpt lat="43.217921" lon="-2.930550">
        <ele>402.1</ele>
        <time>2019-06-27T08:22:49Z</time>
      </trkpt>
      <trkpt lat="43.217886" lon="-2.930655">
        <ele>403.7</ele>
        <time>2019-06-27T08:22:49Z</time>
      </trkpt>
      <trkpt lat="43.217850" lon="-2.930760">
        <ele>405.3</ele>
        <time>2019-06-27T08:22:49Z</time>
      </trkpt>
      <trkpt lat="43.217837" lon="-2.930875">
        <ele>407.1</ele>
        <time>2019-06-27T08:22:49Z</time>
      </trkpt>
      <trkpt lat="43.217823" lon="-2.930990">
        <ele>409.6</ele>
        <time>2019-06-27T08:22:49Z</time>
      </trkpt>
      <trkpt lat="43.217817" lon="-2.931105">
        <ele>411.8</ele>
        <time>2019-06-27T08:22:49Z</time>
      </trkpt>
      <trkpt lat="43.217812" lon="-2.931220">
        <ele>413.9</ele>
        <time>2019-06-27T08:22:49Z</time>
      </trkpt>
      <trkpt lat="43.217806" lon="-2.931335">
        <ele>416.6</ele>
        <time>2019-06-27T08:22:49Z</time>
      </trkpt>
      <trkpt lat="43.217800" lon="-2.931450">
        <ele>419.0</ele>
        <time>2019-06-27T08:22:49Z</time>
      </trkpt>
      <trkpt lat="43.217795" lon="-2.931565">
        <ele>420.7</ele>
        <time>2019-06-27T08:22:49Z</time>
      </trkpt>
      <trkpt lat="43.217789" lon="-2.931680">
        <ele>422.0</ele>
        <time>2019-06-27T08:22:49Z</time>
      </trkpt>
      <trkpt lat="43.217778" lon="-2.931795">
        <ele>423.5</ele>
        <time>2019-06-27T08:22:49Z</time>
      </trkpt>
      <trkpt lat="43.217742" lon="-2.931894">
        <ele>425.9</ele>
        <time>2019-06-27T08:22:49Z</time>
      </trkpt>
      <trkpt lat="43.217701" lon="-2.931993">
        <ele>427.9</ele>
        <time>2019-06-27T08:22:49Z</time>
      </trkpt>
      <trkpt lat="43.217641" lon="-2.932046">
        <ele>430.6</ele>
        <time>2019-06-27T08:22:49Z</time>
      </trkpt>
      <trkpt lat="43.217588" lon="-2.932082">
        <ele>432.5</ele>
        <time>2019-06-27T08:22:49Z</time>
      </trkpt>
      <trkpt lat="43.217537" lon="-2.932098">
        <ele>433.6</ele>
        <time>2019-06-27T08:22:49Z</time>
      </trkpt>
      <trkpt lat="43.217530" lon="-2.931962">
        <ele>434.5</ele>
        <time>2019-06-27T08:22:49Z</time>
      </trkpt>
      <trkpt lat="43.217524" lon="-2.931826">
        <ele>434.8</ele>
        <time>2019-06-27T08:22:49Z</time>
      </trkpt>
      <trkpt lat="43.217517" lon="-2.931691">
        <ele>435.1</ele>
        <time>2019-06-27T08:22:49Z</time>
      </trkpt>
      <trkpt lat="43.217493" lon="-2.931578">
        <ele>435.2</ele>
        <time>2019-06-27T08:22:49Z</time>
      </trkpt>
      <trkpt lat="43.217457" lon="-2.931441">
        <ele>435.4</ele>
        <time>2019-06-27T08:22:49Z</time>
      </trkpt>
      <trkpt lat="43.217420" lon="-2.931304">
        <ele>435.6</ele>
        <time>2019-06-27T08:22:49Z</time>
      </trkpt>
      <trkpt lat="43.217393" lon="-2.931175">
        <ele>435.7</ele>
        <time>2019-06-27T08:22:49Z</time>
      </trkpt>
      <trkpt lat="43.217358" lon="-2.931039">
        <ele>436.1</ele>
        <time>2019-06-27T08:22:49Z</time>
      </trkpt>
      <trkpt lat="43.217335" lon="-2.930891">
        <ele>436.3</ele>
        <time>2019-06-27T08:22:49Z</time>
      </trkpt>
      <trkpt lat="43.217308" lon="-2.930756">
        <ele>438.3</ele>
        <time>2019-06-27T08:22:49Z</time>
      </trkpt>
      <trkpt lat="43.217293" lon="-2.930625">
        <ele>439.0</ele>
        <time>2019-06-27T08:22:49Z</time>
      </trkpt>
      <trkpt lat="43.217273" lon="-2.930498">
        <ele>439.9</ele>
        <time>2019-06-27T08:22:49Z</time>
      </trkpt>
      <trkpt lat="43.217254" lon="-2.930370">
        <ele>439.8</ele>
        <time>2019-06-27T08:22:49Z</time>
      </trkpt>
      <trkpt lat="43.217232" lon="-2.930245">
        <ele>440.7</ele>
        <time>2019-06-27T08:22:49Z</time>
      </trkpt>
      <trkpt lat="43.217202" lon="-2.930134">
        <ele>442.1</ele>
        <time>2019-06-27T08:22:49Z</time>
      </trkpt>
      <trkpt lat="43.217179" lon="-2.930023">
        <ele>443.1</ele>
        <time>2019-06-27T08:22:49Z</time>
      </trkpt>
      <trkpt lat="43.217151" lon="-2.929899">
        <ele>444.2</ele>
        <time>2019-06-27T08:22:49Z</time>
      </trkpt>
      <trkpt lat="43.217122" lon="-2.929776">
        <ele>445.3</ele>
        <time>2019-06-27T08:22:49Z</time>
      </trkpt>
      <trkpt lat="43.217066" lon="-2.929689">
        <ele>447.1</ele>
        <time>2019-06-27T08:22:49Z</time>
      </trkpt>
      <trkpt lat="43.216997" lon="-2.929625">
        <ele>449.2</ele>
        <time>2019-06-27T08:22:49Z</time>
      </trkpt>
      <trkpt lat="43.216927" lon="-2.929561">
        <ele>451.1</ele>
        <time>2019-06-27T08:22:49Z</time>
      </trkpt>
      <trkpt lat="43.216856" lon="-2.929502">
        <ele>452.7</ele>
        <time>2019-06-27T08:22:49Z</time>
      </trkpt>
      <trkpt lat="43.216780" lon="-2.929478">
        <ele>454.6</ele>
        <time>2019-06-27T08:22:49Z</time>
      </trkpt>
      <trkpt lat="43.216704" lon="-2.929447">
        <ele>456.1</ele>
        <time>2019-06-27T08:22:49Z</time>
      </trkpt>
      <trkpt lat="43.216635" lon="-2.929407">
        <ele>457.9</ele>
        <time>2019-06-27T08:22:49Z</time>
      </trkpt>
      <trkpt lat="43.216566" lon="-2.929375">
        <ele>459.3</ele>
        <time>2019-06-27T08:22:49Z</time>
      </trkpt>
      <trkpt lat="43.216494" lon="-2.929349">
        <ele>461.6</ele>
        <time>2019-06-27T08:22:49Z</time>
      </trkpt>
      <trkpt lat="43.216409" lon="-2.929331">
        <ele>463.7</ele>
        <time>2019-06-27T08:22:49Z</time>
      </trkpt>
      <trkpt lat="43.216324" lon="-2.929313">
        <ele>466.0</ele>
        <time>2019-06-27T08:22:49Z</time>
      </trkpt>
      <trkpt lat="43.216239" lon="-2.929295">
        <ele>468.0</ele>
        <time>2019-06-27T08:22:49Z</time>
      </trkpt>
      <trkpt lat="43.216154" lon="-2.929278">
        <ele>469.6</ele>
        <time>2019-06-27T08:22:49Z</time>
      </trkpt>
      <trkpt lat="43.216117" lon="-2.929283">
        <ele>470.5</ele>
        <time>2019-06-27T08:22:49Z</time>
      </trkpt>
      <trkpt lat="43.216145" lon="-2.929369">
        <ele>471.3</ele>
        <time>2019-06-27T08:22:49Z</time>
      </trkpt>
      <trkpt lat="43.216167" lon="-2.929484">
        <ele>472.6</ele>
        <time>2019-06-27T08:22:49Z</time>
      </trkpt>
      <trkpt lat="43.216185" lon="-2.929612">
        <ele>474.3</ele>
        <time>2019-06-27T08:22:49Z</time>
      </trkpt>
      <trkpt lat="43.216203" lon="-2.929741">
        <ele>476.2</ele>
        <time>2019-06-27T08:22:49Z</time>
      </trkpt>
      <trkpt lat="43.216229" lon="-2.929868">
        <ele>478.1</ele>
        <time>2019-06-27T08:22:49Z</time>
      </trkpt>
      <trkpt lat="43.216249" lon="-2.930000">
        <ele>479.4</ele>
        <time>2019-06-27T08:22:49Z</time>
      </trkpt>
      <trkpt lat="43.216269" lon="-2.930134">
        <ele>481.7</ele>
        <time>2019-06-27T08:22:49Z</time>
      </trkpt>
      <trkpt lat="43.216289" lon="-2.930276">
        <ele>483.1</ele>
        <time>2019-06-27T08:22:49Z</time>
      </trkpt>
      <trkpt lat="43.216309" lon="-2.930418">
        <ele>484.5</ele>
        <time>2019-06-27T08:22:49Z</time>
      </trkpt>
      <trkpt lat="43.216314" lon="-2.930556">
        <ele>485.5</ele>
        <time>2019-06-27T08:22:49Z</time>
      </trkpt>
      <trkpt lat="43.216318" lon="-2.930693">
        <ele>485.9</ele>
        <time>2019-06-27T08:22:49Z</time>
      </trkpt>
      <trkpt lat="43.216314" lon="-2.930829">
        <ele>486.5</ele>
        <time>2019-06-27T08:22:49Z</time>
      </trkpt>
      <trkpt lat="43.216311" lon="-2.930966">
        <ele>486.7</ele>
        <time>2019-06-27T08:22:49Z</time>
      </trkpt>
      <trkpt lat="43.216307" lon="-2.931103">
        <ele>487.8</ele>
        <time>2019-06-27T08:22:49Z</time>
      </trkpt>
      <trkpt lat="43.216303" lon="-2.931239">
        <ele>488.0</ele>
        <time>2019-06-27T08:22:49Z</time>
      </trkpt>
      <trkpt lat="43.216300" lon="-2.931376">
        <ele>489.2</ele>
        <time>2019-06-27T08:22:49Z</time>
      </trkpt>
      <trkpt lat="43.216290" lon="-2.931519">
        <ele>490.3</ele>
        <time>2019-06-27T08:22:49Z</time>
      </trkpt>
      <trkpt lat="43.216281" lon="-2.931662">
        <ele>491.5</ele>
        <time>2019-06-27T08:22:49Z</time>
      </trkpt>
      <trkpt lat="43.216271" lon="-2.931806">
        <ele>492.5</ele>
        <time>2019-06-27T08:22:49Z</time>
      </trkpt>
      <trkpt lat="43.216265" lon="-2.931949">
        <ele>492.7</ele>
        <time>2019-06-27T08:22:49Z</time>
      </trkpt>
      <trkpt lat="43.216244" lon="-2.932079">
        <ele>493.7</ele>
        <time>2019-06-27T08:22:49Z</time>
      </trkpt>
      <trkpt lat="43.216223" lon="-2.932209">
        <ele>493.7</ele>
        <time>2019-06-27T08:22:49Z</time>
      </trkpt>
      <trkpt lat="43.216205" lon="-2.932340">
        <ele>494.4</ele>
        <time>2019-06-27T08:22:49Z</time>
      </trkpt>
      <trkpt lat="43.216188" lon="-2.932472">
        <ele>496.2</ele>
        <time>2019-06-27T08:22:49Z</time>
      </trkpt>
      <trkpt lat="43.216180" lon="-2.932608">
        <ele>497.9</ele>
        <time>2019-06-27T08:22:49Z</time>
      </trkpt>
      <trkpt lat="43.216180" lon="-2.932745">
        <ele>500.1</ele>
        <time>2019-06-27T08:22:49Z</time>
      </trkpt>
      <trkpt lat="43.216221" lon="-2.932849">
        <ele>500.3</ele>
        <time>2019-06-27T08:22:49Z</time>
      </trkpt>
      <trkpt lat="43.216270" lon="-2.932942">
        <ele>500.6</ele>
        <time>2019-06-27T08:22:49Z</time>
      </trkpt>
      <trkpt lat="43.216319" lon="-2.933035">
        <ele>501.2</ele>
        <time>2019-06-27T08:22:49Z</time>
      </trkpt>
      <trkpt lat="43.216373" lon="-2.933120">
        <ele>501.5</ele>
        <time>2019-06-27T08:22:49Z</time>
      </trkpt>
      <trkpt lat="43.216427" lon="-2.933207">
        <ele>502.4</ele>
        <time>2019-06-27T08:22:49Z</time>
      </trkpt>
      <trkpt lat="43.216480" lon="-2.933297">
        <ele>502.7</ele>
        <time>2019-06-27T08:22:49Z</time>
      </trkpt>
      <trkpt lat="43.216534" lon="-2.933388">
        <ele>503.0</ele>
        <time>2019-06-27T08:22:49Z</time>
      </trkpt>
      <trkpt lat="43.216588" lon="-2.933478">
        <ele>504.1</ele>
        <time>2019-06-27T08:22:49Z</time>
      </trkpt>
      <trkpt lat="43.216642" lon="-2.933569">
        <ele>505.5</ele>
        <time>2019-06-27T08:22:49Z</time>
      </trkpt>
      <trkpt lat="43.216696" lon="-2.933659">
        <ele>506.4</ele>
        <time>2019-06-27T08:22:49Z</time>
      </trkpt>
      <trkpt lat="43.216738" lon="-2.933763">
        <ele>508.1</ele>
        <time>2019-06-27T08:22:49Z</time>
      </trkpt>
      <trkpt lat="43.216776" lon="-2.933880">
        <ele>509.6</ele>
        <time>2019-06-27T08:22:49Z</time>
      </trkpt>
      <trkpt lat="43.216822" lon="-2.933996">
        <ele>510.0</ele>
        <time>2019-06-27T08:22:49Z</time>
      </trkpt>
      <trkpt lat="43.216867" lon="-2.934112">
        <ele>510.3</ele>
        <time>2019-06-27T08:22:49Z</time>
      </trkpt>
      <trkpt lat="43.216907" lon="-2.934231">
        <ele>511.0</ele>
        <time>2019-06-27T08:22:49Z</time>
      </trkpt>
      <trkpt lat="43.216955" lon="-2.934351">
        <ele>512.0</ele>
        <time>2019-06-27T08:22:49Z</time>
      </trkpt>
      <trkpt lat="43.217003" lon="-2.934471">
        <ele>513.2</ele>
        <time>2019-06-27T08:22:49Z</time>
      </trkpt>
      <trkpt lat="43.217051" lon="-2.934592">
        <ele>514.3</ele>
        <time>2019-06-27T08:22:49Z</time>
      </trkpt>
      <trkpt lat="43.217099" lon="-2.934712">
        <ele>516.2</ele>
        <time>2019-06-27T08:22:49Z</time>
      </trkpt>
      <trkpt lat="43.217147" lon="-2.934833">
        <ele>517.5</ele>
        <time>2019-06-27T08:22:49Z</time>
      </trkpt>
      <trkpt lat="43.217195" lon="-2.934953">
        <ele>519.2</ele>
        <time>2019-06-27T08:22:49Z</time>
      </trkpt>
      <trkpt lat="43.217243" lon="-2.935073">
        <ele>520.7</ele>
        <time>2019-06-27T08:22:49Z</time>
      </trkpt>
      <trkpt lat="43.217302" lon="-2.935187">
        <ele>521.0</ele>
        <time>2019-06-27T08:22:49Z</time>
      </trkpt>
      <trkpt lat="43.217344" lon="-2.935303">
        <ele>521.1</ele>
        <time>2019-06-27T08:22:49Z</time>
      </trkpt>
      <trkpt lat="43.217367" lon="-2.935435">
        <ele>522.2</ele>
        <time>2019-06-27T08:22:49Z</time>
      </trkpt>
      <trkpt lat="43.217398" lon="-2.935572">
        <ele>522.6</ele>
        <time>2019-06-27T08:22:49Z</time>
      </trkpt>
      <trkpt lat="43.217416" lon="-2.935711">
        <ele>523.6</ele>
        <time>2019-06-27T08:22:49Z</time>
      </trkpt>
      <trkpt lat="43.217421" lon="-2.935856">
        <ele>524.2</ele>
        <time>2019-06-27T08:22:49Z</time>
      </trkpt>
      <trkpt lat="43.217409" lon="-2.936002">
        <ele>524.3</ele>
        <time>2019-06-27T08:22:49Z</time>
      </trkpt>
      <trkpt lat="43.217384" lon="-2.936137">
        <ele>524.4</ele>
        <time>2019-06-27T08:22:49Z</time>
      </trkpt>
      <trkpt lat="43.217360" lon="-2.936273">
        <ele>526.2</ele>
        <time>2019-06-27T08:22:49Z</time>
      </trkpt>
      <trkpt lat="43.217352" lon="-2.936421">
        <ele>526.9</ele>
        <time>2019-06-27T08:22:49Z</time>
      </trkpt>
      <trkpt lat="43.217345" lon="-2.936570">
        <ele>527.9</ele>
        <time>2019-06-27T08:22:49Z</time>
      </trkpt>
      <trkpt lat="43.217337" lon="-2.936719">
        <ele>530.2</ele>
        <time>2019-06-27T08:22:49Z</time>
      </trkpt>
      <trkpt lat="43.217344" lon="-2.936868">
        <ele>531.5</ele>
        <time>2019-06-27T08:22:49Z</time>
      </trkpt>
      <trkpt lat="43.217355" lon="-2.937018">
        <ele>532.5</ele>
        <time>2019-06-27T08:22:49Z</time>
      </trkpt>
      <trkpt lat="43.217400" lon="-2.937128">
        <ele>532.3</ele>
        <time>2019-06-27T08:22:49Z</time>
      </trkpt>
      <trkpt lat="43.217438" lon="-2.937245">
        <ele>531.8</ele>
        <time>2019-06-27T08:22:49Z</time>
      </trkpt>
      <trkpt lat="43.217477" lon="-2.937363">
        <ele>532.7</ele>
        <time>2019-06-27T08:22:49Z</time>
      </trkpt>
      <trkpt lat="43.217510" lon="-2.937488">
        <ele>533.2</ele>
        <time>2019-06-27T08:22:49Z</time>
      </trkpt>
      <trkpt lat="43.217543" lon="-2.937614">
        <ele>534.2</ele>
        <time>2019-06-27T08:22:49Z</time>
      </trkpt>
      <trkpt lat="43.217576" lon="-2.937740">
        <ele>535.4</ele>
        <time>2019-06-27T08:22:49Z</time>
      </trkpt>
      <trkpt lat="43.217609" lon="-2.937865">
        <ele>536.0</ele>
        <time>2019-06-27T08:22:49Z</time>
      </trkpt>
      <trkpt lat="43.217642" lon="-2.937991">
        <ele>536.6</ele>
        <time>2019-06-27T08:22:49Z</time>
      </trkpt>
      <trkpt lat="43.217675" lon="-2.938117">
        <ele>537.5</ele>
        <time>2019-06-27T08:22:49Z</time>
      </trkpt>
      <trkpt lat="43.217708" lon="-2.938243">
        <ele>537.8</ele>
        <time>2019-06-27T08:22:49Z</time>
      </trkpt>
      <trkpt lat="43.217749" lon="-2.938363">
        <ele>537.9</ele>
        <time>2019-06-27T08:22:49Z</time>
      </trkpt>
      <trkpt lat="43.217801" lon="-2.938475">
        <ele>538.4</ele>
        <time>2019-06-27T08:22:49Z</time>
      </trkpt>
      <trkpt lat="43.217853" lon="-2.938587">
        <ele>538.6</ele>
        <time>2019-06-27T08:22:49Z</time>
      </trkpt>
      <trkpt lat="43.217905" lon="-2.938699">
        <ele>538.9</ele>
        <time>2019-06-27T08:22:49Z</time>
      </trkpt>
      <trkpt lat="43.217941" lon="-2.938832">
        <ele>539.2</ele>
        <time>2019-06-27T08:22:49Z</time>
      </trkpt>
      <trkpt lat="43.217971" lon="-2.938966">
        <ele>540.0</ele>
        <time>2019-06-27T08:22:49Z</time>
      </trkpt>
      <trkpt lat="43.217986" lon="-2.939120">
        <ele>539.9</ele>
        <time>2019-06-27T08:22:49Z</time>
      </trkpt>
      <trkpt lat="43.217998" lon="-2.939275">
        <ele>540.3</ele>
        <time>2019-06-27T08:22:49Z</time>
      </trkpt>
      <trkpt lat="43.218026" lon="-2.939434">
        <ele>540.7</ele>
        <time>2019-06-27T08:22:49Z</time>
      </trkpt>
      <trkpt lat="43.218077" lon="-2.939570">
        <ele>541.1</ele>
        <time>2019-06-27T08:22:49Z</time>
      </trkpt>
      <trkpt lat="43.218128" lon="-2.939707">
        <ele>541.3</ele>
        <time>2019-06-27T08:22:49Z</time>
      </trkpt>
      <trkpt lat="43.218188" lon="-2.939838">
        <ele>541.5</ele>
        <time>2019-06-27T08:22:49Z</time>
      </trkpt>
      <trkpt lat="43.218248" lon="-2.939969">
        <ele>541.8</ele>
        <time>2019-06-27T08:22:49Z</time>
      </trkpt>
      <trkpt lat="43.218308" lon="-2.940100">
        <ele>541.4</ele>
        <time>2019-06-27T08:22:49Z</time>
      </trkpt>
      <trkpt lat="43.218364" lon="-2.940216">
        <ele>542.3</ele>
        <time>2019-06-27T08:22:49Z</time>
      </trkpt>
      <trkpt lat="43.218430" lon="-2.940297">
        <ele>543.2</ele>
        <time>2019-06-27T08:22:49Z</time>
      </trkpt>
      <trkpt lat="43.218514" lon="-2.940389">
        <ele>542.8</ele>
        <time>2019-06-27T08:22:49Z</time>
      </trkpt>
      <trkpt lat="43.218575" lon="-2.940505">
        <ele>544.4</ele>
        <time>2019-06-27T08:22:49Z</time>
      </trkpt>
      <trkpt lat="43.218638" lon="-2.940626">
        <ele>545.4</ele>
        <time>2019-06-27T08:22:49Z</time>
      </trkpt>
      <trkpt lat="43.218677" lon="-2.940758">
        <ele>546.2</ele>
        <time>2019-06-27T08:22:49Z</time>
      </trkpt>
      <trkpt lat="43.218718" lon="-2.940890">
        <ele>546.0</ele>
        <time>2019-06-27T08:22:49Z</time>
      </trkpt>
      <trkpt lat="43.218758" lon="-2.941023">
        <ele>546.3</ele>
        <time>2019-06-27T08:22:49Z</time>
      </trkpt>
      <trkpt lat="43.218772" lon="-2.941168">
        <ele>546.9</ele>
        <time>2019-06-27T08:22:49Z</time>
      </trkpt>
      <trkpt lat="43.218783" lon="-2.941314">
        <ele>547.1</ele>
        <time>2019-06-27T08:22:49Z</time>
      </trkpt>
      <trkpt lat="43.218789" lon="-2.941464">
        <ele>546.9</ele>
        <time>2019-06-27T08:22:49Z</time>
      </trkpt>
      <trkpt lat="43.218792" lon="-2.941607">
        <ele>546.7</ele>
        <time>2019-06-27T08:22:49Z</time>
      </trkpt>
      <trkpt lat="43.218795" lon="-2.941750">
        <ele>548.5</ele>
        <time>2019-06-27T08:22:49Z</time>
      </trkpt>
      <trkpt lat="43.218821" lon="-2.941890">
        <ele>549.4</ele>
        <time>2019-06-27T08:22:49Z</time>
      </trkpt>
      <trkpt lat="43.218848" lon="-2.942029">
        <ele>549.9</ele>
        <time>2019-06-27T08:22:49Z</time>
      </trkpt>
      <trkpt lat="43.218874" lon="-2.942168">
        <ele>549.8</ele>
        <time>2019-06-27T08:22:49Z</time>
      </trkpt>
      <trkpt lat="43.218886" lon="-2.942329">
        <ele>550.2</ele>
        <time>2019-06-27T08:22:49Z</time>
      </trkpt>
      <trkpt lat="43.218898" lon="-2.942490">
        <ele>550.0</ele>
        <time>2019-06-27T08:22:49Z</time>
      </trkpt>
      <trkpt lat="43.218900" lon="-2.942659">
        <ele>551.6</ele>
        <time>2019-06-27T08:22:49Z</time>
      </trkpt>
      <trkpt lat="43.218935" lon="-2.942803">
        <ele>552.5</ele>
        <time>2019-06-27T08:22:49Z</time>
      </trkpt>
      <trkpt lat="43.218993" lon="-2.942926">
        <ele>552.8</ele>
        <time>2019-06-27T08:22:49Z</time>
      </trkpt>
      <trkpt lat="43.219052" lon="-2.943049">
        <ele>552.3</ele>
        <time>2019-06-27T08:22:49Z</time>
      </trkpt>
      <trkpt lat="43.219114" lon="-2.943171">
        <ele>552.7</ele>
        <time>2019-06-27T08:22:49Z</time>
      </trkpt>
      <trkpt lat="43.219176" lon="-2.943292">
        <ele>552.7</ele>
        <time>2019-06-27T08:22:49Z</time>
      </trkpt>
      <trkpt lat="43.219234" lon="-2.943415">
        <ele>552.1</ele>
        <time>2019-06-27T08:22:49Z</time>
      </trkpt>
      <trkpt lat="43.219290" lon="-2.943512">
        <ele>552.1</ele>
        <time>2019-06-27T08:22:49Z</time>
      </trkpt>
      <trkpt lat="43.219355" lon="-2.943589">
        <ele>551.1</ele>
        <time>2019-06-27T08:22:49Z</time>
      </trkpt>
      <trkpt lat="43.219425" lon="-2.943654">
        <ele>550.5</ele>
        <time>2019-06-27T08:22:49Z</time>
      </trkpt>
      <trkpt lat="43.219508" lon="-2.943711">
        <ele>551.4</ele>
        <time>2019-06-27T08:22:49Z</time>
      </trkpt>
      <trkpt lat="43.219592" lon="-2.943767">
        <ele>552.5</ele>
        <time>2019-06-27T08:22:49Z</time>
      </trkpt>
      <trkpt lat="43.219675" lon="-2.943838">
        <ele>553.0</ele>
        <time>2019-06-27T08:22:49Z</time>
      </trkpt>
      <trkpt lat="43.219759" lon="-2.943908">
        <ele>553.4</ele>
        <time>2019-06-27T08:22:49Z</time>
      </trkpt>
      <trkpt lat="43.219842" lon="-2.943978">
        <ele>552.4</ele>
        <time>2019-06-27T08:22:49Z</time>
      </trkpt>
      <trkpt lat="43.219930" lon="-2.944041">
        <ele>552.1</ele>
        <time>2019-06-27T08:22:49Z</time>
      </trkpt>
      <trkpt lat="43.220016" lon="-2.944106">
        <ele>551.9</ele>
        <time>2019-06-27T08:22:49Z</time>
      </trkpt>
      <trkpt lat="43.220103" lon="-2.944170">
        <ele>552.4</ele>
        <time>2019-06-27T08:22:49Z</time>
      </trkpt>
      <trkpt lat="43.220189" lon="-2.944242">
        <ele>554.1</ele>
        <time>2019-06-27T08:22:49Z</time>
      </trkpt>
      <trkpt lat="43.220275" lon="-2.944323">
        <ele>556.2</ele>
        <time>2019-06-27T08:22:49Z</time>
      </trkpt>
      <trkpt lat="43.220360" lon="-2.944404">
        <ele>558.2</ele>
        <time>2019-06-27T08:22:49Z</time>
      </trkpt>
      <trkpt lat="43.220450" lon="-2.944486">
        <ele>559.9</ele>
        <time>2019-06-27T08:22:49Z</time>
      </trkpt>
      <trkpt lat="43.220539" lon="-2.944568">
        <ele>560.6</ele>
        <time>2019-06-27T08:22:49Z</time>
      </trkpt>
      <trkpt lat="43.220631" lon="-2.944648">
        <ele>561.1</ele>
        <time>2019-06-27T08:22:49Z</time>
      </trkpt>
      <trkpt lat="43.220724" lon="-2.944728">
        <ele>561.3</ele>
        <time>2019-06-27T08:22:49Z</time>
      </trkpt>
      <trkpt lat="43.220816" lon="-2.944799">
        <ele>561.9</ele>
        <time>2019-06-27T08:22:49Z</time>
      </trkpt>
      <trkpt lat="43.220921" lon="-2.944857">
        <ele>562.5</ele>
        <time>2019-06-27T08:22:49Z</time>
      </trkpt>
      <trkpt lat="43.221027" lon="-2.944913">
        <ele>561.9</ele>
        <time>2019-06-27T08:22:49Z</time>
      </trkpt>
      <trkpt lat="43.221132" lon="-2.944946">
        <ele>562.6</ele>
        <time>2019-06-27T08:22:49Z</time>
      </trkpt>
      <trkpt lat="43.221216" lon="-2.944939">
        <ele>562.3</ele>
        <time>2019-06-27T08:22:49Z</time>
      </trkpt>
      <trkpt lat="43.221298" lon="-2.944915">
        <ele>562.0</ele>
        <time>2019-06-27T08:22:49Z</time>
      </trkpt>
      <trkpt lat="43.221401" lon="-2.944874">
        <ele>562.2</ele>
        <time>2019-06-27T08:22:49Z</time>
      </trkpt>
      <trkpt lat="43.221485" lon="-2.944808">
        <ele>561.8</ele>
        <time>2019-06-27T08:22:49Z</time>
      </trkpt>
      <trkpt lat="43.221569" lon="-2.944741">
        <ele>561.3</ele>
        <time>2019-06-27T08:22:49Z</time>
      </trkpt>
      <trkpt lat="43.221654" lon="-2.944675">
        <ele>560.3</ele>
        <time>2019-06-27T08:22:49Z</time>
      </trkpt>
      <trkpt lat="43.221754" lon="-2.944664">
        <ele>559.0</ele>
        <time>2019-06-27T08:22:49Z</time>
      </trkpt>
      <trkpt lat="43.221847" lon="-2.944702">
        <ele>559.0</ele>
        <time>2019-06-27T08:22:49Z</time>
      </trkpt>
      <trkpt lat="43.221940" lon="-2.944741">
        <ele>559.7</ele>
        <time>2019-06-27T08:22:49Z</time>
      </trkpt>
      <trkpt lat="43.222033" lon="-2.944780">
        <ele>559.5</ele>
        <time>2019-06-27T08:22:49Z</time>
      </trkpt>
      <trkpt lat="43.222126" lon="-2.944819">
        <ele>560.6</ele>
        <time>2019-06-27T08:22:49Z</time>
      </trkpt>
      <trkpt lat="43.222213" lon="-2.944867">
        <ele>562.2</ele>
        <time>2019-06-27T08:22:49Z</time>
      </trkpt>
      <trkpt lat="43.222299" lon="-2.944916">
        <ele>562.8</ele>
        <time>2019-06-27T08:22:49Z</time>
      </trkpt>
      <trkpt lat="43.222385" lon="-2.944964">
        <ele>563.6</ele>
        <time>2019-06-27T08:22:49Z</time>
      </trkpt>
      <trkpt lat="43.222475" lon="-2.945024">
        <ele>564.6</ele>
        <time>2019-06-27T08:22:49Z</time>
      </trkpt>
      <trkpt lat="43.222564" lon="-2.945085">
        <ele>566.3</ele>
        <time>2019-06-27T08:22:49Z</time>
      </trkpt>
      <trkpt lat="43.222653" lon="-2.945148">
        <ele>567.4</ele>
        <time>2019-06-27T08:22:49Z</time>
      </trkpt>
      <trkpt lat="43.222740" lon="-2.945219">
        <ele>569.0</ele>
        <time>2019-06-27T08:22:49Z</time>
      </trkpt>
      <trkpt lat="43.222829" lon="-2.945291">
        <ele>570.6</ele>
        <time>2019-06-27T08:22:49Z</time>
      </trkpt>
      <trkpt lat="43.222917" lon="-2.945373">
        <ele>572.0</ele>
        <time>2019-06-27T08:22:49Z</time>
      </trkpt>
      <trkpt lat="43.223000" lon="-2.945460">
        <ele>574.4</ele>
        <time>2019-06-27T08:22:49Z</time>
      </trkpt>
      <trkpt lat="43.223083" lon="-2.945542">
        <ele>576.2</ele>
        <time>2019-06-27T08:22:49Z</time>
      </trkpt>
      <trkpt lat="43.223137" lon="-2.945613">
        <ele>576.8</ele>
        <time>2019-06-27T08:22:49Z</time>
      </trkpt>
      <trkpt lat="43.223087" lon="-2.945700">
        <ele>580.4</ele>
        <time>2019-06-27T08:22:49Z</time>
      </trkpt>
      <trkpt lat="43.223018" lon="-2.945693">
        <ele>580.1</ele>
        <time>2019-06-27T08:22:49Z</time>
      </trkpt>
      <trkpt lat="43.222948" lon="-2.945682">
        <ele>581.5</ele>
        <time>2019-06-27T08:22:49Z</time>
      </trkpt>
      <trkpt lat="43.222878" lon="-2.945671">
        <ele>583.5</ele>
        <time>2019-06-27T08:22:49Z</time>
      </trkpt>
      <trkpt lat="43.222783" lon="-2.945653">
        <ele>585.0</ele>
        <time>2019-06-27T08:22:49Z</time>
      </trkpt>
      <trkpt lat="43.222688" lon="-2.945640">
        <ele>586.7</ele>
        <time>2019-06-27T08:22:49Z</time>
      </trkpt>
      <trkpt lat="43.222594" lon="-2.945635">
        <ele>588.6</ele>
        <time>2019-06-27T08:22:49Z</time>
      </trkpt>
      <trkpt lat="43.222508" lon="-2.945620">
        <ele>590.0</ele>
        <time>2019-06-27T08:22:49Z</time>
      </trkpt>
      <trkpt lat="43.222415" lon="-2.945627">
        <ele>592.3</ele>
        <time>2019-06-27T08:22:49Z</time>
      </trkpt>
      <trkpt lat="43.222322" lon="-2.945633">
        <ele>594.1</ele>
        <time>2019-06-27T08:22:49Z</time>
      </trkpt>
      <trkpt lat="43.222230" lon="-2.945640">
        <ele>595.9</ele>
        <time>2019-06-27T08:22:49Z</time>
      </trkpt>
      <trkpt lat="43.222133" lon="-2.945645">
        <ele>597.6</ele>
        <time>2019-06-27T08:22:49Z</time>
      </trkpt>
      <trkpt lat="43.222013" lon="-2.945655">
        <ele>600.2</ele>
        <time>2019-06-27T08:22:49Z</time>
      </trkpt>
      <trkpt lat="43.221892" lon="-2.945664">
        <ele>602.1</ele>
        <time>2019-06-27T08:22:49Z</time>
      </trkpt>
      <trkpt lat="43.221774" lon="-2.945679">
        <ele>603.5</ele>
        <time>2019-06-27T08:22:49Z</time>
      </trkpt>
      <trkpt lat="43.221659" lon="-2.945704">
        <ele>605.4</ele>
        <time>2019-06-27T08:22:49Z</time>
      </trkpt>
      <trkpt lat="43.221562" lon="-2.945758">
        <ele>607.2</ele>
        <time>2019-06-27T08:22:49Z</time>
      </trkpt>
      <trkpt lat="43.221469" lon="-2.945822">
        <ele>609.3</ele>
        <time>2019-06-27T08:22:49Z</time>
      </trkpt>
      <trkpt lat="43.221377" lon="-2.945893">
        <ele>611.2</ele>
        <time>2019-06-27T08:22:49Z</time>
      </trkpt>
      <trkpt lat="43.221303" lon="-2.945929">
        <ele>611.7</ele>
        <time>2019-06-27T08:22:49Z</time>
      </trkpt>
      <trkpt lat="43.221229" lon="-2.945966">
        <ele>612.4</ele>
        <time>2019-06-27T08:22:49Z</time>
      </trkpt>
      <trkpt lat="43.221155" lon="-2.946002">
        <ele>614.5</ele>
        <time>2019-06-27T08:22:49Z</time>
      </trkpt>
      <trkpt lat="43.221055" lon="-2.946028">
        <ele>617.2</ele>
        <time>2019-06-27T08:22:49Z</time>
      </trkpt>
      <trkpt lat="43.220962" lon="-2.946002">
        <ele>617.8</ele>
        <time>2019-06-27T08:22:49Z</time>
      </trkpt>
      <trkpt lat="43.220865" lon="-2.945957">
        <ele>618.4</ele>
        <time>2019-06-27T08:22:49Z</time>
      </trkpt>
      <trkpt lat="43.220788" lon="-2.945916">
        <ele>619.4</ele>
        <time>2019-06-27T08:22:49Z</time>
      </trkpt>
      <trkpt lat="43.220711" lon="-2.945876">
        <ele>620.5</ele>
        <time>2019-06-27T08:22:49Z</time>
      </trkpt>
      <trkpt lat="43.220637" lon="-2.945848">
        <ele>621.9</ele>
        <time>2019-06-27T08:22:49Z</time>
      </trkpt>
      <trkpt lat="43.220563" lon="-2.945821">
        <ele>623.7</ele>
        <time>2019-06-27T08:22:49Z</time>
      </trkpt>
      <trkpt lat="43.220492" lon="-2.945813">
        <ele>625.0</ele>
        <time>2019-06-27T08:22:49Z</time>
      </trkpt>
      <trkpt lat="43.220411" lon="-2.945837">
        <ele>627.6</ele>
        <time>2019-06-27T08:22:49Z</time>
      </trkpt>
      <trkpt lat="43.220340" lon="-2.945861">
        <ele>628.4</ele>
        <time>2019-06-27T08:22:49Z</time>
      </trkpt>
      <trkpt lat="43.220286" lon="-2.945924">
        <ele>629.8</ele>
        <time>2019-06-27T08:22:49Z</time>
      </trkpt>
      <trkpt lat="43.220229" lon="-2.945985">
        <ele>630.7</ele>
        <time>2019-06-27T08:22:49Z</time>
      </trkpt>
      <trkpt lat="43.220172" lon="-2.946045">
        <ele>632.2</ele>
        <time>2019-06-27T08:22:49Z</time>
      </trkpt>
      <trkpt lat="43.220115" lon="-2.946104">
        <ele>633.3</ele>
        <time>2019-06-27T08:22:49Z</time>
      </trkpt>
      <trkpt lat="43.220058" lon="-2.946163">
        <ele>634.6</ele>
        <time>2019-06-27T08:22:49Z</time>
      </trkpt>
      <trkpt lat="43.220001" lon="-2.946223">
        <ele>636.2</ele>
        <time>2019-06-27T08:22:49Z</time>
      </trkpt>
      <trkpt lat="43.219944" lon="-2.946282">
        <ele>637.9</ele>
        <time>2019-06-27T08:22:49Z</time>
      </trkpt>
      <trkpt lat="43.219887" lon="-2.946341">
        <ele>639.5</ele>
        <time>2019-06-27T08:22:49Z</time>
      </trkpt>
      <trkpt lat="43.219824" lon="-2.946396">
        <ele>641.4</ele>
        <time>2019-06-27T08:22:49Z</time>
      </trkpt>
      <trkpt lat="43.219761" lon="-2.946452">
        <ele>643.7</ele>
        <time>2019-06-27T08:22:49Z</time>
      </trkpt>
      <trkpt lat="43.219698" lon="-2.946507">
        <ele>645.2</ele>
        <time>2019-06-27T08:22:49Z</time>
      </trkpt>
      <trkpt lat="43.219646" lon="-2.946571">
        <ele>645.3</ele>
        <time>2019-06-27T08:22:49Z</time>
      </trkpt>
      <trkpt lat="43.219724" lon="-2.946568">
        <ele>646.2</ele>
        <time>2019-06-27T08:22:49Z</time>
      </trkpt>
      <trkpt lat="43.219818" lon="-2.946553">
        <ele>645.1</ele>
        <time>2019-06-27T08:22:49Z</time>
      </trkpt>
      <trkpt lat="43.219856" lon="-2.946557">
        <ele>645.0</ele>
        <time>2019-06-27T08:22:49Z</time>
      </trkpt>
      <trkpt lat="43.219852" lon="-2.946644">
        <ele>645.8</ele>
        <time>2019-06-27T08:22:49Z</time>
      </trkpt>
      <trkpt lat="43.219874" lon="-2.946774">
        <ele>647.5</ele>
        <time>2019-06-27T08:22:49Z</time>
      </trkpt>
      <trkpt lat="43.219910" lon="-2.946916">
        <ele>648.9</ele>
        <time>2019-06-27T08:22:49Z</time>
      </trkpt>
      <trkpt lat="43.219945" lon="-2.947057">
        <ele>649.0</ele>
        <time>2019-06-27T08:22:49Z</time>
      </trkpt>
      <trkpt lat="43.219981" lon="-2.947199">
        <ele>649.5</ele>
        <time>2019-06-27T08:22:49Z</time>
      </trkpt>
      <trkpt lat="43.220026" lon="-2.947307">
        <ele>650.5</ele>
        <time>2019-06-27T08:22:49Z</time>
      </trkpt>
      <trkpt lat="43.220062" lon="-2.947423">
        <ele>650.6</ele>
        <time>2019-06-27T08:22:49Z</time>
      </trkpt>
      <trkpt lat="43.220106" lon="-2.947512">
        <ele>651.9</ele>
        <time>2019-06-27T08:22:49Z</time>
      </trkpt>
      <trkpt lat="43.220161" lon="-2.947586">
        <ele>653.5</ele>
        <time>2019-06-27T08:22:49Z</time>
      </trkpt>
      <trkpt lat="43.220246" lon="-2.947646">
        <ele>655.5</ele>
        <time>2019-06-27T08:22:49Z</time>
      </trkpt>
      <trkpt lat="43.220353" lon="-2.947662">
        <ele>658.7</ele>
        <time>2019-06-27T08:22:49Z</time>
      </trkpt>
      <trkpt lat="43.220460" lon="-2.947678">
        <ele>661.2</ele>
        <time>2019-06-27T08:22:49Z</time>
      </trkpt>
      <trkpt lat="43.220567" lon="-2.947694">
        <ele>664.5</ele>
        <time>2019-06-27T08:22:49Z</time>
      </trkpt>
      <trkpt lat="43.220674" lon="-2.947710">
        <ele>666.9</ele>
        <time>2019-06-27T08:22:49Z</time>
      </trkpt>
      <trkpt lat="43.220780" lon="-2.947726">
        <ele>670.5</ele>
        <time>2019-06-27T08:22:49Z</time>
      </trkpt>
      <trkpt lat="43.220887" lon="-2.947742">
        <ele>673.6</ele>
        <time>2019-06-27T08:22:49Z</time>
      </trkpt>
      <trkpt lat="43.220994" lon="-2.947758">
        <ele>677.0</ele>
        <time>2019-06-27T08:22:49Z</time>
      </trkpt>
      <trkpt lat="43.221104" lon="-2.947770">
        <ele>680.4</ele>
        <time>2019-06-27T08:22:49Z</time>
      </trkpt>
      <trkpt lat="43.221176" lon="-2.947785">
        <ele>682.0</ele>
        <time>2019-06-27T08:22:49Z</time>
      </trkpt>
      <trkpt lat="43.221250" lon="-2.947822">
        <ele>683.7</ele>
        <time>2019-06-27T08:22:49Z</time>
      </trkpt>
      <trkpt lat="43.221328" lon="-2.947858">
        <ele>685.4</ele>
        <time>2019-06-27T08:22:49Z</time>
      </trkpt>
      <trkpt lat="43.221393" lon="-2.947889">
        <ele>686.3</ele>
        <time>2019-06-27T08:22:49Z</time>
      </trkpt>
      <trkpt lat="43.221437" lon="-2.947778">
        <ele>687.0</ele>
        <time>2019-06-27T08:22:49Z</time>
      </trkpt>
      <trkpt lat="43.221467" lon="-2.947696">
        <ele>686.8</ele>
        <time>2019-06-27T08:22:49Z</time>
      </trkpt>
      <trkpt lat="43.221532" lon="-2.947650">
        <ele>686.6</ele>
        <time>2019-06-27T08:22:49Z</time>
      </trkpt>
      <trkpt lat="43.221626" lon="-2.947673">
        <ele>686.2</ele>
        <time>2019-06-27T08:22:49Z</time>
      </trkpt>
      <trkpt lat="43.221706" lon="-2.947748">
        <ele>686.5</ele>
        <time>2019-06-27T08:22:49Z</time>
      </trkpt>
      <trkpt lat="43.221780" lon="-2.947823">
        <ele>685.6</ele>
        <time>2019-06-27T08:22:49Z</time>
      </trkpt>
      <trkpt lat="43.221861" lon="-2.947846">
        <ele>683.8</ele>
        <time>2019-06-27T08:22:49Z</time>
      </trkpt>
      <trkpt lat="43.221963" lon="-2.947816">
        <ele>682.2</ele>
        <time>2019-06-27T08:22:49Z</time>
      </trkpt>
      <trkpt lat="43.222070" lon="-2.947809">
        <ele>681.6</ele>
        <time>2019-06-27T08:22:49Z</time>
      </trkpt>
      <trkpt lat="43.222177" lon="-2.947814">
        <ele>680.3</ele>
        <time>2019-06-27T08:22:49Z</time>
      </trkpt>
      <trkpt lat="43.222283" lon="-2.947819">
        <ele>679.4</ele>
        <time>2019-06-27T08:22:49Z</time>
      </trkpt>
      <trkpt lat="43.222390" lon="-2.947828">
        <ele>677.3</ele>
        <time>2019-06-27T08:22:49Z</time>
      </trkpt>
      <trkpt lat="43.222497" lon="-2.947837">
        <ele>674.6</ele>
        <time>2019-06-27T08:22:49Z</time>
      </trkpt>
      <trkpt lat="43.222604" lon="-2.947846">
        <ele>671.3</ele>
        <time>2019-06-27T08:22:49Z</time>
      </trkpt>
      <trkpt lat="43.222711" lon="-2.947843">
        <ele>669.0</ele>
        <time>2019-06-27T08:22:49Z</time>
      </trkpt>
      <trkpt lat="43.222821" lon="-2.947832">
        <ele>667.7</ele>
        <time>2019-06-27T08:22:49Z</time>
      </trkpt>
      <trkpt lat="43.222931" lon="-2.947821">
        <ele>666.4</ele>
        <time>2019-06-27T08:22:49Z</time>
      </trkpt>
      <trkpt lat="43.223030" lon="-2.947827">
        <ele>664.8</ele>
        <time>2019-06-27T08:22:49Z</time>
      </trkpt>
      <trkpt lat="43.223133" lon="-2.947850">
        <ele>662.0</ele>
        <time>2019-06-27T08:22:49Z</time>
      </trkpt>
      <trkpt lat="43.223241" lon="-2.947868">
        <ele>658.1</ele>
        <time>2019-06-27T08:22:49Z</time>
      </trkpt>
      <trkpt lat="43.223348" lon="-2.947890">
        <ele>654.5</ele>
        <time>2019-06-27T08:22:49Z</time>
      </trkpt>
      <trkpt lat="43.223455" lon="-2.947912">
        <ele>651.3</ele>
        <time>2019-06-27T08:22:49Z</time>
      </trkpt>
      <trkpt lat="43.223561" lon="-2.947938">
        <ele>649.5</ele>
        <time>2019-06-27T08:22:49Z</time>
      </trkpt>
      <trkpt lat="43.223668" lon="-2.947968">
        <ele>648.0</ele>
        <time>2019-06-27T08:22:49Z</time>
      </trkpt>
      <trkpt lat="43.223758" lon="-2.948021">
        <ele>647.1</ele>
        <time>2019-06-27T08:22:49Z</time>
      </trkpt>
      <trkpt lat="43.223858" lon="-2.948079">
        <ele>647.0</ele>
        <time>2019-06-27T08:22:49Z</time>
      </trkpt>
      <trkpt lat="43.223942" lon="-2.948142">
        <ele>648.4</ele>
        <time>2019-06-27T08:22:49Z</time>
      </trkpt>
      <trkpt lat="43.224017" lon="-2.948229">
        <ele>650.0</ele>
        <time>2019-06-27T08:22:49Z</time>
      </trkpt>
      <trkpt lat="43.224075" lon="-2.948282">
        <ele>651.0</ele>
        <time>2019-06-27T08:22:49Z</time>
      </trkpt>
      <trkpt lat="43.224126" lon="-2.948345">
        <ele>652.1</ele>
        <time>2019-06-27T08:22:49Z</time>
      </trkpt>
      <trkpt lat="43.224171" lon="-2.948411">
        <ele>652.6</ele>
        <time>2019-06-27T08:22:49Z</time>
      </trkpt>
      <trkpt lat="43.224206" lon="-2.948493">
        <ele>653.5</ele>
        <time>2019-06-27T08:22:49Z</time>
      </trkpt>
      <trkpt lat="43.224249" lon="-2.948577">
        <ele>654.0</ele>
        <time>2019-06-27T08:22:49Z</time>
      </trkpt>
      <trkpt lat="43.224294" lon="-2.948660">
        <ele>654.6</ele>
        <time>2019-06-27T08:22:49Z</time>
      </trkpt>
      <trkpt lat="43.224347" lon="-2.948761">
        <ele>654.5</ele>
        <time>2019-06-27T08:22:49Z</time>
      </trkpt>
      <trkpt lat="43.224399" lon="-2.948862">
        <ele>654.5</ele>
        <time>2019-06-27T08:22:49Z</time>
      </trkpt>
      <trkpt lat="43.224452" lon="-2.948963">
        <ele>654.0</ele>
        <time>2019-06-27T08:22:49Z</time>
      </trkpt>
      <trkpt lat="43.224505" lon="-2.949064">
        <ele>654.0</ele>
        <time>2019-06-27T08:22:49Z</time>
      </trkpt>
      <trkpt lat="43.224562" lon="-2.949168">
        <ele>653.9</ele>
        <time>2019-06-27T08:22:49Z</time>
      </trkpt>
      <trkpt lat="43.224623" lon="-2.949277">
        <ele>654.0</ele>
        <time>2019-06-27T08:22:49Z</time>
      </trkpt>
      <trkpt lat="43.224684" lon="-2.949388">
        <ele>654.0</ele>
        <time>2019-06-27T08:22:49Z</time>
      </trkpt>
      <trkpt lat="43.224743" lon="-2.949474">
        <ele>653.3</ele>
        <time>2019-06-27T08:22:49Z</time>
      </trkpt>
      <trkpt lat="43.224802" lon="-2.949560">
        <ele>652.9</ele>
        <time>2019-06-27T08:22:49Z</time>
      </trkpt>
      <trkpt lat="43.224860" lon="-2.949646">
        <ele>652.0</ele>
        <time>2019-06-27T08:22:49Z</time>
      </trkpt>
      <trkpt lat="43.224926" lon="-2.949718">
        <ele>650.4</ele>
        <time>2019-06-27T08:22:49Z</time>
      </trkpt>
      <trkpt lat="43.224985" lon="-2.949793">
        <ele>649.8</ele>
        <time>2019-06-27T08:22:49Z</time>
      </trkpt>
      <trkpt lat="43.225043" lon="-2.949868">
        <ele>649.0</ele>
        <time>2019-06-27T08:22:49Z</time>
      </trkpt>
      <trkpt lat="43.225109" lon="-2.949941">
        <ele>648.9</ele>
        <time>2019-06-27T08:22:49Z</time>
      </trkpt>
      <trkpt lat="43.225189" lon="-2.950007">
        <ele>649.1</ele>
        <time>2019-06-27T08:22:49Z</time>
      </trkpt>
      <trkpt lat="43.225269" lon="-2.950073">
        <ele>650.9</ele>
        <time>2019-06-27T08:22:49Z</time>
      </trkpt>
      <trkpt lat="43.225351" lon="-2.950152">
        <ele>652.0</ele>
        <time>2019-06-27T08:22:49Z</time>
      </trkpt>
      <trkpt lat="43.225427" lon="-2.950243">
        <ele>652.0</ele>
        <time>2019-06-27T08:22:49Z</time>
      </trkpt>
      <trkpt lat="43.225495" lon="-2.950337">
        <ele>650.6</ele>
        <time>2019-06-27T08:22:49Z</time>
      </trkpt>
      <trkpt lat="43.225562" lon="-2.950431">
        <ele>647.6</ele>
        <time>2019-06-27T08:22:49Z</time>
      </trkpt>
      <trkpt lat="43.225624" lon="-2.950524">
        <ele>645.7</ele>
        <time>2019-06-27T08:22:49Z</time>
      </trkpt>
      <trkpt lat="43.225680" lon="-2.950618">
        <ele>645.0</ele>
        <time>2019-06-27T08:22:49Z</time>
      </trkpt>
      <trkpt lat="43.225747" lon="-2.950705">
        <ele>645.0</ele>
        <time>2019-06-27T08:22:49Z</time>
      </trkpt>
      <trkpt lat="43.225815" lon="-2.950793">
        <ele>645.0</ele>
        <time>2019-06-27T08:22:49Z</time>
      </trkpt>
      <trkpt lat="43.225865" lon="-2.950902">
        <ele>644.4</ele>
        <time>2019-06-27T08:22:49Z</time>
      </trkpt>
      <trkpt lat="43.225901" lon="-2.951033">
        <ele>642.3</ele>
        <time>2019-06-27T08:22:49Z</time>
      </trkpt>
      <trkpt lat="43.225921" lon="-2.951154">
        <ele>640.8</ele>
        <time>2019-06-27T08:22:49Z</time>
      </trkpt>
      <trkpt lat="43.225942" lon="-2.951275">
        <ele>638.4</ele>
        <time>2019-06-27T08:22:49Z</time>
      </trkpt>
      <trkpt lat="43.225964" lon="-2.951397">
        <ele>636.9</ele>
        <time>2019-06-27T08:22:49Z</time>
      </trkpt>
      <trkpt lat="43.225986" lon="-2.951521">
        <ele>634.4</ele>
        <time>2019-06-27T08:22:49Z</time>
      </trkpt>
      <trkpt lat="43.226016" lon="-2.951646">
        <ele>633.1</ele>
        <time>2019-06-27T08:22:49Z</time>
      </trkpt>
      <trkpt lat="43.226039" lon="-2.951777">
        <ele>632.0</ele>
        <time>2019-06-27T08:22:49Z</time>
      </trkpt>
      <trkpt lat="43.226064" lon="-2.951907">
        <ele>630.5</ele>
        <time>2019-06-27T08:22:49Z</time>
      </trkpt>
      <trkpt lat="43.226089" lon="-2.952036">
        <ele>629.9</ele>
        <time>2019-06-27T08:22:49Z</time>
      </trkpt>
      <trkpt lat="43.226114" lon="-2.952166">
        <ele>629.3</ele>
        <time>2019-06-27T08:22:49Z</time>
      </trkpt>
      <trkpt lat="43.226139" lon="-2.952295">
        <ele>629.3</ele>
        <time>2019-06-27T08:22:49Z</time>
      </trkpt>
      <trkpt lat="43.226152" lon="-2.952434">
        <ele>628.5</ele>
        <time>2019-06-27T08:22:49Z</time>
      </trkpt>
      <trkpt lat="43.226165" lon="-2.952576">
        <ele>629.0</ele>
        <time>2019-06-27T08:22:49Z</time>
      </trkpt>
      <trkpt lat="43.226182" lon="-2.952708">
        <ele>629.7</ele>
        <time>2019-06-27T08:22:49Z</time>
      </trkpt>
      <trkpt lat="43.226193" lon="-2.952830">
        <ele>629.6</ele>
        <time>2019-06-27T08:22:49Z</time>
      </trkpt>
      <trkpt lat="43.226205" lon="-2.952951">
        <ele>630.0</ele>
        <time>2019-06-27T08:22:49Z</time>
      </trkpt>
      <trkpt lat="43.226216" lon="-2.953072">
        <ele>630.0</ele>
        <time>2019-06-27T08:22:49Z</time>
      </trkpt>
      <trkpt lat="43.226239" lon="-2.953196">
        <ele>629.0</ele>
        <time>2019-06-27T08:22:49Z</time>
      </trkpt>
      <trkpt lat="43.226274" lon="-2.953322">
        <ele>628.0</ele>
        <time>2019-06-27T08:22:49Z</time>
      </trkpt>
      <trkpt lat="43.226314" lon="-2.953446">
        <ele>627.8</ele>
        <time>2019-06-27T08:22:49Z</time>
      </trkpt>
      <trkpt lat="43.226354" lon="-2.953570">
        <ele>627.0</ele>
        <time>2019-06-27T08:22:49Z</time>
      </trkpt>
      <trkpt lat="43.226393" lon="-2.953699">
        <ele>626.0</ele>
        <time>2019-06-27T08:22:49Z</time>
      </trkpt>
      <trkpt lat="43.226433" lon="-2.953829">
        <ele>624.9</ele>
        <time>2019-06-27T08:22:49Z</time>
      </trkpt>
      <trkpt lat="43.226475" lon="-2.953958">
        <ele>623.2</ele>
        <time>2019-06-27T08:22:49Z</time>
      </trkpt>
      <trkpt lat="43.226517" lon="-2.954088">
        <ele>621.6</ele>
        <time>2019-06-27T08:22:49Z</time>
      </trkpt>
      <trkpt lat="43.226559" lon="-2.954217">
        <ele>620.0</ele>
        <time>2019-06-27T08:22:49Z</time>
      </trkpt>
      <trkpt lat="43.226601" lon="-2.954348">
        <ele>618.7</ele>
        <time>2019-06-27T08:22:49Z</time>
      </trkpt>
      <trkpt lat="43.226644" lon="-2.954479">
        <ele>617.1</ele>
        <time>2019-06-27T08:22:49Z</time>
      </trkpt>
      <trkpt lat="43.226693" lon="-2.954608">
        <ele>615.1</ele>
        <time>2019-06-27T08:22:49Z</time>
      </trkpt>
      <trkpt lat="43.226739" lon="-2.954738">
        <ele>613.0</ele>
        <time>2019-06-27T08:22:49Z</time>
      </trkpt>
      <trkpt lat="43.226777" lon="-2.954871">
        <ele>610.5</ele>
        <time>2019-06-27T08:22:49Z</time>
      </trkpt>
      <trkpt lat="43.226820" lon="-2.955005">
        <ele>608.4</ele>
        <time>2019-06-27T08:22:49Z</time>
      </trkpt>
      <trkpt lat="43.226864" lon="-2.955139">
        <ele>606.1</ele>
        <time>2019-06-27T08:22:49Z</time>
      </trkpt>
      <trkpt lat="43.226906" lon="-2.955261">
        <ele>603.7</ele>
        <time>2019-06-27T08:22:49Z</time>
      </trkpt>
      <trkpt lat="43.226948" lon="-2.955384">
        <ele>601.3</ele>
        <time>2019-06-27T08:22:49Z</time>
      </trkpt>
      <trkpt lat="43.226995" lon="-2.955504">
        <ele>598.4</ele>
        <time>2019-06-27T08:22:49Z</time>
      </trkpt>
      <trkpt lat="43.227056" lon="-2.955604">
        <ele>595.4</ele>
        <time>2019-06-27T08:22:49Z</time>
      </trkpt>
      <trkpt lat="43.227120" lon="-2.955701">
        <ele>593.4</ele>
        <time>2019-06-27T08:22:49Z</time>
      </trkpt>
      <trkpt lat="43.227183" lon="-2.955801">
        <ele>591.5</ele>
        <time>2019-06-27T08:22:49Z</time>
      </trkpt>
      <trkpt lat="43.227245" lon="-2.955900">
        <ele>589.9</ele>
        <time>2019-06-27T08:22:49Z</time>
      </trkpt>
      <trkpt lat="43.227308" lon="-2.956000">
        <ele>588.4</ele>
        <time>2019-06-27T08:22:49Z</time>
      </trkpt>
      <trkpt lat="43.227370" lon="-2.956100">
        <ele>586.9</ele>
        <time>2019-06-27T08:22:49Z</time>
      </trkpt>
      <trkpt lat="43.227433" lon="-2.956200">
        <ele>586.9</ele>
        <time>2019-06-27T08:22:49Z</time>
      </trkpt>
      <trkpt lat="43.227493" lon="-2.956299">
        <ele>586.0</ele>
        <time>2019-06-27T08:22:49Z</time>
      </trkpt>
      <trkpt lat="43.227545" lon="-2.956403">
        <ele>586.0</ele>
        <time>2019-06-27T08:22:49Z</time>
      </trkpt>
      <trkpt lat="43.227575" lon="-2.956516">
        <ele>585.9</ele>
        <time>2019-06-27T08:22:49Z</time>
      </trkpt>
      <trkpt lat="43.227592" lon="-2.956632">
        <ele>584.1</ele>
        <time>2019-06-27T08:22:49Z</time>
      </trkpt>
      <trkpt lat="43.227612" lon="-2.956754">
        <ele>583.0</ele>
        <time>2019-06-27T08:22:49Z</time>
      </trkpt>
      <trkpt lat="43.227631" lon="-2.956876">
        <ele>581.9</ele>
        <time>2019-06-27T08:22:49Z</time>
      </trkpt>
      <trkpt lat="43.227650" lon="-2.956999">
        <ele>581.8</ele>
        <time>2019-06-27T08:22:49Z</time>
      </trkpt>
      <trkpt lat="43.227669" lon="-2.957122">
        <ele>580.9</ele>
        <time>2019-06-27T08:22:49Z</time>
      </trkpt>
      <trkpt lat="43.227697" lon="-2.957249">
        <ele>580.0</ele>
        <time>2019-06-27T08:22:49Z</time>
      </trkpt>
      <trkpt lat="43.227725" lon="-2.957375">
        <ele>578.6</ele>
        <time>2019-06-27T08:22:49Z</time>
      </trkpt>
      <trkpt lat="43.227753" lon="-2.957502">
        <ele>577.1</ele>
        <time>2019-06-27T08:22:49Z</time>
      </trkpt>
      <trkpt lat="43.227783" lon="-2.957629">
        <ele>576.0</ele>
        <time>2019-06-27T08:22:49Z</time>
      </trkpt>
      <trkpt lat="43.227817" lon="-2.957754">
        <ele>575.0</ele>
        <time>2019-06-27T08:22:49Z</time>
      </trkpt>
      <trkpt lat="43.227859" lon="-2.957873">
        <ele>574.6</ele>
        <time>2019-06-27T08:22:49Z</time>
      </trkpt>
      <trkpt lat="43.227899" lon="-2.957988">
        <ele>573.7</ele>
        <time>2019-06-27T08:22:49Z</time>
      </trkpt>
      <trkpt lat="43.227941" lon="-2.958089">
        <ele>572.8</ele>
        <time>2019-06-27T08:22:49Z</time>
      </trkpt>
      <trkpt lat="43.227983" lon="-2.958190">
        <ele>571.9</ele>
        <time>2019-06-27T08:22:49Z</time>
      </trkpt>
      <trkpt lat="43.228025" lon="-2.958291">
        <ele>571.6</ele>
        <time>2019-06-27T08:22:49Z</time>
      </trkpt>
      <trkpt lat="43.228066" lon="-2.958392">
        <ele>570.0</ele>
        <time>2019-06-27T08:22:49Z</time>
      </trkpt>
      <trkpt lat="43.228108" lon="-2.958493">
        <ele>569.1</ele>
        <time>2019-06-27T08:22:49Z</time>
      </trkpt>
      <trkpt lat="43.228147" lon="-2.958594">
        <ele>568.7</ele>
        <time>2019-06-27T08:22:49Z</time>
      </trkpt>
      <trkpt lat="43.228188" lon="-2.958692">
        <ele>568.5</ele>
        <time>2019-06-27T08:22:49Z</time>
      </trkpt>
      <trkpt lat="43.228228" lon="-2.958791">
        <ele>568.4</ele>
        <time>2019-06-27T08:22:49Z</time>
      </trkpt>
      <trkpt lat="43.228273" lon="-2.958889">
        <ele>568.7</ele>
        <time>2019-06-27T08:22:49Z</time>
      </trkpt>
      <trkpt lat="43.228318" lon="-2.958988">
        <ele>569.0</ele>
        <time>2019-06-27T08:22:49Z</time>
      </trkpt>
      <trkpt lat="43.228364" lon="-2.959086">
        <ele>569.8</ele>
        <time>2019-06-27T08:22:49Z</time>
      </trkpt>
      <trkpt lat="43.228409" lon="-2.959184">
        <ele>570.6</ele>
        <time>2019-06-27T08:22:49Z</time>
      </trkpt>
      <trkpt lat="43.228461" lon="-2.959279">
        <ele>571.6</ele>
        <time>2019-06-27T08:22:49Z</time>
      </trkpt>
      <trkpt lat="43.228513" lon="-2.959362">
        <ele>573.1</ele>
        <time>2019-06-27T08:22:49Z</time>
      </trkpt>
      <trkpt lat="43.228559" lon="-2.959451">
        <ele>574.5</ele>
        <time>2019-06-27T08:22:49Z</time>
      </trkpt>
      <trkpt lat="43.228604" lon="-2.959540">
        <ele>575.0</ele>
        <time>2019-06-27T08:22:49Z</time>
      </trkpt>
      <trkpt lat="43.228647" lon="-2.959632">
        <ele>576.4</ele>
        <time>2019-06-27T08:22:49Z</time>
      </trkpt>
      <trkpt lat="43.228690" lon="-2.959724">
        <ele>577.0</ele>
        <time>2019-06-27T08:22:49Z</time>
      </trkpt>
      <trkpt lat="43.228738" lon="-2.959815">
        <ele>576.5</ele>
        <time>2019-06-27T08:22:49Z</time>
      </trkpt>
      <trkpt lat="43.228785" lon="-2.959907">
        <ele>576.1</ele>
        <time>2019-06-27T08:22:49Z</time>
      </trkpt>
      <trkpt lat="43.228838" lon="-2.959998">
        <ele>575.9</ele>
        <time>2019-06-27T08:22:49Z</time>
      </trkpt>
      <trkpt lat="43.228897" lon="-2.960070">
        <ele>574.4</ele>
        <time>2019-06-27T08:22:49Z</time>
      </trkpt>
      <trkpt lat="43.228957" lon="-2.960136">
        <ele>572.9</ele>
        <time>2019-06-27T08:22:49Z</time>
      </trkpt>
      <trkpt lat="43.229029" lon="-2.960189">
        <ele>571.2</ele>
        <time>2019-06-27T08:22:49Z</time>
      </trkpt>
      <trkpt lat="43.229107" lon="-2.960237">
        <ele>569.6</ele>
        <time>2019-06-27T08:22:49Z</time>
      </trkpt>
      <trkpt lat="43.229188" lon="-2.960275">
        <ele>569.0</ele>
        <time>2019-06-27T08:22:49Z</time>
      </trkpt>
      <trkpt lat="43.229269" lon="-2.960312">
        <ele>568.2</ele>
        <time>2019-06-27T08:22:49Z</time>
      </trkpt>
      <trkpt lat="43.229349" lon="-2.960356">
        <ele>568.9</ele>
        <time>2019-06-27T08:22:49Z</time>
      </trkpt>
      <trkpt lat="43.229428" lon="-2.960401">
        <ele>570.2</ele>
        <time>2019-06-27T08:22:49Z</time>
      </trkpt>
      <trkpt lat="43.229507" lon="-2.960445">
        <ele>572.6</ele>
        <time>2019-06-27T08:22:49Z</time>
      </trkpt>
      <trkpt lat="43.229587" lon="-2.960489">
        <ele>574.7</ele>
        <time>2019-06-27T08:22:49Z</time>
      </trkpt>
      <trkpt lat="43.229663" lon="-2.960542">
        <ele>576.0</ele>
        <time>2019-06-27T08:22:49Z</time>
      </trkpt>
      <trkpt lat="43.229740" lon="-2.960594">
        <ele>576.0</ele>
        <time>2019-06-27T08:22:49Z</time>
      </trkpt>
      <trkpt lat="43.229815" lon="-2.960652">
        <ele>575.9</ele>
        <time>2019-06-27T08:22:49Z</time>
      </trkpt>
      <trkpt lat="43.229890" lon="-2.960710">
        <ele>576.0</ele>
        <time>2019-06-27T08:22:49Z</time>
      </trkpt>
      <trkpt lat="43.229966" lon="-2.960768">
        <ele>576.0</ele>
        <time>2019-06-27T08:22:49Z</time>
      </trkpt>
      <trkpt lat="43.230041" lon="-2.960825">
        <ele>576.7</ele>
        <time>2019-06-27T08:22:49Z</time>
      </trkpt>
      <trkpt lat="43.230114" lon="-2.960891">
        <ele>577.0</ele>
        <time>2019-06-27T08:22:49Z</time>
      </trkpt>
      <trkpt lat="43.230186" lon="-2.960957">
        <ele>576.9</ele>
        <time>2019-06-27T08:22:49Z</time>
      </trkpt>
      <trkpt lat="43.230259" lon="-2.961023">
        <ele>575.9</ele>
        <time>2019-06-27T08:22:49Z</time>
      </trkpt>
      <trkpt lat="43.230335" lon="-2.961086">
        <ele>575.9</ele>
        <time>2019-06-27T08:22:49Z</time>
      </trkpt>
      <trkpt lat="43.230414" lon="-2.961146">
        <ele>576.0</ele>
        <time>2019-06-27T08:22:49Z</time>
      </trkpt>
      <trkpt lat="43.230498" lon="-2.961194">
        <ele>577.0</ele>
        <time>2019-06-27T08:22:49Z</time>
      </trkpt>
      <trkpt lat="43.230581" lon="-2.961242">
        <ele>577.8</ele>
        <time>2019-06-27T08:22:49Z</time>
      </trkpt>
      <trkpt lat="43.230655" lon="-2.961289">
        <ele>578.8</ele>
        <time>2019-06-27T08:22:49Z</time>
      </trkpt>
      <trkpt lat="43.230733" lon="-2.961336">
        <ele>580.2</ele>
        <time>2019-06-27T08:22:49Z</time>
      </trkpt>
      <trkpt lat="43.230811" lon="-2.961385">
        <ele>581.0</ele>
        <time>2019-06-27T08:22:49Z</time>
      </trkpt>
      <trkpt lat="43.230890" lon="-2.961447">
        <ele>582.7</ele>
        <time>2019-06-27T08:22:49Z</time>
      </trkpt>
      <trkpt lat="43.230946" lon="-2.961526">
        <ele>583.0</ele>
        <time>2019-06-27T08:22:49Z</time>
      </trkpt>
      <trkpt lat="43.230975" lon="-2.961632">
        <ele>581.9</ele>
        <time>2019-06-27T08:22:49Z</time>
      </trkpt>
      <trkpt lat="43.231004" lon="-2.961744">
        <ele>580.0</ele>
        <time>2019-06-27T08:22:49Z</time>
      </trkpt>
      <trkpt lat="43.231025" lon="-2.961860">
        <ele>578.1</ele>
        <time>2019-06-27T08:22:49Z</time>
      </trkpt>
      <trkpt lat="43.231042" lon="-2.961985">
        <ele>576.2</ele>
        <time>2019-06-27T08:22:49Z</time>
      </trkpt>
      <trkpt lat="43.231060" lon="-2.962109">
        <ele>573.8</ele>
        <time>2019-06-27T08:22:49Z</time>
      </trkpt>
      <trkpt lat="43.231084" lon="-2.962233">
        <ele>572.3</ele>
        <time>2019-06-27T08:22:49Z</time>
      </trkpt>
      <trkpt lat="43.231103" lon="-2.962361">
        <ele>570.3</ele>
        <time>2019-06-27T08:22:49Z</time>
      </trkpt>
      <trkpt lat="43.231130" lon="-2.962489">
        <ele>568.1</ele>
        <time>2019-06-27T08:22:49Z</time>
      </trkpt>
      <trkpt lat="43.231166" lon="-2.962624">
        <ele>565.1</ele>
        <time>2019-06-27T08:22:49Z</time>
      </trkpt>
      <trkpt lat="43.231195" lon="-2.962760">
        <ele>563.0</ele>
        <time>2019-06-27T08:22:49Z</time>
      </trkpt>
      <trkpt lat="43.231227" lon="-2.962887">
        <ele>560.4</ele>
        <time>2019-06-27T08:22:49Z</time>
      </trkpt>
      <trkpt lat="43.231259" lon="-2.963014">
        <ele>557.7</ele>
        <time>2019-06-27T08:22:49Z</time>
      </trkpt>
      <trkpt lat="43.231291" lon="-2.963141">
        <ele>555.2</ele>
        <time>2019-06-27T08:22:49Z</time>
      </trkpt>
      <trkpt lat="43.231326" lon="-2.963265">
        <ele>553.1</ele>
        <time>2019-06-27T08:22:49Z</time>
      </trkpt>
      <trkpt lat="43.231361" lon="-2.963389">
        <ele>551.3</ele>
        <time>2019-06-27T08:22:49Z</time>
      </trkpt>
      <trkpt lat="43.231388" lon="-2.963513">
        <ele>549.7</ele>
        <time>2019-06-27T08:22:49Z</time>
      </trkpt>
      <trkpt lat="43.231387" lon="-2.963623">
        <ele>548.7</ele>
        <time>2019-06-27T08:22:49Z</time>
      </trkpt>
      <trkpt lat="43.231403" lon="-2.963685">
        <ele>547.6</ele>
        <time>2019-06-27T08:22:49Z</time>
      </trkpt>
      <trkpt lat="43.231441" lon="-2.963661">
        <ele>547.1</ele>
        <time>2019-06-27T08:22:49Z</time>
      </trkpt>
      <trkpt lat="43.231453" lon="-2.963594">
        <ele>546.7</ele>
        <time>2019-06-27T08:22:49Z</time>
      </trkpt>
      <trkpt lat="43.231453" lon="-2.963510">
        <ele>547.1</ele>
        <time>2019-06-27T08:22:49Z</time>
      </trkpt>
      <trkpt lat="43.231453" lon="-2.963426">
        <ele>547.6</ele>
        <time>2019-06-27T08:22:49Z</time>
      </trkpt>
      <trkpt lat="43.231453" lon="-2.963342">
        <ele>547.6</ele>
        <time>2019-06-27T08:22:49Z</time>
      </trkpt>
      <trkpt lat="43.231454" lon="-2.963257">
        <ele>547.5</ele>
        <time>2019-06-27T08:22:49Z</time>
      </trkpt>
      <trkpt lat="43.231458" lon="-2.963173">
        <ele>547.2</ele>
        <time>2019-06-27T08:22:49Z</time>
      </trkpt>
      <trkpt lat="43.231464" lon="-2.963089">
        <ele>546.2</ele>
        <time>2019-06-27T08:22:49Z</time>
      </trkpt>
      <trkpt lat="43.231470" lon="-2.963005">
        <ele>545.9</ele>
        <time>2019-06-27T08:22:49Z</time>
      </trkpt>
      <trkpt lat="43.231480" lon="-2.962909">
        <ele>545.5</ele>
        <time>2019-06-27T08:22:49Z</time>
      </trkpt>
      <trkpt lat="43.231498" lon="-2.962796">
        <ele>544.6</ele>
        <time>2019-06-27T08:22:49Z</time>
      </trkpt>
      <trkpt lat="43.231524" lon="-2.962672">
        <ele>542.8</ele>
        <time>2019-06-27T08:22:49Z</time>
      </trkpt>
      <trkpt lat="43.231540" lon="-2.962516">
        <ele>541.7</ele>
        <time>2019-06-27T08:22:49Z</time>
      </trkpt>
      <trkpt lat="43.231543" lon="-2.962375">
        <ele>541.5</ele>
        <time>2019-06-27T08:22:49Z</time>
      </trkpt>
      <trkpt lat="43.231547" lon="-2.962234">
        <ele>541.3</ele>
        <time>2019-06-27T08:22:49Z</time>
      </trkpt>
      <trkpt lat="43.231561" lon="-2.962095">
        <ele>540.3</ele>
        <time>2019-06-27T08:22:49Z</time>
      </trkpt>
      <trkpt lat="43.231575" lon="-2.961955">
        <ele>539.4</ele>
        <time>2019-06-27T08:22:49Z</time>
      </trkpt>
      <trkpt lat="43.231589" lon="-2.961816">
        <ele>538.6</ele>
        <time>2019-06-27T08:22:49Z</time>
      </trkpt>
      <trkpt lat="43.231610" lon="-2.961674">
        <ele>538.1</ele>
        <time>2019-06-27T08:22:49Z</time>
      </trkpt>
      <trkpt lat="43.231631" lon="-2.961531">
        <ele>537.3</ele>
        <time>2019-06-27T08:22:49Z</time>
      </trkpt>
      <trkpt lat="43.231663" lon="-2.961396">
        <ele>537.2</ele>
        <time>2019-06-27T08:22:49Z</time>
      </trkpt>
      <trkpt lat="43.231701" lon="-2.961263">
        <ele>536.6</ele>
        <time>2019-06-27T08:22:49Z</time>
      </trkpt>
      <trkpt lat="43.231745" lon="-2.961130">
        <ele>536.1</ele>
        <time>2019-06-27T08:22:49Z</time>
      </trkpt>
      <trkpt lat="43.231771" lon="-2.961041">
        <ele>536.1</ele>
        <time>2019-06-27T08:22:49Z</time>
      </trkpt>
      <trkpt lat="43.231796" lon="-2.960951">
        <ele>536.2</ele>
        <time>2019-06-27T08:22:49Z</time>
      </trkpt>
      <trkpt lat="43.231847" lon="-2.960902">
        <ele>534.9</ele>
        <time>2019-06-27T08:22:49Z</time>
      </trkpt>
      <trkpt lat="43.231898" lon="-2.960843">
        <ele>532.9</ele>
        <time>2019-06-27T08:22:49Z</time>
      </trkpt>
      <trkpt lat="43.231950" lon="-2.960776">
        <ele>531.8</ele>
        <time>2019-06-27T08:22:49Z</time>
      </trkpt>
      <trkpt lat="43.232002" lon="-2.960704">
        <ele>530.6</ele>
        <time>2019-06-27T08:22:49Z</time>
      </trkpt>
      <trkpt lat="43.232053" lon="-2.960632">
        <ele>528.4</ele>
        <time>2019-06-27T08:22:49Z</time>
      </trkpt>
      <trkpt lat="43.232095" lon="-2.960560">
        <ele>525.8</ele>
        <time>2019-06-27T08:22:49Z</time>
      </trkpt>
      <trkpt lat="43.232124" lon="-2.960469">
        <ele>523.9</ele>
        <time>2019-06-27T08:22:49Z</time>
      </trkpt>
      <trkpt lat="43.232146" lon="-2.960381">
        <ele>521.6</ele>
        <time>2019-06-27T08:22:49Z</time>
      </trkpt>
      <trkpt lat="43.232196" lon="-2.960312">
        <ele>519.8</ele>
        <time>2019-06-27T08:22:49Z</time>
      </trkpt>
      <trkpt lat="43.232231" lon="-2.960220">
        <ele>518.0</ele>
        <time>2019-06-27T08:22:49Z</time>
      </trkpt>
      <trkpt lat="43.232273" lon="-2.960110">
        <ele>516.8</ele>
        <time>2019-06-27T08:22:49Z</time>
      </trkpt>
      <trkpt lat="43.232330" lon="-2.960010">
        <ele>513.6</ele>
        <time>2019-06-27T08:22:49Z</time>
      </trkpt>
      <trkpt lat="43.232376" lon="-2.959908">
        <ele>510.0</ele>
        <time>2019-06-27T08:22:49Z</time>
      </trkpt>
      <trkpt lat="43.232420" lon="-2.959789">
        <ele>505.8</ele>
        <time>2019-06-27T08:22:49Z</time>
      </trkpt>
      <trkpt lat="43.232464" lon="-2.959669">
        <ele>501.9</ele>
        <time>2019-06-27T08:22:49Z</time>
      </trkpt>
      <trkpt lat="43.232507" lon="-2.959550">
        <ele>498.0</ele>
        <time>2019-06-27T08:22:49Z</time>
      </trkpt>
      <trkpt lat="43.232553" lon="-2.959436">
        <ele>493.8</ele>
        <time>2019-06-27T08:22:49Z</time>
      </trkpt>
      <trkpt lat="43.232591" lon="-2.959413">
        <ele>491.1</ele>
        <time>2019-06-27T08:22:49Z</time>
      </trkpt>
      <trkpt lat="43.232600" lon="-2.959368">
        <ele>489.5</ele>
        <time>2019-06-27T08:22:49Z</time>
      </trkpt>
      <trkpt lat="43.232641" lon="-2.959361">
        <ele>487.1</ele>
        <time>2019-06-27T08:22:49Z</time>
      </trkpt>
      <trkpt lat="43.232649" lon="-2.959299">
        <ele>485.0</ele>
        <time>2019-06-27T08:22:49Z</time>
      </trkpt>
      <trkpt lat="43.232643" lon="-2.959236">
        <ele>483.9</ele>
        <time>2019-06-27T08:22:49Z</time>
      </trkpt>
      <trkpt lat="43.232651" lon="-2.959189">
        <ele>482.8</ele>
        <time>2019-06-27T08:22:49Z</time>
      </trkpt>
      <trkpt lat="43.232684" lon="-2.959160">
        <ele>480.7</ele>
        <time>2019-06-27T08:22:49Z</time>
      </trkpt>
      <trkpt lat="43.232706" lon="-2.959116">
        <ele>478.3</ele>
        <time>2019-06-27T08:22:49Z</time>
      </trkpt>
      <trkpt lat="43.232715" lon="-2.959065">
        <ele>476.9</ele>
        <time>2019-06-27T08:22:49Z</time>
      </trkpt>
      <trkpt lat="43.232727" lon="-2.959013">
        <ele>475.3</ele>
        <time>2019-06-27T08:22:49Z</time>
      </trkpt>
      <trkpt lat="43.232755" lon="-2.959016">
        <ele>474.3</ele>
        <time>2019-06-27T08:22:49Z</time>
      </trkpt>
      <trkpt lat="43.232778" lon="-2.958937">
        <ele>471.7</ele>
        <time>2019-06-27T08:22:49Z</time>
      </trkpt>
      <trkpt lat="43.232796" lon="-2.958858">
        <ele>469.9</ele>
        <time>2019-06-27T08:22:49Z</time>
      </trkpt>
      <trkpt lat="43.232827" lon="-2.958826">
        <ele>467.9</ele>
        <time>2019-06-27T08:22:49Z</time>
      </trkpt>
      <trkpt lat="43.232842" lon="-2.958738">
        <ele>465.0</ele>
        <time>2019-06-27T08:22:49Z</time>
      </trkpt>
      <trkpt lat="43.232886" lon="-2.958731">
        <ele>463.8</ele>
        <time>2019-06-27T08:22:49Z</time>
      </trkpt>
      <trkpt lat="43.232911" lon="-2.958583">
        <ele>458.7</ele>
        <time>2019-06-27T08:22:49Z</time>
      </trkpt>
      <trkpt lat="43.232936" lon="-2.958435">
        <ele>454.1</ele>
        <time>2019-06-27T08:22:49Z</time>
      </trkpt>
      <trkpt lat="43.233060" lon="-2.958359">
        <ele>448.0</ele>
        <time>2019-06-27T08:22:49Z</time>
      </trkpt>
      <trkpt lat="43.233038" lon="-2.958272">
        <ele>446.3</ele>
        <time>2019-06-27T08:22:49Z</time>
      </trkpt>
      <trkpt lat="43.233075" lon="-2.958245">
        <ele>444.6</ele>
        <time>2019-06-27T08:22:49Z</time>
      </trkpt>
      <trkpt lat="43.233088" lon="-2.958191">
        <ele>442.3</ele>
        <time>2019-06-27T08:22:49Z</time>
      </trkpt>
      <trkpt lat="43.233121" lon="-2.958181">
        <ele>440.7</ele>
        <time>2019-06-27T08:22:49Z</time>
      </trkpt>
      <trkpt lat="43.233129" lon="-2.958093">
        <ele>438.3</ele>
        <time>2019-06-27T08:22:49Z</time>
      </trkpt>
      <trkpt lat="43.233160" lon="-2.957991">
        <ele>434.6</ele>
        <time>2019-06-27T08:22:49Z</time>
      </trkpt>
      <trkpt lat="43.233203" lon="-2.957991">
        <ele>432.6</ele>
        <time>2019-06-27T08:22:49Z</time>
      </trkpt>
      <trkpt lat="43.233197" lon="-2.957954">
        <ele>431.7</ele>
        <time>2019-06-27T08:22:49Z</time>
      </trkpt>
      <trkpt lat="43.233219" lon="-2.957928">
        <ele>429.5</ele>
        <time>2019-06-27T08:22:49Z</time>
      </trkpt>
      <trkpt lat="43.233197" lon="-2.957855">
        <ele>428.5</ele>
        <time>2019-06-27T08:22:49Z</time>
      </trkpt>
      <trkpt lat="43.233249" lon="-2.957768">
        <ele>423.4</ele>
        <time>2019-06-27T08:22:49Z</time>
      </trkpt>
      <trkpt lat="43.233290" lon="-2.957743">
        <ele>420.8</ele>
        <time>2019-06-27T08:22:49Z</time>
      </trkpt>
      <trkpt lat="43.233259" lon="-2.957625">
        <ele>418.3</ele>
        <time>2019-06-27T08:22:49Z</time>
      </trkpt>
      <trkpt lat="43.233371" lon="-2.957562">
        <ele>412.3</ele>
        <time>2019-06-27T08:22:49Z</time>
      </trkpt>
      <trkpt lat="43.233480" lon="-2.957504">
        <ele>404.4</ele>
        <time>2019-06-27T08:22:49Z</time>
      </trkpt>
      <trkpt lat="43.233542" lon="-2.957430">
        <ele>398.5</ele>
        <time>2019-06-27T08:22:49Z</time>
      </trkpt>
      <trkpt lat="43.233562" lon="-2.957327">
        <ele>395.2</ele>
        <time>2019-06-27T08:22:49Z</time>
      </trkpt>
      <trkpt lat="43.233603" lon="-2.957202">
        <ele>389.2</ele>
        <time>2019-06-27T08:22:49Z</time>
      </trkpt>
      <trkpt lat="43.233626" lon="-2.957127">
        <ele>386.3</ele>
        <time>2019-06-27T08:22:49Z</time>
      </trkpt>
      <trkpt lat="43.233618" lon="-2.956976">
        <ele>381.6</ele>
        <time>2019-06-27T08:22:49Z</time>
      </trkpt>
      <trkpt lat="43.233666" lon="-2.956848">
        <ele>376.3</ele>
        <time>2019-06-27T08:22:49Z</time>
      </trkpt>
      <trkpt lat="43.233723" lon="-2.956714">
        <ele>370.7</ele>
        <time>2019-06-27T08:22:49Z</time>
      </trkpt>
      <trkpt lat="43.233785" lon="-2.956587">
        <ele>366.1</ele>
        <time>2019-06-27T08:22:49Z</time>
      </trkpt>
      <trkpt lat="43.233845" lon="-2.956492">
        <ele>361.2</ele>
        <time>2019-06-27T08:22:49Z</time>
      </trkpt>
      <trkpt lat="43.233957" lon="-2.956481">
        <ele>357.8</ele>
        <time>2019-06-27T08:22:49Z</time>
      </trkpt>
      <trkpt lat="43.234059" lon="-2.956493">
        <ele>355.5</ele>
        <time>2019-06-27T08:22:49Z</time>
      </trkpt>
      <trkpt lat="43.234139" lon="-2.956538">
        <ele>354.7</ele>
        <time>2019-06-27T08:22:49Z</time>
      </trkpt>
      <trkpt lat="43.234219" lon="-2.956489">
        <ele>354.0</ele>
        <time>2019-06-27T08:22:49Z</time>
      </trkpt>
      <trkpt lat="43.234290" lon="-2.956416">
        <ele>352.8</ele>
        <time>2019-06-27T08:22:49Z</time>
      </trkpt>
      <trkpt lat="43.234363" lon="-2.956344">
        <ele>351.2</ele>
        <time>2019-06-27T08:22:49Z</time>
      </trkpt>
      <trkpt lat="43.234436" lon="-2.956271">
        <ele>349.1</ele>
        <time>2019-06-27T08:22:49Z</time>
      </trkpt>
      <trkpt lat="43.234420" lon="-2.956161">
        <ele>348.1</ele>
        <time>2019-06-27T08:22:49Z</time>
      </trkpt>
      <trkpt lat="43.234383" lon="-2.956055">
        <ele>345.7</ele>
        <time>2019-06-27T08:22:49Z</time>
      </trkpt>
      <trkpt lat="43.234338" lon="-2.955950">
        <ele>343.3</ele>
        <time>2019-06-27T08:22:49Z</time>
      </trkpt>
      <trkpt lat="43.234312" lon="-2.955831">
        <ele>341.0</ele>
        <time>2019-06-27T08:22:49Z</time>
      </trkpt>
      <trkpt lat="43.234299" lon="-2.955725">
        <ele>337.8</ele>
        <time>2019-06-27T08:22:49Z</time>
      </trkpt>
      <trkpt lat="43.234325" lon="-2.955671">
        <ele>335.5</ele>
        <time>2019-06-27T08:22:49Z</time>
      </trkpt>
      <trkpt lat="43.234382" lon="-2.955720">
        <ele>336.1</ele>
        <time>2019-06-27T08:22:49Z</time>
      </trkpt>
      <trkpt lat="43.234441" lon="-2.955782">
        <ele>336.5</ele>
        <time>2019-06-27T08:22:49Z</time>
      </trkpt>
      <trkpt lat="43.234498" lon="-2.955867">
        <ele>337.9</ele>
        <time>2019-06-27T08:22:49Z</time>
      </trkpt>
      <trkpt lat="43.234571" lon="-2.955946">
        <ele>339.1</ele>
        <time>2019-06-27T08:22:49Z</time>
      </trkpt>
      <trkpt lat="43.234643" lon="-2.956026">
        <ele>338.0</ele>
        <time>2019-06-27T08:22:49Z</time>
      </trkpt>
      <trkpt lat="43.234725" lon="-2.956096">
        <ele>337.3</ele>
        <time>2019-06-27T08:22:49Z</time>
      </trkpt>
      <trkpt lat="43.234778" lon="-2.956177">
        <ele>337.0</ele>
        <time>2019-06-27T08:22:49Z</time>
      </trkpt>
      <trkpt lat="43.234835" lon="-2.956291">
        <ele>337.0</ele>
        <time>2019-06-27T08:22:49Z</time>
      </trkpt>
      <trkpt lat="43.234894" lon="-2.956410">
        <ele>337.0</ele>
        <time>2019-06-27T08:22:49Z</time>
      </trkpt>
      <trkpt lat="43.234953" lon="-2.956530">
        <ele>336.1</ele>
        <time>2019-06-27T08:22:49Z</time>
      </trkpt>
      <trkpt lat="43.235015" lon="-2.956650">
        <ele>334.0</ele>
        <time>2019-06-27T08:22:49Z</time>
      </trkpt>
      <trkpt lat="43.235082" lon="-2.956752">
        <ele>332.4</ele>
        <time>2019-06-27T08:22:49Z</time>
      </trkpt>
      <trkpt lat="43.235162" lon="-2.956823">
        <ele>331.0</ele>
        <time>2019-06-27T08:22:49Z</time>
      </trkpt>
      <trkpt lat="43.235260" lon="-2.956894">
        <ele>329.8</ele>
        <time>2019-06-27T08:22:49Z</time>
      </trkpt>
      <trkpt lat="43.235375" lon="-2.956965">
        <ele>328.6</ele>
        <time>2019-06-27T08:22:49Z</time>
      </trkpt>
      <trkpt lat="43.235490" lon="-2.957036">
        <ele>328.0</ele>
        <time>2019-06-27T08:22:49Z</time>
      </trkpt>
      <trkpt lat="43.235596" lon="-2.957089">
        <ele>327.7</ele>
        <time>2019-06-27T08:22:49Z</time>
      </trkpt>
      <trkpt lat="43.235701" lon="-2.957141">
        <ele>327.7</ele>
        <time>2019-06-27T08:22:49Z</time>
      </trkpt>
      <trkpt lat="43.235805" lon="-2.957192">
        <ele>327.9</ele>
        <time>2019-06-27T08:22:49Z</time>
      </trkpt>
      <trkpt lat="43.235910" lon="-2.957244">
        <ele>327.9</ele>
        <time>2019-06-27T08:22:49Z</time>
      </trkpt>
      <trkpt lat="43.235998" lon="-2.957323">
        <ele>328.0</ele>
        <time>2019-06-27T08:22:49Z</time>
      </trkpt>
      <trkpt lat="43.236083" lon="-2.957402">
        <ele>328.7</ele>
        <time>2019-06-27T08:22:49Z</time>
      </trkpt>
      <trkpt lat="43.236157" lon="-2.957493">
        <ele>328.5</ele>
        <time>2019-06-27T08:22:49Z</time>
      </trkpt>
      <trkpt lat="43.236231" lon="-2.957583">
        <ele>327.8</ele>
        <time>2019-06-27T08:22:49Z</time>
      </trkpt>
      <trkpt lat="43.236309" lon="-2.957670">
        <ele>327.6</ele>
        <time>2019-06-27T08:22:49Z</time>
      </trkpt>
      <trkpt lat="43.236394" lon="-2.957748">
        <ele>327.9</ele>
        <time>2019-06-27T08:22:49Z</time>
      </trkpt>
      <trkpt lat="43.236477" lon="-2.957844">
        <ele>327.5</ele>
        <time>2019-06-27T08:22:49Z</time>
      </trkpt>
      <trkpt lat="43.236561" lon="-2.957939">
        <ele>327.1</ele>
        <time>2019-06-27T08:22:49Z</time>
      </trkpt>
      <trkpt lat="43.236634" lon="-2.958047">
        <ele>327.1</ele>
        <time>2019-06-27T08:22:49Z</time>
      </trkpt>
      <trkpt lat="43.236698" lon="-2.958157">
        <ele>327.8</ele>
        <time>2019-06-27T08:22:49Z</time>
      </trkpt>
      <trkpt lat="43.236748" lon="-2.958267">
        <ele>327.6</ele>
        <time>2019-06-27T08:22:49Z</time>
      </trkpt>
      <trkpt lat="43.236799" lon="-2.958377">
        <ele>328.4</ele>
        <time>2019-06-27T08:22:49Z</time>
      </trkpt>
      <trkpt lat="43.236849" lon="-2.958488">
        <ele>328.1</ele>
        <time>2019-06-27T08:22:49Z</time>
      </trkpt>
      <trkpt lat="43.236900" lon="-2.958598">
        <ele>327.9</ele>
        <time>2019-06-27T08:22:49Z</time>
      </trkpt>
      <trkpt lat="43.236956" lon="-2.958707">
        <ele>327.7</ele>
        <time>2019-06-27T08:22:49Z</time>
      </trkpt>
      <trkpt lat="43.237013" lon="-2.958815">
        <ele>327.5</ele>
        <time>2019-06-27T08:22:49Z</time>
      </trkpt>
      <trkpt lat="43.237071" lon="-2.958920">
        <ele>326.9</ele>
        <time>2019-06-27T08:22:49Z</time>
      </trkpt>
      <trkpt lat="43.237139" lon="-2.959020">
        <ele>327.6</ele>
        <time>2019-06-27T08:22:49Z</time>
      </trkpt>
      <trkpt lat="43.237212" lon="-2.959124">
        <ele>326.8</ele>
        <time>2019-06-27T08:22:49Z</time>
      </trkpt>
      <trkpt lat="43.237290" lon="-2.959240">
        <ele>327.2</ele>
        <time>2019-06-27T08:22:49Z</time>
      </trkpt>
      <trkpt lat="43.237368" lon="-2.959357">
        <ele>326.8</ele>
        <time>2019-06-27T08:22:49Z</time>
      </trkpt>
      <trkpt lat="43.237458" lon="-2.959470">
        <ele>327.2</ele>
        <time>2019-06-27T08:22:49Z</time>
      </trkpt>
      <trkpt lat="43.237557" lon="-2.959577">
        <ele>326.3</ele>
        <time>2019-06-27T08:22:49Z</time>
      </trkpt>
      <trkpt lat="43.237657" lon="-2.959654">
        <ele>327.0</ele>
        <time>2019-06-27T08:22:49Z</time>
      </trkpt>
      <trkpt lat="43.237757" lon="-2.959730">
        <ele>328.0</ele>
        <time>2019-06-27T08:22:49Z</time>
      </trkpt>
      <trkpt lat="43.237830" lon="-2.959832">
        <ele>328.0</ele>
        <time>2019-06-27T08:22:49Z</time>
      </trkpt>
      <trkpt lat="43.237913" lon="-2.959932">
        <ele>326.7</ele>
        <time>2019-06-27T08:22:49Z</time>
      </trkpt>
      <trkpt lat="43.238008" lon="-2.960028">
        <ele>325.7</ele>
        <time>2019-06-27T08:22:49Z</time>
      </trkpt>
      <trkpt lat="43.238106" lon="-2.960129">
        <ele>325.6</ele>
        <time>2019-06-27T08:22:49Z</time>
      </trkpt>
      <trkpt lat="43.238195" lon="-2.960242">
        <ele>323.9</ele>
        <time>2019-06-27T08:22:49Z</time>
      </trkpt>
      <trkpt lat="43.238295" lon="-2.960345">
        <ele>321.6</ele>
        <time>2019-06-27T08:22:49Z</time>
      </trkpt>
      <trkpt lat="43.238370" lon="-2.960406">
        <ele>319.8</ele>
        <time>2019-06-27T08:22:49Z</time>
      </trkpt>
      <trkpt lat="43.238453" lon="-2.960467">
        <ele>318.8</ele>
        <time>2019-06-27T08:22:49Z</time>
      </trkpt>
      <trkpt lat="43.238536" lon="-2.960528">
        <ele>317.4</ele>
        <time>2019-06-27T08:22:49Z</time>
      </trkpt>
      <trkpt lat="43.238619" lon="-2.960589">
        <ele>315.9</ele>
        <time>2019-06-27T08:22:49Z</time>
      </trkpt>
      <trkpt lat="43.238704" lon="-2.960659">
        <ele>314.5</ele>
        <time>2019-06-27T08:22:49Z</time>
      </trkpt>
      <trkpt lat="43.238766" lon="-2.960748">
        <ele>312.6</ele>
        <time>2019-06-27T08:22:49Z</time>
      </trkpt>
      <trkpt lat="43.238825" lon="-2.960854">
        <ele>310.5</ele>
        <time>2019-06-27T08:22:49Z</time>
      </trkpt>
      <trkpt lat="43.238884" lon="-2.960961">
        <ele>309.0</ele>
        <time>2019-06-27T08:22:49Z</time>
      </trkpt>
      <trkpt lat="43.238955" lon="-2.961066">
        <ele>307.2</ele>
        <time>2019-06-27T08:22:49Z</time>
      </trkpt>
      <trkpt lat="43.239028" lon="-2.961169">
        <ele>306.1</ele>
        <time>2019-06-27T08:22:49Z</time>
      </trkpt>
      <trkpt lat="43.239115" lon="-2.961268">
        <ele>304.8</ele>
        <time>2019-06-27T08:22:49Z</time>
      </trkpt>
      <trkpt lat="43.239196" lon="-2.961337">
        <ele>303.7</ele>
        <time>2019-06-27T08:22:49Z</time>
      </trkpt>
      <trkpt lat="43.239295" lon="-2.961402">
        <ele>303.2</ele>
        <time>2019-06-27T08:22:49Z</time>
      </trkpt>
      <trkpt lat="43.239381" lon="-2.961482">
        <ele>303.1</ele>
        <time>2019-06-27T08:22:49Z</time>
      </trkpt>
      <trkpt lat="43.239459" lon="-2.961577">
        <ele>303.0</ele>
        <time>2019-06-27T08:22:49Z</time>
      </trkpt>
      <trkpt lat="43.239535" lon="-2.961673">
        <ele>303.0</ele>
        <time>2019-06-27T08:22:49Z</time>
      </trkpt>
      <trkpt lat="43.239611" lon="-2.961771">
        <ele>303.4</ele>
        <time>2019-06-27T08:22:49Z</time>
      </trkpt>
      <trkpt lat="43.239697" lon="-2.961859">
        <ele>304.0</ele>
        <time>2019-06-27T08:22:49Z</time>
      </trkpt>
      <trkpt lat="43.239796" lon="-2.961924">
        <ele>305.8</ele>
        <time>2019-06-27T08:22:49Z</time>
      </trkpt>
      <trkpt lat="43.239895" lon="-2.961989">
        <ele>306.9</ele>
        <time>2019-06-27T08:22:49Z</time>
      </trkpt>
      <trkpt lat="43.239994" lon="-2.962053">
        <ele>308.0</ele>
        <time>2019-06-27T08:22:49Z</time>
      </trkpt>
      <trkpt lat="43.240092" lon="-2.962122">
        <ele>308.9</ele>
        <time>2019-06-27T08:22:49Z</time>
      </trkpt>
      <trkpt lat="43.240178" lon="-2.962211">
        <ele>309.4</ele>
        <time>2019-06-27T08:22:49Z</time>
      </trkpt>
      <trkpt lat="43.240252" lon="-2.962307">
        <ele>309.5</ele>
        <time>2019-06-27T08:22:49Z</time>
      </trkpt>
      <trkpt lat="43.240325" lon="-2.962403">
        <ele>309.5</ele>
        <time>2019-06-27T08:22:49Z</time>
      </trkpt>
      <trkpt lat="43.240405" lon="-2.962489">
        <ele>309.9</ele>
        <time>2019-06-27T08:22:49Z</time>
      </trkpt>
      <trkpt lat="43.240485" lon="-2.962553">
        <ele>310.7</ele>
        <time>2019-06-27T08:22:49Z</time>
      </trkpt>
      <trkpt lat="43.240553" lon="-2.962537">
        <ele>311.2</ele>
        <time>2019-06-27T08:22:49Z</time>
      </trkpt>
      <trkpt lat="43.240571" lon="-2.962451">
        <ele>311.0</ele>
        <time>2019-06-27T08:22:49Z</time>
      </trkpt>
      <trkpt lat="43.240571" lon="-2.962342">
        <ele>309.7</ele>
        <time>2019-06-27T08:22:49Z</time>
      </trkpt>
      <trkpt lat="43.240578" lon="-2.962232">
        <ele>309.5</ele>
        <time>2019-06-27T08:22:49Z</time>
      </trkpt>
      <trkpt lat="43.240620" lon="-2.962107">
        <ele>309.4</ele>
        <time>2019-06-27T08:22:49Z</time>
      </trkpt>
      <trkpt lat="43.240673" lon="-2.961982">
        <ele>310.0</ele>
        <time>2019-06-27T08:22:49Z</time>
      </trkpt>
      <trkpt lat="43.240739" lon="-2.961883">
        <ele>310.0</ele>
        <time>2019-06-27T08:22:49Z</time>
      </trkpt>
      <trkpt lat="43.240779" lon="-2.961743">
        <ele>310.9</ele>
        <time>2019-06-27T08:22:49Z</time>
      </trkpt>
      <trkpt lat="43.240819" lon="-2.961603">
        <ele>311.0</ele>
        <time>2019-06-27T08:22:49Z</time>
      </trkpt>
      <trkpt lat="43.240872" lon="-2.961495">
        <ele>311.4</ele>
        <time>2019-06-27T08:22:49Z</time>
      </trkpt>
      <trkpt lat="43.240927" lon="-2.961396">
        <ele>312.3</ele>
        <time>2019-06-27T08:22:49Z</time>
      </trkpt>
      <trkpt lat="43.240978" lon="-2.961302">
        <ele>312.1</ele>
        <time>2019-06-27T08:22:49Z</time>
      </trkpt>
      <trkpt lat="43.240972" lon="-2.961192">
        <ele>312.4</ele>
        <time>2019-06-27T08:22:49Z</time>
      </trkpt>
      <trkpt lat="43.240992" lon="-2.961004">
        <ele>312.1</ele>
        <time>2019-06-27T08:22:49Z</time>
      </trkpt>
      <trkpt lat="43.241005" lon="-2.960777">
        <ele>313.3</ele>
        <time>2019-06-27T08:22:49Z</time>
      </trkpt>
      <trkpt lat="43.241022" lon="-2.960663">
        <ele>313.7</ele>
        <time>2019-06-27T08:22:49Z</time>
      </trkpt>
      <trkpt lat="43.241067" lon="-2.960552">
        <ele>313.9</ele>
        <time>2019-06-27T08:22:49Z</time>
      </trkpt>
      <trkpt lat="43.241124" lon="-2.960442">
        <ele>314.0</ele>
        <time>2019-06-27T08:22:49Z</time>
      </trkpt>
      <trkpt lat="43.241183" lon="-2.960330">
        <ele>315.0</ele>
        <time>2019-06-27T08:22:49Z</time>
      </trkpt>
      <trkpt lat="43.241256" lon="-2.960276">
        <ele>315.1</ele>
        <time>2019-06-27T08:22:49Z</time>
      </trkpt>
      <trkpt lat="43.241335" lon="-2.960231">
        <ele>316.2</ele>
        <time>2019-06-27T08:22:49Z</time>
      </trkpt>
      <trkpt lat="43.241410" lon="-2.960213">
        <ele>317.0</ele>
        <time>2019-06-27T08:22:49Z</time>
      </trkpt>
      <trkpt lat="43.241478" lon="-2.960250">
        <ele>317.8</ele>
        <time>2019-06-27T08:22:49Z</time>
      </trkpt>
      <trkpt lat="43.241535" lon="-2.960327">
        <ele>318.1</ele>
        <time>2019-06-27T08:22:49Z</time>
      </trkpt>
      <trkpt lat="43.241592" lon="-2.960399">
        <ele>319.4</ele>
        <time>2019-06-27T08:22:49Z</time>
      </trkpt>
      <trkpt lat="43.241679" lon="-2.960426">
        <ele>320.3</ele>
        <time>2019-06-27T08:22:49Z</time>
      </trkpt>
      <trkpt lat="43.241780" lon="-2.960398">
        <ele>321.0</ele>
        <time>2019-06-27T08:22:49Z</time>
      </trkpt>
      <trkpt lat="43.241876" lon="-2.960381">
        <ele>321.5</ele>
        <time>2019-06-27T08:22:49Z</time>
      </trkpt>
      <trkpt lat="43.241970" lon="-2.960356">
        <ele>321.4</ele>
        <time>2019-06-27T08:22:49Z</time>
      </trkpt>
      <trkpt lat="43.242065" lon="-2.960337">
        <ele>321.1</ele>
        <time>2019-06-27T08:22:49Z</time>
      </trkpt>
      <trkpt lat="43.242157" lon="-2.960312">
        <ele>321.7</ele>
        <time>2019-06-27T08:22:49Z</time>
      </trkpt>
      <trkpt lat="43.242246" lon="-2.960279">
        <ele>321.2</ele>
        <time>2019-06-27T08:22:49Z</time>
      </trkpt>
      <trkpt lat="43.242334" lon="-2.960245">
        <ele>320.6</ele>
        <time>2019-06-27T08:22:49Z</time>
      </trkpt>
      <trkpt lat="43.242423" lon="-2.960211">
        <ele>320.0</ele>
        <time>2019-06-27T08:22:49Z</time>
      </trkpt>
      <trkpt lat="43.242519" lon="-2.960187">
        <ele>318.7</ele>
        <time>2019-06-27T08:22:49Z</time>
      </trkpt>
      <trkpt lat="43.242616" lon="-2.960191">
        <ele>318.0</ele>
        <time>2019-06-27T08:22:49Z</time>
      </trkpt>
      <trkpt lat="43.242713" lon="-2.960194">
        <ele>317.5</ele>
        <time>2019-06-27T08:22:49Z</time>
      </trkpt>
      <trkpt lat="43.242806" lon="-2.960215">
        <ele>316.2</ele>
        <time>2019-06-27T08:22:49Z</time>
      </trkpt>
      <trkpt lat="43.242895" lon="-2.960247">
        <ele>316.0</ele>
        <time>2019-06-27T08:22:49Z</time>
      </trkpt>
      <trkpt lat="43.242985" lon="-2.960284">
        <ele>315.4</ele>
        <time>2019-06-27T08:22:49Z</time>
      </trkpt>
      <trkpt lat="43.243075" lon="-2.960317">
        <ele>315.3</ele>
        <time>2019-06-27T08:22:49Z</time>
      </trkpt>
      <trkpt lat="43.243167" lon="-2.960322">
        <ele>314.8</ele>
        <time>2019-06-27T08:22:49Z</time>
      </trkpt>
      <trkpt lat="43.243257" lon="-2.960318">
        <ele>315.1</ele>
        <time>2019-06-27T08:22:49Z</time>
      </trkpt>
      <trkpt lat="43.243344" lon="-2.960296">
        <ele>315.7</ele>
        <time>2019-06-27T08:22:49Z</time>
      </trkpt>
      <trkpt lat="43.243428" lon="-2.960253">
        <ele>315.7</ele>
        <time>2019-06-27T08:22:49Z</time>
      </trkpt>
      <trkpt lat="43.243511" lon="-2.960214">
        <ele>315.2</ele>
        <time>2019-06-27T08:22:49Z</time>
      </trkpt>
      <trkpt lat="43.243598" lon="-2.960192">
        <ele>315.7</ele>
        <time>2019-06-27T08:22:49Z</time>
      </trkpt>
      <trkpt lat="43.243688" lon="-2.960184">
        <ele>315.6</ele>
        <time>2019-06-27T08:22:49Z</time>
      </trkpt>
      <trkpt lat="43.243770" lon="-2.960190">
        <ele>315.7</ele>
        <time>2019-06-27T08:22:49Z</time>
      </trkpt>
      <trkpt lat="43.243875" lon="-2.960197">
        <ele>315.8</ele>
        <time>2019-06-27T08:22:49Z</time>
      </trkpt>
      <trkpt lat="43.243979" lon="-2.960215">
        <ele>315.8</ele>
        <time>2019-06-27T08:22:49Z</time>
      </trkpt>
      <trkpt lat="43.244081" lon="-2.960255">
        <ele>315.8</ele>
        <time>2019-06-27T08:22:49Z</time>
      </trkpt>
      <trkpt lat="43.244181" lon="-2.960313">
        <ele>315.7</ele>
        <time>2019-06-27T08:22:49Z</time>
      </trkpt>
      <trkpt lat="43.244258" lon="-2.960396">
        <ele>316.1</ele>
        <time>2019-06-27T08:22:49Z</time>
      </trkpt>
      <trkpt lat="43.244314" lon="-2.960455">
        <ele>317.0</ele>
        <time>2019-06-27T08:22:49Z</time>
      </trkpt>
      <trkpt lat="43.244380" lon="-2.960512">
        <ele>317.0</ele>
        <time>2019-06-27T08:22:49Z</time>
      </trkpt>
      <trkpt lat="43.244447" lon="-2.960568">
        <ele>317.1</ele>
        <time>2019-06-27T08:22:49Z</time>
      </trkpt>
      <trkpt lat="43.244525" lon="-2.960625">
        <ele>318.6</ele>
        <time>2019-06-27T08:22:49Z</time>
      </trkpt>
      <trkpt lat="43.244623" lon="-2.960657">
        <ele>319.3</ele>
        <time>2019-06-27T08:22:49Z</time>
      </trkpt>
      <trkpt lat="43.244720" lon="-2.960678">
        <ele>319.7</ele>
        <time>2019-06-27T08:22:49Z</time>
      </trkpt>
      <trkpt lat="43.244817" lon="-2.960676">
        <ele>319.6</ele>
        <time>2019-06-27T08:22:49Z</time>
      </trkpt>
      <trkpt lat="43.244913" lon="-2.960675">
        <ele>319.7</ele>
        <time>2019-06-27T08:22:49Z</time>
      </trkpt>
      <trkpt lat="43.245010" lon="-2.960673">
        <ele>320.6</ele>
        <time>2019-06-27T08:22:49Z</time>
      </trkpt>
      <trkpt lat="43.245107" lon="-2.960672">
        <ele>321.2</ele>
        <time>2019-06-27T08:22:49Z</time>
      </trkpt>
      <trkpt lat="43.245200" lon="-2.960664">
        <ele>322.0</ele>
        <time>2019-06-27T08:22:49Z</time>
      </trkpt>
      <trkpt lat="43.245274" lon="-2.960637">
        <ele>322.0</ele>
        <time>2019-06-27T08:22:49Z</time>
      </trkpt>
      <trkpt lat="43.245341" lon="-2.960591">
        <ele>322.2</ele>
        <time>2019-06-27T08:22:49Z</time>
      </trkpt>
      <trkpt lat="43.245400" lon="-2.960522">
        <ele>322.1</ele>
        <time>2019-06-27T08:22:49Z</time>
      </trkpt>
      <trkpt lat="43.245460" lon="-2.960453">
        <ele>322.3</ele>
        <time>2019-06-27T08:22:49Z</time>
      </trkpt>
      <trkpt lat="43.245489" lon="-2.960350">
        <ele>322.9</ele>
        <time>2019-06-27T08:22:49Z</time>
      </trkpt>
      <trkpt lat="43.245434" lon="-2.960230">
        <ele>322.0</ele>
        <time>2019-06-27T08:22:49Z</time>
      </trkpt>
      <trkpt lat="43.245368" lon="-2.960151">
        <ele>322.0</ele>
        <time>2019-06-27T08:22:49Z</time>
      </trkpt>
      <trkpt lat="43.245303" lon="-2.960073">
        <ele>322.0</ele>
        <time>2019-06-27T08:22:49Z</time>
      </trkpt>
      <trkpt lat="43.245246" lon="-2.959978">
        <ele>321.5</ele>
        <time>2019-06-27T08:22:49Z</time>
      </trkpt>
      <trkpt lat="43.245189" lon="-2.959884">
        <ele>320.3</ele>
        <time>2019-06-27T08:22:49Z</time>
      </trkpt>
      <trkpt lat="43.245132" lon="-2.959789">
        <ele>319.8</ele>
        <time>2019-06-27T08:22:49Z</time>
      </trkpt>
      <trkpt lat="43.245118" lon="-2.959655">
        <ele>319.7</ele>
        <time>2019-06-27T08:22:49Z</time>
      </trkpt>
      <trkpt lat="43.245105" lon="-2.959505">
        <ele>319.4</ele>
        <time>2019-06-27T08:22:49Z</time>
      </trkpt>
      <trkpt lat="43.245103" lon="-2.959371">
        <ele>319.6</ele>
        <time>2019-06-27T08:22:49Z</time>
      </trkpt>
      <trkpt lat="43.245131" lon="-2.959259">
        <ele>319.0</ele>
        <time>2019-06-27T08:22:49Z</time>
      </trkpt>
      <trkpt lat="43.245175" lon="-2.959142">
        <ele>319.0</ele>
        <time>2019-06-27T08:22:49Z</time>
      </trkpt>
      <trkpt lat="43.245229" lon="-2.959027">
        <ele>319.0</ele>
        <time>2019-06-27T08:22:49Z</time>
      </trkpt>
      <trkpt lat="43.245283" lon="-2.958912">
        <ele>319.0</ele>
        <time>2019-06-27T08:22:49Z</time>
      </trkpt>
      <trkpt lat="43.245336" lon="-2.958790">
        <ele>317.5</ele>
        <time>2019-06-27T08:22:49Z</time>
      </trkpt>
      <trkpt lat="43.245390" lon="-2.958667">
        <ele>316.3</ele>
        <time>2019-06-27T08:22:49Z</time>
      </trkpt>
      <trkpt lat="43.245446" lon="-2.958589">
        <ele>314.8</ele>
        <time>2019-06-27T08:22:49Z</time>
      </trkpt>
      <trkpt lat="43.245502" lon="-2.958527">
        <ele>313.5</ele>
        <time>2019-06-27T08:22:49Z</time>
      </trkpt>
      <trkpt lat="43.245556" lon="-2.958489">
        <ele>312.1</ele>
        <time>2019-06-27T08:22:49Z</time>
      </trkpt>
      <trkpt lat="43.245620" lon="-2.958456">
        <ele>310.7</ele>
        <time>2019-06-27T08:22:49Z</time>
      </trkpt>
      <trkpt lat="43.245704" lon="-2.958487">
        <ele>309.4</ele>
        <time>2019-06-27T08:22:49Z</time>
      </trkpt>
      <trkpt lat="43.245789" lon="-2.958547">
        <ele>308.5</ele>
        <time>2019-06-27T08:22:49Z</time>
      </trkpt>
      <trkpt lat="43.245876" lon="-2.958622">
        <ele>307.8</ele>
        <time>2019-06-27T08:22:49Z</time>
      </trkpt>
      <trkpt lat="43.245964" lon="-2.958698">
        <ele>306.0</ele>
        <time>2019-06-27T08:22:49Z</time>
      </trkpt>
      <trkpt lat="43.246052" lon="-2.958773">
        <ele>305.3</ele>
        <time>2019-06-27T08:22:49Z</time>
      </trkpt>
      <trkpt lat="43.246140" lon="-2.958849">
        <ele>303.6</ele>
        <time>2019-06-27T08:22:49Z</time>
      </trkpt>
      <trkpt lat="43.246228" lon="-2.958924">
        <ele>302.7</ele>
        <time>2019-06-27T08:22:49Z</time>
      </trkpt>
      <trkpt lat="43.246316" lon="-2.959000">
        <ele>301.1</ele>
        <time>2019-06-27T08:22:49Z</time>
      </trkpt>
      <trkpt lat="43.246409" lon="-2.959088">
        <ele>300.5</ele>
        <time>2019-06-27T08:22:49Z</time>
      </trkpt>
      <trkpt lat="43.246506" lon="-2.959173">
        <ele>299.1</ele>
        <time>2019-06-27T08:22:49Z</time>
      </trkpt>
      <trkpt lat="43.246571" lon="-2.959262">
        <ele>298.7</ele>
        <time>2019-06-27T08:22:49Z</time>
      </trkpt>
      <trkpt lat="43.246626" lon="-2.959342">
        <ele>298.8</ele>
        <time>2019-06-27T08:22:49Z</time>
      </trkpt>
      <trkpt lat="43.246697" lon="-2.959422">
        <ele>297.5</ele>
        <time>2019-06-27T08:22:49Z</time>
      </trkpt>
      <trkpt lat="43.246768" lon="-2.959501">
        <ele>297.2</ele>
        <time>2019-06-27T08:22:49Z</time>
      </trkpt>
      <trkpt lat="43.246839" lon="-2.959581">
        <ele>297.0</ele>
        <time>2019-06-27T08:22:49Z</time>
      </trkpt>
      <trkpt lat="43.246910" lon="-2.959661">
        <ele>296.7</ele>
        <time>2019-06-27T08:22:49Z</time>
      </trkpt>
      <trkpt lat="43.246981" lon="-2.959741">
        <ele>296.4</ele>
        <time>2019-06-27T08:22:49Z</time>
      </trkpt>
      <trkpt lat="43.247054" lon="-2.959803">
        <ele>295.8</ele>
        <time>2019-06-27T08:22:49Z</time>
      </trkpt>
      <trkpt lat="43.247123" lon="-2.959809">
        <ele>294.6</ele>
        <time>2019-06-27T08:22:49Z</time>
      </trkpt>
      <trkpt lat="43.247182" lon="-2.959766">
        <ele>294.4</ele>
        <time>2019-06-27T08:22:49Z</time>
      </trkpt>
      <trkpt lat="43.247234" lon="-2.959708">
        <ele>295.3</ele>
        <time>2019-06-27T08:22:49Z</time>
      </trkpt>
      <trkpt lat="43.247281" lon="-2.959621">
        <ele>296.0</ele>
        <time>2019-06-27T08:22:49Z</time>
      </trkpt>
      <trkpt lat="43.247307" lon="-2.959499">
        <ele>295.6</ele>
        <time>2019-06-27T08:22:49Z</time>
      </trkpt>
      <trkpt lat="43.247325" lon="-2.959366">
        <ele>295.4</ele>
        <time>2019-06-27T08:22:49Z</time>
      </trkpt>
      <trkpt lat="43.247330" lon="-2.959223">
        <ele>294.7</ele>
        <time>2019-06-27T08:22:49Z</time>
      </trkpt>
      <trkpt lat="43.247335" lon="-2.959080">
        <ele>293.6</ele>
        <time>2019-06-27T08:22:49Z</time>
      </trkpt>
      <trkpt lat="43.247348" lon="-2.958958">
        <ele>293.2</ele>
        <time>2019-06-27T08:22:49Z</time>
      </trkpt>
      <trkpt lat="43.247386" lon="-2.958836">
        <ele>292.9</ele>
        <time>2019-06-27T08:22:49Z</time>
      </trkpt>
      <trkpt lat="43.247425" lon="-2.958704">
        <ele>292.5</ele>
        <time>2019-06-27T08:22:49Z</time>
      </trkpt>
      <trkpt lat="43.247463" lon="-2.958572">
        <ele>291.8</ele>
        <time>2019-06-27T08:22:49Z</time>
      </trkpt>
      <trkpt lat="43.247497" lon="-2.958470">
        <ele>291.9</ele>
        <time>2019-06-27T08:22:49Z</time>
      </trkpt>
      <trkpt lat="43.247533" lon="-2.958360">
        <ele>291.1</ele>
        <time>2019-06-27T08:22:49Z</time>
      </trkpt>
      <trkpt lat="43.247573" lon="-2.958248">
        <ele>291.7</ele>
        <time>2019-06-27T08:22:49Z</time>
      </trkpt>
      <trkpt lat="43.247614" lon="-2.958136">
        <ele>291.8</ele>
        <time>2019-06-27T08:22:49Z</time>
      </trkpt>
      <trkpt lat="43.247656" lon="-2.958024">
        <ele>292.7</ele>
        <time>2019-06-27T08:22:49Z</time>
      </trkpt>
      <trkpt lat="43.247697" lon="-2.957912">
        <ele>292.5</ele>
        <time>2019-06-27T08:22:49Z</time>
      </trkpt>
      <trkpt lat="43.247738" lon="-2.957800">
        <ele>291.7</ele>
        <time>2019-06-27T08:22:49Z</time>
      </trkpt>
      <trkpt lat="43.247786" lon="-2.957695">
        <ele>291.4</ele>
        <time>2019-06-27T08:22:49Z</time>
      </trkpt>
      <trkpt lat="43.247835" lon="-2.957607">
        <ele>290.6</ele>
        <time>2019-06-27T08:22:49Z</time>
      </trkpt>
      <trkpt lat="43.247880" lon="-2.957511">
        <ele>290.4</ele>
        <time>2019-06-27T08:22:49Z</time>
      </trkpt>
      <trkpt lat="43.247925" lon="-2.957423">
        <ele>288.8</ele>
        <time>2019-06-27T08:22:49Z</time>
      </trkpt>
      <trkpt lat="43.247984" lon="-2.957377">
        <ele>287.7</ele>
        <time>2019-06-27T08:22:49Z</time>
      </trkpt>
      <trkpt lat="43.248047" lon="-2.957331">
        <ele>287.5</ele>
        <time>2019-06-27T08:22:49Z</time>
      </trkpt>
      <trkpt lat="43.248092" lon="-2.957242">
        <ele>286.4</ele>
        <time>2019-06-27T08:22:49Z</time>
      </trkpt>
      <trkpt lat="43.248116" lon="-2.957118">
        <ele>286.5</ele>
        <time>2019-06-27T08:22:49Z</time>
      </trkpt>
      <trkpt lat="43.248119" lon="-2.956986">
        <ele>285.2</ele>
        <time>2019-06-27T08:22:49Z</time>
      </trkpt>
      <trkpt lat="43.248120" lon="-2.956846">
        <ele>283.8</ele>
        <time>2019-06-27T08:22:49Z</time>
      </trkpt>
      <trkpt lat="43.248112" lon="-2.956727">
        <ele>283.4</ele>
        <time>2019-06-27T08:22:49Z</time>
      </trkpt>
      <trkpt lat="43.248096" lon="-2.956599">
        <ele>282.7</ele>
        <time>2019-06-27T08:22:49Z</time>
      </trkpt>
      <trkpt lat="43.248068" lon="-2.956478">
        <ele>281.5</ele>
        <time>2019-06-27T08:22:49Z</time>
      </trkpt>
      <trkpt lat="43.248058" lon="-2.956363">
        <ele>281.0</ele>
        <time>2019-06-27T08:22:49Z</time>
      </trkpt>
      <trkpt lat="43.248058" lon="-2.956249">
        <ele>280.0</ele>
        <time>2019-06-27T08:22:49Z</time>
      </trkpt>
      <trkpt lat="43.248057" lon="-2.956138">
        <ele>279.0</ele>
        <time>2019-06-27T08:22:49Z</time>
      </trkpt>
      <trkpt lat="43.248065" lon="-2.956009">
        <ele>278.1</ele>
        <time>2019-06-27T08:22:49Z</time>
      </trkpt>
      <trkpt lat="43.248091" lon="-2.955903">
        <ele>277.7</ele>
        <time>2019-06-27T08:22:49Z</time>
      </trkpt>
      <trkpt lat="43.248117" lon="-2.955796">
        <ele>276.7</ele>
        <time>2019-06-27T08:22:49Z</time>
      </trkpt>
      <trkpt lat="43.248151" lon="-2.955691">
        <ele>275.8</ele>
        <time>2019-06-27T08:22:49Z</time>
      </trkpt>
      <trkpt lat="43.248194" lon="-2.955598">
        <ele>274.2</ele>
        <time>2019-06-27T08:22:49Z</time>
      </trkpt>
      <trkpt lat="43.248236" lon="-2.955505">
        <ele>272.7</ele>
        <time>2019-06-27T08:22:49Z</time>
      </trkpt>
      <trkpt lat="43.248286" lon="-2.955435">
        <ele>271.6</ele>
        <time>2019-06-27T08:22:49Z</time>
      </trkpt>
      <trkpt lat="43.248337" lon="-2.955374">
        <ele>270.2</ele>
        <time>2019-06-27T08:22:49Z</time>
      </trkpt>
      <trkpt lat="43.248402" lon="-2.955327">
        <ele>269.6</ele>
        <time>2019-06-27T08:22:49Z</time>
      </trkpt>
      <trkpt lat="43.248475" lon="-2.955280">
        <ele>268.1</ele>
        <time>2019-06-27T08:22:49Z</time>
      </trkpt>
      <trkpt lat="43.248557" lon="-2.955255">
        <ele>267.2</ele>
        <time>2019-06-27T08:22:49Z</time>
      </trkpt>
      <trkpt lat="43.248636" lon="-2.955241">
        <ele>265.0</ele>
        <time>2019-06-27T08:22:49Z</time>
      </trkpt>
      <trkpt lat="43.248716" lon="-2.955243">
        <ele>263.3</ele>
        <time>2019-06-27T08:22:49Z</time>
      </trkpt>
      <trkpt lat="43.248798" lon="-2.955246">
        <ele>261.8</ele>
        <time>2019-06-27T08:22:49Z</time>
      </trkpt>
      <trkpt lat="43.248885" lon="-2.955247">
        <ele>260.4</ele>
        <time>2019-06-27T08:22:49Z</time>
      </trkpt>
      <trkpt lat="43.248973" lon="-2.955244">
        <ele>259.0</ele>
        <time>2019-06-27T08:22:49Z</time>
      </trkpt>
      <trkpt lat="43.249064" lon="-2.955238">
        <ele>258.4</ele>
        <time>2019-06-27T08:22:49Z</time>
      </trkpt>
      <trkpt lat="43.249157" lon="-2.955225">
        <ele>256.3</ele>
        <time>2019-06-27T08:22:49Z</time>
      </trkpt>
      <trkpt lat="43.249249" lon="-2.955211">
        <ele>255.4</ele>
        <time>2019-06-27T08:22:49Z</time>
      </trkpt>
      <trkpt lat="43.249339" lon="-2.955188">
        <ele>253.4</ele>
        <time>2019-06-27T08:22:49Z</time>
      </trkpt>
      <trkpt lat="43.249424" lon="-2.955182">
        <ele>252.1</ele>
        <time>2019-06-27T08:22:49Z</time>
      </trkpt>
      <trkpt lat="43.249508" lon="-2.955176">
        <ele>250.9</ele>
        <time>2019-06-27T08:22:49Z</time>
      </trkpt>
      <trkpt lat="43.249608" lon="-2.955167">
        <ele>248.9</ele>
        <time>2019-06-27T08:22:49Z</time>
      </trkpt>
      <trkpt lat="43.249708" lon="-2.955158">
        <ele>247.5</ele>
        <time>2019-06-27T08:22:49Z</time>
      </trkpt>
      <trkpt lat="43.249794" lon="-2.955189">
        <ele>246.3</ele>
        <time>2019-06-27T08:22:49Z</time>
      </trkpt>
      <trkpt lat="43.249877" lon="-2.955239">
        <ele>245.0</ele>
        <time>2019-06-27T08:22:49Z</time>
      </trkpt>
      <trkpt lat="43.249956" lon="-2.955297">
        <ele>244.2</ele>
        <time>2019-06-27T08:22:49Z</time>
      </trkpt>
      <trkpt lat="43.250025" lon="-2.955372">
        <ele>243.9</ele>
        <time>2019-06-27T08:22:49Z</time>
      </trkpt>
      <trkpt lat="43.250088" lon="-2.955455">
        <ele>242.8</ele>
        <time>2019-06-27T08:22:49Z</time>
      </trkpt>
      <trkpt lat="43.250153" lon="-2.955537">
        <ele>242.1</ele>
        <time>2019-06-27T08:22:49Z</time>
      </trkpt>
      <trkpt lat="43.250222" lon="-2.955619">
        <ele>241.4</ele>
        <time>2019-06-27T08:22:49Z</time>
      </trkpt>
      <trkpt lat="43.250290" lon="-2.955701">
        <ele>239.7</ele>
        <time>2019-06-27T08:22:49Z</time>
      </trkpt>
      <trkpt lat="43.250346" lon="-2.955805">
        <ele>238.9</ele>
        <time>2019-06-27T08:22:49Z</time>
      </trkpt>
      <trkpt lat="43.250401" lon="-2.955908">
        <ele>238.2</ele>
        <time>2019-06-27T08:22:49Z</time>
      </trkpt>
      <trkpt lat="43.250450" lon="-2.956029">
        <ele>238.0</ele>
        <time>2019-06-27T08:22:49Z</time>
      </trkpt>
      <trkpt lat="43.250504" lon="-2.956152">
        <ele>237.6</ele>
        <time>2019-06-27T08:22:49Z</time>
      </trkpt>
      <trkpt lat="43.250557" lon="-2.956274">
        <ele>237.2</ele>
        <time>2019-06-27T08:22:49Z</time>
      </trkpt>
      <trkpt lat="43.250610" lon="-2.956396">
        <ele>236.8</ele>
        <time>2019-06-27T08:22:49Z</time>
      </trkpt>
      <trkpt lat="43.250664" lon="-2.956518">
        <ele>237.1</ele>
        <time>2019-06-27T08:22:49Z</time>
      </trkpt>
      <trkpt lat="43.250711" lon="-2.956577">
        <ele>236.2</ele>
        <time>2019-06-27T08:22:49Z</time>
      </trkpt>
      <trkpt lat="43.250753" lon="-2.956679">
        <ele>236.1</ele>
        <time>2019-06-27T08:22:49Z</time>
      </trkpt>
      <trkpt lat="43.250796" lon="-2.956781">
        <ele>235.7</ele>
        <time>2019-06-27T08:22:49Z</time>
      </trkpt>
      <trkpt lat="43.250828" lon="-2.956889">
        <ele>236.1</ele>
        <time>2019-06-27T08:22:49Z</time>
      </trkpt>
      <trkpt lat="43.250867" lon="-2.957001">
        <ele>236.2</ele>
        <time>2019-06-27T08:22:49Z</time>
      </trkpt>
      <trkpt lat="43.250907" lon="-2.957113">
        <ele>236.0</ele>
        <time>2019-06-27T08:22:49Z</time>
      </trkpt>
      <trkpt lat="43.250950" lon="-2.957225">
        <ele>236.3</ele>
        <time>2019-06-27T08:22:49Z</time>
      </trkpt>
      <trkpt lat="43.250997" lon="-2.957335">
        <ele>237.2</ele>
        <time>2019-06-27T08:22:49Z</time>
      </trkpt>
      <trkpt lat="43.251054" lon="-2.957430">
        <ele>237.4</ele>
        <time>2019-06-27T08:22:49Z</time>
      </trkpt>
      <trkpt lat="43.251122" lon="-2.957513">
        <ele>237.3</ele>
        <time>2019-06-27T08:22:49Z</time>
      </trkpt>
      <trkpt lat="43.251190" lon="-2.957597">
        <ele>237.1</ele>
        <time>2019-06-27T08:22:49Z</time>
      </trkpt>
      <trkpt lat="43.251258" lon="-2.957680">
        <ele>236.0</ele>
        <time>2019-06-27T08:22:49Z</time>
      </trkpt>
      <trkpt lat="43.251324" lon="-2.957773">
        <ele>235.0</ele>
        <time>2019-06-27T08:22:49Z</time>
      </trkpt>
      <trkpt lat="43.251362" lon="-2.957844">
        <ele>234.5</ele>
        <time>2019-06-27T08:22:49Z</time>
      </trkpt>
      <trkpt lat="43.251426" lon="-2.957936">
        <ele>233.4</ele>
        <time>2019-06-27T08:22:49Z</time>
      </trkpt>
      <trkpt lat="43.251489" lon="-2.958032">
        <ele>233.5</ele>
        <time>2019-06-27T08:22:49Z</time>
      </trkpt>
      <trkpt lat="43.251560" lon="-2.958090">
        <ele>232.7</ele>
        <time>2019-06-27T08:22:49Z</time>
      </trkpt>
      <trkpt lat="43.251641" lon="-2.958119">
        <ele>231.3</ele>
        <time>2019-06-27T08:22:49Z</time>
      </trkpt>
      <trkpt lat="43.251723" lon="-2.958143">
        <ele>230.5</ele>
        <time>2019-06-27T08:22:49Z</time>
      </trkpt>
      <trkpt lat="43.251806" lon="-2.958168">
        <ele>229.7</ele>
        <time>2019-06-27T08:22:49Z</time>
      </trkpt>
      <trkpt lat="43.251888" lon="-2.958194">
        <ele>228.8</ele>
        <time>2019-06-27T08:22:49Z</time>
      </trkpt>
      <trkpt lat="43.251971" lon="-2.958223">
        <ele>228.6</ele>
        <time>2019-06-27T08:22:49Z</time>
      </trkpt>
      <trkpt lat="43.252051" lon="-2.958274">
        <ele>228.5</ele>
        <time>2019-06-27T08:22:49Z</time>
      </trkpt>
      <trkpt lat="43.252132" lon="-2.958324">
        <ele>228.3</ele>
        <time>2019-06-27T08:22:49Z</time>
      </trkpt>
      <trkpt lat="43.252213" lon="-2.958375">
        <ele>228.3</ele>
        <time>2019-06-27T08:22:49Z</time>
      </trkpt>
      <trkpt lat="43.252294" lon="-2.958426">
        <ele>228.9</ele>
        <time>2019-06-27T08:22:49Z</time>
      </trkpt>
      <trkpt lat="43.252363" lon="-2.958492">
        <ele>228.9</ele>
        <time>2019-06-27T08:22:49Z</time>
      </trkpt>
      <trkpt lat="43.252435" lon="-2.958580">
        <ele>228.0</ele>
        <time>2019-06-27T08:22:49Z</time>
      </trkpt>
      <trkpt lat="43.252507" lon="-2.958667">
        <ele>228.0</ele>
        <time>2019-06-27T08:22:49Z</time>
      </trkpt>
      <trkpt lat="43.252571" lon="-2.958782">
        <ele>229.0</ele>
        <time>2019-06-27T08:22:49Z</time>
      </trkpt>
      <trkpt lat="43.252632" lon="-2.958901">
        <ele>228.4</ele>
        <time>2019-06-27T08:22:49Z</time>
      </trkpt>
      <trkpt lat="43.252694" lon="-2.959012">
        <ele>226.1</ele>
        <time>2019-06-27T08:22:49Z</time>
      </trkpt>
      <trkpt lat="43.252755" lon="-2.959126">
        <ele>225.6</ele>
        <time>2019-06-27T08:22:49Z</time>
      </trkpt>
      <trkpt lat="43.252800" lon="-2.959258">
        <ele>225.7</ele>
        <time>2019-06-27T08:22:49Z</time>
      </trkpt>
      <trkpt lat="43.252841" lon="-2.959393">
        <ele>226.7</ele>
        <time>2019-06-27T08:22:49Z</time>
      </trkpt>
      <trkpt lat="43.252883" lon="-2.959528">
        <ele>226.7</ele>
        <time>2019-06-27T08:22:49Z</time>
      </trkpt>
      <trkpt lat="43.252923" lon="-2.959671">
        <ele>227.3</ele>
        <time>2019-06-27T08:22:49Z</time>
      </trkpt>
      <trkpt lat="43.252965" lon="-2.959815">
        <ele>228.8</ele>
        <time>2019-06-27T08:22:49Z</time>
      </trkpt>
      <trkpt lat="43.253011" lon="-2.959952">
        <ele>229.0</ele>
        <time>2019-06-27T08:22:49Z</time>
      </trkpt>
      <trkpt lat="43.253056" lon="-2.960089">
        <ele>230.2</ele>
        <time>2019-06-27T08:22:49Z</time>
      </trkpt>
      <trkpt lat="43.253106" lon="-2.960225">
        <ele>230.2</ele>
        <time>2019-06-27T08:22:49Z</time>
      </trkpt>
      <trkpt lat="43.253156" lon="-2.960361">
        <ele>230.0</ele>
        <time>2019-06-27T08:22:49Z</time>
      </trkpt>
      <trkpt lat="43.253205" lon="-2.960498">
        <ele>231.1</ele>
        <time>2019-06-27T08:22:49Z</time>
      </trkpt>
      <trkpt lat="43.253255" lon="-2.960634">
        <ele>232.2</ele>
        <time>2019-06-27T08:22:49Z</time>
      </trkpt>
      <trkpt lat="43.253304" lon="-2.960746">
        <ele>231.9</ele>
        <time>2019-06-27T08:22:49Z</time>
      </trkpt>
      <trkpt lat="43.253350" lon="-2.960871">
        <ele>231.9</ele>
        <time>2019-06-27T08:22:49Z</time>
      </trkpt>
      <trkpt lat="43.253403" lon="-2.961001">
        <ele>232.3</ele>
        <time>2019-06-27T08:22:49Z</time>
      </trkpt>
      <trkpt lat="43.253456" lon="-2.961130">
        <ele>232.1</ele>
        <time>2019-06-27T08:22:49Z</time>
      </trkpt>
      <trkpt lat="43.253508" lon="-2.961270">
        <ele>232.0</ele>
        <time>2019-06-27T08:22:49Z</time>
      </trkpt>
      <trkpt lat="43.253545" lon="-2.961432">
        <ele>232.3</ele>
        <time>2019-06-27T08:22:49Z</time>
      </trkpt>
      <trkpt lat="43.253567" lon="-2.961610">
        <ele>233.6</ele>
        <time>2019-06-27T08:22:49Z</time>
      </trkpt>
      <trkpt lat="43.253581" lon="-2.961769">
        <ele>234.7</ele>
        <time>2019-06-27T08:22:49Z</time>
      </trkpt>
      <trkpt lat="43.253598" lon="-2.961931">
        <ele>234.9</ele>
        <time>2019-06-27T08:22:49Z</time>
      </trkpt>
      <trkpt lat="43.253624" lon="-2.962062">
        <ele>233.9</ele>
        <time>2019-06-27T08:22:49Z</time>
      </trkpt>
      <trkpt lat="43.253669" lon="-2.962148">
        <ele>232.4</ele>
        <time>2019-06-27T08:22:49Z</time>
      </trkpt>
      <trkpt lat="43.253715" lon="-2.962226">
        <ele>231.1</ele>
        <time>2019-06-27T08:22:49Z</time>
      </trkpt>
      <trkpt lat="43.253768" lon="-2.962295">
        <ele>230.0</ele>
        <time>2019-06-27T08:22:49Z</time>
      </trkpt>
      <trkpt lat="43.253843" lon="-2.962371">
        <ele>228.9</ele>
        <time>2019-06-27T08:22:49Z</time>
      </trkpt>
      <trkpt lat="43.253934" lon="-2.962409">
        <ele>227.1</ele>
        <time>2019-06-27T08:22:49Z</time>
      </trkpt>
      <trkpt lat="43.254057" lon="-2.962397">
        <ele>224.9</ele>
        <time>2019-06-27T08:22:49Z</time>
      </trkpt>
      <trkpt lat="43.254149" lon="-2.962376">
        <ele>223.4</ele>
        <time>2019-06-27T08:22:49Z</time>
      </trkpt>
      <trkpt lat="43.254243" lon="-2.962364">
        <ele>221.5</ele>
        <time>2019-06-27T08:22:49Z</time>
      </trkpt>
      <trkpt lat="43.254344" lon="-2.962353">
        <ele>221.0</ele>
        <time>2019-06-27T08:22:49Z</time>
      </trkpt>
      <trkpt lat="43.254449" lon="-2.962369">
        <ele>219.9</ele>
        <time>2019-06-27T08:22:49Z</time>
      </trkpt>
      <trkpt lat="43.254552" lon="-2.962420">
        <ele>219.0</ele>
        <time>2019-06-27T08:22:49Z</time>
      </trkpt>
      <trkpt lat="43.254626" lon="-2.962494">
        <ele>217.8</ele>
        <time>2019-06-27T08:22:49Z</time>
      </trkpt>
      <trkpt lat="43.254697" lon="-2.962582">
        <ele>216.9</ele>
        <time>2019-06-27T08:22:49Z</time>
      </trkpt>
      <trkpt lat="43.254771" lon="-2.962656">
        <ele>216.2</ele>
        <time>2019-06-27T08:22:49Z</time>
      </trkpt>
      <trkpt lat="43.254846" lon="-2.962731">
        <ele>215.6</ele>
        <time>2019-06-27T08:22:49Z</time>
      </trkpt>
      <trkpt lat="43.254923" lon="-2.962806">
        <ele>215.1</ele>
        <time>2019-06-27T08:22:49Z</time>
      </trkpt>
      <trkpt lat="43.254997" lon="-2.962862">
        <ele>214.8</ele>
        <time>2019-06-27T08:22:49Z</time>
      </trkpt>
      <trkpt lat="43.255071" lon="-2.962918">
        <ele>214.5</ele>
        <time>2019-06-27T08:22:49Z</time>
      </trkpt>
      <trkpt lat="43.255146" lon="-2.962974">
        <ele>213.9</ele>
        <time>2019-06-27T08:22:49Z</time>
      </trkpt>
      <trkpt lat="43.255220" lon="-2.963030">
        <ele>213.1</ele>
        <time>2019-06-27T08:22:49Z</time>
      </trkpt>
      <trkpt lat="43.255298" lon="-2.963076">
        <ele>212.3</ele>
        <time>2019-06-27T08:22:49Z</time>
      </trkpt>
      <trkpt lat="43.255385" lon="-2.963132">
        <ele>210.5</ele>
        <time>2019-06-27T08:22:49Z</time>
      </trkpt>
      <trkpt lat="43.255472" lon="-2.963188">
        <ele>209.5</ele>
        <time>2019-06-27T08:22:49Z</time>
      </trkpt>
      <trkpt lat="43.255559" lon="-2.963244">
        <ele>207.6</ele>
        <time>2019-06-27T08:22:49Z</time>
      </trkpt>
      <trkpt lat="43.255647" lon="-2.963301">
        <ele>205.1</ele>
        <time>2019-06-27T08:22:49Z</time>
      </trkpt>
      <trkpt lat="43.255741" lon="-2.963349">
        <ele>203.3</ele>
        <time>2019-06-27T08:22:49Z</time>
      </trkpt>
      <trkpt lat="43.255837" lon="-2.963390">
        <ele>202.1</ele>
        <time>2019-06-27T08:22:49Z</time>
      </trkpt>
      <trkpt lat="43.255926" lon="-2.963450">
        <ele>200.2</ele>
        <time>2019-06-27T08:22:49Z</time>
      </trkpt>
      <trkpt lat="43.256015" lon="-2.963510">
        <ele>198.3</ele>
        <time>2019-06-27T08:22:49Z</time>
      </trkpt>
      <trkpt lat="43.256104" lon="-2.963569">
        <ele>196.3</ele>
        <time>2019-06-27T08:22:49Z</time>
      </trkpt>
      <trkpt lat="43.256193" lon="-2.963629">
        <ele>195.3</ele>
        <time>2019-06-27T08:22:49Z</time>
      </trkpt>
      <trkpt lat="43.256282" lon="-2.963689">
        <ele>193.3</ele>
        <time>2019-06-27T08:22:49Z</time>
      </trkpt>
      <trkpt lat="43.256361" lon="-2.963762">
        <ele>192.2</ele>
        <time>2019-06-27T08:22:49Z</time>
      </trkpt>
      <trkpt lat="43.256439" lon="-2.963836">
        <ele>190.0</ele>
        <time>2019-06-27T08:22:49Z</time>
      </trkpt>
      <trkpt lat="43.256498" lon="-2.963929">
        <ele>188.6</ele>
        <time>2019-06-27T08:22:49Z</time>
      </trkpt>
      <trkpt lat="43.256557" lon="-2.964024">
        <ele>187.0</ele>
        <time>2019-06-27T08:22:49Z</time>
      </trkpt>
      <trkpt lat="43.256617" lon="-2.964115">
        <ele>187.0</ele>
        <time>2019-06-27T08:22:49Z</time>
      </trkpt>
      <trkpt lat="43.256678" lon="-2.964125">
        <ele>187.0</ele>
        <time>2019-06-27T08:22:49Z</time>
      </trkpt>
      <trkpt lat="43.256746" lon="-2.964082">
        <ele>187.0</ele>
        <time>2019-06-27T08:22:49Z</time>
      </trkpt>
      <trkpt lat="43.256814" lon="-2.964039">
        <ele>188.0</ele>
        <time>2019-06-27T08:22:49Z</time>
      </trkpt>
      <trkpt lat="43.256884" lon="-2.963996">
        <ele>188.0</ele>
        <time>2019-06-27T08:22:49Z</time>
      </trkpt>
      <trkpt lat="43.256960" lon="-2.963955">
        <ele>187.7</ele>
        <time>2019-06-27T08:22:49Z</time>
      </trkpt>
      <trkpt lat="43.257035" lon="-2.963913">
        <ele>187.3</ele>
        <time>2019-06-27T08:22:49Z</time>
      </trkpt>
      <trkpt lat="43.257111" lon="-2.963867">
        <ele>186.6</ele>
        <time>2019-06-27T08:22:49Z</time>
      </trkpt>
      <trkpt lat="43.257187" lon="-2.963814">
        <ele>185.8</ele>
        <time>2019-06-27T08:22:49Z</time>
      </trkpt>
      <trkpt lat="43.257263" lon="-2.963748">
        <ele>184.8</ele>
        <time>2019-06-27T08:22:49Z</time>
      </trkpt>
      <trkpt lat="43.257338" lon="-2.963682">
        <ele>184.0</ele>
        <time>2019-06-27T08:22:49Z</time>
      </trkpt>
      <trkpt lat="43.257407" lon="-2.963599">
        <ele>184.0</ele>
        <time>2019-06-27T08:22:49Z</time>
      </trkpt>
      <trkpt lat="43.257467" lon="-2.963504">
        <ele>184.0</ele>
        <time>2019-06-27T08:22:49Z</time>
      </trkpt>
      <trkpt lat="43.257537" lon="-2.963432">
        <ele>183.3</ele>
        <time>2019-06-27T08:22:49Z</time>
      </trkpt>
      <trkpt lat="43.257606" lon="-2.963359">
        <ele>183.0</ele>
        <time>2019-06-27T08:22:49Z</time>
      </trkpt>
      <trkpt lat="43.257674" lon="-2.963276">
        <ele>183.0</ele>
        <time>2019-06-27T08:22:49Z</time>
      </trkpt>
      <trkpt lat="43.257742" lon="-2.963196">
        <ele>183.0</ele>
        <time>2019-06-27T08:22:49Z</time>
      </trkpt>
      <trkpt lat="43.257816" lon="-2.963119">
        <ele>183.0</ele>
        <time>2019-06-27T08:22:49Z</time>
      </trkpt>
      <trkpt lat="43.257889" lon="-2.963043">
        <ele>183.5</ele>
        <time>2019-06-27T08:22:49Z</time>
      </trkpt>
      <trkpt lat="43.257963" lon="-2.962966">
        <ele>183.9</ele>
        <time>2019-06-27T08:22:49Z</time>
      </trkpt>
      <trkpt lat="43.258032" lon="-2.962877">
        <ele>183.5</ele>
        <time>2019-06-27T08:22:49Z</time>
      </trkpt>
      <trkpt lat="43.258101" lon="-2.962788">
        <ele>183.1</ele>
        <time>2019-06-27T08:22:49Z</time>
      </trkpt>
      <trkpt lat="43.258181" lon="-2.962763">
        <ele>183.6</ele>
        <time>2019-06-27T08:22:49Z</time>
      </trkpt>
      <trkpt lat="43.258264" lon="-2.962753">
        <ele>184.0</ele>
        <time>2019-06-27T08:22:49Z</time>
      </trkpt>
      <trkpt lat="43.258345" lon="-2.962778">
        <ele>184.0</ele>
        <time>2019-06-27T08:22:49Z</time>
      </trkpt>
      <trkpt lat="43.258436" lon="-2.962804">
        <ele>184.0</ele>
        <time>2019-06-27T08:22:49Z</time>
      </trkpt>
      <trkpt lat="43.258532" lon="-2.962824">
        <ele>184.0</ele>
        <time>2019-06-27T08:22:49Z</time>
      </trkpt>
      <trkpt lat="43.258629" lon="-2.962844">
        <ele>184.7</ele>
        <time>2019-06-27T08:22:49Z</time>
      </trkpt>
      <trkpt lat="43.258712" lon="-2.962877">
        <ele>185.0</ele>
        <time>2019-06-27T08:22:49Z</time>
      </trkpt>
      <trkpt lat="43.258781" lon="-2.962931">
        <ele>185.0</ele>
        <time>2019-06-27T08:22:49Z</time>
      </trkpt>
      <trkpt lat="43.258852" lon="-2.962953">
        <ele>185.0</ele>
        <time>2019-06-27T08:22:49Z</time>
      </trkpt>
      <trkpt lat="43.258910" lon="-2.962944">
        <ele>185.0</ele>
        <time>2019-06-27T08:22:49Z</time>
      </trkpt>
      <trkpt lat="43.258934" lon="-2.962884">
        <ele>185.0</ele>
        <time>2019-06-27T08:22:49Z</time>
      </trkpt>
      <trkpt lat="43.258977" lon="-2.962845">
        <ele>185.0</ele>
        <time>2019-06-27T08:22:49Z</time>
      </trkpt>
      <trkpt lat="43.259028" lon="-2.962893">
        <ele>185.0</ele>
        <time>2019-06-27T08:22:49Z</time>
      </trkpt>
      <trkpt lat="43.259084" lon="-2.962939">
        <ele>185.0</ele>
        <time>2019-06-27T08:22:49Z</time>
      </trkpt>
      <trkpt lat="43.259155" lon="-2.962986">
        <ele>184.7</ele>
        <time>2019-06-27T08:22:49Z</time>
      </trkpt>
      <trkpt lat="43.259224" lon="-2.963053">
        <ele>185.0</ele>
        <time>2019-06-27T08:22:49Z</time>
      </trkpt>
      <trkpt lat="43.259293" lon="-2.963121">
        <ele>185.0</ele>
        <time>2019-06-27T08:22:49Z</time>
      </trkpt>
      <trkpt lat="43.259364" lon="-2.963188">
        <ele>185.0</ele>
        <time>2019-06-27T08:22:49Z</time>
      </trkpt>
      <trkpt lat="43.259436" lon="-2.963255">
        <ele>185.0</ele>
        <time>2019-06-27T08:22:49Z</time>
      </trkpt>
      <trkpt lat="43.259508" lon="-2.963322">
        <ele>185.0</ele>
        <time>2019-06-27T08:22:49Z</time>
      </trkpt>
      <trkpt lat="43.259581" lon="-2.963390">
        <ele>185.0</ele>
        <time>2019-06-27T08:22:49Z</time>
      </trkpt>
      <trkpt lat="43.259657" lon="-2.963452">
        <ele>185.0</ele>
        <time>2019-06-27T08:22:49Z</time>
      </trkpt>
      <trkpt lat="43.259733" lon="-2.963514">
        <ele>184.7</ele>
        <time>2019-06-27T08:22:49Z</time>
      </trkpt>
      <trkpt lat="43.259809" lon="-2.963576">
        <ele>184.0</ele>
        <time>2019-06-27T08:22:49Z</time>
      </trkpt>
      <trkpt lat="43.259885" lon="-2.963642">
        <ele>183.4</ele>
        <time>2019-06-27T08:22:49Z</time>
      </trkpt>
      <trkpt lat="43.259957" lon="-2.963726">
        <ele>183.1</ele>
        <time>2019-06-27T08:22:49Z</time>
      </trkpt>
      <trkpt lat="43.260028" lon="-2.963809">
        <ele>182.8</ele>
        <time>2019-06-27T08:22:49Z</time>
      </trkpt>
      <trkpt lat="43.260100" lon="-2.963893">
        <ele>182.6</ele>
        <time>2019-06-27T08:22:49Z</time>
      </trkpt>
      <trkpt lat="43.260171" lon="-2.963976">
        <ele>182.4</ele>
        <time>2019-06-27T08:22:49Z</time>
      </trkpt>
      <trkpt lat="43.260243" lon="-2.964060">
        <ele>182.1</ele>
        <time>2019-06-27T08:22:49Z</time>
      </trkpt>
      <trkpt lat="43.260315" lon="-2.964143">
        <ele>181.9</ele>
        <time>2019-06-27T08:22:49Z</time>
      </trkpt>
      <trkpt lat="43.260391" lon="-2.964214">
        <ele>181.3</ele>
        <time>2019-06-27T08:22:49Z</time>
      </trkpt>
      <trkpt lat="43.260468" lon="-2.964295">
        <ele>181.0</ele>
        <time>2019-06-27T08:22:49Z</time>
      </trkpt>
      <trkpt lat="43.260525" lon="-2.964369">
        <ele>180.9</ele>
        <time>2019-06-27T08:22:49Z</time>
      </trkpt>
      <trkpt lat="43.260583" lon="-2.964442">
        <ele>179.9</ele>
        <time>2019-06-27T08:22:49Z</time>
      </trkpt>
      <trkpt lat="43.260642" lon="-2.964515">
        <ele>179.7</ele>
        <time>2019-06-27T08:22:49Z</time>
      </trkpt>
      <trkpt lat="43.260706" lon="-2.964586">
        <ele>179.1</ele>
        <time>2019-06-27T08:22:49Z</time>
      </trkpt>
      <trkpt lat="43.260771" lon="-2.964657">
        <ele>178.1</ele>
        <time>2019-06-27T08:22:49Z</time>
      </trkpt>
      <trkpt lat="43.260837" lon="-2.964728">
        <ele>177.8</ele>
        <time>2019-06-27T08:22:49Z</time>
      </trkpt>
      <trkpt lat="43.260908" lon="-2.964796">
        <ele>176.9</ele>
        <time>2019-06-27T08:22:49Z</time>
      </trkpt>
      <trkpt lat="43.260982" lon="-2.964861">
        <ele>176.7</ele>
        <time>2019-06-27T08:22:49Z</time>
      </trkpt>
      <trkpt lat="43.261059" lon="-2.964923">
        <ele>176.0</ele>
        <time>2019-06-27T08:22:49Z</time>
      </trkpt>
      <trkpt lat="43.261143" lon="-2.964978">
        <ele>175.1</ele>
        <time>2019-06-27T08:22:49Z</time>
      </trkpt>
      <trkpt lat="43.261228" lon="-2.965033">
        <ele>174.3</ele>
        <time>2019-06-27T08:22:49Z</time>
      </trkpt>
      <trkpt lat="43.261315" lon="-2.965086">
        <ele>173.4</ele>
        <time>2019-06-27T08:22:49Z</time>
      </trkpt>
      <trkpt lat="43.261405" lon="-2.965137">
        <ele>172.7</ele>
        <time>2019-06-27T08:22:49Z</time>
      </trkpt>
      <trkpt lat="43.261496" lon="-2.965187">
        <ele>170.2</ele>
        <time>2019-06-27T08:22:49Z</time>
      </trkpt>
      <trkpt lat="43.261559" lon="-2.965218">
        <ele>168.2</ele>
        <time>2019-06-27T08:22:49Z</time>
      </trkpt>
      <trkpt lat="43.261607" lon="-2.965175">
        <ele>168.0</ele>
        <time>2019-06-27T08:22:49Z</time>
      </trkpt>
      <trkpt lat="43.261658" lon="-2.965106">
        <ele>167.7</ele>
        <time>2019-06-27T08:22:49Z</time>
      </trkpt>
      <trkpt lat="43.261681" lon="-2.965041">
        <ele>167.0</ele>
        <time>2019-06-27T08:22:49Z</time>
      </trkpt>
      <trkpt lat="43.261726" lon="-2.965036">
        <ele>166.8</ele>
        <time>2019-06-27T08:22:49Z</time>
      </trkpt>
      <trkpt lat="43.261761" lon="-2.965064">
        <ele>166.7</ele>
        <time>2019-06-27T08:22:49Z</time>
      </trkpt>
      <trkpt lat="43.261821" lon="-2.965044">
        <ele>164.9</ele>
        <time>2019-06-27T08:22:49Z</time>
      </trkpt>
      <trkpt lat="43.261879" lon="-2.965059">
        <ele>163.9</ele>
        <time>2019-06-27T08:22:49Z</time>
      </trkpt>
      <trkpt lat="43.261928" lon="-2.965072">
        <ele>162.5</ele>
        <time>2019-06-27T08:22:49Z</time>
      </trkpt>
      <trkpt lat="43.261970" lon="-2.965100">
        <ele>162.0</ele>
        <time>2019-06-27T08:22:49Z</time>
      </trkpt>
      <trkpt lat="43.262021" lon="-2.965117">
        <ele>160.7</ele>
        <time>2019-06-27T08:22:49Z</time>
      </trkpt>
      <trkpt lat="43.262076" lon="-2.965110">
        <ele>159.3</ele>
        <time>2019-06-27T08:22:49Z</time>
      </trkpt>
      <trkpt lat="43.262125" lon="-2.965076">
        <ele>157.1</ele>
        <time>2019-06-27T08:22:49Z</time>
      </trkpt>
      <trkpt lat="43.262177" lon="-2.965041">
        <ele>155.3</ele>
        <time>2019-06-27T08:22:49Z</time>
      </trkpt>
      <trkpt lat="43.262221" lon="-2.965027">
        <ele>154.9</ele>
        <time>2019-06-27T08:22:49Z</time>
      </trkpt>
      <trkpt lat="43.262266" lon="-2.965030">
        <ele>155.0</ele>
        <time>2019-06-27T08:22:49Z</time>
      </trkpt>
      <trkpt lat="43.262314" lon="-2.965023">
        <ele>154.7</ele>
        <time>2019-06-27T08:22:49Z</time>
      </trkpt>
      <trkpt lat="43.262268" lon="-2.964989">
        <ele>153.6</ele>
        <time>2019-06-27T08:22:49Z</time>
      </trkpt>
      <trkpt lat="43.262221" lon="-2.964960">
        <ele>152.7</ele>
        <time>2019-06-27T08:22:49Z</time>
      </trkpt>
      <trkpt lat="43.262243" lon="-2.964878">
        <ele>151.0</ele>
        <time>2019-06-27T08:22:49Z</time>
      </trkpt>
      <trkpt lat="43.262296" lon="-2.964890">
        <ele>151.2</ele>
        <time>2019-06-27T08:22:49Z</time>
      </trkpt>
      <trkpt lat="43.262357" lon="-2.964914">
        <ele>151.6</ele>
        <time>2019-06-27T08:22:49Z</time>
      </trkpt>
      <trkpt lat="43.262441" lon="-2.964938">
        <ele>152.0</ele>
        <time>2019-06-27T08:22:49Z</time>
      </trkpt>
      <trkpt lat="43.262523" lon="-2.964933">
        <ele>152.9</ele>
        <time>2019-06-27T08:22:49Z</time>
      </trkpt>
      <trkpt lat="43.262605" lon="-2.964918">
        <ele>153.7</ele>
        <time>2019-06-27T08:22:49Z</time>
      </trkpt>
      <trkpt lat="43.262689" lon="-2.964910">
        <ele>153.5</ele>
        <time>2019-06-27T08:22:49Z</time>
      </trkpt>
      <trkpt lat="43.262773" lon="-2.964903">
        <ele>154.4</ele>
        <time>2019-06-27T08:22:49Z</time>
      </trkpt>
      <trkpt lat="43.262857" lon="-2.964895">
        <ele>154.3</ele>
        <time>2019-06-27T08:22:49Z</time>
      </trkpt>
      <trkpt lat="43.262942" lon="-2.964904">
        <ele>154.4</ele>
        <time>2019-06-27T08:22:49Z</time>
      </trkpt>
      <trkpt lat="43.263026" lon="-2.964922">
        <ele>155.1</ele>
        <time>2019-06-27T08:22:49Z</time>
      </trkpt>
      <trkpt lat="43.263102" lon="-2.964910">
        <ele>155.6</ele>
        <time>2019-06-27T08:22:49Z</time>
      </trkpt>
      <trkpt lat="43.263177" lon="-2.964872">
        <ele>155.9</ele>
        <time>2019-06-27T08:22:49Z</time>
      </trkpt>
      <trkpt lat="43.263253" lon="-2.964832">
        <ele>156.3</ele>
        <time>2019-06-27T08:22:49Z</time>
      </trkpt>
      <trkpt lat="43.263314" lon="-2.964855">
        <ele>156.4</ele>
        <time>2019-06-27T08:22:49Z</time>
      </trkpt>
      <trkpt lat="43.263368" lon="-2.964907">
        <ele>156.5</ele>
        <time>2019-06-27T08:22:49Z</time>
      </trkpt>
      <trkpt lat="43.263404" lon="-2.964975">
        <ele>157.6</ele>
        <time>2019-06-27T08:22:49Z</time>
      </trkpt>
      <trkpt lat="43.263425" lon="-2.965057">
        <ele>158.0</ele>
        <time>2019-06-27T08:22:49Z</time>
      </trkpt>
      <trkpt lat="43.263462" lon="-2.965033">
        <ele>157.5</ele>
        <time>2019-06-27T08:22:49Z</time>
      </trkpt>
      <trkpt lat="43.263501" lon="-2.964959">
        <ele>155.4</ele>
        <time>2019-06-27T08:22:49Z</time>
      </trkpt>
      <trkpt lat="43.263540" lon="-2.964902">
        <ele>154.1</ele>
        <time>2019-06-27T08:22:49Z</time>
      </trkpt>
      <trkpt lat="43.263582" lon="-2.964819">
        <ele>153.0</ele>
        <time>2019-06-27T08:22:49Z</time>
      </trkpt>
      <trkpt lat="43.263624" lon="-2.964715">
        <ele>151.4</ele>
        <time>2019-06-27T08:22:49Z</time>
      </trkpt>
      <trkpt lat="43.263656" lon="-2.964621">
        <ele>150.9</ele>
        <time>2019-06-27T08:22:49Z</time>
      </trkpt>
      <trkpt lat="43.263681" lon="-2.964545">
        <ele>149.6</ele>
        <time>2019-06-27T08:22:49Z</time>
      </trkpt>
      <trkpt lat="43.263628" lon="-2.964490">
        <ele>148.5</ele>
        <time>2019-06-27T08:22:49Z</time>
      </trkpt>
      <trkpt lat="43.263570" lon="-2.964454">
        <ele>147.3</ele>
        <time>2019-06-27T08:22:49Z</time>
      </trkpt>
      <trkpt lat="43.263512" lon="-2.964442">
        <ele>146.9</ele>
        <time>2019-06-27T08:22:49Z</time>
      </trkpt>
      <trkpt lat="43.263447" lon="-2.964449">
        <ele>147.1</ele>
        <time>2019-06-27T08:22:49Z</time>
      </trkpt>
      <trkpt lat="43.263381" lon="-2.964456">
        <ele>146.6</ele>
        <time>2019-06-27T08:22:49Z</time>
      </trkpt>
      <trkpt lat="43.263315" lon="-2.964456">
        <ele>146.0</ele>
        <time>2019-06-27T08:22:49Z</time>
      </trkpt>
      <trkpt lat="43.263242" lon="-2.964444">
        <ele>145.0</ele>
        <time>2019-06-27T08:22:49Z</time>
      </trkpt>
      <trkpt lat="43.263168" lon="-2.964413">
        <ele>142.9</ele>
        <time>2019-06-27T08:22:49Z</time>
      </trkpt>
      <trkpt lat="43.263095" lon="-2.964382">
        <ele>141.9</ele>
        <time>2019-06-27T08:22:49Z</time>
      </trkpt>
      <trkpt lat="43.263022" lon="-2.964351">
        <ele>140.1</ele>
        <time>2019-06-27T08:22:49Z</time>
      </trkpt>
      <trkpt lat="43.262977" lon="-2.964311">
        <ele>138.7</ele>
        <time>2019-06-27T08:22:49Z</time>
      </trkpt>
      <trkpt lat="43.262963" lon="-2.964241">
        <ele>136.7</ele>
        <time>2019-06-27T08:22:49Z</time>
      </trkpt>
      <trkpt lat="43.263041" lon="-2.964226">
        <ele>136.9</ele>
        <time>2019-06-27T08:22:49Z</time>
      </trkpt>
      <trkpt lat="43.263109" lon="-2.964209">
        <ele>136.3</ele>
        <time>2019-06-27T08:22:49Z</time>
      </trkpt>
      <trkpt lat="43.263174" lon="-2.964190">
        <ele>135.9</ele>
        <time>2019-06-27T08:22:49Z</time>
      </trkpt>
      <trkpt lat="43.263230" lon="-2.964172">
        <ele>136.1</ele>
        <time>2019-06-27T08:22:49Z</time>
      </trkpt>
      <trkpt lat="43.263285" lon="-2.964154">
        <ele>136.3</ele>
        <time>2019-06-27T08:22:49Z</time>
      </trkpt>
      <trkpt lat="43.263341" lon="-2.964136">
        <ele>136.4</ele>
        <time>2019-06-27T08:22:49Z</time>
      </trkpt>
      <trkpt lat="43.263395" lon="-2.964117">
        <ele>136.9</ele>
        <time>2019-06-27T08:22:49Z</time>
      </trkpt>
      <trkpt lat="43.263449" lon="-2.964093">
        <ele>136.6</ele>
        <time>2019-06-27T08:22:49Z</time>
      </trkpt>
      <trkpt lat="43.263502" lon="-2.964068">
        <ele>136.7</ele>
        <time>2019-06-27T08:22:49Z</time>
      </trkpt>
      <trkpt lat="43.263571" lon="-2.964064">
        <ele>136.2</ele>
        <time>2019-06-27T08:22:49Z</time>
      </trkpt>
      <trkpt lat="43.263609" lon="-2.964062">
        <ele>135.8</ele>
        <time>2019-06-27T08:22:49Z</time>
      </trkpt>
      <trkpt lat="43.263659" lon="-2.964075">
        <ele>136.0</ele>
        <time>2019-06-27T08:22:49Z</time>
      </trkpt>
      <trkpt lat="43.263714" lon="-2.964107">
        <ele>137.0</ele>
        <time>2019-06-27T08:22:49Z</time>
      </trkpt>
      <trkpt lat="43.263778" lon="-2.964139">
        <ele>138.0</ele>
        <time>2019-06-27T08:22:49Z</time>
      </trkpt>
      <trkpt lat="43.263852" lon="-2.964163">
        <ele>137.8</ele>
        <time>2019-06-27T08:22:49Z</time>
      </trkpt>
      <trkpt lat="43.263925" lon="-2.964188">
        <ele>137.3</ele>
        <time>2019-06-27T08:22:49Z</time>
      </trkpt>
      <trkpt lat="43.264003" lon="-2.964238">
        <ele>137.2</ele>
        <time>2019-06-27T08:22:49Z</time>
      </trkpt>
      <trkpt lat="43.264081" lon="-2.964295">
        <ele>137.3</ele>
        <time>2019-06-27T08:22:49Z</time>
      </trkpt>
      <trkpt lat="43.264144" lon="-2.964316">
        <ele>136.6</ele>
        <time>2019-06-27T08:22:49Z</time>
      </trkpt>
      <trkpt lat="43.264212" lon="-2.964339">
        <ele>135.8</ele>
        <time>2019-06-27T08:22:49Z</time>
      </trkpt>
      <trkpt lat="43.264279" lon="-2.964362">
        <ele>135.1</ele>
        <time>2019-06-27T08:22:49Z</time>
      </trkpt>
      <trkpt lat="43.264346" lon="-2.964385">
        <ele>134.3</ele>
        <time>2019-06-27T08:22:49Z</time>
      </trkpt>
      <trkpt lat="43.264413" lon="-2.964429">
        <ele>134.1</ele>
        <time>2019-06-27T08:22:49Z</time>
      </trkpt>
      <trkpt lat="43.264480" lon="-2.964474">
        <ele>133.3</ele>
        <time>2019-06-27T08:22:49Z</time>
      </trkpt>
      <trkpt lat="43.264548" lon="-2.964515">
        <ele>133.1</ele>
        <time>2019-06-27T08:22:49Z</time>
      </trkpt>
      <trkpt lat="43.264616" lon="-2.964556">
        <ele>132.1</ele>
        <time>2019-06-27T08:22:49Z</time>
      </trkpt>
      <trkpt lat="43.264687" lon="-2.964600">
        <ele>131.2</ele>
        <time>2019-06-27T08:22:49Z</time>
      </trkpt>
      <trkpt lat="43.264757" lon="-2.964657">
        <ele>131.1</ele>
        <time>2019-06-27T08:22:49Z</time>
      </trkpt>
      <trkpt lat="43.264814" lon="-2.964729">
        <ele>131.5</ele>
        <time>2019-06-27T08:22:49Z</time>
      </trkpt>
      <trkpt lat="43.264868" lon="-2.964808">
        <ele>132.2</ele>
        <time>2019-06-27T08:22:49Z</time>
      </trkpt>
      <trkpt lat="43.264919" lon="-2.964892">
        <ele>133.1</ele>
        <time>2019-06-27T08:22:49Z</time>
      </trkpt>
      <trkpt lat="43.264970" lon="-2.964976">
        <ele>134.1</ele>
        <time>2019-06-27T08:22:49Z</time>
      </trkpt>
      <trkpt lat="43.265017" lon="-2.965066">
        <ele>135.5</ele>
        <time>2019-06-27T08:22:49Z</time>
      </trkpt>
      <trkpt lat="43.265068" lon="-2.965151">
        <ele>136.2</ele>
        <time>2019-06-27T08:22:49Z</time>
      </trkpt>
      <trkpt lat="43.265125" lon="-2.965230">
        <ele>136.5</ele>
        <time>2019-06-27T08:22:49Z</time>
      </trkpt>
      <trkpt lat="43.265184" lon="-2.965303">
        <ele>136.6</ele>
        <time>2019-06-27T08:22:49Z</time>
      </trkpt>
      <trkpt lat="43.265236" lon="-2.965376">
        <ele>136.8</ele>
        <time>2019-06-27T08:22:49Z</time>
      </trkpt>
      <trkpt lat="43.265287" lon="-2.965449">
        <ele>137.8</ele>
        <time>2019-06-27T08:22:49Z</time>
      </trkpt>
      <trkpt lat="43.265340" lon="-2.965521">
        <ele>138.2</ele>
        <time>2019-06-27T08:22:49Z</time>
      </trkpt>
      <trkpt lat="43.265403" lon="-2.965590">
        <ele>138.0</ele>
        <time>2019-06-27T08:22:49Z</time>
      </trkpt>
      <trkpt lat="43.265468" lon="-2.965662">
        <ele>138.9</ele>
        <time>2019-06-27T08:22:49Z</time>
      </trkpt>
      <trkpt lat="43.265537" lon="-2.965732">
        <ele>139.5</ele>
        <time>2019-06-27T08:22:49Z</time>
      </trkpt>
      <trkpt lat="43.265607" lon="-2.965801">
        <ele>138.6</ele>
        <time>2019-06-27T08:22:49Z</time>
      </trkpt>
      <trkpt lat="43.265670" lon="-2.965876">
        <ele>138.1</ele>
        <time>2019-06-27T08:22:49Z</time>
      </trkpt>
      <trkpt lat="43.265733" lon="-2.965950">
        <ele>138.4</ele>
        <time>2019-06-27T08:22:49Z</time>
      </trkpt>
      <trkpt lat="43.265795" lon="-2.966028">
        <ele>138.8</ele>
        <time>2019-06-27T08:22:49Z</time>
      </trkpt>
      <trkpt lat="43.265850" lon="-2.966108">
        <ele>139.9</ele>
        <time>2019-06-27T08:22:49Z</time>
      </trkpt>
      <trkpt lat="43.265893" lon="-2.966189">
        <ele>140.3</ele>
        <time>2019-06-27T08:22:49Z</time>
      </trkpt>
      <trkpt lat="43.265941" lon="-2.966272">
        <ele>141.2</ele>
        <time>2019-06-27T08:22:49Z</time>
      </trkpt>
      <trkpt lat="43.265972" lon="-2.966368">
        <ele>142.4</ele>
        <time>2019-06-27T08:22:49Z</time>
      </trkpt>
      <trkpt lat="43.266003" lon="-2.966463">
        <ele>142.4</ele>
        <time>2019-06-27T08:22:49Z</time>
      </trkpt>
      <trkpt lat="43.266036" lon="-2.966558">
        <ele>143.0</ele>
        <time>2019-06-27T08:22:49Z</time>
      </trkpt>
      <trkpt lat="43.266068" lon="-2.966652">
        <ele>142.9</ele>
        <time>2019-06-27T08:22:49Z</time>
      </trkpt>
      <trkpt lat="43.266102" lon="-2.966721">
        <ele>142.3</ele>
        <time>2019-06-27T08:22:49Z</time>
      </trkpt>
      <trkpt lat="43.266155" lon="-2.966740">
        <ele>141.1</ele>
        <time>2019-06-27T08:22:49Z</time>
      </trkpt>
      <trkpt lat="43.266216" lon="-2.966753">
        <ele>139.6</ele>
        <time>2019-06-27T08:22:49Z</time>
      </trkpt>
      <trkpt lat="43.266278" lon="-2.966776">
        <ele>138.2</ele>
        <time>2019-06-27T08:22:49Z</time>
      </trkpt>
      <trkpt lat="43.266328" lon="-2.966836">
        <ele>137.2</ele>
        <time>2019-06-27T08:22:49Z</time>
      </trkpt>
      <trkpt lat="43.266382" lon="-2.966895">
        <ele>135.9</ele>
        <time>2019-06-27T08:22:49Z</time>
      </trkpt>
      <trkpt lat="43.266444" lon="-2.966906">
        <ele>133.7</ele>
        <time>2019-06-27T08:22:49Z</time>
      </trkpt>
      <trkpt lat="43.266487" lon="-2.966858">
        <ele>131.9</ele>
        <time>2019-06-27T08:22:49Z</time>
      </trkpt>
      <trkpt lat="43.266522" lon="-2.966790">
        <ele>130.0</ele>
        <time>2019-06-27T08:22:49Z</time>
      </trkpt>
      <trkpt lat="43.266529" lon="-2.966692">
        <ele>128.2</ele>
        <time>2019-06-27T08:22:49Z</time>
      </trkpt>
      <trkpt lat="43.266515" lon="-2.966588">
        <ele>127.2</ele>
        <time>2019-06-27T08:22:49Z</time>
      </trkpt>
      <trkpt lat="43.266502" lon="-2.966484">
        <ele>126.5</ele>
        <time>2019-06-27T08:22:49Z</time>
      </trkpt>
      <trkpt lat="43.266483" lon="-2.966407">
        <ele>126.7</ele>
        <time>2019-06-27T08:22:49Z</time>
      </trkpt>
      <trkpt lat="43.266469" lon="-2.966327">
        <ele>125.7</ele>
        <time>2019-06-27T08:22:49Z</time>
      </trkpt>
      <trkpt lat="43.266472" lon="-2.966268">
        <ele>124.7</ele>
        <time>2019-06-27T08:22:49Z</time>
      </trkpt>
      <trkpt lat="43.266500" lon="-2.966210">
        <ele>123.8</ele>
        <time>2019-06-27T08:22:49Z</time>
      </trkpt>
      <trkpt lat="43.266549" lon="-2.966203">
        <ele>122.6</ele>
        <time>2019-06-27T08:22:49Z</time>
      </trkpt>
      <trkpt lat="43.266603" lon="-2.966219">
        <ele>121.1</ele>
        <time>2019-06-27T08:22:49Z</time>
      </trkpt>
      <trkpt lat="43.266662" lon="-2.966264">
        <ele>119.4</ele>
        <time>2019-06-27T08:22:49Z</time>
      </trkpt>
      <trkpt lat="43.266725" lon="-2.966310">
        <ele>118.8</ele>
        <time>2019-06-27T08:22:49Z</time>
      </trkpt>
      <trkpt lat="43.266770" lon="-2.966341">
        <ele>118.3</ele>
        <time>2019-06-27T08:22:49Z</time>
      </trkpt>
      <trkpt lat="43.266792" lon="-2.966422">
        <ele>118.0</ele>
        <time>2019-06-27T08:22:49Z</time>
      </trkpt>
      <trkpt lat="43.266818" lon="-2.966490">
        <ele>117.6</ele>
        <time>2019-06-27T08:22:49Z</time>
      </trkpt>
      <trkpt lat="43.266842" lon="-2.966562">
        <ele>117.9</ele>
        <time>2019-06-27T08:22:49Z</time>
      </trkpt>
      <trkpt lat="43.266871" lon="-2.966634">
        <ele>117.2</ele>
        <time>2019-06-27T08:22:49Z</time>
      </trkpt>
      <trkpt lat="43.266908" lon="-2.966688">
        <ele>115.6</ele>
        <time>2019-06-27T08:22:49Z</time>
      </trkpt>
      <trkpt lat="43.266948" lon="-2.966739">
        <ele>114.5</ele>
        <time>2019-06-27T08:22:49Z</time>
      </trkpt>
      <trkpt lat="43.266969" lon="-2.966815">
        <ele>114.0</ele>
        <time>2019-06-27T08:22:49Z</time>
      </trkpt>
      <trkpt lat="43.266981" lon="-2.966886">
        <ele>114.0</ele>
        <time>2019-06-27T08:22:49Z</time>
      </trkpt>
      <trkpt lat="43.267001" lon="-2.966954">
        <ele>114.8</ele>
        <time>2019-06-27T08:22:49Z</time>
      </trkpt>
      <trkpt lat="43.267036" lon="-2.967013">
        <ele>115.0</ele>
        <time>2019-06-27T08:22:49Z</time>
      </trkpt>
      <trkpt lat="43.267065" lon="-2.967090">
        <ele>116.0</ele>
        <time>2019-06-27T08:22:49Z</time>
      </trkpt>
      <trkpt lat="43.267097" lon="-2.967169">
        <ele>116.2</ele>
        <time>2019-06-27T08:22:49Z</time>
      </trkpt>
      <trkpt lat="43.267134" lon="-2.967247">
        <ele>117.3</ele>
        <time>2019-06-27T08:22:49Z</time>
      </trkpt>
      <trkpt lat="43.267183" lon="-2.967358">
        <ele>118.0</ele>
        <time>2019-06-27T08:22:49Z</time>
      </trkpt>
      <trkpt lat="43.267236" lon="-2.967453">
        <ele>118.9</ele>
        <time>2019-06-27T08:22:49Z</time>
      </trkpt>
      <trkpt lat="43.267304" lon="-2.967536">
        <ele>119.0</ele>
        <time>2019-06-27T08:22:49Z</time>
      </trkpt>
      <trkpt lat="43.267362" lon="-2.967574">
        <ele>119.7</ele>
        <time>2019-06-27T08:22:49Z</time>
      </trkpt>
      <trkpt lat="43.267442" lon="-2.967587">
        <ele>120.0</ele>
        <time>2019-06-27T08:22:49Z</time>
      </trkpt>
      <trkpt lat="43.267520" lon="-2.967590">
        <ele>120.0</ele>
        <time>2019-06-27T08:22:49Z</time>
      </trkpt>
      <trkpt lat="43.267605" lon="-2.967604">
        <ele>120.0</ele>
        <time>2019-06-27T08:22:49Z</time>
      </trkpt>
      <trkpt lat="43.267695" lon="-2.967636">
        <ele>120.0</ele>
        <time>2019-06-27T08:22:49Z</time>
      </trkpt>
      <trkpt lat="43.267791" lon="-2.967687">
        <ele>120.7</ele>
        <time>2019-06-27T08:22:49Z</time>
      </trkpt>
      <trkpt lat="43.267887" lon="-2.967737">
        <ele>120.8</ele>
        <time>2019-06-27T08:22:49Z</time>
      </trkpt>
      <trkpt lat="43.267983" lon="-2.967787">
        <ele>121.0</ele>
        <time>2019-06-27T08:22:49Z</time>
      </trkpt>
      <trkpt lat="43.268066" lon="-2.967855">
        <ele>120.8</ele>
        <time>2019-06-27T08:22:49Z</time>
      </trkpt>
      <trkpt lat="43.268140" lon="-2.967934">
        <ele>121.0</ele>
        <time>2019-06-27T08:22:49Z</time>
      </trkpt>
      <trkpt lat="43.268214" lon="-2.968012">
        <ele>121.0</ele>
        <time>2019-06-27T08:22:49Z</time>
      </trkpt>
      <trkpt lat="43.268292" lon="-2.968092">
        <ele>120.7</ele>
        <time>2019-06-27T08:22:49Z</time>
      </trkpt>
      <trkpt lat="43.268371" lon="-2.968172">
        <ele>120.0</ele>
        <time>2019-06-27T08:22:49Z</time>
      </trkpt>
      <trkpt lat="43.268431" lon="-2.968248">
        <ele>119.6</ele>
        <time>2019-06-27T08:22:49Z</time>
      </trkpt>
      <trkpt lat="43.268479" lon="-2.968345">
        <ele>118.8</ele>
        <time>2019-06-27T08:22:49Z</time>
      </trkpt>
      <trkpt lat="43.268569" lon="-2.968409">
        <ele>117.6</ele>
        <time>2019-06-27T08:22:49Z</time>
      </trkpt>
      <trkpt lat="43.268662" lon="-2.968471">
        <ele>116.5</ele>
        <time>2019-06-27T08:22:49Z</time>
      </trkpt>
      <trkpt lat="43.268756" lon="-2.968533">
        <ele>114.2</ele>
        <time>2019-06-27T08:22:49Z</time>
      </trkpt>
      <trkpt lat="43.268850" lon="-2.968596">
        <ele>113.1</ele>
        <time>2019-06-27T08:22:49Z</time>
      </trkpt>
      <trkpt lat="43.268948" lon="-2.968634">
        <ele>111.1</ele>
        <time>2019-06-27T08:22:49Z</time>
      </trkpt>
      <trkpt lat="43.269048" lon="-2.968663">
        <ele>109.9</ele>
        <time>2019-06-27T08:22:49Z</time>
      </trkpt>
      <trkpt lat="43.269149" lon="-2.968696">
        <ele>108.6</ele>
        <time>2019-06-27T08:22:49Z</time>
      </trkpt>
      <trkpt lat="43.269250" lon="-2.968753">
        <ele>107.0</ele>
        <time>2019-06-27T08:22:49Z</time>
      </trkpt>
      <trkpt lat="43.269341" lon="-2.968833">
        <ele>105.3</ele>
        <time>2019-06-27T08:22:49Z</time>
      </trkpt>
      <trkpt lat="43.269431" lon="-2.968913">
        <ele>104.4</ele>
        <time>2019-06-27T08:22:49Z</time>
      </trkpt>
      <trkpt lat="43.269493" lon="-2.969007">
        <ele>104.0</ele>
        <time>2019-06-27T08:22:49Z</time>
      </trkpt>
      <trkpt lat="43.269537" lon="-2.969110">
        <ele>104.0</ele>
        <time>2019-06-27T08:22:49Z</time>
      </trkpt>
      <trkpt lat="43.269581" lon="-2.969155">
        <ele>104.0</ele>
        <time>2019-06-27T08:22:49Z</time>
      </trkpt>
      <trkpt lat="43.269608" lon="-2.969241">
        <ele>103.6</ele>
        <time>2019-06-27T08:22:49Z</time>
      </trkpt>
      <trkpt lat="43.269610" lon="-2.969356">
        <ele>103.0</ele>
        <time>2019-06-27T08:22:49Z</time>
      </trkpt>
      <trkpt lat="43.269611" lon="-2.969472">
        <ele>102.4</ele>
        <time>2019-06-27T08:22:49Z</time>
      </trkpt>
      <trkpt lat="43.269595" lon="-2.969573">
        <ele>101.8</ele>
        <time>2019-06-27T08:22:49Z</time>
      </trkpt>
      <trkpt lat="43.269559" lon="-2.969678">
        <ele>101.0</ele>
        <time>2019-06-27T08:22:49Z</time>
      </trkpt>
      <trkpt lat="43.269511" lon="-2.969782">
        <ele>100.2</ele>
        <time>2019-06-27T08:22:49Z</time>
      </trkpt>
      <trkpt lat="43.269450" lon="-2.969874">
        <ele>99.0</ele>
        <time>2019-06-27T08:22:49Z</time>
      </trkpt>
      <trkpt lat="43.269401" lon="-2.969934">
        <ele>99.0</ele>
        <time>2019-06-27T08:22:49Z</time>
      </trkpt>
      <trkpt lat="43.269351" lon="-2.969995">
        <ele>98.1</ele>
        <time>2019-06-27T08:22:49Z</time>
      </trkpt>
      <trkpt lat="43.269296" lon="-2.970066">
        <ele>97.7</ele>
        <time>2019-06-27T08:22:49Z</time>
      </trkpt>
      <trkpt lat="43.269241" lon="-2.970137">
        <ele>97.3</ele>
        <time>2019-06-27T08:22:49Z</time>
      </trkpt>
      <trkpt lat="43.269186" lon="-2.970208">
        <ele>96.4</ele>
        <time>2019-06-27T08:22:49Z</time>
      </trkpt>
      <trkpt lat="43.269130" lon="-2.970279">
        <ele>96.4</ele>
        <time>2019-06-27T08:22:49Z</time>
      </trkpt>
      <trkpt lat="43.269075" lon="-2.970350">
        <ele>96.8</ele>
        <time>2019-06-27T08:22:49Z</time>
      </trkpt>
      <trkpt lat="43.269020" lon="-2.970421">
        <ele>96.4</ele>
        <time>2019-06-27T08:22:49Z</time>
      </trkpt>
      <trkpt lat="43.268965" lon="-2.970493">
        <ele>96.1</ele>
        <time>2019-06-27T08:22:49Z</time>
      </trkpt>
      <trkpt lat="43.268910" lon="-2.970564">
        <ele>96.2</ele>
        <time>2019-06-27T08:22:49Z</time>
      </trkpt>
      <trkpt lat="43.268853" lon="-2.970636">
        <ele>96.6</ele>
        <time>2019-06-27T08:22:49Z</time>
      </trkpt>
      <trkpt lat="43.268795" lon="-2.970709">
        <ele>96.2</ele>
        <time>2019-06-27T08:22:49Z</time>
      </trkpt>
      <trkpt lat="43.268828" lon="-2.970772">
        <ele>94.2</ele>
        <time>2019-06-27T08:22:49Z</time>
      </trkpt>
      <trkpt lat="43.268884" lon="-2.970832">
        <ele>93.7</ele>
        <time>2019-06-27T08:22:49Z</time>
      </trkpt>
      <trkpt lat="43.268944" lon="-2.970864">
        <ele>92.8</ele>
        <time>2019-06-27T08:22:49Z</time>
      </trkpt>
      <trkpt lat="43.268969" lon="-2.970907">
        <ele>92.0</ele>
        <time>2019-06-27T08:22:49Z</time>
      </trkpt>
      <trkpt lat="43.268978" lon="-2.970981">
        <ele>91.4</ele>
        <time>2019-06-27T08:22:49Z</time>
      </trkpt>
      <trkpt lat="43.269000" lon="-2.971057">
        <ele>91.0</ele>
        <time>2019-06-27T08:22:49Z</time>
      </trkpt>
      <trkpt lat="43.268963" lon="-2.971114">
        <ele>92.0</ele>
        <time>2019-06-27T08:22:49Z</time>
      </trkpt>
      <trkpt lat="43.268994" lon="-2.971185">
        <ele>91.6</ele>
        <time>2019-06-27T08:22:49Z</time>
      </trkpt>
      <trkpt lat="43.269040" lon="-2.971267">
        <ele>90.9</ele>
        <time>2019-06-27T08:22:49Z</time>
      </trkpt>
      <trkpt lat="43.269086" lon="-2.971353">
        <ele>90.3</ele>
        <time>2019-06-27T08:22:49Z</time>
      </trkpt>
      <trkpt lat="43.269132" lon="-2.971439">
        <ele>89.6</ele>
        <time>2019-06-27T08:22:49Z</time>
      </trkpt>
      <trkpt lat="43.269180" lon="-2.971517">
        <ele>89.0</ele>
        <time>2019-06-27T08:22:49Z</time>
      </trkpt>
      <trkpt lat="43.269228" lon="-2.971603">
        <ele>88.0</ele>
        <time>2019-06-27T08:22:49Z</time>
      </trkpt>
      <trkpt lat="43.269242" lon="-2.971755">
        <ele>87.7</ele>
        <time>2019-06-27T08:22:49Z</time>
      </trkpt>
      <trkpt lat="43.269256" lon="-2.971829">
        <ele>86.4</ele>
        <time>2019-06-27T08:22:49Z</time>
      </trkpt>
      <trkpt lat="43.269323" lon="-2.971802">
        <ele>85.9</ele>
        <time>2019-06-27T08:22:49Z</time>
      </trkpt>
      <trkpt lat="43.269399" lon="-2.971779">
        <ele>85.8</ele>
        <time>2019-06-27T08:22:49Z</time>
      </trkpt>
      <trkpt lat="43.269476" lon="-2.971758">
        <ele>84.6</ele>
        <time>2019-06-27T08:22:49Z</time>
      </trkpt>
      <trkpt lat="43.269552" lon="-2.971737">
        <ele>83.9</ele>
        <time>2019-06-27T08:22:49Z</time>
      </trkpt>
      <trkpt lat="43.269627" lon="-2.971710">
        <ele>83.1</ele>
        <time>2019-06-27T08:22:49Z</time>
      </trkpt>
      <trkpt lat="43.269702" lon="-2.971683">
        <ele>82.1</ele>
        <time>2019-06-27T08:22:49Z</time>
      </trkpt>
      <trkpt lat="43.269777" lon="-2.971656">
        <ele>81.5</ele>
        <time>2019-06-27T08:22:49Z</time>
      </trkpt>
      <trkpt lat="43.269852" lon="-2.971629">
        <ele>79.8</ele>
        <time>2019-06-27T08:22:49Z</time>
      </trkpt>
      <trkpt lat="43.269924" lon="-2.971580">
        <ele>79.6</ele>
        <time>2019-06-27T08:22:49Z</time>
      </trkpt>
      <trkpt lat="43.269996" lon="-2.971530">
        <ele>79.7</ele>
        <time>2019-06-27T08:22:49Z</time>
      </trkpt>
      <trkpt lat="43.270062" lon="-2.971477">
        <ele>79.8</ele>
        <time>2019-06-27T08:22:49Z</time>
      </trkpt>
      <trkpt lat="43.270132" lon="-2.971502">
        <ele>79.3</ele>
        <time>2019-06-27T08:22:49Z</time>
      </trkpt>
      <trkpt lat="43.270176" lon="-2.971570">
        <ele>79.0</ele>
        <time>2019-06-27T08:22:49Z</time>
      </trkpt>
      <trkpt lat="43.270206" lon="-2.971660">
        <ele>78.0</ele>
        <time>2019-06-27T08:22:49Z</time>
      </trkpt>
      <trkpt lat="43.270241" lon="-2.971747">
        <ele>77.8</ele>
        <time>2019-06-27T08:22:49Z</time>
      </trkpt>
      <trkpt lat="43.270276" lon="-2.971835">
        <ele>77.0</ele>
        <time>2019-06-27T08:22:49Z</time>
      </trkpt>
      <trkpt lat="43.270321" lon="-2.971906">
        <ele>76.8</ele>
        <time>2019-06-27T08:22:49Z</time>
      </trkpt>
      <trkpt lat="43.270385" lon="-2.971948">
        <ele>76.2</ele>
        <time>2019-06-27T08:22:49Z</time>
      </trkpt>
      <trkpt lat="43.270430" lon="-2.972011">
        <ele>75.0</ele>
        <time>2019-06-27T08:22:49Z</time>
      </trkpt>
      <trkpt lat="43.270475" lon="-2.972125">
        <ele>72.4</ele>
        <time>2019-06-27T08:22:49Z</time>
      </trkpt>
      <trkpt lat="43.270539" lon="-2.972215">
        <ele>70.6</ele>
        <time>2019-06-27T08:22:49Z</time>
      </trkpt>
      <trkpt lat="43.270584" lon="-2.972267">
        <ele>68.8</ele>
        <time>2019-06-27T08:22:49Z</time>
      </trkpt>
      <trkpt lat="43.270637" lon="-2.972334">
        <ele>67.5</ele>
        <time>2019-06-27T08:22:49Z</time>
      </trkpt>
      <trkpt lat="43.270711" lon="-2.972276">
        <ele>67.8</ele>
        <time>2019-06-27T08:22:49Z</time>
      </trkpt>
      <trkpt lat="43.270792" lon="-2.972205">
        <ele>68.2</ele>
        <time>2019-06-27T08:22:49Z</time>
      </trkpt>
      <trkpt lat="43.270874" lon="-2.972102">
        <ele>69.0</ele>
        <time>2019-06-27T08:22:49Z</time>
      </trkpt>
      <trkpt lat="43.270968" lon="-2.971992">
        <ele>69.1</ele>
        <time>2019-06-27T08:22:49Z</time>
      </trkpt>
      <trkpt lat="43.271093" lon="-2.971886">
        <ele>68.6</ele>
        <time>2019-06-27T08:22:49Z</time>
      </trkpt>
      <trkpt lat="43.271218" lon="-2.971780">
        <ele>68.0</ele>
        <time>2019-06-27T08:22:49Z</time>
      </trkpt>
      <trkpt lat="43.271349" lon="-2.971692">
        <ele>67.0</ele>
        <time>2019-06-27T08:22:49Z</time>
      </trkpt>
      <trkpt lat="43.271437" lon="-2.971575">
        <ele>66.9</ele>
        <time>2019-06-27T08:22:49Z</time>
      </trkpt>
      <trkpt lat="43.271517" lon="-2.971435">
        <ele>66.5</ele>
        <time>2019-06-27T08:22:49Z</time>
      </trkpt>
      <trkpt lat="43.271576" lon="-2.971324">
        <ele>66.8</ele>
        <time>2019-06-27T08:22:49Z</time>
      </trkpt>
      <trkpt lat="43.271631" lon="-2.971204">
        <ele>67.0</ele>
        <time>2019-06-27T08:22:49Z</time>
      </trkpt>
      <trkpt lat="43.271678" lon="-2.971082">
        <ele>67.0</ele>
        <time>2019-06-27T08:22:49Z</time>
      </trkpt>
      <trkpt lat="43.271732" lon="-2.970944">
        <ele>67.1</ele>
        <time>2019-06-27T08:22:49Z</time>
      </trkpt>
      <trkpt lat="43.271778" lon="-2.970795">
        <ele>67.2</ele>
        <time>2019-06-27T08:22:49Z</time>
      </trkpt>
      <trkpt lat="43.271824" lon="-2.970646">
        <ele>67.2</ele>
        <time>2019-06-27T08:22:49Z</time>
      </trkpt>
      <trkpt lat="43.271864" lon="-2.970492">
        <ele>67.3</ele>
        <time>2019-06-27T08:22:49Z</time>
      </trkpt>
      <trkpt lat="43.271905" lon="-2.970326">
        <ele>67.7</ele>
        <time>2019-06-27T08:22:49Z</time>
      </trkpt>
      <trkpt lat="43.271946" lon="-2.970160">
        <ele>68.1</ele>
        <time>2019-06-27T08:22:49Z</time>
      </trkpt>
      <trkpt lat="43.271991" lon="-2.970103">
        <ele>68.5</ele>
        <time>2019-06-27T08:22:49Z</time>
      </trkpt>
      <trkpt lat="43.272087" lon="-2.970141">
        <ele>68.0</ele>
        <time>2019-06-27T08:22:49Z</time>
      </trkpt>
      <trkpt lat="43.272176" lon="-2.970180">
        <ele>68.0</ele>
        <time>2019-06-27T08:22:49Z</time>
      </trkpt>
      <trkpt lat="43.272187" lon="-2.970104">
        <ele>68.0</ele>
        <time>2019-06-27T08:22:49Z</time>
      </trkpt>
      <trkpt lat="43.272160" lon="-2.969988">
        <ele>69.0</ele>
        <time>2019-06-27T08:22:49Z</time>
      </trkpt>
      <trkpt lat="43.272153" lon="-2.969867">
        <ele>69.0</ele>
        <time>2019-06-27T08:22:49Z</time>
      </trkpt>
      <trkpt lat="43.272152" lon="-2.969759">
        <ele>69.0</ele>
        <time>2019-06-27T08:22:49Z</time>
      </trkpt>
      <trkpt lat="43.272157" lon="-2.969607">
        <ele>69.0</ele>
        <time>2019-06-27T08:22:49Z</time>
      </trkpt>
      <trkpt lat="43.272234" lon="-2.969595">
        <ele>68.1</ele>
        <time>2019-06-27T08:22:49Z</time>
      </trkpt>
      <trkpt lat="43.272247" lon="-2.969461">
        <ele>67.8</ele>
        <time>2019-06-27T08:22:49Z</time>
      </trkpt>
      <trkpt lat="43.272282" lon="-2.969352">
        <ele>67.1</ele>
        <time>2019-06-27T08:22:49Z</time>
      </trkpt>
      <trkpt lat="43.272330" lon="-2.969247">
        <ele>66.0</ele>
        <time>2019-06-27T08:22:49Z</time>
      </trkpt>
      <trkpt lat="43.272398" lon="-2.969225">
        <ele>65.2</ele>
        <time>2019-06-27T08:22:49Z</time>
      </trkpt>
      <trkpt lat="43.272396" lon="-2.969109">
        <ele>65.4</ele>
        <time>2019-06-27T08:22:49Z</time>
      </trkpt>
      <trkpt lat="43.272476" lon="-2.969120">
        <ele>63.7</ele>
        <time>2019-06-27T08:22:49Z</time>
      </trkpt>
      <trkpt lat="43.272536" lon="-2.969176">
        <ele>62.8</ele>
        <time>2019-06-27T08:22:49Z</time>
      </trkpt>
      <trkpt lat="43.272588" lon="-2.969242">
        <ele>61.5</ele>
        <time>2019-06-27T08:22:49Z</time>
      </trkpt>
      <trkpt lat="43.272659" lon="-2.969350">
        <ele>60.7</ele>
        <time>2019-06-27T08:22:49Z</time>
      </trkpt>
      <trkpt lat="43.272708" lon="-2.969433">
        <ele>60.6</ele>
        <time>2019-06-27T08:22:49Z</time>
      </trkpt>
      <trkpt lat="43.272788" lon="-2.969516">
        <ele>59.5</ele>
        <time>2019-06-27T08:22:49Z</time>
      </trkpt>
      <trkpt lat="43.272882" lon="-2.969567">
        <ele>57.9</ele>
        <time>2019-06-27T08:22:49Z</time>
      </trkpt>
      <trkpt lat="43.272977" lon="-2.969619">
        <ele>56.6</ele>
        <time>2019-06-27T08:22:49Z</time>
      </trkpt>
      <trkpt lat="43.273051" lon="-2.969680">
        <ele>55.0</ele>
        <time>2019-06-27T08:22:49Z</time>
      </trkpt>
      <trkpt lat="43.273133" lon="-2.969718">
        <ele>54.1</ele>
        <time>2019-06-27T08:22:49Z</time>
      </trkpt>
      <trkpt lat="43.273214" lon="-2.969757">
        <ele>52.4</ele>
        <time>2019-06-27T08:22:49Z</time>
      </trkpt>
      <trkpt lat="43.273296" lon="-2.969795">
        <ele>51.5</ele>
        <time>2019-06-27T08:22:49Z</time>
      </trkpt>
      <trkpt lat="43.273354" lon="-2.969873">
        <ele>50.4</ele>
        <time>2019-06-27T08:22:49Z</time>
      </trkpt>
      <trkpt lat="43.273391" lon="-2.969964">
        <ele>49.8</ele>
        <time>2019-06-27T08:22:49Z</time>
      </trkpt>
      <trkpt lat="43.273415" lon="-2.970068">
        <ele>49.8</ele>
        <time>2019-06-27T08:22:49Z</time>
      </trkpt>
      <trkpt lat="43.273434" lon="-2.970192">
        <ele>48.8</ele>
        <time>2019-06-27T08:22:49Z</time>
      </trkpt>
      <trkpt lat="43.273438" lon="-2.970330">
        <ele>48.4</ele>
        <time>2019-06-27T08:22:49Z</time>
      </trkpt>
      <trkpt lat="43.273441" lon="-2.970468">
        <ele>48.3</ele>
        <time>2019-06-27T08:22:49Z</time>
      </trkpt>
      <trkpt lat="43.273480" lon="-2.970495">
        <ele>47.5</ele>
        <time>2019-06-27T08:22:49Z</time>
      </trkpt>
      <trkpt lat="43.273535" lon="-2.970430">
        <ele>47.2</ele>
        <time>2019-06-27T08:22:49Z</time>
      </trkpt>
      <trkpt lat="43.273594" lon="-2.970381">
        <ele>45.9</ele>
        <time>2019-06-27T08:22:49Z</time>
      </trkpt>
      <trkpt lat="43.273653" lon="-2.970358">
        <ele>44.6</ele>
        <time>2019-06-27T08:22:49Z</time>
      </trkpt>
      <trkpt lat="43.273696" lon="-2.970268">
        <ele>43.7</ele>
        <time>2019-06-27T08:22:49Z</time>
      </trkpt>
      <trkpt lat="43.273693" lon="-2.970206">
        <ele>43.7</ele>
        <time>2019-06-27T08:22:49Z</time>
      </trkpt>
      <trkpt lat="43.273721" lon="-2.970144">
        <ele>42.7</ele>
        <time>2019-06-27T08:22:49Z</time>
      </trkpt>
      <trkpt lat="43.273750" lon="-2.970075">
        <ele>41.5</ele>
        <time>2019-06-27T08:22:49Z</time>
      </trkpt>
      <trkpt lat="43.273805" lon="-2.970079">
        <ele>40.6</ele>
        <time>2019-06-27T08:22:49Z</time>
      </trkpt>
      <trkpt lat="43.273859" lon="-2.970115">
        <ele>40.0</ele>
        <time>2019-06-27T08:22:49Z</time>
      </trkpt>
      <trkpt lat="43.273919" lon="-2.970169">
        <ele>38.7</ele>
        <time>2019-06-27T08:22:49Z</time>
      </trkpt>
      <trkpt lat="43.273988" lon="-2.970230">
        <ele>37.3</ele>
        <time>2019-06-27T08:22:49Z</time>
      </trkpt>
      <trkpt lat="43.274057" lon="-2.970291">
        <ele>33.5</ele>
        <time>2019-06-27T08:22:49Z</time>
      </trkpt>
      <trkpt lat="43.274107" lon="-2.970435">
        <ele>32.6</ele>
        <time>2019-06-27T08:22:49Z</time>
      </trkpt>
      <trkpt lat="43.274157" lon="-2.970525">
        <ele>30.6</ele>
        <time>2019-06-27T08:22:49Z</time>
      </trkpt>
      <trkpt lat="43.274168" lon="-2.970636">
        <ele>30.7</ele>
        <time>2019-06-27T08:22:49Z</time>
      </trkpt>
      <trkpt lat="43.274179" lon="-2.970747">
        <ele>31.1</ele>
        <time>2019-06-27T08:22:49Z</time>
      </trkpt>
      <trkpt lat="43.274190" lon="-2.970858">
        <ele>31.8</ele>
        <time>2019-06-27T08:22:49Z</time>
      </trkpt>
      <trkpt lat="43.274195" lon="-2.970977">
        <ele>31.8</ele>
        <time>2019-06-27T08:22:49Z</time>
      </trkpt>
      <trkpt lat="43.274180" lon="-2.971101">
        <ele>33.8</ele>
        <time>2019-06-27T08:22:49Z</time>
      </trkpt>
      <trkpt lat="43.274165" lon="-2.971226">
        <ele>33.9</ele>
        <time>2019-06-27T08:22:49Z</time>
      </trkpt>
      <trkpt lat="43.274159" lon="-2.971352">
        <ele>33.4</ele>
        <time>2019-06-27T08:22:49Z</time>
      </trkpt>
      <trkpt lat="43.274195" lon="-2.971478">
        <ele>32.2</ele>
        <time>2019-06-27T08:22:49Z</time>
      </trkpt>
      <trkpt lat="43.274239" lon="-2.971615">
        <ele>29.1</ele>
        <time>2019-06-27T08:22:49Z</time>
      </trkpt>
      <trkpt lat="43.274283" lon="-2.971653">
        <ele>26.6</ele>
        <time>2019-06-27T08:22:49Z</time>
      </trkpt>
      <trkpt lat="43.274386" lon="-2.971653">
        <ele>26.7</ele>
        <time>2019-06-27T08:22:49Z</time>
      </trkpt>
      <trkpt lat="43.274488" lon="-2.971652">
        <ele>27.0</ele>
        <time>2019-06-27T08:22:49Z</time>
      </trkpt>
      <trkpt lat="43.274587" lon="-2.971649">
        <ele>25.7</ele>
        <time>2019-06-27T08:22:49Z</time>
      </trkpt>
      <trkpt lat="43.274686" lon="-2.971646">
        <ele>20.7</ele>
        <time>2019-06-27T08:22:49Z</time>
      </trkpt>
      <trkpt lat="43.274785" lon="-2.971647">
        <ele>22.5</ele>
        <time>2019-06-27T08:22:49Z</time>
      </trkpt>
      <trkpt lat="43.274884" lon="-2.971648">
        <ele>23.3</ele>
        <time>2019-06-27T08:22:49Z</time>
      </trkpt>
      <trkpt lat="43.274932" lon="-2.971715">
        <ele>22.9</ele>
        <time>2019-06-27T08:22:49Z</time>
      </trkpt>
      <trkpt lat="43.274921" lon="-2.971816">
        <ele>22.1</ele>
        <time>2019-06-27T08:22:49Z</time>
      </trkpt>
      <trkpt lat="43.274857" lon="-2.971826">
        <ele>22.1</ele>
        <time>2019-06-27T08:22:49Z</time>
      </trkpt>
      <trkpt lat="43.274808" lon="-2.971776">
        <ele>22.0</ele>
        <time>2019-06-27T08:22:49Z</time>
      </trkpt>
      <trkpt lat="43.274802" lon="-2.971690">
        <ele>22.9</ele>
        <time>2019-06-27T08:22:49Z</time>
      </trkpt>
      <trkpt lat="43.274824" lon="-2.971665">
        <ele>23.3</ele>
        <time>2019-06-27T08:22:49Z</time>
      </trkpt>
      <trkpt lat="43.274897" lon="-2.971675">
        <ele>23.0</ele>
        <time>2019-06-27T08:22:49Z</time>
      </trkpt>
      <trkpt lat="43.274964" lon="-2.971725">
        <ele>22.7</ele>
        <time>2019-06-27T08:22:49Z</time>
      </trkpt>
      <trkpt lat="43.275026" lon="-2.971799">
        <ele>22.0</ele>
        <time>2019-06-27T08:22:49Z</time>
      </trkpt>
      <trkpt lat="43.275094" lon="-2.971857">
        <ele>21.0</ele>
        <time>2019-06-27T08:22:49Z</time>
      </trkpt>
      <trkpt lat="43.275161" lon="-2.971893">
        <ele>20.1</ele>
        <time>2019-06-27T08:22:49Z</time>
      </trkpt>
      <trkpt lat="43.275233" lon="-2.971933">
        <ele>19.0</ele>
        <time>2019-06-27T08:22:49Z</time>
      </trkpt>
      <trkpt lat="43.275310" lon="-2.971985">
        <ele>17.9</ele>
        <time>2019-06-27T08:22:49Z</time>
      </trkpt>
      <trkpt lat="43.275386" lon="-2.972037">
        <ele>17.0</ele>
        <time>2019-06-27T08:22:49Z</time>
      </trkpt>
      <trkpt lat="43.275462" lon="-2.972088">
        <ele>16.0</ele>
        <time>2019-06-27T08:22:49Z</time>
      </trkpt>
      <trkpt lat="43.275527" lon="-2.972089">
        <ele>16.0</ele>
        <time>2019-06-27T08:22:49Z</time>
      </trkpt>
      <trkpt lat="43.275597" lon="-2.972163">
        <ele>16.0</ele>
        <time>2019-06-27T08:22:49Z</time>
      </trkpt>
      <trkpt lat="43.275653" lon="-2.972090">
        <ele>15.2</ele>
        <time>2019-06-27T08:22:49Z</time>
      </trkpt>
      <trkpt lat="43.275709" lon="-2.971998">
        <ele>15.0</ele>
        <time>2019-06-27T08:22:49Z</time>
      </trkpt>
      <trkpt lat="43.275764" lon="-2.971906">
        <ele>14.7</ele>
        <time>2019-06-27T08:22:49Z</time>
      </trkpt>
      <trkpt lat="43.275824" lon="-2.971831">
        <ele>14.4</ele>
        <time>2019-06-27T08:22:49Z</time>
      </trkpt>
      <trkpt lat="43.275890" lon="-2.971743">
        <ele>14.0</ele>
        <time>2019-06-27T08:22:49Z</time>
      </trkpt>
      <trkpt lat="43.275928" lon="-2.971643">
        <ele>14.0</ele>
        <time>2019-06-27T08:22:49Z</time>
      </trkpt>
      <trkpt lat="43.275975" lon="-2.971545">
        <ele>14.0</ele>
        <time>2019-06-27T08:22:49Z</time>
      </trkpt>
      <trkpt lat="43.276027" lon="-2.971461">
        <ele>13.9</ele>
        <time>2019-06-27T08:22:49Z</time>
      </trkpt>
      <trkpt lat="43.276070" lon="-2.971364">
        <ele>13.0</ele>
        <time>2019-06-27T08:22:49Z</time>
      </trkpt>
      <trkpt lat="43.276124" lon="-2.971303">
        <ele>13.0</ele>
        <time>2019-06-27T08:22:49Z</time>
      </trkpt>
      <trkpt lat="43.276195" lon="-2.971285">
        <ele>13.0</ele>
        <time>2019-06-27T08:22:49Z</time>
      </trkpt>
      <trkpt lat="43.276269" lon="-2.971310">
        <ele>12.0</ele>
        <time>2019-06-27T08:22:49Z</time>
      </trkpt>
      <trkpt lat="43.276339" lon="-2.971344">
        <ele>11.9</ele>
        <time>2019-06-27T08:22:49Z</time>
      </trkpt>
      <trkpt lat="43.276377" lon="-2.971433">
        <ele>11.0</ele>
        <time>2019-06-27T08:22:49Z</time>
      </trkpt>
      <trkpt lat="43.276396" lon="-2.971532">
        <ele>11.0</ele>
        <time>2019-06-27T08:22:49Z</time>
      </trkpt>
      <trkpt lat="43.276438" lon="-2.971651">
        <ele>10.8</ele>
        <time>2019-06-27T08:22:49Z</time>
      </trkpt>
      <trkpt lat="43.276477" lon="-2.971748">
        <ele>10.0</ele>
        <time>2019-06-27T08:22:49Z</time>
      </trkpt>
      <trkpt lat="43.276520" lon="-2.971833">
        <ele>10.0</ele>
        <time>2019-06-27T08:22:49Z</time>
      </trkpt>
      <trkpt lat="43.276573" lon="-2.971883">
        <ele>10.0</ele>
        <time>2019-06-27T08:22:49Z</time>
      </trkpt>
      <trkpt lat="43.276661" lon="-2.971852">
        <ele>9.0</ele>
        <time>2019-06-27T08:22:49Z</time>
      </trkpt>
      <trkpt lat="43.276683" lon="-2.971793">
        <ele>9.2</ele>
        <time>2019-06-27T08:22:49Z</time>
      </trkpt>
      <trkpt lat="43.276665" lon="-2.971701">
        <ele>10.0</ele>
        <time>2019-06-27T08:22:49Z</time>
      </trkpt>
      <trkpt lat="43.276636" lon="-2.971603">
        <ele>10.0</ele>
        <time>2019-06-27T08:22:49Z</time>
      </trkpt>
      <trkpt lat="43.276651" lon="-2.971522">
        <ele>10.0</ele>
        <time>2019-06-27T08:22:49Z</time>
      </trkpt>
      <trkpt lat="43.276691" lon="-2.971463">
        <ele>10.0</ele>
        <time>2019-06-27T08:22:49Z</time>
      </trkpt>
      <trkpt lat="43.276653" lon="-2.971391">
        <ele>11.0</ele>
        <time>2019-06-27T08:22:49Z</time>
      </trkpt>
      <trkpt lat="43.276589" lon="-2.971333">
        <ele>11.0</ele>
        <time>2019-06-27T08:22:49Z</time>
      </trkpt>
      <trkpt lat="43.276510" lon="-2.971244">
        <ele>11.0</ele>
        <time>2019-06-27T08:22:49Z</time>
      </trkpt>
      <trkpt lat="43.276464" lon="-2.971096">
        <ele>12.0</ele>
        <time>2019-06-27T08:22:49Z</time>
      </trkpt>
      <trkpt lat="43.276429" lon="-2.970946">
        <ele>12.0</ele>
        <time>2019-06-27T08:22:49Z</time>
      </trkpt>
      <trkpt lat="43.276383" lon="-2.970821">
        <ele>13.0</ele>
        <time>2019-06-27T08:22:49Z</time>
      </trkpt>
      <trkpt lat="43.276332" lon="-2.970699">
        <ele>13.0</ele>
        <time>2019-06-27T08:22:49Z</time>
      </trkpt>
      <trkpt lat="43.276282" lon="-2.970574">
        <ele>13.1</ele>
        <time>2019-06-27T08:22:49Z</time>
      </trkpt>
      <trkpt lat="43.276242" lon="-2.970440">
        <ele>14.0</ele>
        <time>2019-06-27T08:22:49Z</time>
      </trkpt>
      <trkpt lat="43.276184" lon="-2.970322">
        <ele>13.7</ele>
        <time>2019-06-27T08:22:49Z</time>
      </trkpt>
      <trkpt lat="43.276134" lon="-2.970285">
        <ele>13.9</ele>
        <time>2019-06-27T08:22:49Z</time>
      </trkpt>
      <trkpt lat="43.276068" lon="-2.970222">
        <ele>13.9</ele>
        <time>2019-06-27T08:22:49Z</time>
      </trkpt>
      <trkpt lat="43.275999" lon="-2.970155">
        <ele>14.2</ele>
        <time>2019-06-27T08:22:49Z</time>
      </trkpt>
      <trkpt lat="43.275922" lon="-2.970097">
        <ele>13.9</ele>
        <time>2019-06-27T08:22:49Z</time>
      </trkpt>
      <trkpt lat="43.275840" lon="-2.970046">
        <ele>14.0</ele>
        <time>2019-06-27T08:22:49Z</time>
      </trkpt>
      <trkpt lat="43.275753" lon="-2.970000">
        <ele>14.2</ele>
        <time>2019-06-27T08:22:49Z</time>
      </trkpt>
      <trkpt lat="43.275683" lon="-2.969965">
        <ele>14.4</ele>
        <time>2019-06-27T08:22:49Z</time>
      </trkpt>
      <trkpt lat="43.275691" lon="-2.969861">
        <ele>10.4</ele>
        <time>2019-06-27T08:22:49Z</time>
      </trkpt>
      <trkpt lat="43.275688" lon="-2.969729">
        <ele>8.2</ele>
        <time>2019-06-27T08:22:49Z</time>
      </trkpt>
      <trkpt lat="43.275685" lon="-2.969596">
        <ele>5.0</ele>
        <time>2019-06-27T08:22:49Z</time>
      </trkpt>
      <trkpt lat="43.275656" lon="-2.969483">
        <ele>1.9</ele>
        <time>2019-06-27T08:22:49Z</time>
      </trkpt>
      <trkpt lat="43.275581" lon="-2.969423">
        <ele>2.3</ele>
        <time>2019-06-27T08:22:49Z</time>
      </trkpt>
      <trkpt lat="43.275499" lon="-2.969392">
        <ele>3.8</ele>
        <time>2019-06-27T08:22:49Z</time>
      </trkpt>
      <trkpt lat="43.275411" lon="-2.969386">
        <ele>7.1</ele>
        <time>2019-06-27T08:22:49Z</time>
      </trkpt>
      <trkpt lat="43.275323" lon="-2.969380">
        <ele>9.2</ele>
        <time>2019-06-27T08:22:49Z</time>
      </trkpt>
      <trkpt lat="43.275236" lon="-2.969373">
        <ele>9.5</ele>
        <time>2019-06-27T08:22:49Z</time>
      </trkpt>
      <trkpt lat="43.275151" lon="-2.969345">
        <ele>9.6</ele>
        <time>2019-06-27T08:22:49Z</time>
      </trkpt>
      <trkpt lat="43.275097" lon="-2.969275">
        <ele>8.5</ele>
        <time>2019-06-27T08:22:49Z</time>
      </trkpt>
      <trkpt lat="43.275112" lon="-2.969181">
        <ele>6.1</ele>
        <time>2019-06-27T08:22:49Z</time>
      </trkpt>
      <trkpt lat="43.275166" lon="-2.969124">
        <ele>2.0</ele>
        <time>2019-06-27T08:22:49Z</time>
      </trkpt>
      <trkpt lat="43.275245" lon="-2.969167">
        <ele>0.2</ele>
        <time>2019-06-27T08:22:49Z</time>
      </trkpt>
      <trkpt lat="43.275293" lon="-2.969228">
        <ele>1.0</ele>
        <time>2019-06-27T08:22:49Z</time>
      </trkpt>
      <trkpt lat="43.275321" lon="-2.969309">
        <ele>5.7</ele>
        <time>2019-06-27T08:22:49Z</time>
      </trkpt>
      <trkpt lat="43.275346" lon="-2.969404">
        <ele>9.6</ele>
        <time>2019-06-27T08:22:49Z</time>
      </trkpt>
      <trkpt lat="43.275359" lon="-2.969474">
        <ele>10.5</ele>
        <time>2019-06-27T08:22:49Z</time>
      </trkpt>
      <trkpt lat="43.275281" lon="-2.969441">
        <ele>10.0</ele>
        <time>2019-06-27T08:22:49Z</time>
      </trkpt>
      <trkpt lat="43.275211" lon="-2.969399">
        <ele>9.5</ele>
        <time>2019-06-27T08:22:49Z</time>
      </trkpt>
      <trkpt lat="43.275140" lon="-2.969357">
        <ele>9.8</ele>
        <time>2019-06-27T08:22:49Z</time>
      </trkpt>
      <trkpt lat="43.275062" lon="-2.969324">
        <ele>9.3</ele>
        <time>2019-06-27T08:22:49Z</time>
      </trkpt>
      <trkpt lat="43.274984" lon="-2.969293">
        <ele>10.0</ele>
        <time>2019-06-27T08:22:49Z</time>
      </trkpt>
      <trkpt lat="43.274906" lon="-2.969262">
        <ele>10.6</ele>
        <time>2019-06-27T08:22:49Z</time>
      </trkpt>
      <trkpt lat="43.274828" lon="-2.969230">
        <ele>11.0</ele>
        <time>2019-06-27T08:22:49Z</time>
      </trkpt>
      <trkpt lat="43.274744" lon="-2.969183">
        <ele>10.6</ele>
        <time>2019-06-27T08:22:49Z</time>
      </trkpt>
      <trkpt lat="43.274652" lon="-2.969116">
        <ele>11.0</ele>
        <time>2019-06-27T08:22:49Z</time>
      </trkpt>
      <trkpt lat="43.274560" lon="-2.969029">
        <ele>10.8</ele>
        <time>2019-06-27T08:22:49Z</time>
      </trkpt>
      <trkpt lat="43.274466" lon="-2.968943">
        <ele>10.1</ele>
        <time>2019-06-27T08:22:49Z</time>
      </trkpt>
      <trkpt lat="43.274371" lon="-2.968857">
        <ele>9.4</ele>
        <time>2019-06-27T08:22:49Z</time>
      </trkpt>
      <trkpt lat="43.274275" lon="-2.968760">
        <ele>8.9</ele>
        <time>2019-06-27T08:22:49Z</time>
      </trkpt>
      <trkpt lat="43.274196" lon="-2.968650">
        <ele>6.5</ele>
        <time>2019-06-27T08:22:49Z</time>
      </trkpt>
      <trkpt lat="43.274117" lon="-2.968540">
        <ele>5.8</ele>
        <time>2019-06-27T08:22:49Z</time>
      </trkpt>
      <trkpt lat="43.274043" lon="-2.968426">
        <ele>4.7</ele>
        <time>2019-06-27T08:22:49Z</time>
      </trkpt>
      <trkpt lat="43.273974" lon="-2.968312">
        <ele>3.9</ele>
        <time>2019-06-27T08:22:49Z</time>
      </trkpt>
      <trkpt lat="43.273906" lon="-2.968197">
        <ele>4.0</ele>
        <time>2019-06-27T08:22:49Z</time>
      </trkpt>
      <trkpt lat="43.273838" lon="-2.968082">
        <ele>3.6</ele>
        <time>2019-06-27T08:22:49Z</time>
      </trkpt>
      <trkpt lat="43.273764" lon="-2.967975">
        <ele>2.5</ele>
        <time>2019-06-27T08:22:49Z</time>
      </trkpt>
      <trkpt lat="43.273691" lon="-2.967868">
        <ele>2.4</ele>
        <time>2019-06-27T08:22:49Z</time>
      </trkpt>
      <trkpt lat="43.273622" lon="-2.967800">
        <ele>2.7</ele>
        <time>2019-06-27T08:22:49Z</time>
      </trkpt>
      <trkpt lat="43.273554" lon="-2.967731">
        <ele>2.3</ele>
        <time>2019-06-27T08:22:49Z</time>
      </trkpt>
      <trkpt lat="43.273497" lon="-2.967637">
        <ele>2.0</ele>
        <time>2019-06-27T08:22:49Z</time>
      </trkpt>
      <trkpt lat="43.273435" lon="-2.967548">
        <ele>1.9</ele>
        <time>2019-06-27T08:22:49Z</time>
      </trkpt>
      <trkpt lat="43.273374" lon="-2.967458">
        <ele>1.8</ele>
        <time>2019-06-27T08:22:49Z</time>
      </trkpt>
      <trkpt lat="43.273311" lon="-2.967371">
        <ele>0.8</ele>
        <time>2019-06-27T08:22:49Z</time>
      </trkpt>
      <trkpt lat="43.273241" lon="-2.967301">
        <ele>1.2</ele>
        <time>2019-06-27T08:22:49Z</time>
      </trkpt>
      <trkpt lat="43.273170" lon="-2.967229">
        <ele>1.6</ele>
        <time>2019-06-27T08:22:49Z</time>
      </trkpt>
      <trkpt lat="43.273100" lon="-2.967157">
        <ele>2.0</ele>
        <time>2019-06-27T08:22:49Z</time>
      </trkpt>
      <trkpt lat="43.273030" lon="-2.967087">
        <ele>2.4</ele>
        <time>2019-06-27T08:22:49Z</time>
      </trkpt>
      <trkpt lat="43.272953" lon="-2.967025">
        <ele>3.1</ele>
        <time>2019-06-27T08:22:49Z</time>
      </trkpt>
      <trkpt lat="43.272876" lon="-2.966962">
        <ele>3.6</ele>
        <time>2019-06-27T08:22:49Z</time>
      </trkpt>
      <trkpt lat="43.272800" lon="-2.966904">
        <ele>4.1</ele>
        <time>2019-06-27T08:22:49Z</time>
      </trkpt>
      <trkpt lat="43.272725" lon="-2.966843">
        <ele>4.4</ele>
        <time>2019-06-27T08:22:49Z</time>
      </trkpt>
      <trkpt lat="43.272651" lon="-2.966771">
        <ele>4.2</ele>
        <time>2019-06-27T08:22:49Z</time>
      </trkpt>
      <trkpt lat="43.272571" lon="-2.966691">
        <ele>4.2</ele>
        <time>2019-06-27T08:22:49Z</time>
      </trkpt>
      <trkpt lat="43.272492" lon="-2.966615">
        <ele>3.4</ele>
        <time>2019-06-27T08:22:49Z</time>
      </trkpt>
      <trkpt lat="43.272413" lon="-2.966539">
        <ele>2.6</ele>
        <time>2019-06-27T08:22:49Z</time>
      </trkpt>
      <trkpt lat="43.272335" lon="-2.966463">
        <ele>2.5</ele>
        <time>2019-06-27T08:22:49Z</time>
      </trkpt>
      <trkpt lat="43.272241" lon="-2.966394">
        <ele>2.4</ele>
        <time>2019-06-27T08:22:49Z</time>
      </trkpt>
      <trkpt lat="43.272136" lon="-2.966333">
        <ele>2.9</ele>
        <time>2019-06-27T08:22:49Z</time>
      </trkpt>
      <trkpt lat="43.272055" lon="-2.966263">
        <ele>2.3</ele>
        <time>2019-06-27T08:22:49Z</time>
      </trkpt>
      <trkpt lat="43.271974" lon="-2.966202">
        <ele>2.1</ele>
        <time>2019-06-27T08:22:49Z</time>
      </trkpt>
      <trkpt lat="43.271889" lon="-2.966154">
        <ele>2.4</ele>
        <time>2019-06-27T08:22:49Z</time>
      </trkpt>
      <trkpt lat="43.271803" lon="-2.966106">
        <ele>2.1</ele>
        <time>2019-06-27T08:22:49Z</time>
      </trkpt>
      <trkpt lat="43.271737" lon="-2.966069">
        <ele>1.9</ele>
        <time>2019-06-27T08:22:49Z</time>
      </trkpt>
      <trkpt lat="43.271671" lon="-2.966032">
        <ele>2.3</ele>
        <time>2019-06-27T08:22:49Z</time>
      </trkpt>
      <trkpt lat="43.271605" lon="-2.965994">
        <ele>2.4</ele>
        <time>2019-06-27T08:22:49Z</time>
      </trkpt>
      <trkpt lat="43.271534" lon="-2.965957">
        <ele>2.3</ele>
        <time>2019-06-27T08:22:49Z</time>
      </trkpt>
      <trkpt lat="43.271462" lon="-2.965920">
        <ele>2.3</ele>
        <time>2019-06-27T08:22:49Z</time>
      </trkpt>
      <trkpt lat="43.271391" lon="-2.965882">
        <ele>2.9</ele>
        <time>2019-06-27T08:22:49Z</time>
      </trkpt>
      <trkpt lat="43.271318" lon="-2.965846">
        <ele>3.8</ele>
        <time>2019-06-27T08:22:49Z</time>
      </trkpt>
      <trkpt lat="43.271239" lon="-2.965816">
        <ele>5.5</ele>
        <time>2019-06-27T08:22:49Z</time>
      </trkpt>
      <trkpt lat="43.271159" lon="-2.965779">
        <ele>4.9</ele>
        <time>2019-06-27T08:22:49Z</time>
      </trkpt>
      <trkpt lat="43.271079" lon="-2.965739">
        <ele>4.0</ele>
        <time>2019-06-27T08:22:49Z</time>
      </trkpt>
      <trkpt lat="43.270997" lon="-2.965690">
        <ele>3.9</ele>
        <time>2019-06-27T08:22:49Z</time>
      </trkpt>
      <trkpt lat="43.270914" lon="-2.965640">
        <ele>4.0</ele>
        <time>2019-06-27T08:22:49Z</time>
      </trkpt>
      <trkpt lat="43.270832" lon="-2.965591">
        <ele>4.4</ele>
        <time>2019-06-27T08:22:49Z</time>
      </trkpt>
      <trkpt lat="43.270741" lon="-2.965543">
        <ele>4.3</ele>
        <time>2019-06-27T08:22:49Z</time>
      </trkpt>
      <trkpt lat="43.270659" lon="-2.965507">
        <ele>4.4</ele>
        <time>2019-06-27T08:22:49Z</time>
      </trkpt>
      <trkpt lat="43.270577" lon="-2.965471">
        <ele>5.7</ele>
        <time>2019-06-27T08:22:49Z</time>
      </trkpt>
      <trkpt lat="43.270493" lon="-2.965416">
        <ele>5.9</ele>
        <time>2019-06-27T08:22:49Z</time>
      </trkpt>
      <trkpt lat="43.270401" lon="-2.965364">
        <ele>6.5</ele>
        <time>2019-06-27T08:22:49Z</time>
      </trkpt>
      <trkpt lat="43.270309" lon="-2.965312">
        <ele>7.3</ele>
        <time>2019-06-27T08:22:49Z</time>
      </trkpt>
      <trkpt lat="43.270217" lon="-2.965260">
        <ele>8.0</ele>
        <time>2019-06-27T08:22:49Z</time>
      </trkpt>
      <trkpt lat="43.270132" lon="-2.965199">
        <ele>6.8</ele>
        <time>2019-06-27T08:22:49Z</time>
      </trkpt>
      <trkpt lat="43.270049" lon="-2.965129">
        <ele>5.4</ele>
        <time>2019-06-27T08:22:49Z</time>
      </trkpt>
      <trkpt lat="43.269966" lon="-2.965057">
        <ele>4.4</ele>
        <time>2019-06-27T08:22:49Z</time>
      </trkpt>
      <trkpt lat="43.269882" lon="-2.964977">
        <ele>4.6</ele>
        <time>2019-06-27T08:22:49Z</time>
      </trkpt>
      <trkpt lat="43.269797" lon="-2.964895">
        <ele>4.5</ele>
        <time>2019-06-27T08:22:49Z</time>
      </trkpt>
      <trkpt lat="43.269713" lon="-2.964799">
        <ele>3.8</ele>
        <time>2019-06-27T08:22:49Z</time>
      </trkpt>
      <trkpt lat="43.269627" lon="-2.964715">
        <ele>4.3</ele>
        <time>2019-06-27T08:22:49Z</time>
      </trkpt>
      <trkpt lat="43.269542" lon="-2.964630">
        <ele>3.9</ele>
        <time>2019-06-27T08:22:49Z</time>
      </trkpt>
      <trkpt lat="43.269456" lon="-2.964545">
        <ele>4.1</ele>
        <time>2019-06-27T08:22:49Z</time>
      </trkpt>
      <trkpt lat="43.269371" lon="-2.964460">
        <ele>4.0</ele>
        <time>2019-06-27T08:22:49Z</time>
      </trkpt>
      <trkpt lat="43.269285" lon="-2.964375">
        <ele>3.4</ele>
        <time>2019-06-27T08:22:49Z</time>
      </trkpt>
      <trkpt lat="43.269200" lon="-2.964290">
        <ele>3.0</ele>
        <time>2019-06-27T08:22:49Z</time>
      </trkpt>
      <trkpt lat="43.269114" lon="-2.964206">
        <ele>4.0</ele>
        <time>2019-06-27T08:22:49Z</time>
      </trkpt>
      <trkpt lat="43.269029" lon="-2.964121">
        <ele>4.9</ele>
        <time>2019-06-27T08:22:49Z</time>
      </trkpt>
      <trkpt lat="43.268954" lon="-2.964037">
        <ele>4.2</ele>
        <time>2019-06-27T08:22:49Z</time>
      </trkpt>
      <trkpt lat="43.268880" lon="-2.963954">
        <ele>3.4</ele>
        <time>2019-06-27T08:22:49Z</time>
      </trkpt>
      <trkpt lat="43.268805" lon="-2.963871">
        <ele>3.9</ele>
        <time>2019-06-27T08:22:49Z</time>
      </trkpt>
      <trkpt lat="43.268730" lon="-2.963787">
        <ele>3.0</ele>
        <time>2019-06-27T08:22:49Z</time>
      </trkpt>
      <trkpt lat="43.268656" lon="-2.963704">
        <ele>3.2</ele>
        <time>2019-06-27T08:22:49Z</time>
      </trkpt>
      <trkpt lat="43.268581" lon="-2.963621">
        <ele>3.7</ele>
        <time>2019-06-27T08:22:49Z</time>
      </trkpt>
      <trkpt lat="43.268507" lon="-2.963538">
        <ele>2.8</ele>
        <time>2019-06-27T08:22:49Z</time>
      </trkpt>
      <trkpt lat="43.268432" lon="-2.963456">
        <ele>3.6</ele>
        <time>2019-06-27T08:22:49Z</time>
      </trkpt>
      <trkpt lat="43.268357" lon="-2.963374">
        <ele>3.6</ele>
        <time>2019-06-27T08:22:49Z</time>
      </trkpt>
      <trkpt lat="43.268283" lon="-2.963292">
        <ele>2.8</ele>
        <time>2019-06-27T08:22:49Z</time>
      </trkpt>
      <trkpt lat="43.268204" lon="-2.963216">
        <ele>3.5</ele>
        <time>2019-06-27T08:22:49Z</time>
      </trkpt>
      <trkpt lat="43.268128" lon="-2.963141">
        <ele>3.0</ele>
        <time>2019-06-27T08:22:49Z</time>
      </trkpt>
      <trkpt lat="43.268057" lon="-2.963065">
        <ele>3.0</ele>
        <time>2019-06-27T08:22:49Z</time>
      </trkpt>
      <trkpt lat="43.267993" lon="-2.962982">
        <ele>3.1</ele>
        <time>2019-06-27T08:22:49Z</time>
      </trkpt>
      <trkpt lat="43.267923" lon="-2.962908">
        <ele>2.9</ele>
        <time>2019-06-27T08:22:49Z</time>
      </trkpt>
      <trkpt lat="43.267854" lon="-2.962833">
        <ele>3.6</ele>
        <time>2019-06-27T08:22:49Z</time>
      </trkpt>
      <trkpt lat="43.267796" lon="-2.962756">
        <ele>3.1</ele>
        <time>2019-06-27T08:22:49Z</time>
      </trkpt>
      <trkpt lat="43.267738" lon="-2.962678">
        <ele>2.6</ele>
        <time>2019-06-27T08:22:49Z</time>
      </trkpt>
      <trkpt lat="43.267680" lon="-2.962623">
        <ele>3.0</ele>
        <time>2019-06-27T08:22:49Z</time>
      </trkpt>
      <trkpt lat="43.267625" lon="-2.962562">
        <ele>2.9</ele>
        <time>2019-06-27T08:22:49Z</time>
      </trkpt>
      <trkpt lat="43.267570" lon="-2.962501">
        <ele>3.1</ele>
        <time>2019-06-27T08:22:49Z</time>
      </trkpt>
      <trkpt lat="43.267510" lon="-2.962432">
        <ele>3.4</ele>
        <time>2019-06-27T08:22:49Z</time>
      </trkpt>
      <trkpt lat="43.267468" lon="-2.962353">
        <ele>2.1</ele>
        <time>2019-06-27T08:22:49Z</time>
      </trkpt>
      <trkpt lat="43.267412" lon="-2.962289">
        <ele>2.4</ele>
        <time>2019-06-27T08:22:49Z</time>
      </trkpt>
      <trkpt lat="43.267361" lon="-2.962201">
        <ele>1.8</ele>
        <time>2019-06-27T08:22:49Z</time>
      </trkpt>
      <trkpt lat="43.267311" lon="-2.962113">
        <ele>1.2</ele>
        <time>2019-06-27T08:22:49Z</time>
      </trkpt>
      <trkpt lat="43.267264" lon="-2.962021">
        <ele>1.2</ele>
        <time>2019-06-27T08:22:49Z</time>
      </trkpt>
      <trkpt lat="43.267209" lon="-2.961941">
        <ele>2.1</ele>
        <time>2019-06-27T08:22:49Z</time>
      </trkpt>
      <trkpt lat="43.267160" lon="-2.961860">
        <ele>1.7</ele>
        <time>2019-06-27T08:22:49Z</time>
      </trkpt>
      <trkpt lat="43.267111" lon="-2.961780">
        <ele>1.5</ele>
        <time>2019-06-27T08:22:49Z</time>
      </trkpt>
      <trkpt lat="43.267067" lon="-2.961699">
        <ele>2.5</ele>
        <time>2019-06-27T08:22:49Z</time>
      </trkpt>
      <trkpt lat="43.267025" lon="-2.961619">
        <ele>2.7</ele>
        <time>2019-06-27T08:22:49Z</time>
      </trkpt>
      <trkpt lat="43.266977" lon="-2.961538">
        <ele>2.5</ele>
        <time>2019-06-27T08:22:49Z</time>
      </trkpt>
      <trkpt lat="43.266928" lon="-2.961458">
        <ele>2.4</ele>
        <time>2019-06-27T08:22:49Z</time>
      </trkpt>
      <trkpt lat="43.266878" lon="-2.961377">
        <ele>2.5</ele>
        <time>2019-06-27T08:22:49Z</time>
      </trkpt>
      <trkpt lat="43.266828" lon="-2.961297">
        <ele>2.1</ele>
        <time>2019-06-27T08:22:49Z</time>
      </trkpt>
      <trkpt lat="43.266764" lon="-2.961206">
        <ele>2.6</ele>
        <time>2019-06-27T08:22:49Z</time>
      </trkpt>
      <trkpt lat="43.266686" lon="-2.961127">
        <ele>3.5</ele>
        <time>2019-06-27T08:22:49Z</time>
      </trkpt>
      <trkpt lat="43.266610" lon="-2.961039">
        <ele>3.4</ele>
        <time>2019-06-27T08:22:49Z</time>
      </trkpt>
      <trkpt lat="43.266532" lon="-2.960951">
        <ele>3.3</ele>
        <time>2019-06-27T08:22:49Z</time>
      </trkpt>
      <trkpt lat="43.266455" lon="-2.960849">
        <ele>3.2</ele>
        <time>2019-06-27T08:22:49Z</time>
      </trkpt>
      <trkpt lat="43.266378" lon="-2.960746">
        <ele>2.2</ele>
        <time>2019-06-27T08:22:49Z</time>
      </trkpt>
      <trkpt lat="43.266302" lon="-2.960643">
        <ele>2.3</ele>
        <time>2019-06-27T08:22:49Z</time>
      </trkpt>
      <trkpt lat="43.266225" lon="-2.960540">
        <ele>2.3</ele>
        <time>2019-06-27T08:22:49Z</time>
      </trkpt>
      <trkpt lat="43.266142" lon="-2.960438">
        <ele>2.7</ele>
        <time>2019-06-27T08:22:49Z</time>
      </trkpt>
      <trkpt lat="43.266051" lon="-2.960341">
        <ele>3.4</ele>
        <time>2019-06-27T08:22:49Z</time>
      </trkpt>
      <trkpt lat="43.265968" lon="-2.960232">
        <ele>3.6</ele>
        <time>2019-06-27T08:22:49Z</time>
      </trkpt>
      <trkpt lat="43.265892" lon="-2.960115">
        <ele>3.3</ele>
        <time>2019-06-27T08:22:49Z</time>
      </trkpt>
      <trkpt lat="43.265817" lon="-2.959997">
        <ele>2.8</ele>
        <time>2019-06-27T08:22:49Z</time>
      </trkpt>
      <trkpt lat="43.265741" lon="-2.959880">
        <ele>2.4</ele>
        <time>2019-06-27T08:22:49Z</time>
      </trkpt>
      <trkpt lat="43.265661" lon="-2.959780">
        <ele>2.7</ele>
        <time>2019-06-27T08:22:49Z</time>
      </trkpt>
      <trkpt lat="43.265588" lon="-2.959670">
        <ele>2.4</ele>
        <time>2019-06-27T08:22:49Z</time>
      </trkpt>
      <trkpt lat="43.265516" lon="-2.959560">
        <ele>2.0</ele>
        <time>2019-06-27T08:22:49Z</time>
      </trkpt>
      <trkpt lat="43.265443" lon="-2.959450">
        <ele>2.5</ele>
        <time>2019-06-27T08:22:49Z</time>
      </trkpt>
      <trkpt lat="43.265370" lon="-2.959339">
        <ele>3.3</ele>
        <time>2019-06-27T08:22:49Z</time>
      </trkpt>
      <trkpt lat="43.265299" lon="-2.959223">
        <ele>2.7</ele>
        <time>2019-06-27T08:22:49Z</time>
      </trkpt>
      <trkpt lat="43.265250" lon="-2.959113">
        <ele>2.0</ele>
        <time>2019-06-27T08:22:49Z</time>
      </trkpt>
      <trkpt lat="43.265195" lon="-2.959013">
        <ele>2.5</ele>
        <time>2019-06-27T08:22:49Z</time>
      </trkpt>
      <trkpt lat="43.265156" lon="-2.958897">
        <ele>2.4</ele>
        <time>2019-06-27T08:22:49Z</time>
      </trkpt>
      <trkpt lat="43.265112" lon="-2.958784">
        <ele>1.8</ele>
        <time>2019-06-27T08:22:49Z</time>
      </trkpt>
      <trkpt lat="43.265064" lon="-2.958671">
        <ele>2.2</ele>
        <time>2019-06-27T08:22:49Z</time>
      </trkpt>
      <trkpt lat="43.265018" lon="-2.958554">
        <ele>2.7</ele>
        <time>2019-06-27T08:22:49Z</time>
      </trkpt>
      <trkpt lat="43.264981" lon="-2.958417">
        <ele>2.3</ele>
        <time>2019-06-27T08:22:49Z</time>
      </trkpt>
      <trkpt lat="43.264945" lon="-2.958280">
        <ele>1.8</ele>
        <time>2019-06-27T08:22:49Z</time>
      </trkpt>
      <trkpt lat="43.264910" lon="-2.958142">
        <ele>1.4</ele>
        <time>2019-06-27T08:22:49Z</time>
      </trkpt>
      <trkpt lat="43.264884" lon="-2.957989">
        <ele>1.8</ele>
        <time>2019-06-27T08:22:49Z</time>
      </trkpt>
      <trkpt lat="43.264858" lon="-2.957835">
        <ele>1.5</ele>
        <time>2019-06-27T08:22:49Z</time>
      </trkpt>
      <trkpt lat="43.264833" lon="-2.957682">
        <ele>1.1</ele>
        <time>2019-06-27T08:22:49Z</time>
      </trkpt>
      <trkpt lat="43.264814" lon="-2.957578">
        <ele>1.3</ele>
        <time>2019-06-27T08:22:49Z</time>
      </trkpt>
      <trkpt lat="43.264781" lon="-2.957487">
        <ele>2.1</ele>
        <time>2019-06-27T08:22:49Z</time>
      </trkpt>
      <trkpt lat="43.264779" lon="-2.957319">
        <ele>1.6</ele>
        <time>2019-06-27T08:22:49Z</time>
      </trkpt>
      <trkpt lat="43.264770" lon="-2.957152">
        <ele>1.8</ele>
        <time>2019-06-27T08:22:49Z</time>
      </trkpt>
      <trkpt lat="43.264775" lon="-2.956983">
        <ele>0.7</ele>
        <time>2019-06-27T08:22:49Z</time>
      </trkpt>
      <trkpt lat="43.264781" lon="-2.956813">
        <ele>0.6</ele>
        <time>2019-06-27T08:22:49Z</time>
      </trkpt>
      <trkpt lat="43.264795" lon="-2.956636">
        <ele>1.3</ele>
        <time>2019-06-27T08:22:49Z</time>
      </trkpt>
      <trkpt lat="43.264811" lon="-2.956459">
        <ele>0.9</ele>
        <time>2019-06-27T08:22:49Z</time>
      </trkpt>
      <trkpt lat="43.264830" lon="-2.956304">
        <ele>0.6</ele>
        <time>2019-06-27T08:22:49Z</time>
      </trkpt>
      <trkpt lat="43.264848" lon="-2.956149">
        <ele>1.1</ele>
        <time>2019-06-27T08:22:49Z</time>
      </trkpt>
      <trkpt lat="43.264867" lon="-2.955995">
        <ele>0.6</ele>
        <time>2019-06-27T08:22:49Z</time>
      </trkpt>
      <trkpt lat="43.264886" lon="-2.955840">
        <ele>1.2</ele>
        <time>2019-06-27T08:22:49Z</time>
      </trkpt>
      <trkpt lat="43.264904" lon="-2.955685">
        <ele>0.8</ele>
        <time>2019-06-27T08:22:49Z</time>
      </trkpt>
      <trkpt lat="43.264923" lon="-2.955530">
        <ele>0.4</ele>
        <time>2019-06-27T08:22:49Z</time>
      </trkpt>
      <trkpt lat="43.264942" lon="-2.955376">
        <ele>1.0</ele>
        <time>2019-06-27T08:22:49Z</time>
      </trkpt>
      <trkpt lat="43.264960" lon="-2.955221">
        <ele>0.6</ele>
        <time>2019-06-27T08:22:49Z</time>
      </trkpt>
      <trkpt lat="43.264979" lon="-2.955066">
        <ele>1.2</ele>
        <time>2019-06-27T08:22:49Z</time>
      </trkpt>
      <trkpt lat="43.264997" lon="-2.954912">
        <ele>0.8</ele>
        <time>2019-06-27T08:22:49Z</time>
      </trkpt>
      <trkpt lat="43.265016" lon="-2.954754">
        <ele>0.4</ele>
        <time>2019-06-27T08:22:49Z</time>
      </trkpt>
      <trkpt lat="43.265039" lon="-2.954581">
        <ele>0.8</ele>
        <time>2019-06-27T08:22:49Z</time>
      </trkpt>
      <trkpt lat="43.265062" lon="-2.954409">
        <ele>1.6</ele>
        <time>2019-06-27T08:22:49Z</time>
      </trkpt>
      <trkpt lat="43.265084" lon="-2.954229">
        <ele>0.8</ele>
        <time>2019-06-27T08:22:49Z</time>
      </trkpt>
      <trkpt lat="43.265106" lon="-2.954049">
        <ele>1.6</ele>
        <time>2019-06-27T08:22:49Z</time>
      </trkpt>
      <trkpt lat="43.265128" lon="-2.953869">
        <ele>0.8</ele>
        <time>2019-06-27T08:22:49Z</time>
      </trkpt>
      <trkpt lat="43.265150" lon="-2.953689">
        <ele>1.5</ele>
        <time>2019-06-27T08:22:49Z</time>
      </trkpt>
      <trkpt lat="43.265172" lon="-2.953509">
        <ele>0.9</ele>
        <time>2019-06-27T08:22:49Z</time>
      </trkpt>
      <trkpt lat="43.265194" lon="-2.953329">
        <ele>1.5</ele>
        <time>2019-06-27T08:22:49Z</time>
      </trkpt>
      <trkpt lat="43.265222" lon="-2.953135">
        <ele>1.2</ele>
        <time>2019-06-27T08:22:49Z</time>
      </trkpt>
      <trkpt lat="43.265250" lon="-2.952942">
        <ele>1.2</ele>
        <time>2019-06-27T08:22:49Z</time>
      </trkpt>
      <trkpt lat="43.265279" lon="-2.952749">
        <ele>0.9</ele>
        <time>2019-06-27T08:22:49Z</time>
      </trkpt>
      <trkpt lat="43.265292" lon="-2.952610">
        <ele>1.4</ele>
        <time>2019-06-27T08:22:49Z</time>
      </trkpt>
      <trkpt lat="43.265310" lon="-2.952454">
        <ele>1.6</ele>
        <time>2019-06-27T08:22:49Z</time>
      </trkpt>
      <trkpt lat="43.265330" lon="-2.952299">
        <ele>1.7</ele>
        <time>2019-06-27T08:22:49Z</time>
      </trkpt>
      <trkpt lat="43.265350" lon="-2.952145">
        <ele>0.9</ele>
        <time>2019-06-27T08:22:49Z</time>
      </trkpt>
      <trkpt lat="43.265370" lon="-2.951990">
        <ele>0.9</ele>
        <time>2019-06-27T08:22:49Z</time>
      </trkpt>
      <trkpt lat="43.265390" lon="-2.951835">
        <ele>1.0</ele>
        <time>2019-06-27T08:22:49Z</time>
      </trkpt>
      <trkpt lat="43.265409" lon="-2.951680">
        <ele>0.8</ele>
        <time>2019-06-27T08:22:49Z</time>
      </trkpt>
      <trkpt lat="43.265429" lon="-2.951526">
        <ele>1.3</ele>
        <time>2019-06-27T08:22:49Z</time>
      </trkpt>
      <trkpt lat="43.265449" lon="-2.951371">
        <ele>0.9</ele>
        <time>2019-06-27T08:22:49Z</time>
      </trkpt>
      <trkpt lat="43.265469" lon="-2.951216">
        <ele>1.5</ele>
        <time>2019-06-27T08:22:49Z</time>
      </trkpt>
      <trkpt lat="43.265489" lon="-2.951061">
        <ele>0.8</ele>
        <time>2019-06-27T08:22:49Z</time>
      </trkpt>
      <trkpt lat="43.265508" lon="-2.950907">
        <ele>0.7</ele>
        <time>2019-06-27T08:22:49Z</time>
      </trkpt>
      <trkpt lat="43.265528" lon="-2.950752">
        <ele>0.9</ele>
        <time>2019-06-27T08:22:49Z</time>
      </trkpt>
      <trkpt lat="43.265548" lon="-2.950597">
        <ele>2.2</ele>
        <time>2019-06-27T08:22:49Z</time>
      </trkpt>
      <trkpt lat="43.265568" lon="-2.950442">
        <ele>3.3</ele>
        <time>2019-06-27T08:22:49Z</time>
      </trkpt>
      <trkpt lat="43.265587" lon="-2.950288">
        <ele>4.0</ele>
        <time>2019-06-27T08:22:49Z</time>
      </trkpt>
      <trkpt lat="43.265607" lon="-2.950133">
        <ele>4.0</ele>
        <time>2019-06-27T08:22:49Z</time>
      </trkpt>
      <trkpt lat="43.265627" lon="-2.949978">
        <ele>3.7</ele>
        <time>2019-06-27T08:22:49Z</time>
      </trkpt>
      <trkpt lat="43.265647" lon="-2.949824">
        <ele>3.3</ele>
        <time>2019-06-27T08:22:49Z</time>
      </trkpt>
      <trkpt lat="43.265660" lon="-2.949669">
        <ele>4.0</ele>
        <time>2019-06-27T08:22:49Z</time>
      </trkpt>
      <trkpt lat="43.265665" lon="-2.949516">
        <ele>3.7</ele>
        <time>2019-06-27T08:22:49Z</time>
      </trkpt>
      <trkpt lat="43.265672" lon="-2.949362">
        <ele>3.7</ele>
        <time>2019-06-27T08:22:49Z</time>
      </trkpt>
      <trkpt lat="43.265688" lon="-2.949211">
        <ele>3.5</ele>
        <time>2019-06-27T08:22:49Z</time>
      </trkpt>
      <trkpt lat="43.265706" lon="-2.949057">
        <ele>3.2</ele>
        <time>2019-06-27T08:22:49Z</time>
      </trkpt>
      <trkpt lat="43.265725" lon="-2.948904">
        <ele>1.8</ele>
        <time>2019-06-27T08:22:49Z</time>
      </trkpt>
      <trkpt lat="43.265743" lon="-2.948751">
        <ele>2.2</ele>
        <time>2019-06-27T08:22:49Z</time>
      </trkpt>
      <trkpt lat="43.265762" lon="-2.948598">
        <ele>1.4</ele>
        <time>2019-06-27T08:22:49Z</time>
      </trkpt>
      <trkpt lat="43.265781" lon="-2.948445">
        <ele>2.1</ele>
        <time>2019-06-27T08:22:49Z</time>
      </trkpt>
      <trkpt lat="43.265799" lon="-2.948291">
        <ele>2.1</ele>
        <time>2019-06-27T08:22:49Z</time>
      </trkpt>
      <trkpt lat="43.265818" lon="-2.948138">
        <ele>2.6</ele>
        <time>2019-06-27T08:22:49Z</time>
      </trkpt>
      <trkpt lat="43.265839" lon="-2.947985">
        <ele>4.0</ele>
        <time>2019-06-27T08:22:49Z</time>
      </trkpt>
      <trkpt lat="43.265864" lon="-2.947820">
        <ele>3.9</ele>
        <time>2019-06-27T08:22:49Z</time>
      </trkpt>
      <trkpt lat="43.265892" lon="-2.947653">
        <ele>3.7</ele>
        <time>2019-06-27T08:22:49Z</time>
      </trkpt>
      <trkpt lat="43.265922" lon="-2.947485">
        <ele>4.1</ele>
        <time>2019-06-27T08:22:49Z</time>
      </trkpt>
      <trkpt lat="43.265951" lon="-2.947317">
        <ele>4.0</ele>
        <time>2019-06-27T08:22:49Z</time>
      </trkpt>
      <trkpt lat="43.265979" lon="-2.947144">
        <ele>4.4</ele>
        <time>2019-06-27T08:22:49Z</time>
      </trkpt>
      <trkpt lat="43.266006" lon="-2.946972">
        <ele>5.4</ele>
        <time>2019-06-27T08:22:49Z</time>
      </trkpt>
      <trkpt lat="43.266030" lon="-2.946799">
        <ele>5.6</ele>
        <time>2019-06-27T08:22:49Z</time>
      </trkpt>
      <trkpt lat="43.266054" lon="-2.946628">
        <ele>7.0</ele>
        <time>2019-06-27T08:22:49Z</time>
      </trkpt>
      <trkpt lat="43.266078" lon="-2.946460">
        <ele>8.4</ele>
        <time>2019-06-27T08:22:49Z</time>
      </trkpt>
      <trkpt lat="43.266117" lon="-2.946334">
        <ele>12.4</ele>
        <time>2019-06-27T08:22:49Z</time>
      </trkpt>
      <trkpt lat="43.266179" lon="-2.946250">
        <ele>10.7</ele>
        <time>2019-06-27T08:22:49Z</time>
      </trkpt>
      <trkpt lat="43.266244" lon="-2.946189">
        <ele>6.7</ele>
        <time>2019-06-27T08:22:49Z</time>
      </trkpt>
      <trkpt lat="43.266303" lon="-2.946108">
        <ele>4.3</ele>
        <time>2019-06-27T08:22:49Z</time>
      </trkpt>
      <trkpt lat="43.266367" lon="-2.946056">
        <ele>4.0</ele>
        <time>2019-06-27T08:22:49Z</time>
      </trkpt>
      <trkpt lat="43.266403" lon="-2.945949">
        <ele>4.2</ele>
        <time>2019-06-27T08:22:49Z</time>
      </trkpt>
      <trkpt lat="43.266440" lon="-2.945841">
        <ele>5.0</ele>
        <time>2019-06-27T08:22:49Z</time>
      </trkpt>
      <trkpt lat="43.266482" lon="-2.945782">
        <ele>5.3</ele>
        <time>2019-06-27T08:22:49Z</time>
      </trkpt>
      <trkpt lat="43.266554" lon="-2.945839">
        <ele>5.0</ele>
        <time>2019-06-27T08:22:49Z</time>
      </trkpt>
      <trkpt lat="43.266628" lon="-2.945884">
        <ele>5.0</ele>
        <time>2019-06-27T08:22:49Z</time>
      </trkpt>
      <trkpt lat="43.266702" lon="-2.945928">
        <ele>5.0</ele>
        <time>2019-06-27T08:22:49Z</time>
      </trkpt>
      <trkpt lat="43.266776" lon="-2.945972">
        <ele>4.1</ele>
        <time>2019-06-27T08:22:49Z</time>
      </trkpt>
      <trkpt lat="43.266850" lon="-2.946017">
        <ele>4.0</ele>
        <time>2019-06-27T08:22:49Z</time>
      </trkpt>
      <trkpt lat="43.266925" lon="-2.946061">
        <ele>4.0</ele>
        <time>2019-06-27T08:22:49Z</time>
      </trkpt>
      <trkpt lat="43.266999" lon="-2.946105">
        <ele>4.0</ele>
        <time>2019-06-27T08:22:49Z</time>
      </trkpt>
      <trkpt lat="43.267075" lon="-2.946139">
        <ele>4.0</ele>
        <time>2019-06-27T08:22:49Z</time>
      </trkpt>
      <trkpt lat="43.267152" lon="-2.946182">
        <ele>4.0</ele>
        <time>2019-06-27T08:22:49Z</time>
      </trkpt>
      <trkpt lat="43.267231" lon="-2.946230">
        <ele>2.1</ele>
        <time>2019-06-27T08:22:49Z</time>
      </trkpt>
      <trkpt lat="43.267309" lon="-2.946279">
        <ele>0.0</ele>
        <time>2019-06-27T08:22:49Z</time>
      </trkpt>
      <trkpt lat="43.267391" lon="-2.946337">
        <ele>0.0</ele>
        <time>2019-06-27T08:22:49Z</time>
      </trkpt>
      <trkpt lat="43.267468" lon="-2.946425">
        <ele>0.0</ele>
        <time>2019-06-27T08:22:49Z</time>
      </trkpt>
      <trkpt lat="43.267542" lon="-2.946519">
        <ele>0.0</ele>
        <time>2019-06-27T08:22:49Z</time>
      </trkpt>
      <trkpt lat="43.267618" lon="-2.946624">
        <ele>0.0</ele>
        <time>2019-06-27T08:22:49Z</time>
      </trkpt>
      <trkpt lat="43.267695" lon="-2.946729">
        <ele>0.0</ele>
        <time>2019-06-27T08:22:49Z</time>
      </trkpt>
      <trkpt lat="43.267748" lon="-2.946856">
        <ele>1.4</ele>
        <time>2019-06-27T08:22:49Z</time>
      </trkpt>
      <trkpt lat="43.267802" lon="-2.946984">
        <ele>3.4</ele>
        <time>2019-06-27T08:22:49Z</time>
      </trkpt>
      <trkpt lat="43.267855" lon="-2.947111">
        <ele>4.0</ele>
        <time>2019-06-27T08:22:49Z</time>
      </trkpt>
      <trkpt lat="43.267901" lon="-2.947252">
        <ele>4.0</ele>
        <time>2019-06-27T08:22:49Z</time>
      </trkpt>
      <trkpt lat="43.267914" lon="-2.947418">
        <ele>4.0</ele>
        <time>2019-06-27T08:22:49Z</time>
      </trkpt>
      <trkpt lat="43.267928" lon="-2.947584">
        <ele>4.0</ele>
        <time>2019-06-27T08:22:49Z</time>
      </trkpt>
      <trkpt lat="43.267930" lon="-2.947756">
        <ele>4.0</ele>
        <time>2019-06-27T08:22:49Z</time>
      </trkpt>
      <trkpt lat="43.267921" lon="-2.947922">
        <ele>4.0</ele>
        <time>2019-06-27T08:22:49Z</time>
      </trkpt>
      <trkpt lat="43.267901" lon="-2.948088">
        <ele>4.0</ele>
        <time>2019-06-27T08:22:49Z</time>
      </trkpt>
      <trkpt lat="43.267871" lon="-2.948250">
        <ele>4.0</ele>
        <time>2019-06-27T08:22:49Z</time>
      </trkpt>
      <trkpt lat="43.267829" lon="-2.948403">
        <ele>4.0</ele>
        <time>2019-06-27T08:22:49Z</time>
      </trkpt>
      <trkpt lat="43.267789" lon="-2.948557">
        <ele>4.0</ele>
        <time>2019-06-27T08:22:49Z</time>
      </trkpt>
      <trkpt lat="43.267751" lon="-2.948711">
        <ele>4.0</ele>
        <time>2019-06-27T08:22:49Z</time>
      </trkpt>
      <trkpt lat="43.267713" lon="-2.948865">
        <ele>4.0</ele>
        <time>2019-06-27T08:22:49Z</time>
      </trkpt>
      <trkpt lat="43.267677" lon="-2.949020">
        <ele>4.0</ele>
        <time>2019-06-27T08:22:49Z</time>
      </trkpt>
      <trkpt lat="43.267647" lon="-2.949177">
        <ele>4.0</ele>
        <time>2019-06-27T08:22:49Z</time>
      </trkpt>
      <trkpt lat="43.267645" lon="-2.949310">
        <ele>4.0</ele>
        <time>2019-06-27T08:22:49Z</time>
      </trkpt>
      <trkpt lat="43.267659" lon="-2.949423">
        <ele>4.0</ele>
        <time>2019-06-27T08:22:49Z</time>
      </trkpt>
      <trkpt lat="43.267708" lon="-2.949491">
        <ele>4.0</ele>
        <time>2019-06-27T08:22:49Z</time>
      </trkpt>
      <trkpt lat="43.267771" lon="-2.949471">
        <ele>4.0</ele>
        <time>2019-06-27T08:22:49Z</time>
      </trkpt>
      <trkpt lat="43.267820" lon="-2.949438">
        <ele>4.0</ele>
        <time>2019-06-27T08:22:49Z</time>
      </trkpt>
    </trkseg>
  </trk>
</gpx>
